<?xml version='1.0' encoding='UTF-8'?><gpx version="1.1" creator="JPX - https://github.com/jenetics/jpx" xmlns="http://www.topografix.com/GPX/1/1"><trk><trkseg><trkpt lat="43.6441343" lon="11.4495587"><ele>133.85714285714286</ele><time>2026-04-28T15:44:02.418Z</time></trkpt><trkpt lat="43.6441351" lon="11.4496464"><ele>132.7142857142857</ele><time>2026-04-28T15:45:15.417Z</time></trkpt><trkpt lat="43.6440328" lon="11.4496921"><ele>131.57142857142856</ele><time>2026-04-28T15:45:17.417Z</time></trkpt><trkpt lat="43.6439664" lon="11.4497169"><ele>130.42857142857142</ele><time>2026-04-28T15:45:18.417Z</time></trkpt><trkpt lat="43.6438954" lon="11.4497278"><ele>129.28571428571428</ele><time>2026-04-28T15:45:19.417Z</time></trkpt><trkpt lat="43.64383" lon="11.4497341"><ele>128.14285714285714</ele><time>2026-04-28T15:45:20.417Z</time></trkpt><trkpt lat="43.6437632" lon="11.4497301"><ele>127.0</ele><time>2026-04-28T15:45:21.417Z</time></trkpt><trkpt lat="43.6436938" lon="11.4498504"><ele>127.0</ele><time>2026-04-28T15:45:23.417Z</time></trkpt><trkpt lat="43.6436848" lon="11.4499628"><ele>126.99999999999999</ele><time>2026-04-28T15:45:24.417Z</time></trkpt><trkpt lat="43.6435696" lon="11.4500256"><ele>126.99999999999999</ele><time>2026-04-28T15:45:26.417Z</time></trkpt><trkpt lat="43.6434983" lon="11.4500294"><ele>127.0</ele><time>2026-04-28T15:45:27.417Z</time></trkpt><trkpt lat="43.6434211" lon="11.4500304"><ele>127.0</ele><time>2026-04-28T15:45:28.417Z</time></trkpt><trkpt lat="43.6433293" lon="11.4500922"><ele>127.0</ele><time>2026-04-28T15:45:30.417Z</time></trkpt><trkpt lat="43.6433322" lon="11.450208"><ele>126.99999999999999</ele><time>2026-04-28T15:45:32.417Z</time></trkpt><trkpt lat="43.643452" lon="11.4502382"><ele>126.99999999999999</ele><time>2026-04-28T15:45:34.417Z</time></trkpt><trkpt lat="43.6435307" lon="11.4502244"><ele>127.0</ele><time>2026-04-28T15:45:35.417Z</time></trkpt><trkpt lat="43.6436247" lon="11.4502007"><ele>127.0</ele><time>2026-04-28T15:45:36.417Z</time></trkpt><trkpt lat="43.6437255" lon="11.4501868"><ele>127.0</ele><time>2026-04-28T15:45:37.417Z</time></trkpt><trkpt lat="43.6438273" lon="11.4501649"><ele>126.99999999999999</ele><time>2026-04-28T15:45:38.417Z</time></trkpt><trkpt lat="43.6439422" lon="11.4501471"><ele>126.99999999999999</ele><time>2026-04-28T15:45:39.417Z</time></trkpt><trkpt lat="43.644058" lon="11.4501397"><ele>127.0</ele><time>2026-04-28T15:45:40.417Z</time></trkpt><trkpt lat="43.6441524" lon="11.4501288"><ele>127.0</ele><time>2026-04-28T15:45:41.417Z</time></trkpt><trkpt lat="43.6442443" lon="11.4501266"><ele>127.00000000000001</ele><time>2026-04-28T15:45:42.417Z</time></trkpt><trkpt lat="43.6443099" lon="11.4501188"><ele>127.0</ele><time>2026-04-28T15:45:43.417Z</time></trkpt><trkpt lat="43.6443906" lon="11.4501466"><ele>127.0</ele><time>2026-04-28T15:45:45.417Z</time></trkpt><trkpt lat="43.6444547" lon="11.4502795"><ele>127.0</ele><time>2026-04-28T15:45:47.417Z</time></trkpt><trkpt lat="43.6444659" lon="11.4503765"><ele>127.00000000000001</ele><time>2026-04-28T15:45:48.417Z</time></trkpt><trkpt lat="43.6444922" lon="11.4504804"><ele>127.0</ele><time>2026-04-28T15:45:49.418Z</time></trkpt><trkpt lat="43.6445135" lon="11.4505678"><ele>127.00000000000001</ele><time>2026-04-28T15:45:50.417Z</time></trkpt><trkpt lat="43.6445501" lon="11.4506917"><ele>127.0</ele><time>2026-04-28T15:45:52.417Z</time></trkpt><trkpt lat="43.6446228" lon="11.4506503"><ele>127.0</ele><time>2026-04-28T15:45:54.417Z</time></trkpt><trkpt lat="43.6446144" lon="11.4505012"><ele>127.0</ele><time>2026-04-28T15:45:56.417Z</time></trkpt><trkpt lat="43.644608" lon="11.4504118"><ele>127.00000000000001</ele><time>2026-04-28T15:45:57.417Z</time></trkpt><trkpt lat="43.6446214" lon="11.4503266"><ele>127.0</ele><time>2026-04-28T15:45:58.417Z</time></trkpt><trkpt lat="43.6447312" lon="11.4502496"><ele>127.0</ele><time>2026-04-28T15:46:00.417Z</time></trkpt><trkpt lat="43.6448181" lon="11.4502467"><ele>126.99999999999999</ele><time>2026-04-28T15:46:01.417Z</time></trkpt><trkpt lat="43.64491" lon="11.4502401"><ele>126.99999999999999</ele><time>2026-04-28T15:46:02.417Z</time></trkpt><trkpt lat="43.6450009" lon="11.4502391"><ele>127.0</ele><time>2026-04-28T15:46:03.417Z</time></trkpt><trkpt lat="43.645093" lon="11.4502408"><ele>127.0</ele><time>2026-04-28T15:46:04.417Z</time></trkpt><trkpt lat="43.6451811" lon="11.4502406"><ele>127.00000000000001</ele><time>2026-04-28T15:46:05.417Z</time></trkpt><trkpt lat="43.6452659" lon="11.4502412"><ele>127.0</ele><time>2026-04-28T15:46:06.417Z</time></trkpt><trkpt lat="43.6453459" lon="11.4502465"><ele>127.0</ele><time>2026-04-28T15:46:07.417Z</time></trkpt><trkpt lat="43.6454156" lon="11.4502561"><ele>127.0</ele><time>2026-04-28T15:46:08.417Z</time></trkpt><trkpt lat="43.6455055" lon="11.450264"><ele>127.00000000000001</ele><time>2026-04-28T15:46:10.417Z</time></trkpt><trkpt lat="43.6455492" lon="11.4501972"><ele>127.0</ele><time>2026-04-28T15:46:12.417Z</time></trkpt><trkpt lat="43.6455437" lon="11.450068"><ele>127.16666666666667</ele><time>2026-04-28T15:46:14.417Z</time></trkpt><trkpt lat="43.6455117" lon="11.4498944"><ele>127.33333333333334</ele><time>2026-04-28T15:46:16.417Z</time></trkpt><trkpt lat="43.6454935" lon="11.4498044"><ele>127.5</ele><time>2026-04-28T15:46:17.417Z</time></trkpt><trkpt lat="43.6454759" lon="11.449712"><ele>127.66666666666666</ele><time>2026-04-28T15:46:18.417Z</time></trkpt><trkpt lat="43.6454573" lon="11.4496173"><ele>127.83333333333333</ele><time>2026-04-28T15:46:19.417Z</time></trkpt><trkpt lat="43.6454412" lon="11.4495191"><ele>128.0</ele><time>2026-04-28T15:46:20.417Z</time></trkpt><trkpt lat="43.6454243" lon="11.4494224"><ele>129.66666666666666</ele><time>2026-04-28T15:46:21.417Z</time></trkpt><trkpt lat="43.6454067" lon="11.4493301"><ele>131.33333333333331</ele><time>2026-04-28T15:46:22.417Z</time></trkpt><trkpt lat="43.6454077" lon="11.449168"><ele>133.0</ele><time>2026-04-28T15:46:24.417Z</time></trkpt><trkpt lat="43.6454435" lon="11.4490837"><ele>134.66666666666666</ele><time>2026-04-28T15:46:25.417Z</time></trkpt><trkpt lat="43.6454983" lon="11.4490073"><ele>136.33333333333334</ele><time>2026-04-28T15:46:26.417Z</time></trkpt><trkpt lat="43.6455646" lon="11.4489195"><ele>138.0</ele><time>2026-04-28T15:46:27.417Z</time></trkpt><trkpt lat="43.6456435" lon="11.4488335"><ele>140.4</ele><time>2026-04-28T15:46:28.417Z</time></trkpt><trkpt lat="43.6457156" lon="11.4487446"><ele>142.8</ele><time>2026-04-28T15:46:29.417Z</time></trkpt><trkpt lat="43.6457901" lon="11.4486622"><ele>145.2</ele><time>2026-04-28T15:46:30.417Z</time></trkpt><trkpt lat="43.6458645" lon="11.4485877"><ele>147.6</ele><time>2026-04-28T15:46:31.417Z</time></trkpt><trkpt lat="43.6459424" lon="11.4485252"><ele>150.0</ele><time>2026-04-28T15:46:32.417Z</time></trkpt><trkpt lat="43.6460276" lon="11.4485108"><ele>150.0</ele><time>2026-04-28T15:46:33.418Z</time></trkpt><trkpt lat="43.6461013" lon="11.4485192"><ele>150.0</ele><time>2026-04-28T15:46:34.417Z</time></trkpt><trkpt lat="43.6461661" lon="11.4485596"><ele>150.0</ele><time>2026-04-28T15:46:35.417Z</time></trkpt><trkpt lat="43.6462275" lon="11.4486101"><ele>150.0</ele><time>2026-04-28T15:46:36.417Z</time></trkpt><trkpt lat="43.6462839" lon="11.4486678"><ele>150.0</ele><time>2026-04-28T15:46:37.417Z</time></trkpt><trkpt lat="43.6463491" lon="11.4486985"><ele>150.0</ele><time>2026-04-28T15:46:38.417Z</time></trkpt><trkpt lat="43.6464679" lon="11.4486712"><ele>150.33333333333334</ele><time>2026-04-28T15:46:40.417Z</time></trkpt><trkpt lat="43.6465226" lon="11.4486061"><ele>150.66666666666666</ele><time>2026-04-28T15:46:41.417Z</time></trkpt><trkpt lat="43.6465735" lon="11.4485134"><ele>151.0</ele><time>2026-04-28T15:46:42.417Z</time></trkpt><trkpt lat="43.6466327" lon="11.4484209"><ele>151.33333333333331</ele><time>2026-04-28T15:46:43.417Z</time></trkpt><trkpt lat="43.6466998" lon="11.4483257"><ele>151.66666666666666</ele><time>2026-04-28T15:46:44.417Z</time></trkpt><trkpt lat="43.6467581" lon="11.4482252"><ele>152.0</ele><time>2026-04-28T15:46:45.417Z</time></trkpt><trkpt lat="43.6468024" lon="11.4481262"><ele>152.0</ele><time>2026-04-28T15:46:46.417Z</time></trkpt><trkpt lat="43.646834" lon="11.4480214"><ele>152.0</ele><time>2026-04-28T15:46:47.417Z</time></trkpt><trkpt lat="43.6468528" lon="11.4479043"><ele>152.0</ele><time>2026-04-28T15:46:48.417Z</time></trkpt><trkpt lat="43.6468507" lon="11.4477845"><ele>152.0</ele><time>2026-04-28T15:46:49.417Z</time></trkpt><trkpt lat="43.646832" lon="11.4476601"><ele>152.0</ele><time>2026-04-28T15:46:50.417Z</time></trkpt><trkpt lat="43.6468377" lon="11.4475324"><ele>152.0</ele><time>2026-04-28T15:46:51.417Z</time></trkpt><trkpt lat="43.6468398" lon="11.447419"><ele>154.0</ele><time>2026-04-28T15:46:52.417Z</time></trkpt><trkpt lat="43.6468302" lon="11.4473075"><ele>156.0</ele><time>2026-04-28T15:46:53.417Z</time></trkpt><trkpt lat="43.6467983" lon="11.4471999"><ele>158.0</ele><time>2026-04-28T15:46:54.417Z</time></trkpt><trkpt lat="43.6467497" lon="11.4470908"><ele>160.0</ele><time>2026-04-28T15:46:55.417Z</time></trkpt><trkpt lat="43.6466923" lon="11.4469829"><ele>162.0</ele><time>2026-04-28T15:46:56.418Z</time></trkpt><trkpt lat="43.6466238" lon="11.4468926"><ele>162.6</ele><time>2026-04-28T15:46:57.417Z</time></trkpt><trkpt lat="43.6465433" lon="11.4468171"><ele>163.2</ele><time>2026-04-28T15:46:58.417Z</time></trkpt><trkpt lat="43.6464601" lon="11.4467411"><ele>163.8</ele><time>2026-04-28T15:46:59.418Z</time></trkpt><trkpt lat="43.646379" lon="11.4466624"><ele>164.4</ele><time>2026-04-28T15:47:00.417Z</time></trkpt><trkpt lat="43.6463049" lon="11.4465942"><ele>165.0</ele><time>2026-04-28T15:47:01.418Z</time></trkpt><trkpt lat="43.6462284" lon="11.4465265"><ele>165.0</ele><time>2026-04-28T15:47:02.417Z</time></trkpt><trkpt lat="43.6461462" lon="11.4464554"><ele>165.0</ele><time>2026-04-28T15:47:03.417Z</time></trkpt><trkpt lat="43.6460755" lon="11.4463804"><ele>165.0</ele><time>2026-04-28T15:47:04.417Z</time></trkpt><trkpt lat="43.6460137" lon="11.4462904"><ele>165.0</ele><time>2026-04-28T15:47:05.417Z</time></trkpt><trkpt lat="43.6459569" lon="11.4461795"><ele>165.0</ele><time>2026-04-28T15:47:06.417Z</time></trkpt><trkpt lat="43.6458973" lon="11.4460708"><ele>168.33333333333334</ele><time>2026-04-28T15:47:07.417Z</time></trkpt><trkpt lat="43.6458504" lon="11.4459665"><ele>171.66666666666666</ele><time>2026-04-28T15:47:08.417Z</time></trkpt><trkpt lat="43.6458279" lon="11.4458721"><ele>175.0</ele><time>2026-04-28T15:47:09.417Z</time></trkpt><trkpt lat="43.6458226" lon="11.4457765"><ele>178.33333333333331</ele><time>2026-04-28T15:47:10.417Z</time></trkpt><trkpt lat="43.6458534" lon="11.4456221"><ele>181.66666666666666</ele><time>2026-04-28T15:47:12.417Z</time></trkpt><trkpt lat="43.6458753" lon="11.445522"><ele>185.0</ele><time>2026-04-28T15:47:13.417Z</time></trkpt><trkpt lat="43.6459087" lon="11.4454237"><ele>184.4</ele><time>2026-04-28T15:47:14.417Z</time></trkpt><trkpt lat="43.6459482" lon="11.4453356"><ele>183.8</ele><time>2026-04-28T15:47:15.417Z</time></trkpt><trkpt lat="43.6460125" lon="11.445262"><ele>183.2</ele><time>2026-04-28T15:47:16.417Z</time></trkpt><trkpt lat="43.6460963" lon="11.445201"><ele>182.6</ele><time>2026-04-28T15:47:17.417Z</time></trkpt><trkpt lat="43.6461884" lon="11.4451482"><ele>182.0</ele><time>2026-04-28T15:47:18.417Z</time></trkpt><trkpt lat="43.646286" lon="11.4451222"><ele>182.0</ele><time>2026-04-28T15:47:19.417Z</time></trkpt><trkpt lat="43.646388" lon="11.4450999"><ele>182.0</ele><time>2026-04-28T15:47:20.417Z</time></trkpt><trkpt lat="43.6464821" lon="11.4450761"><ele>182.0</ele><time>2026-04-28T15:47:21.417Z</time></trkpt><trkpt lat="43.646546" lon="11.4450364"><ele>182.0</ele><time>2026-04-28T15:47:22.417Z</time></trkpt><trkpt lat="43.6465956" lon="11.4449072"><ele>182.0</ele><time>2026-04-28T15:47:24.417Z</time></trkpt><trkpt lat="43.6465944" lon="11.4447409"><ele>182.0</ele><time>2026-04-28T15:47:26.417Z</time></trkpt><trkpt lat="43.646564" lon="11.444657"><ele>182.0</ele><time>2026-04-28T15:47:27.418Z</time></trkpt><trkpt lat="43.6464721" lon="11.4445445"><ele>182.0</ele><time>2026-04-28T15:47:29.417Z</time></trkpt><trkpt lat="43.6464067" lon="11.4445266"><ele>182.0</ele><time>2026-04-28T15:47:30.417Z</time></trkpt><trkpt lat="43.6463301" lon="11.4445468"><ele>182.0</ele><time>2026-04-28T15:47:31.417Z</time></trkpt><trkpt lat="43.6462428" lon="11.4445886"><ele>182.0</ele><time>2026-04-28T15:47:32.417Z</time></trkpt><trkpt lat="43.646157" lon="11.4446438"><ele>184.0</ele><time>2026-04-28T15:47:33.417Z</time></trkpt><trkpt lat="43.6460796" lon="11.444709"><ele>186.0</ele><time>2026-04-28T15:47:34.417Z</time></trkpt><trkpt lat="43.6460023" lon="11.4447719"><ele>188.0</ele><time>2026-04-28T15:47:35.417Z</time></trkpt><trkpt lat="43.6459218" lon="11.4448089"><ele>190.0</ele><time>2026-04-28T15:47:36.417Z</time></trkpt><trkpt lat="43.6458363" lon="11.4448138"><ele>192.00000000000003</ele><time>2026-04-28T15:47:37.417Z</time></trkpt><trkpt lat="43.6457453" lon="11.4448051"><ele>194.0</ele><time>2026-04-28T15:47:38.417Z</time></trkpt><trkpt lat="43.645652" lon="11.444768"><ele>194.0</ele><time>2026-04-28T15:47:39.417Z</time></trkpt><trkpt lat="43.6455598" lon="11.4447233"><ele>194.0</ele><time>2026-04-28T15:47:40.417Z</time></trkpt><trkpt lat="43.6454561" lon="11.4446891"><ele>194.0</ele><time>2026-04-28T15:47:41.417Z</time></trkpt><trkpt lat="43.6453548" lon="11.4446602"><ele>194.0</ele><time>2026-04-28T15:47:42.417Z</time></trkpt><trkpt lat="43.6452616" lon="11.444644"><ele>194.0</ele><time>2026-04-28T15:47:43.417Z</time></trkpt><trkpt lat="43.6451542" lon="11.4446404"><ele>196.2</ele><time>2026-04-28T15:47:44.417Z</time></trkpt><trkpt lat="43.6450306" lon="11.4446491"><ele>198.39999999999998</ele><time>2026-04-28T15:47:45.417Z</time></trkpt><trkpt lat="43.6449208" lon="11.444666"><ele>200.6</ele><time>2026-04-28T15:47:46.417Z</time></trkpt><trkpt lat="43.6448104" lon="11.4446829"><ele>202.8</ele><time>2026-04-28T15:47:47.418Z</time></trkpt><trkpt lat="43.6447119" lon="11.4447048"><ele>205.0</ele><time>2026-04-28T15:47:48.417Z</time></trkpt><trkpt lat="43.6446334" lon="11.4447217"><ele>204.99999999999997</ele><time>2026-04-28T15:47:49.417Z</time></trkpt><trkpt lat="43.6445699" lon="11.4447476"><ele>205.0</ele><time>2026-04-28T15:47:50.417Z</time></trkpt><trkpt lat="43.644501" lon="11.4447566"><ele>205.0</ele><time>2026-04-28T15:47:51.417Z</time></trkpt><trkpt lat="43.6444286" lon="11.4447667"><ele>205.0</ele><time>2026-04-28T15:47:52.418Z</time></trkpt><trkpt lat="43.6443452" lon="11.4447375"><ele>204.99999999999997</ele><time>2026-04-28T15:47:53.418Z</time></trkpt><trkpt lat="43.6442632" lon="11.4446875"><ele>205.0</ele><time>2026-04-28T15:47:54.417Z</time></trkpt><trkpt lat="43.6441827" lon="11.4446429"><ele>207.66666666666666</ele><time>2026-04-28T15:47:55.417Z</time></trkpt><trkpt lat="43.6441218" lon="11.4446098"><ele>210.33333333333331</ele><time>2026-04-28T15:47:56.417Z</time></trkpt><trkpt lat="43.6440475" lon="11.4445456"><ele>213.0</ele><time>2026-04-28T15:47:58.417Z</time></trkpt><trkpt lat="43.6440373" lon="11.4444538"><ele>215.66666666666669</ele><time>2026-04-28T15:48:00.417Z</time></trkpt><trkpt lat="43.6440519" lon="11.4443535"><ele>218.33333333333334</ele><time>2026-04-28T15:48:02.417Z</time></trkpt><trkpt lat="43.6440435" lon="11.4442558"><ele>221.0</ele><time>2026-04-28T15:48:04.418Z</time></trkpt><trkpt lat="43.6440193" lon="11.4441102"><ele>221.0</ele><time>2026-04-28T15:48:06.417Z</time></trkpt><trkpt lat="43.6440117" lon="11.4440234"><ele>221.00000000000003</ele><time>2026-04-28T15:48:07.417Z</time></trkpt><trkpt lat="43.6439954" lon="11.4438804"><ele>221.00000000000003</ele><time>2026-04-28T15:48:09.417Z</time></trkpt><trkpt lat="43.6439792" lon="11.443726"><ele>221.0</ele><time>2026-04-28T15:48:11.417Z</time></trkpt><trkpt lat="43.6439717" lon="11.4435774"><ele>221.0</ele><time>2026-04-28T15:48:13.417Z</time></trkpt><trkpt lat="43.6439593" lon="11.4434472"><ele>223.4</ele><time>2026-04-28T15:48:15.417Z</time></trkpt><trkpt lat="43.6439451" lon="11.4433086"><ele>225.8</ele><time>2026-04-28T15:48:17.417Z</time></trkpt><trkpt lat="43.6439453" lon="11.4431952"><ele>228.20000000000002</ele><time>2026-04-28T15:48:19.418Z</time></trkpt><trkpt lat="43.6439452" lon="11.4430766"><ele>230.60000000000002</ele><time>2026-04-28T15:48:21.417Z</time></trkpt><trkpt lat="43.6439457" lon="11.4429334"><ele>233.0</ele><time>2026-04-28T15:48:23.417Z</time></trkpt><trkpt lat="43.6439337" lon="11.4427941"><ele>233.00000000000003</ele><time>2026-04-28T15:48:25.417Z</time></trkpt><trkpt lat="43.6438959" lon="11.4426777"><ele>233.0</ele><time>2026-04-28T15:48:27.417Z</time></trkpt><trkpt lat="43.6438169" lon="11.442571"><ele>233.0</ele><time>2026-04-28T15:48:29.417Z</time></trkpt><trkpt lat="43.6437609" lon="11.4425088"><ele>233.0</ele><time>2026-04-28T15:48:30.417Z</time></trkpt><trkpt lat="43.6437103" lon="11.4424453"><ele>233.00000000000003</ele><time>2026-04-28T15:48:31.417Z</time></trkpt><trkpt lat="43.6436567" lon="11.4423843"><ele>233.0</ele><time>2026-04-28T15:48:32.417Z</time></trkpt><trkpt lat="43.6435989" lon="11.4423249"><ele>232.60000000000002</ele><time>2026-04-28T15:48:33.417Z</time></trkpt><trkpt lat="43.6435015" lon="11.4422234"><ele>232.20000000000002</ele><time>2026-04-28T15:48:35.417Z</time></trkpt><trkpt lat="43.6434062" lon="11.442113"><ele>231.8</ele><time>2026-04-28T15:48:37.417Z</time></trkpt><trkpt lat="43.6433537" lon="11.4420633"><ele>231.4</ele><time>2026-04-28T15:48:38.417Z</time></trkpt><trkpt lat="43.6432582" lon="11.4419697"><ele>231.0</ele><time>2026-04-28T15:48:40.418Z</time></trkpt><trkpt lat="43.6432087" lon="11.4419123"><ele>231.0</ele><time>2026-04-28T15:48:41.417Z</time></trkpt><trkpt lat="43.6431567" lon="11.4418455"><ele>231.0</ele><time>2026-04-28T15:48:42.417Z</time></trkpt><trkpt lat="43.6431106" lon="11.4417699"><ele>231.0</ele><time>2026-04-28T15:48:43.417Z</time></trkpt><trkpt lat="43.6430621" lon="11.4417026"><ele>231.0</ele><time>2026-04-28T15:48:44.417Z</time></trkpt><trkpt lat="43.6430103" lon="11.4416378"><ele>231.0</ele><time>2026-04-28T15:48:45.417Z</time></trkpt><trkpt lat="43.6429582" lon="11.4415825"><ele>231.0</ele><time>2026-04-28T15:48:46.417Z</time></trkpt><trkpt lat="43.6429047" lon="11.441505"><ele>231.0</ele><time>2026-04-28T15:48:47.417Z</time></trkpt><trkpt lat="43.6428423" lon="11.4414081"><ele>231.33333333333334</ele><time>2026-04-28T15:48:48.417Z</time></trkpt><trkpt lat="43.642783" lon="11.4413232"><ele>231.66666666666669</ele><time>2026-04-28T15:48:49.417Z</time></trkpt><trkpt lat="43.6427242" lon="11.4412407"><ele>232.0</ele><time>2026-04-28T15:48:50.417Z</time></trkpt><trkpt lat="43.6426642" lon="11.4411679"><ele>232.33333333333334</ele><time>2026-04-28T15:48:51.417Z</time></trkpt><trkpt lat="43.6425988" lon="11.4411016"><ele>232.66666666666669</ele><time>2026-04-28T15:48:52.417Z</time></trkpt><trkpt lat="43.6425276" lon="11.4410435"><ele>233.0</ele><time>2026-04-28T15:48:53.417Z</time></trkpt><trkpt lat="43.6424575" lon="11.4409917"><ele>233.00000000000003</ele><time>2026-04-28T15:48:54.417Z</time></trkpt><trkpt lat="43.6423829" lon="11.4409448"><ele>233.0</ele><time>2026-04-28T15:48:55.417Z</time></trkpt><trkpt lat="43.642304" lon="11.4408914"><ele>233.0</ele><time>2026-04-28T15:48:56.417Z</time></trkpt><trkpt lat="43.6422294" lon="11.4408422"><ele>233.0</ele><time>2026-04-28T15:48:57.417Z</time></trkpt><trkpt lat="43.6421576" lon="11.4407882"><ele>233.00000000000003</ele><time>2026-04-28T15:48:58.417Z</time></trkpt><trkpt lat="43.6420939" lon="11.4407284"><ele>233.0</ele><time>2026-04-28T15:48:59.417Z</time></trkpt><trkpt lat="43.6420204" lon="11.4406659"><ele>233.33333333333334</ele><time>2026-04-28T15:49:00.417Z</time></trkpt><trkpt lat="43.6419426" lon="11.4406012"><ele>233.66666666666669</ele><time>2026-04-28T15:49:01.417Z</time></trkpt><trkpt lat="43.6418675" lon="11.4405352"><ele>234.0</ele><time>2026-04-28T15:49:02.417Z</time></trkpt><trkpt lat="43.6417831" lon="11.4404624"><ele>234.33333333333331</ele><time>2026-04-28T15:49:03.417Z</time></trkpt><trkpt lat="43.6417051" lon="11.4404135"><ele>234.66666666666666</ele><time>2026-04-28T15:49:04.418Z</time></trkpt><trkpt lat="43.6416315" lon="11.4403788"><ele>235.0</ele><time>2026-04-28T15:49:05.417Z</time></trkpt><trkpt lat="43.6415715" lon="11.4403524"><ele>236.4</ele><time>2026-04-28T15:49:06.417Z</time></trkpt><trkpt lat="43.641506" lon="11.4403399"><ele>237.8</ele><time>2026-04-28T15:49:07.417Z</time></trkpt><trkpt lat="43.6414357" lon="11.4403251"><ele>239.2</ele><time>2026-04-28T15:49:08.418Z</time></trkpt><trkpt lat="43.6413229" lon="11.4402904"><ele>240.6</ele><time>2026-04-28T15:49:10.417Z</time></trkpt><trkpt lat="43.6412685" lon="11.440236"><ele>242.0</ele><time>2026-04-28T15:49:11.417Z</time></trkpt><trkpt lat="43.6411719" lon="11.4401128"><ele>242.42857142857142</ele><time>2026-04-28T15:49:13.417Z</time></trkpt><trkpt lat="43.6411284" lon="11.4400457"><ele>242.85714285714283</ele><time>2026-04-28T15:49:14.417Z</time></trkpt><trkpt lat="43.6410727" lon="11.4399847"><ele>243.28571428571428</ele><time>2026-04-28T15:49:15.417Z</time></trkpt><trkpt lat="43.6410195" lon="11.439909"><ele>243.71428571428572</ele><time>2026-04-28T15:49:16.417Z</time></trkpt><trkpt lat="43.6409663" lon="11.4398352"><ele>244.14285714285714</ele><time>2026-04-28T15:49:17.418Z</time></trkpt><trkpt lat="43.6409089" lon="11.4397747"><ele>244.57142857142856</ele><time>2026-04-28T15:49:18.417Z</time></trkpt><trkpt lat="43.6408447" lon="11.4397168"><ele>245.0</ele><time>2026-04-28T15:49:19.417Z</time></trkpt><trkpt lat="43.6407841" lon="11.439681"><ele>245.0</ele><time>2026-04-28T15:49:20.417Z</time></trkpt><trkpt lat="43.6407186" lon="11.4396768"><ele>245.0</ele><time>2026-04-28T15:49:21.417Z</time></trkpt><trkpt lat="43.6406354" lon="11.4396861"><ele>245.0</ele><time>2026-04-28T15:49:22.418Z</time></trkpt><trkpt lat="43.6405612" lon="11.4396879"><ele>245.0</ele><time>2026-04-28T15:49:23.417Z</time></trkpt><trkpt lat="43.6404588" lon="11.4396827"><ele>245.0</ele><time>2026-04-28T15:49:25.417Z</time></trkpt><trkpt lat="43.6403378" lon="11.43964"><ele>245.83333333333334</ele><time>2026-04-28T15:49:27.417Z</time></trkpt><trkpt lat="43.6402722" lon="11.4396251"><ele>246.66666666666669</ele><time>2026-04-28T15:49:28.417Z</time></trkpt><trkpt lat="43.6401987" lon="11.4396099"><ele>247.5</ele><time>2026-04-28T15:49:29.417Z</time></trkpt><trkpt lat="43.6401065" lon="11.4396344"><ele>248.33333333333331</ele><time>2026-04-28T15:49:30.417Z</time></trkpt><trkpt lat="43.6399996" lon="11.439661"><ele>249.16666666666666</ele><time>2026-04-28T15:49:31.417Z</time></trkpt><trkpt lat="43.6399045" lon="11.4396738"><ele>250.0</ele><time>2026-04-28T15:49:32.417Z</time></trkpt><trkpt lat="43.6397977" lon="11.4396716"><ele>250.0</ele><time>2026-04-28T15:49:33.417Z</time></trkpt><trkpt lat="43.6396976" lon="11.4396556"><ele>250.0</ele><time>2026-04-28T15:49:34.417Z</time></trkpt><trkpt lat="43.6396003" lon="11.4396058"><ele>250.0</ele><time>2026-04-28T15:49:35.417Z</time></trkpt><trkpt lat="43.6395025" lon="11.4395461"><ele>250.0</ele><time>2026-04-28T15:49:36.417Z</time></trkpt><trkpt lat="43.6394009" lon="11.4394773"><ele>250.0</ele><time>2026-04-28T15:49:37.417Z</time></trkpt><trkpt lat="43.6393164" lon="11.4394075"><ele>251.16666666666666</ele><time>2026-04-28T15:49:38.417Z</time></trkpt><trkpt lat="43.6392659" lon="11.4393252"><ele>252.33333333333331</ele><time>2026-04-28T15:49:39.418Z</time></trkpt><trkpt lat="43.6392336" lon="11.4392408"><ele>253.5</ele><time>2026-04-28T15:49:40.417Z</time></trkpt><trkpt lat="43.6391955" lon="11.439159"><ele>254.66666666666669</ele><time>2026-04-28T15:49:41.417Z</time></trkpt><trkpt lat="43.6391686" lon="11.4390558"><ele>255.83333333333334</ele><time>2026-04-28T15:49:42.417Z</time></trkpt><trkpt lat="43.6391387" lon="11.4389583"><ele>257.0</ele><time>2026-04-28T15:49:43.417Z</time></trkpt><trkpt lat="43.6390917" lon="11.4388275"><ele>257.5</ele><time>2026-04-28T15:49:45.417Z</time></trkpt><trkpt lat="43.6390399" lon="11.4387593"><ele>258.0</ele><time>2026-04-28T15:49:47.417Z</time></trkpt><trkpt lat="43.6389479" lon="11.4386835"><ele>258.5</ele><time>2026-04-28T15:49:49.418Z</time></trkpt><trkpt lat="43.6388844" lon="11.4386364"><ele>259.0</ele><time>2026-04-28T15:49:50.417Z</time></trkpt><trkpt lat="43.6388276" lon="11.4385755"><ele>259.5</ele><time>2026-04-28T15:49:51.417Z</time></trkpt><trkpt lat="43.6387666" lon="11.43852"><ele>260.0</ele><time>2026-04-28T15:49:52.417Z</time></trkpt><trkpt lat="43.6386963" lon="11.4384786"><ele>259.2</ele><time>2026-04-28T15:49:53.417Z</time></trkpt><trkpt lat="43.6386079" lon="11.4384901"><ele>258.4</ele><time>2026-04-28T15:49:54.417Z</time></trkpt><trkpt lat="43.6385257" lon="11.438511"><ele>257.6</ele><time>2026-04-28T15:49:55.417Z</time></trkpt><trkpt lat="43.6384514" lon="11.4385205"><ele>256.8</ele><time>2026-04-28T15:49:56.417Z</time></trkpt><trkpt lat="43.6383579" lon="11.4384715"><ele>256.0</ele><time>2026-04-28T15:49:58.417Z</time></trkpt><trkpt lat="43.6382982" lon="11.4383218"><ele>256.0</ele><time>2026-04-28T15:50:00.417Z</time></trkpt><trkpt lat="43.6382647" lon="11.438222"><ele>256.0</ele><time>2026-04-28T15:50:01.417Z</time></trkpt><trkpt lat="43.6382184" lon="11.438127"><ele>256.0</ele><time>2026-04-28T15:50:02.417Z</time></trkpt><trkpt lat="43.6381588" lon="11.4380332"><ele>256.0</ele><time>2026-04-28T15:50:03.417Z</time></trkpt><trkpt lat="43.638071" lon="11.437942"><ele>256.0</ele><time>2026-04-28T15:50:04.417Z</time></trkpt><trkpt lat="43.6379909" lon="11.4378649"><ele>257.0</ele><time>2026-04-28T15:50:05.417Z</time></trkpt><trkpt lat="43.6378931" lon="11.4377891"><ele>258.0</ele><time>2026-04-28T15:50:06.417Z</time></trkpt><trkpt lat="43.637794" lon="11.4377215"><ele>259.0</ele><time>2026-04-28T15:50:07.417Z</time></trkpt><trkpt lat="43.637706" lon="11.4376479"><ele>260.0</ele><time>2026-04-28T15:50:08.417Z</time></trkpt><trkpt lat="43.6376251" lon="11.4375653"><ele>261.0</ele><time>2026-04-28T15:50:09.417Z</time></trkpt><trkpt lat="43.6375564" lon="11.4374869"><ele>261.0</ele><time>2026-04-28T15:50:10.418Z</time></trkpt><trkpt lat="43.6375004" lon="11.4374196"><ele>261.0</ele><time>2026-04-28T15:50:11.417Z</time></trkpt><trkpt lat="43.637432" lon="11.4373605"><ele>261.0</ele><time>2026-04-28T15:50:13.417Z</time></trkpt><trkpt lat="43.6374387" lon="11.4372311"><ele>261.0</ele><time>2026-04-28T15:50:15.417Z</time></trkpt><trkpt lat="43.6374756" lon="11.4371474"><ele>261.0</ele><time>2026-04-28T15:50:16.417Z</time></trkpt><trkpt lat="43.6375181" lon="11.4370477"><ele>261.0</ele><time>2026-04-28T15:50:17.417Z</time></trkpt><trkpt lat="43.6375646" lon="11.4369252"><ele>261.5</ele><time>2026-04-28T15:50:18.417Z</time></trkpt><trkpt lat="43.6376153" lon="11.4367729"><ele>262.0</ele><time>2026-04-28T15:50:19.418Z</time></trkpt><trkpt lat="43.6376682" lon="11.4366294"><ele>262.5</ele><time>2026-04-28T15:50:20.418Z</time></trkpt><trkpt lat="43.6377305" lon="11.4364763"><ele>263.0</ele><time>2026-04-28T15:50:21.417Z</time></trkpt><trkpt lat="43.6377941" lon="11.4363031"><ele>263.6666666666667</ele><time>2026-04-28T15:50:22.417Z</time></trkpt><trkpt lat="43.637861" lon="11.4361181"><ele>264.3333333333333</ele><time>2026-04-28T15:50:23.417Z</time></trkpt><trkpt lat="43.6379313" lon="11.4359295"><ele>265.0</ele><time>2026-04-28T15:50:24.417Z</time></trkpt><trkpt lat="43.6380034" lon="11.4357373"><ele>265.0</ele><time>2026-04-28T15:50:25.417Z</time></trkpt><trkpt lat="43.6380778" lon="11.4355406"><ele>265.0</ele><time>2026-04-28T15:50:26.417Z</time></trkpt><trkpt lat="43.6381538" lon="11.4353368"><ele>265.0</ele><time>2026-04-28T15:50:27.417Z</time></trkpt><trkpt lat="43.6382261" lon="11.4351257"><ele>264.66666666666663</ele><time>2026-04-28T15:50:28.417Z</time></trkpt><trkpt lat="43.6383009" lon="11.4349135"><ele>264.3333333333333</ele><time>2026-04-28T15:50:29.417Z</time></trkpt><trkpt lat="43.6383787" lon="11.4347005"><ele>264.0</ele><time>2026-04-28T15:50:30.417Z</time></trkpt><trkpt lat="43.638457" lon="11.4344788"><ele>264.0</ele><time>2026-04-28T15:50:31.417Z</time></trkpt><trkpt lat="43.6385366" lon="11.4342579"><ele>264.0</ele><time>2026-04-28T15:50:32.417Z</time></trkpt><trkpt lat="43.6386128" lon="11.4340352"><ele>264.0</ele><time>2026-04-28T15:50:33.417Z</time></trkpt><trkpt lat="43.6386902" lon="11.4338189"><ele>264.6666666666667</ele><time>2026-04-28T15:50:34.417Z</time></trkpt><trkpt lat="43.6387671" lon="11.4336022"><ele>265.33333333333337</ele><time>2026-04-28T15:50:35.417Z</time></trkpt><trkpt lat="43.6388475" lon="11.4333811"><ele>266.0</ele><time>2026-04-28T15:50:36.417Z</time></trkpt><trkpt lat="43.6389247" lon="11.4331565"><ele>265.6666666666667</ele><time>2026-04-28T15:50:37.417Z</time></trkpt><trkpt lat="43.6389981" lon="11.4329255"><ele>265.3333333333333</ele><time>2026-04-28T15:50:38.417Z</time></trkpt><trkpt lat="43.6390609" lon="11.4326863"><ele>265.0</ele><time>2026-04-28T15:50:39.417Z</time></trkpt><trkpt lat="43.6391159" lon="11.4324406"><ele>265.0</ele><time>2026-04-28T15:50:40.417Z</time></trkpt><trkpt lat="43.6391575" lon="11.4321854"><ele>265.0</ele><time>2026-04-28T15:50:41.417Z</time></trkpt><trkpt lat="43.6391884" lon="11.431931"><ele>265.0</ele><time>2026-04-28T15:50:42.417Z</time></trkpt><trkpt lat="43.6392046" lon="11.4316774"><ele>265.0</ele><time>2026-04-28T15:50:43.417Z</time></trkpt><trkpt lat="43.6391987" lon="11.4314217"><ele>265.0</ele><time>2026-04-28T15:50:44.417Z</time></trkpt><trkpt lat="43.6391679" lon="11.4311695"><ele>265.0</ele><time>2026-04-28T15:50:45.417Z</time></trkpt><trkpt lat="43.6391129" lon="11.4309185"><ele>265.3333333333333</ele><time>2026-04-28T15:50:46.417Z</time></trkpt><trkpt lat="43.6390422" lon="11.4306636"><ele>265.6666666666667</ele><time>2026-04-28T15:50:47.417Z</time></trkpt><trkpt lat="43.6389769" lon="11.4304111"><ele>266.0</ele><time>2026-04-28T15:50:48.417Z</time></trkpt><trkpt lat="43.6389188" lon="11.4301597"><ele>266.0</ele><time>2026-04-28T15:50:49.418Z</time></trkpt><trkpt lat="43.638853" lon="11.4299139"><ele>266.0</ele><time>2026-04-28T15:50:50.417Z</time></trkpt><trkpt lat="43.6387872" lon="11.4296641"><ele>266.0</ele><time>2026-04-28T15:50:51.417Z</time></trkpt><trkpt lat="43.6387204" lon="11.4294137"><ele>265.6666666666667</ele><time>2026-04-28T15:50:52.418Z</time></trkpt><trkpt lat="43.6386521" lon="11.4291649"><ele>265.3333333333333</ele><time>2026-04-28T15:50:53.417Z</time></trkpt><trkpt lat="43.6385794" lon="11.4289198"><ele>265.0</ele><time>2026-04-28T15:50:54.417Z</time></trkpt><trkpt lat="43.6385027" lon="11.4286752"><ele>266.0</ele><time>2026-04-28T15:50:55.417Z</time></trkpt><trkpt lat="43.6384138" lon="11.4284367"><ele>267.0</ele><time>2026-04-28T15:50:56.417Z</time></trkpt><trkpt lat="43.6383194" lon="11.4282123"><ele>268.0</ele><time>2026-04-28T15:50:57.417Z</time></trkpt><trkpt lat="43.6382285" lon="11.4280071"><ele>268.25</ele><time>2026-04-28T15:50:58.417Z</time></trkpt><trkpt lat="43.6381419" lon="11.4278235"><ele>268.5</ele><time>2026-04-28T15:50:59.417Z</time></trkpt><trkpt lat="43.638066" lon="11.4276474"><ele>268.75</ele><time>2026-04-28T15:51:00.417Z</time></trkpt><trkpt lat="43.6379982" lon="11.4274767"><ele>269.0</ele><time>2026-04-28T15:51:01.417Z</time></trkpt><trkpt lat="43.6379321" lon="11.4273345"><ele>269.0</ele><time>2026-04-28T15:51:02.417Z</time></trkpt><trkpt lat="43.6378737" lon="11.4272145"><ele>269.0</ele><time>2026-04-28T15:51:03.417Z</time></trkpt><trkpt lat="43.6378209" lon="11.427112"><ele>269.0</ele><time>2026-04-28T15:51:04.417Z</time></trkpt><trkpt lat="43.6377681" lon="11.4270172"><ele>269.0</ele><time>2026-04-28T15:51:05.417Z</time></trkpt><trkpt lat="43.6377085" lon="11.4269215"><ele>269.0</ele><time>2026-04-28T15:51:06.417Z</time></trkpt><trkpt lat="43.6376436" lon="11.4268162"><ele>269.25</ele><time>2026-04-28T15:51:07.418Z</time></trkpt><trkpt lat="43.6375774" lon="11.4266933"><ele>269.5</ele><time>2026-04-28T15:51:08.417Z</time></trkpt><trkpt lat="43.6375074" lon="11.4265637"><ele>269.75</ele><time>2026-04-28T15:51:09.417Z</time></trkpt><trkpt lat="43.6374403" lon="11.4264257"><ele>270.0</ele><time>2026-04-28T15:51:10.417Z</time></trkpt><trkpt lat="43.6373733" lon="11.426281"><ele>271.0</ele><time>2026-04-28T15:51:11.417Z</time></trkpt><trkpt lat="43.6373019" lon="11.4261351"><ele>272.0</ele><time>2026-04-28T15:51:12.417Z</time></trkpt><trkpt lat="43.6372431" lon="11.4259835"><ele>273.0</ele><time>2026-04-28T15:51:13.417Z</time></trkpt><trkpt lat="43.6372105" lon="11.4258258"><ele>274.0</ele><time>2026-04-28T15:51:14.417Z</time></trkpt><trkpt lat="43.6371895" lon="11.4256757"><ele>274.0</ele><time>2026-04-28T15:51:15.417Z</time></trkpt><trkpt lat="43.6371722" lon="11.4255272"><ele>274.0</ele><time>2026-04-28T15:51:16.417Z</time></trkpt><trkpt lat="43.6371488" lon="11.4253969"><ele>274.0</ele><time>2026-04-28T15:51:17.417Z</time></trkpt><trkpt lat="43.6371051" lon="11.4252734"><ele>274.0</ele><time>2026-04-28T15:51:18.417Z</time></trkpt><trkpt lat="43.6370493" lon="11.4251671"><ele>274.0</ele><time>2026-04-28T15:51:19.417Z</time></trkpt><trkpt lat="43.6369584" lon="11.4251117"><ele>275.0</ele><time>2026-04-28T15:51:20.418Z</time></trkpt><trkpt lat="43.6368493" lon="11.4251034"><ele>276.0</ele><time>2026-04-28T15:51:21.417Z</time></trkpt><trkpt lat="43.6367404" lon="11.4251364"><ele>277.0</ele><time>2026-04-28T15:51:22.417Z</time></trkpt><trkpt lat="43.6366184" lon="11.4251742"><ele>278.0</ele><time>2026-04-28T15:51:23.417Z</time></trkpt><trkpt lat="43.6364806" lon="11.4252034"><ele>278.0</ele><time>2026-04-28T15:51:24.417Z</time></trkpt><trkpt lat="43.6363337" lon="11.4252141"><ele>278.0</ele><time>2026-04-28T15:51:25.417Z</time></trkpt><trkpt lat="43.6361953" lon="11.4252104"><ele>278.0</ele><time>2026-04-28T15:51:26.417Z</time></trkpt><trkpt lat="43.6360781" lon="11.4252003"><ele>278.0</ele><time>2026-04-28T15:51:27.418Z</time></trkpt><trkpt lat="43.6359726" lon="11.4251876"><ele>277.0</ele><time>2026-04-28T15:51:28.417Z</time></trkpt><trkpt lat="43.6358611" lon="11.425241"><ele>276.0</ele><time>2026-04-28T15:51:29.417Z</time></trkpt><trkpt lat="43.6357633" lon="11.4253401"><ele>275.0</ele><time>2026-04-28T15:51:30.417Z</time></trkpt><trkpt lat="43.6356686" lon="11.4254799"><ele>274.0</ele><time>2026-04-28T15:51:31.417Z</time></trkpt><trkpt lat="43.6355657" lon="11.4256262"><ele>274.0</ele><time>2026-04-28T15:51:32.417Z</time></trkpt><trkpt lat="43.6354484" lon="11.4257528"><ele>274.0</ele><time>2026-04-28T15:51:33.417Z</time></trkpt><trkpt lat="43.6353214" lon="11.4258865"><ele>274.0</ele><time>2026-04-28T15:51:34.418Z</time></trkpt><trkpt lat="43.6351987" lon="11.4260413"><ele>274.75</ele><time>2026-04-28T15:51:35.417Z</time></trkpt><trkpt lat="43.6350922" lon="11.4261911"><ele>275.5</ele><time>2026-04-28T15:51:36.417Z</time></trkpt><trkpt lat="43.6349874" lon="11.4263222"><ele>276.25</ele><time>2026-04-28T15:51:37.417Z</time></trkpt><trkpt lat="43.6348794" lon="11.426446"><ele>277.0</ele><time>2026-04-28T15:51:38.418Z</time></trkpt><trkpt lat="43.6347603" lon="11.4265567"><ele>277.0</ele><time>2026-04-28T15:51:39.417Z</time></trkpt><trkpt lat="43.6346325" lon="11.4266588"><ele>277.0</ele><time>2026-04-28T15:51:40.417Z</time></trkpt><trkpt lat="43.6345042" lon="11.4267507"><ele>277.0</ele><time>2026-04-28T15:51:41.417Z</time></trkpt><trkpt lat="43.6343777" lon="11.4268313"><ele>277.0</ele><time>2026-04-28T15:51:42.417Z</time></trkpt><trkpt lat="43.6342579" lon="11.4268711"><ele>278.75</ele><time>2026-04-28T15:51:43.417Z</time></trkpt><trkpt lat="43.6341276" lon="11.4268748"><ele>280.5</ele><time>2026-04-28T15:51:44.417Z</time></trkpt><trkpt lat="43.6340051" lon="11.4268326"><ele>282.25</ele><time>2026-04-28T15:51:45.417Z</time></trkpt><trkpt lat="43.6339174" lon="11.4267453"><ele>284.0</ele><time>2026-04-28T15:51:46.417Z</time></trkpt><trkpt lat="43.6338105" lon="11.4266536"><ele>284.0</ele><time>2026-04-28T15:51:47.417Z</time></trkpt><trkpt lat="43.6336913" lon="11.4265678"><ele>284.0</ele><time>2026-04-28T15:51:48.417Z</time></trkpt><trkpt lat="43.6335638" lon="11.4264764"><ele>284.0</ele><time>2026-04-28T15:51:49.417Z</time></trkpt><trkpt lat="43.6334368" lon="11.4263839"><ele>284.0</ele><time>2026-04-28T15:51:50.417Z</time></trkpt><trkpt lat="43.6333127" lon="11.4262998"><ele>284.0</ele><time>2026-04-28T15:51:51.417Z</time></trkpt><trkpt lat="43.6332048" lon="11.4262182"><ele>284.0</ele><time>2026-04-28T15:51:52.417Z</time></trkpt><trkpt lat="43.6331233" lon="11.4261554"><ele>284.0</ele><time>2026-04-28T15:51:53.417Z</time></trkpt><trkpt lat="43.6330418" lon="11.426138"><ele>284.0</ele><time>2026-04-28T15:51:54.417Z</time></trkpt><trkpt lat="43.6329659" lon="11.4261775"><ele>284.0</ele><time>2026-04-28T15:51:55.417Z</time></trkpt><trkpt lat="43.6329073" lon="11.4262796"><ele>284.5</ele><time>2026-04-28T15:51:56.417Z</time></trkpt><trkpt lat="43.6328409" lon="11.4264069"><ele>285.0</ele><time>2026-04-28T15:51:57.417Z</time></trkpt><trkpt lat="43.6327751" lon="11.4265352"><ele>285.5</ele><time>2026-04-28T15:51:58.417Z</time></trkpt><trkpt lat="43.6327059" lon="11.4266733"><ele>286.0</ele><time>2026-04-28T15:51:59.417Z</time></trkpt><trkpt lat="43.6326399" lon="11.4268009"><ele>286.0</ele><time>2026-04-28T15:52:00.417Z</time></trkpt><trkpt lat="43.6325763" lon="11.4269061"><ele>286.0</ele><time>2026-04-28T15:52:01.417Z</time></trkpt><trkpt lat="43.6325092" lon="11.4269913"><ele>286.0</ele><time>2026-04-28T15:52:02.417Z</time></trkpt><trkpt lat="43.6324282" lon="11.4270333"><ele>286.0</ele><time>2026-04-28T15:52:03.417Z</time></trkpt><trkpt lat="43.6323389" lon="11.4270379"><ele>286.0</ele><time>2026-04-28T15:52:04.417Z</time></trkpt><trkpt lat="43.6322413" lon="11.4270289"><ele>286.0</ele><time>2026-04-28T15:52:05.417Z</time></trkpt><trkpt lat="43.6321378" lon="11.4270383"><ele>286.0</ele><time>2026-04-28T15:52:06.418Z</time></trkpt><trkpt lat="43.6320397" lon="11.4270876"><ele>286.0</ele><time>2026-04-28T15:52:07.417Z</time></trkpt><trkpt lat="43.6319476" lon="11.4271652"><ele>286.0</ele><time>2026-04-28T15:52:08.417Z</time></trkpt><trkpt lat="43.6318725" lon="11.4273111"><ele>286.0</ele><time>2026-04-28T15:52:09.417Z</time></trkpt><trkpt lat="43.6318223" lon="11.4274964"><ele>285.3333333333333</ele><time>2026-04-28T15:52:10.417Z</time></trkpt><trkpt lat="43.6317619" lon="11.4276892"><ele>284.6666666666667</ele><time>2026-04-28T15:52:11.417Z</time></trkpt><trkpt lat="43.6316991" lon="11.4278881"><ele>284.0</ele><time>2026-04-28T15:52:12.417Z</time></trkpt><trkpt lat="43.6316403" lon="11.42807"><ele>282.5</ele><time>2026-04-28T15:52:13.417Z</time></trkpt><trkpt lat="43.6315785" lon="11.428248"><ele>281.0</ele><time>2026-04-28T15:52:14.417Z</time></trkpt><trkpt lat="43.6315233" lon="11.4284232"><ele>279.5</ele><time>2026-04-28T15:52:15.417Z</time></trkpt><trkpt lat="43.6315023" lon="11.4286018"><ele>278.0</ele><time>2026-04-28T15:52:16.418Z</time></trkpt><trkpt lat="43.6315105" lon="11.4287918"><ele>275.75</ele><time>2026-04-28T15:52:17.417Z</time></trkpt><trkpt lat="43.6315066" lon="11.4289681"><ele>273.5</ele><time>2026-04-28T15:52:18.417Z</time></trkpt><trkpt lat="43.631466" lon="11.4291165"><ele>271.25</ele><time>2026-04-28T15:52:19.418Z</time></trkpt><trkpt lat="43.6313862" lon="11.4292291"><ele>269.0</ele><time>2026-04-28T15:52:20.417Z</time></trkpt><trkpt lat="43.6312892" lon="11.4293146"><ele>269.0</ele><time>2026-04-28T15:52:21.417Z</time></trkpt><trkpt lat="43.6311868" lon="11.4294083"><ele>269.0</ele><time>2026-04-28T15:52:22.417Z</time></trkpt><trkpt lat="43.631067" lon="11.4295063"><ele>269.0</ele><time>2026-04-28T15:52:23.417Z</time></trkpt><trkpt lat="43.6309413" lon="11.4296032"><ele>269.0</ele><time>2026-04-28T15:52:24.417Z</time></trkpt><trkpt lat="43.6308154" lon="11.429694"><ele>269.5</ele><time>2026-04-28T15:52:25.417Z</time></trkpt><trkpt lat="43.6306913" lon="11.4297811"><ele>270.0</ele><time>2026-04-28T15:52:26.417Z</time></trkpt><trkpt lat="43.6305696" lon="11.4298737"><ele>270.5</ele><time>2026-04-28T15:52:27.418Z</time></trkpt><trkpt lat="43.6304763" lon="11.429993"><ele>271.0</ele><time>2026-04-28T15:52:28.417Z</time></trkpt><trkpt lat="43.6304259" lon="11.4301483"><ele>271.0</ele><time>2026-04-28T15:52:29.417Z</time></trkpt><trkpt lat="43.630415" lon="11.4303382"><ele>271.0</ele><time>2026-04-28T15:52:30.417Z</time></trkpt><trkpt lat="43.6304274" lon="11.4305205"><ele>271.0</ele><time>2026-04-28T15:52:31.417Z</time></trkpt><trkpt lat="43.6304315" lon="11.4307029"><ele>271.0</ele><time>2026-04-28T15:52:32.417Z</time></trkpt><trkpt lat="43.6304483" lon="11.4308844"><ele>271.0</ele><time>2026-04-28T15:52:33.417Z</time></trkpt><trkpt lat="43.6304914" lon="11.4310589"><ele>271.0</ele><time>2026-04-28T15:52:34.417Z</time></trkpt><trkpt lat="43.6305659" lon="11.4312232"><ele>271.0</ele><time>2026-04-28T15:52:35.417Z</time></trkpt><trkpt lat="43.6306529" lon="11.4313809"><ele>271.0</ele><time>2026-04-28T15:52:36.417Z</time></trkpt><trkpt lat="43.6307397" lon="11.4315353"><ele>271.40000000000003</ele><time>2026-04-28T15:52:37.417Z</time></trkpt><trkpt lat="43.6308031" lon="11.4316842"><ele>271.8</ele><time>2026-04-28T15:52:38.417Z</time></trkpt><trkpt lat="43.6308294" lon="11.4318187"><ele>272.20000000000005</ele><time>2026-04-28T15:52:39.417Z</time></trkpt><trkpt lat="43.6308201" lon="11.4319593"><ele>272.6</ele><time>2026-04-28T15:52:40.417Z</time></trkpt><trkpt lat="43.6307784" lon="11.4320984"><ele>273.0</ele><time>2026-04-28T15:52:41.417Z</time></trkpt><trkpt lat="43.6307294" lon="11.4322367"><ele>273.0</ele><time>2026-04-28T15:52:42.417Z</time></trkpt><trkpt lat="43.63066" lon="11.4323644"><ele>273.0</ele><time>2026-04-28T15:52:43.417Z</time></trkpt><trkpt lat="43.6305664" lon="11.4324664"><ele>273.0</ele><time>2026-04-28T15:52:44.418Z</time></trkpt><trkpt lat="43.6304584" lon="11.432547"><ele>273.0</ele><time>2026-04-28T15:52:45.418Z</time></trkpt><trkpt lat="43.6303401" lon="11.432614"><ele>275.0</ele><time>2026-04-28T15:52:46.417Z</time></trkpt><trkpt lat="43.6302116" lon="11.4326712"><ele>277.0</ele><time>2026-04-28T15:52:47.417Z</time></trkpt><trkpt lat="43.6300716" lon="11.432717"><ele>279.0</ele><time>2026-04-28T15:52:48.417Z</time></trkpt><trkpt lat="43.6299164" lon="11.4327512"><ele>281.0</ele><time>2026-04-28T15:52:49.417Z</time></trkpt><trkpt lat="43.6297587" lon="11.4327755"><ele>281.0</ele><time>2026-04-28T15:52:50.417Z</time></trkpt><trkpt lat="43.6295971" lon="11.4327945"><ele>281.0</ele><time>2026-04-28T15:52:51.417Z</time></trkpt><trkpt lat="43.6294352" lon="11.4328205"><ele>281.0</ele><time>2026-04-28T15:52:52.417Z</time></trkpt><trkpt lat="43.6292729" lon="11.4328703"><ele>281.0</ele><time>2026-04-28T15:52:53.417Z</time></trkpt><trkpt lat="43.6291113" lon="11.4329342"><ele>281.0</ele><time>2026-04-28T15:52:54.417Z</time></trkpt><trkpt lat="43.6289518" lon="11.4330267"><ele>281.0</ele><time>2026-04-28T15:52:55.417Z</time></trkpt><trkpt lat="43.6287897" lon="11.4331197"><ele>277.33333333333337</ele><time>2026-04-28T15:52:56.417Z</time></trkpt><trkpt lat="43.628623" lon="11.4332111"><ele>273.6666666666667</ele><time>2026-04-28T15:52:57.417Z</time></trkpt><trkpt lat="43.6284658" lon="11.4333031"><ele>270.0</ele><time>2026-04-28T15:52:58.417Z</time></trkpt><trkpt lat="43.6283227" lon="11.4333831"><ele>270.0</ele><time>2026-04-28T15:52:59.418Z</time></trkpt><trkpt lat="43.628177" lon="11.4334445"><ele>270.0</ele><time>2026-04-28T15:53:00.417Z</time></trkpt><trkpt lat="43.6280286" lon="11.4334687"><ele>270.0</ele><time>2026-04-28T15:53:01.417Z</time></trkpt><trkpt lat="43.6278792" lon="11.4334505"><ele>269.75</ele><time>2026-04-28T15:53:02.417Z</time></trkpt><trkpt lat="43.6277396" lon="11.4334504"><ele>269.5</ele><time>2026-04-28T15:53:03.417Z</time></trkpt><trkpt lat="43.6276066" lon="11.43349"><ele>269.25</ele><time>2026-04-28T15:53:04.417Z</time></trkpt><trkpt lat="43.6274705" lon="11.4335739"><ele>269.0</ele><time>2026-04-28T15:53:05.417Z</time></trkpt><trkpt lat="43.6273512" lon="11.4336683"><ele>269.0</ele><time>2026-04-28T15:53:06.417Z</time></trkpt><trkpt lat="43.6272302" lon="11.433754"><ele>269.0</ele><time>2026-04-28T15:53:07.417Z</time></trkpt><trkpt lat="43.627131" lon="11.4338529"><ele>269.0</ele><time>2026-04-28T15:53:08.417Z</time></trkpt><trkpt lat="43.6270531" lon="11.4339885"><ele>269.0</ele><time>2026-04-28T15:53:09.417Z</time></trkpt><trkpt lat="43.6270051" lon="11.4341466"><ele>268.25</ele><time>2026-04-28T15:53:10.417Z</time></trkpt><trkpt lat="43.6269669" lon="11.434325"><ele>267.5</ele><time>2026-04-28T15:53:11.417Z</time></trkpt><trkpt lat="43.6269287" lon="11.4345108"><ele>266.75</ele><time>2026-04-28T15:53:12.417Z</time></trkpt><trkpt lat="43.6268838" lon="11.4346817"><ele>266.0</ele><time>2026-04-28T15:53:13.417Z</time></trkpt><trkpt lat="43.6268166" lon="11.434821"><ele>265.0</ele><time>2026-04-28T15:53:14.417Z</time></trkpt><trkpt lat="43.6267421" lon="11.4349505"><ele>264.0</ele><time>2026-04-28T15:53:15.417Z</time></trkpt><trkpt lat="43.62665" lon="11.4350538"><ele>263.0</ele><time>2026-04-28T15:53:16.417Z</time></trkpt><trkpt lat="43.6265394" lon="11.4351163"><ele>262.0</ele><time>2026-04-28T15:53:17.417Z</time></trkpt><trkpt lat="43.6264104" lon="11.4351769"><ele>262.0</ele><time>2026-04-28T15:53:18.417Z</time></trkpt><trkpt lat="43.626282" lon="11.435226"><ele>262.0</ele><time>2026-04-28T15:53:19.417Z</time></trkpt><trkpt lat="43.6261517" lon="11.4352854"><ele>262.0</ele><time>2026-04-28T15:53:20.417Z</time></trkpt><trkpt lat="43.6260169" lon="11.4353351"><ele>262.0</ele><time>2026-04-28T15:53:21.417Z</time></trkpt><trkpt lat="43.6258803" lon="11.4353712"><ele>261.25</ele><time>2026-04-28T15:53:22.417Z</time></trkpt><trkpt lat="43.6257422" lon="11.4353892"><ele>260.5</ele><time>2026-04-28T15:53:23.417Z</time></trkpt><trkpt lat="43.6256091" lon="11.4354085"><ele>259.75</ele><time>2026-04-28T15:53:24.417Z</time></trkpt><trkpt lat="43.6254876" lon="11.4354563"><ele>259.0</ele><time>2026-04-28T15:53:25.417Z</time></trkpt><trkpt lat="43.6253772" lon="11.4355627"><ele>260.5</ele><time>2026-04-28T15:53:26.417Z</time></trkpt><trkpt lat="43.62527" lon="11.4357017"><ele>262.0</ele><time>2026-04-28T15:53:27.417Z</time></trkpt><trkpt lat="43.6251585" lon="11.4358243"><ele>263.5</ele><time>2026-04-28T15:53:28.417Z</time></trkpt><trkpt lat="43.6250517" lon="11.435923"><ele>265.0</ele><time>2026-04-28T15:53:29.417Z</time></trkpt><trkpt lat="43.6249491" lon="11.4359873"><ele>265.0</ele><time>2026-04-28T15:53:30.418Z</time></trkpt><trkpt lat="43.6248533" lon="11.4360089"><ele>265.0</ele><time>2026-04-28T15:53:31.417Z</time></trkpt><trkpt lat="43.6247671" lon="11.4359947"><ele>265.0</ele><time>2026-04-28T15:53:32.417Z</time></trkpt><trkpt lat="43.6246709" lon="11.4359228"><ele>265.0</ele><time>2026-04-28T15:53:33.417Z</time></trkpt><trkpt lat="43.6245873" lon="11.4358157"><ele>265.0</ele><time>2026-04-28T15:53:34.417Z</time></trkpt><trkpt lat="43.624526" lon="11.4356749"><ele>264.5</ele><time>2026-04-28T15:53:35.417Z</time></trkpt><trkpt lat="43.6244731" lon="11.4355229"><ele>264.0</ele><time>2026-04-28T15:53:36.417Z</time></trkpt><trkpt lat="43.6244154" lon="11.4353817"><ele>263.5</ele><time>2026-04-28T15:53:37.417Z</time></trkpt><trkpt lat="43.624343" lon="11.4352733"><ele>263.0</ele><time>2026-04-28T15:53:38.417Z</time></trkpt><trkpt lat="43.6242388" lon="11.4351994"><ele>266.0</ele><time>2026-04-28T15:53:39.417Z</time></trkpt><trkpt lat="43.6241137" lon="11.4351456"><ele>269.0</ele><time>2026-04-28T15:53:40.417Z</time></trkpt><trkpt lat="43.6239976" lon="11.435102"><ele>272.0</ele><time>2026-04-28T15:53:41.417Z</time></trkpt><trkpt lat="43.6238941" lon="11.4350651"><ele>275.0</ele><time>2026-04-28T15:53:42.417Z</time></trkpt><trkpt lat="43.623777" lon="11.4350629"><ele>275.0</ele><time>2026-04-28T15:53:43.417Z</time></trkpt><trkpt lat="43.6236698" lon="11.4351152"><ele>275.0</ele><time>2026-04-28T15:53:44.417Z</time></trkpt><trkpt lat="43.6235572" lon="11.4351679"><ele>275.0</ele><time>2026-04-28T15:53:45.417Z</time></trkpt><trkpt lat="43.6234367" lon="11.4352054"><ele>275.0</ele><time>2026-04-28T15:53:46.417Z</time></trkpt><trkpt lat="43.6233155" lon="11.4352087"><ele>276.0</ele><time>2026-04-28T15:53:47.417Z</time></trkpt><trkpt lat="43.6231826" lon="11.4351779"><ele>277.0</ele><time>2026-04-28T15:53:48.417Z</time></trkpt><trkpt lat="43.6230517" lon="11.4351506"><ele>278.0</ele><time>2026-04-28T15:53:49.417Z</time></trkpt><trkpt lat="43.6229262" lon="11.4351375"><ele>279.0</ele><time>2026-04-28T15:53:50.417Z</time></trkpt><trkpt lat="43.622809" lon="11.4351684"><ele>277.75</ele><time>2026-04-28T15:53:51.417Z</time></trkpt><trkpt lat="43.6227091" lon="11.4352511"><ele>276.5</ele><time>2026-04-28T15:53:52.417Z</time></trkpt><trkpt lat="43.6226213" lon="11.4353783"><ele>275.25</ele><time>2026-04-28T15:53:53.418Z</time></trkpt><trkpt lat="43.622519" lon="11.4354917"><ele>274.0</ele><time>2026-04-28T15:53:54.417Z</time></trkpt><trkpt lat="43.6224122" lon="11.4355554"><ele>274.0</ele><time>2026-04-28T15:53:55.417Z</time></trkpt><trkpt lat="43.6222691" lon="11.4355313"><ele>274.0</ele><time>2026-04-28T15:53:56.417Z</time></trkpt><trkpt lat="43.6221368" lon="11.4354913"><ele>274.0</ele><time>2026-04-28T15:53:57.417Z</time></trkpt><trkpt lat="43.6219971" lon="11.4354591"><ele>274.0</ele><time>2026-04-28T15:53:58.417Z</time></trkpt><trkpt lat="43.6218544" lon="11.4354238"><ele>277.75</ele><time>2026-04-28T15:53:59.417Z</time></trkpt><trkpt lat="43.6217096" lon="11.4353844"><ele>281.5</ele><time>2026-04-28T15:54:00.417Z</time></trkpt><trkpt lat="43.6215675" lon="11.4353448"><ele>285.25</ele><time>2026-04-28T15:54:01.417Z</time></trkpt><trkpt lat="43.621419" lon="11.4353025"><ele>289.0</ele><time>2026-04-28T15:54:02.417Z</time></trkpt><trkpt lat="43.6212615" lon="11.4352622"><ele>287.0</ele><time>2026-04-28T15:54:03.417Z</time></trkpt><trkpt lat="43.6211109" lon="11.4352201"><ele>285.0</ele><time>2026-04-28T15:54:04.417Z</time></trkpt><trkpt lat="43.6209599" lon="11.4351826"><ele>283.0</ele><time>2026-04-28T15:54:05.418Z</time></trkpt><trkpt lat="43.6208114" lon="11.4351925"><ele>283.0</ele><time>2026-04-28T15:54:06.417Z</time></trkpt><trkpt lat="43.6206645" lon="11.435223"><ele>283.0</ele><time>2026-04-28T15:54:07.417Z</time></trkpt><trkpt lat="43.6205138" lon="11.4352562"><ele>283.0</ele><time>2026-04-28T15:54:08.417Z</time></trkpt><trkpt lat="43.6203569" lon="11.4352848"><ele>284.0</ele><time>2026-04-28T15:54:09.417Z</time></trkpt><trkpt lat="43.6202126" lon="11.4353113"><ele>285.0</ele><time>2026-04-28T15:54:10.417Z</time></trkpt><trkpt lat="43.6200779" lon="11.4353408"><ele>286.0</ele><time>2026-04-28T15:54:11.417Z</time></trkpt><trkpt lat="43.6199475" lon="11.4353624"><ele>287.0</ele><time>2026-04-28T15:54:12.417Z</time></trkpt><trkpt lat="43.6198577" lon="11.4353804"><ele>287.0</ele><time>2026-04-28T15:54:13.417Z</time></trkpt><trkpt lat="43.6197818" lon="11.4353844"><ele>287.0</ele><time>2026-04-28T15:54:14.417Z</time></trkpt><trkpt lat="43.61971" lon="11.4353493"><ele>287.0</ele><time>2026-04-28T15:54:15.417Z</time></trkpt><trkpt lat="43.6196416" lon="11.4352742"><ele>287.0</ele><time>2026-04-28T15:54:16.418Z</time></trkpt><trkpt lat="43.6195807" lon="11.4351622"><ele>287.0</ele><time>2026-04-28T15:54:17.417Z</time></trkpt><trkpt lat="43.6195221" lon="11.4350438"><ele>287.0</ele><time>2026-04-28T15:54:18.417Z</time></trkpt><trkpt lat="43.6194365" lon="11.4349402"><ele>285.5</ele><time>2026-04-28T15:54:19.417Z</time></trkpt><trkpt lat="43.6193287" lon="11.4348876"><ele>284.0</ele><time>2026-04-28T15:54:20.417Z</time></trkpt><trkpt lat="43.619212" lon="11.4348687"><ele>282.5</ele><time>2026-04-28T15:54:21.418Z</time></trkpt><trkpt lat="43.6190787" lon="11.4348863"><ele>281.0</ele><time>2026-04-28T15:54:22.417Z</time></trkpt><trkpt lat="43.6189418" lon="11.4349471"><ele>281.0</ele><time>2026-04-28T15:54:23.417Z</time></trkpt><trkpt lat="43.6188054" lon="11.43505"><ele>281.0</ele><time>2026-04-28T15:54:24.417Z</time></trkpt><trkpt lat="43.6186529" lon="11.4351479"><ele>281.0</ele><time>2026-04-28T15:54:25.417Z</time></trkpt><trkpt lat="43.6184979" lon="11.4352625"><ele>279.0</ele><time>2026-04-28T15:54:26.417Z</time></trkpt><trkpt lat="43.6183443" lon="11.4353627"><ele>277.0</ele><time>2026-04-28T15:54:27.417Z</time></trkpt><trkpt lat="43.618197" lon="11.4354639"><ele>275.0</ele><time>2026-04-28T15:54:28.417Z</time></trkpt><trkpt lat="43.6180576" lon="11.4355577"><ele>274.0</ele><time>2026-04-28T15:54:29.417Z</time></trkpt><trkpt lat="43.6179374" lon="11.4356467"><ele>273.0</ele><time>2026-04-28T15:54:30.417Z</time></trkpt><trkpt lat="43.6178317" lon="11.4357593"><ele>272.0</ele><time>2026-04-28T15:54:31.417Z</time></trkpt><trkpt lat="43.6177443" lon="11.4358965"><ele>271.0</ele><time>2026-04-28T15:54:32.417Z</time></trkpt><trkpt lat="43.61765" lon="11.4360554"><ele>269.25</ele><time>2026-04-28T15:54:33.417Z</time></trkpt><trkpt lat="43.6175597" lon="11.4362224"><ele>267.5</ele><time>2026-04-28T15:54:34.417Z</time></trkpt><trkpt lat="43.6174599" lon="11.4363608"><ele>265.75</ele><time>2026-04-28T15:54:35.417Z</time></trkpt><trkpt lat="43.6173441" lon="11.4364679"><ele>264.0</ele><time>2026-04-28T15:54:36.417Z</time></trkpt><trkpt lat="43.6172108" lon="11.4365351"><ele>263.5</ele><time>2026-04-28T15:54:37.417Z</time></trkpt><trkpt lat="43.6170773" lon="11.4365492"><ele>263.0</ele><time>2026-04-28T15:54:38.417Z</time></trkpt><trkpt lat="43.6169382" lon="11.4365047"><ele>262.5</ele><time>2026-04-28T15:54:39.417Z</time></trkpt><trkpt lat="43.6167965" lon="11.4364412"><ele>262.0</ele><time>2026-04-28T15:54:40.417Z</time></trkpt><trkpt lat="43.616649" lon="11.4363654"><ele>262.0</ele><time>2026-04-28T15:54:41.417Z</time></trkpt><trkpt lat="43.6164933" lon="11.4362959"><ele>262.0</ele><time>2026-04-28T15:54:42.417Z</time></trkpt><trkpt lat="43.6163365" lon="11.4362236"><ele>262.0</ele><time>2026-04-28T15:54:43.417Z</time></trkpt><trkpt lat="43.6161752" lon="11.4361497"><ele>263.3333333333333</ele><time>2026-04-28T15:54:44.417Z</time></trkpt><trkpt lat="43.6160148" lon="11.4360711"><ele>264.6666666666667</ele><time>2026-04-28T15:54:45.418Z</time></trkpt><trkpt lat="43.6158587" lon="11.4360001"><ele>266.0</ele><time>2026-04-28T15:54:46.417Z</time></trkpt><trkpt lat="43.6157017" lon="11.4359179"><ele>266.0</ele><time>2026-04-28T15:54:47.418Z</time></trkpt><trkpt lat="43.6155461" lon="11.4358391"><ele>266.0</ele><time>2026-04-28T15:54:48.417Z</time></trkpt><trkpt lat="43.6153872" lon="11.4357967"><ele>266.0</ele><time>2026-04-28T15:54:49.417Z</time></trkpt><trkpt lat="43.6152384" lon="11.435796"><ele>267.25</ele><time>2026-04-28T15:54:50.417Z</time></trkpt><trkpt lat="43.6151107" lon="11.4357814"><ele>268.5</ele><time>2026-04-28T15:54:51.417Z</time></trkpt><trkpt lat="43.6149971" lon="11.4357137"><ele>269.75</ele><time>2026-04-28T15:54:52.417Z</time></trkpt><trkpt lat="43.6148967" lon="11.4355995"><ele>271.0</ele><time>2026-04-28T15:54:53.417Z</time></trkpt><trkpt lat="43.6148043" lon="11.4354508"><ele>274.0</ele><time>2026-04-28T15:54:54.417Z</time></trkpt><trkpt lat="43.6147134" lon="11.4352822"><ele>277.0</ele><time>2026-04-28T15:54:55.417Z</time></trkpt><trkpt lat="43.6146149" lon="11.435127"><ele>280.0</ele><time>2026-04-28T15:54:56.417Z</time></trkpt><trkpt lat="43.6145033" lon="11.4349801"><ele>279.66666666666663</ele><time>2026-04-28T15:54:57.417Z</time></trkpt><trkpt lat="43.614363" lon="11.4348538"><ele>279.3333333333333</ele><time>2026-04-28T15:54:58.417Z</time></trkpt><trkpt lat="43.6141965" lon="11.4347598"><ele>279.0</ele><time>2026-04-28T15:54:59.417Z</time></trkpt><trkpt lat="43.6140291" lon="11.4346689"><ele>279.3333333333333</ele><time>2026-04-28T15:55:00.418Z</time></trkpt><trkpt lat="43.6138642" lon="11.4345824"><ele>279.66666666666663</ele><time>2026-04-28T15:55:01.417Z</time></trkpt><trkpt lat="43.6136946" lon="11.4345056"><ele>280.0</ele><time>2026-04-28T15:55:02.417Z</time></trkpt><trkpt lat="43.6135225" lon="11.4344354"><ele>280.0</ele><time>2026-04-28T15:55:03.417Z</time></trkpt><trkpt lat="43.613352" lon="11.4343715"><ele>280.0</ele><time>2026-04-28T15:55:04.417Z</time></trkpt><trkpt lat="43.6131915" lon="11.434299"><ele>280.0</ele><time>2026-04-28T15:55:05.417Z</time></trkpt><trkpt lat="43.613039" lon="11.4341993"><ele>280.0</ele><time>2026-04-28T15:55:06.417Z</time></trkpt><trkpt lat="43.6128894" lon="11.4340981"><ele>280.0</ele><time>2026-04-28T15:55:07.417Z</time></trkpt><trkpt lat="43.6127413" lon="11.4339588"><ele>280.0</ele><time>2026-04-28T15:55:08.418Z</time></trkpt><trkpt lat="43.6125963" lon="11.4338258"><ele>281.66666666666663</ele><time>2026-04-28T15:55:09.417Z</time></trkpt><trkpt lat="43.6124448" lon="11.4336939"><ele>283.3333333333333</ele><time>2026-04-28T15:55:10.417Z</time></trkpt><trkpt lat="43.6122882" lon="11.4335523"><ele>285.0</ele><time>2026-04-28T15:55:11.417Z</time></trkpt><trkpt lat="43.6121336" lon="11.4334038"><ele>282.3333333333333</ele><time>2026-04-28T15:55:12.417Z</time></trkpt><trkpt lat="43.6119719" lon="11.4332514"><ele>279.66666666666663</ele><time>2026-04-28T15:55:13.417Z</time></trkpt><trkpt lat="43.6118057" lon="11.4330972"><ele>277.0</ele><time>2026-04-28T15:55:14.418Z</time></trkpt><trkpt lat="43.6116361" lon="11.432938"><ele>277.0</ele><time>2026-04-28T15:55:15.417Z</time></trkpt><trkpt lat="43.6114605" lon="11.4327754"><ele>277.0</ele><time>2026-04-28T15:55:16.417Z</time></trkpt><trkpt lat="43.6112897" lon="11.4326002"><ele>277.0</ele><time>2026-04-28T15:55:17.417Z</time></trkpt><trkpt lat="43.6111135" lon="11.4324255"><ele>277.3333333333333</ele><time>2026-04-28T15:55:18.417Z</time></trkpt><trkpt lat="43.6109344" lon="11.4322613"><ele>277.6666666666667</ele><time>2026-04-28T15:55:19.417Z</time></trkpt><trkpt lat="43.6107584" lon="11.4320958"><ele>278.0</ele><time>2026-04-28T15:55:20.417Z</time></trkpt><trkpt lat="43.6105888" lon="11.4319374"><ele>278.0</ele><time>2026-04-28T15:55:21.417Z</time></trkpt><trkpt lat="43.6104366" lon="11.4317845"><ele>278.0</ele><time>2026-04-28T15:55:22.417Z</time></trkpt><trkpt lat="43.6102942" lon="11.431648"><ele>278.0</ele><time>2026-04-28T15:55:23.417Z</time></trkpt><trkpt lat="43.6101631" lon="11.4315184"><ele>279.0</ele><time>2026-04-28T15:55:24.417Z</time></trkpt><trkpt lat="43.6100536" lon="11.4313776"><ele>280.0</ele><time>2026-04-28T15:55:25.417Z</time></trkpt><trkpt lat="43.6099601" lon="11.4312356"><ele>281.0</ele><time>2026-04-28T15:55:26.417Z</time></trkpt><trkpt lat="43.6098792" lon="11.4310925"><ele>282.0</ele><time>2026-04-28T15:55:27.417Z</time></trkpt><trkpt lat="43.609806" lon="11.4309437"><ele>282.0</ele><time>2026-04-28T15:55:28.417Z</time></trkpt><trkpt lat="43.6097396" lon="11.4308009"><ele>282.0</ele><time>2026-04-28T15:55:29.417Z</time></trkpt><trkpt lat="43.6096939" lon="11.4306438"><ele>282.0</ele><time>2026-04-28T15:55:30.417Z</time></trkpt><trkpt lat="43.6096916" lon="11.4304733"><ele>282.0</ele><time>2026-04-28T15:55:31.417Z</time></trkpt><trkpt lat="43.6097226" lon="11.4302822"><ele>281.6666666666667</ele><time>2026-04-28T15:55:32.417Z</time></trkpt><trkpt lat="43.6097601" lon="11.4300792"><ele>281.33333333333337</ele><time>2026-04-28T15:55:33.418Z</time></trkpt><trkpt lat="43.6097956" lon="11.4298729"><ele>281.0</ele><time>2026-04-28T15:55:34.417Z</time></trkpt><trkpt lat="43.6098314" lon="11.4296657"><ele>281.33333333333337</ele><time>2026-04-28T15:55:35.417Z</time></trkpt><trkpt lat="43.6098686" lon="11.4294367"><ele>281.6666666666667</ele><time>2026-04-28T15:55:36.417Z</time></trkpt><trkpt lat="43.609907" lon="11.4292151"><ele>282.0</ele><time>2026-04-28T15:55:37.418Z</time></trkpt><trkpt lat="43.6099437" lon="11.4290079"><ele>282.0</ele><time>2026-04-28T15:55:38.417Z</time></trkpt><trkpt lat="43.609973" lon="11.4288179"><ele>282.0</ele><time>2026-04-28T15:55:39.417Z</time></trkpt><trkpt lat="43.6099992" lon="11.4286495"><ele>282.0</ele><time>2026-04-28T15:55:40.417Z</time></trkpt><trkpt lat="43.6100233" lon="11.4285058"><ele>282.0</ele><time>2026-04-28T15:55:41.417Z</time></trkpt><trkpt lat="43.610028" lon="11.4283734"><ele>282.6</ele><time>2026-04-28T15:55:42.418Z</time></trkpt><trkpt lat="43.6099934" lon="11.4282478"><ele>283.2</ele><time>2026-04-28T15:55:43.417Z</time></trkpt><trkpt lat="43.6099148" lon="11.4281725"><ele>283.8</ele><time>2026-04-28T15:55:44.417Z</time></trkpt><trkpt lat="43.6098081" lon="11.4281283"><ele>284.4</ele><time>2026-04-28T15:55:45.418Z</time></trkpt><trkpt lat="43.6096869" lon="11.428098"><ele>285.0</ele><time>2026-04-28T15:55:46.417Z</time></trkpt><trkpt lat="43.6095465" lon="11.4280789"><ele>283.6666666666667</ele><time>2026-04-28T15:55:47.417Z</time></trkpt><trkpt lat="43.6094024" lon="11.4280501"><ele>282.33333333333337</ele><time>2026-04-28T15:55:48.417Z</time></trkpt><trkpt lat="43.6092478" lon="11.4280113"><ele>281.0</ele><time>2026-04-28T15:55:49.417Z</time></trkpt><trkpt lat="43.6090957" lon="11.4279644"><ele>281.0</ele><time>2026-04-28T15:55:50.417Z</time></trkpt><trkpt lat="43.6089403" lon="11.4279208"><ele>281.0</ele><time>2026-04-28T15:55:51.417Z</time></trkpt><trkpt lat="43.6087763" lon="11.4278769"><ele>281.0</ele><time>2026-04-28T15:55:52.417Z</time></trkpt><trkpt lat="43.6086124" lon="11.4278314"><ele>279.6666666666667</ele><time>2026-04-28T15:55:53.417Z</time></trkpt><trkpt lat="43.6084498" lon="11.4277859"><ele>278.3333333333333</ele><time>2026-04-28T15:55:54.417Z</time></trkpt><trkpt lat="43.6082911" lon="11.4277429"><ele>277.0</ele><time>2026-04-28T15:55:55.417Z</time></trkpt><trkpt lat="43.6081404" lon="11.4277034"><ele>277.0</ele><time>2026-04-28T15:55:56.417Z</time></trkpt><trkpt lat="43.6080063" lon="11.4276629"><ele>277.0</ele><time>2026-04-28T15:55:57.417Z</time></trkpt><trkpt lat="43.6078764" lon="11.4276219"><ele>277.0</ele><time>2026-04-28T15:55:58.417Z</time></trkpt><trkpt lat="43.6077585" lon="11.4275947"><ele>277.0</ele><time>2026-04-28T15:55:59.417Z</time></trkpt><trkpt lat="43.6076515" lon="11.4275794"><ele>276.6</ele><time>2026-04-28T15:56:00.417Z</time></trkpt><trkpt lat="43.6075513" lon="11.4275868"><ele>276.2</ele><time>2026-04-28T15:56:01.417Z</time></trkpt><trkpt lat="43.6074599" lon="11.4276217"><ele>275.8</ele><time>2026-04-28T15:56:02.417Z</time></trkpt><trkpt lat="43.6073595" lon="11.427683"><ele>275.4</ele><time>2026-04-28T15:56:03.417Z</time></trkpt><trkpt lat="43.6072479" lon="11.427772"><ele>275.0</ele><time>2026-04-28T15:56:04.417Z</time></trkpt><trkpt lat="43.6071526" lon="11.4278591"><ele>275.0</ele><time>2026-04-28T15:56:05.417Z</time></trkpt><trkpt lat="43.6070719" lon="11.4279251"><ele>275.0</ele><time>2026-04-28T15:56:06.418Z</time></trkpt><trkpt lat="43.6070146" lon="11.4279795"><ele>275.0</ele><time>2026-04-28T15:56:07.417Z</time></trkpt><trkpt lat="43.6069341" lon="11.4280465"><ele>275.0</ele><time>2026-04-28T15:56:09.417Z</time></trkpt><trkpt lat="43.6068642" lon="11.4279973"><ele>275.0</ele><time>2026-04-28T15:56:11.417Z</time></trkpt><trkpt lat="43.6068529" lon="11.4278175"><ele>273.25</ele><time>2026-04-28T15:56:13.417Z</time></trkpt><trkpt lat="43.6068571" lon="11.4276968"><ele>271.5</ele><time>2026-04-28T15:56:14.417Z</time></trkpt><trkpt lat="43.6068394" lon="11.4275349"><ele>269.75</ele><time>2026-04-28T15:56:15.418Z</time></trkpt><trkpt lat="43.6068246" lon="11.4273583"><ele>268.0</ele><time>2026-04-28T15:56:16.418Z</time></trkpt><trkpt lat="43.606814" lon="11.4271705"><ele>267.66666666666663</ele><time>2026-04-28T15:56:17.417Z</time></trkpt><trkpt lat="43.6068023" lon="11.426956"><ele>267.3333333333333</ele><time>2026-04-28T15:56:18.417Z</time></trkpt><trkpt lat="43.6067862" lon="11.4267254"><ele>267.0</ele><time>2026-04-28T15:56:19.418Z</time></trkpt><trkpt lat="43.6067648" lon="11.426495"><ele>267.0</ele><time>2026-04-28T15:56:20.417Z</time></trkpt><trkpt lat="43.6067266" lon="11.4262537"><ele>267.0</ele><time>2026-04-28T15:56:21.418Z</time></trkpt><trkpt lat="43.6066728" lon="11.4260122"><ele>267.0</ele><time>2026-04-28T15:56:22.417Z</time></trkpt><trkpt lat="43.6065794" lon="11.4257876"><ele>267.0</ele><time>2026-04-28T15:56:23.417Z</time></trkpt><trkpt lat="43.6064741" lon="11.4255691"><ele>267.0</ele><time>2026-04-28T15:56:24.417Z</time></trkpt><trkpt lat="43.6063652" lon="11.4253544"><ele>267.0</ele><time>2026-04-28T15:56:25.417Z</time></trkpt><trkpt lat="43.6062518" lon="11.4251342"><ele>267.0</ele><time>2026-04-28T15:56:26.417Z</time></trkpt><trkpt lat="43.6061392" lon="11.4249081"><ele>267.0</ele><time>2026-04-28T15:56:27.417Z</time></trkpt><trkpt lat="43.6060293" lon="11.4246808"><ele>267.0</ele><time>2026-04-28T15:56:28.417Z</time></trkpt><trkpt lat="43.605927" lon="11.4244578"><ele>265.0</ele><time>2026-04-28T15:56:29.417Z</time></trkpt><trkpt lat="43.6058236" lon="11.4242247"><ele>263.0</ele><time>2026-04-28T15:56:30.417Z</time></trkpt><trkpt lat="43.6057203" lon="11.4239925"><ele>261.0</ele><time>2026-04-28T15:56:31.417Z</time></trkpt><trkpt lat="43.6056074" lon="11.423771"><ele>260.6666666666667</ele><time>2026-04-28T15:56:32.417Z</time></trkpt><trkpt lat="43.6054723" lon="11.4235588"><ele>260.33333333333337</ele><time>2026-04-28T15:56:33.417Z</time></trkpt><trkpt lat="43.6053382" lon="11.4233465"><ele>260.0</ele><time>2026-04-28T15:56:34.417Z</time></trkpt><trkpt lat="43.6052221" lon="11.4231133"><ele>262.33333333333337</ele><time>2026-04-28T15:56:35.417Z</time></trkpt><trkpt lat="43.6051277" lon="11.4228579"><ele>264.6666666666667</ele><time>2026-04-28T15:56:36.417Z</time></trkpt><trkpt lat="43.6050444" lon="11.4225968"><ele>267.0</ele><time>2026-04-28T15:56:37.417Z</time></trkpt><trkpt lat="43.6049695" lon="11.4223391"><ele>267.6666666666667</ele><time>2026-04-28T15:56:38.417Z</time></trkpt><trkpt lat="43.6049133" lon="11.4220809"><ele>268.33333333333337</ele><time>2026-04-28T15:56:39.417Z</time></trkpt><trkpt lat="43.6048766" lon="11.4218178"><ele>269.0</ele><time>2026-04-28T15:56:40.417Z</time></trkpt><trkpt lat="43.6048534" lon="11.4215652"><ele>268.6666666666667</ele><time>2026-04-28T15:56:41.417Z</time></trkpt><trkpt lat="43.6048135" lon="11.4213134"><ele>268.3333333333333</ele><time>2026-04-28T15:56:42.417Z</time></trkpt><trkpt lat="43.6047287" lon="11.4210792"><ele>268.0</ele><time>2026-04-28T15:56:43.418Z</time></trkpt><trkpt lat="43.6046298" lon="11.4208413"><ele>268.0</ele><time>2026-04-28T15:56:44.417Z</time></trkpt><trkpt lat="43.6045217" lon="11.4206143"><ele>268.0</ele><time>2026-04-28T15:56:45.417Z</time></trkpt><trkpt lat="43.6044223" lon="11.420389"><ele>268.0</ele><time>2026-04-28T15:56:46.417Z</time></trkpt><trkpt lat="43.604346" lon="11.4201676"><ele>273.3333333333333</ele><time>2026-04-28T15:56:47.417Z</time></trkpt><trkpt lat="43.6042838" lon="11.4199296"><ele>278.6666666666667</ele><time>2026-04-28T15:56:48.417Z</time></trkpt><trkpt lat="43.6042397" lon="11.4196749"><ele>284.0</ele><time>2026-04-28T15:56:49.417Z</time></trkpt><trkpt lat="43.6042018" lon="11.4194155"><ele>284.33333333333337</ele><time>2026-04-28T15:56:50.417Z</time></trkpt><trkpt lat="43.6041624" lon="11.419144"><ele>284.6666666666667</ele><time>2026-04-28T15:56:51.417Z</time></trkpt><trkpt lat="43.6041214" lon="11.4188794"><ele>285.0</ele><time>2026-04-28T15:56:52.417Z</time></trkpt><trkpt lat="43.6040758" lon="11.4186258"><ele>286.3333333333333</ele><time>2026-04-28T15:56:53.417Z</time></trkpt><trkpt lat="43.6040231" lon="11.4183777"><ele>287.66666666666663</ele><time>2026-04-28T15:56:54.417Z</time></trkpt><trkpt lat="43.6039683" lon="11.4181418"><ele>289.0</ele><time>2026-04-28T15:56:55.417Z</time></trkpt><trkpt lat="43.6039147" lon="11.4179344"><ele>290.25</ele><time>2026-04-28T15:56:56.417Z</time></trkpt><trkpt lat="43.6038367" lon="11.4177608"><ele>291.5</ele><time>2026-04-28T15:56:57.417Z</time></trkpt><trkpt lat="43.6037363" lon="11.4176357"><ele>292.75</ele><time>2026-04-28T15:56:58.417Z</time></trkpt><trkpt lat="43.6036196" lon="11.4175289"><ele>294.0</ele><time>2026-04-28T15:56:59.417Z</time></trkpt><trkpt lat="43.603497" lon="11.4174594"><ele>295.3333333333333</ele><time>2026-04-28T15:57:00.417Z</time></trkpt><trkpt lat="43.6033493" lon="11.4174107"><ele>296.66666666666663</ele><time>2026-04-28T15:57:01.417Z</time></trkpt><trkpt lat="43.6031719" lon="11.4174079"><ele>298.0</ele><time>2026-04-28T15:57:02.417Z</time></trkpt><trkpt lat="43.6029739" lon="11.4174112"><ele>300.0</ele><time>2026-04-28T15:57:03.417Z</time></trkpt><trkpt lat="43.6027807" lon="11.4174016"><ele>302.0</ele><time>2026-04-28T15:57:04.417Z</time></trkpt><trkpt lat="43.6025933" lon="11.4174009"><ele>304.0</ele><time>2026-04-28T15:57:05.417Z</time></trkpt><trkpt lat="43.6024267" lon="11.4174078"><ele>304.0</ele><time>2026-04-28T15:57:06.417Z</time></trkpt><trkpt lat="43.6022851" lon="11.4174012"><ele>304.0</ele><time>2026-04-28T15:57:07.417Z</time></trkpt><trkpt lat="43.6021622" lon="11.4173853"><ele>304.0</ele><time>2026-04-28T15:57:08.417Z</time></trkpt><trkpt lat="43.6020601" lon="11.4173486"><ele>304.0</ele><time>2026-04-28T15:57:09.417Z</time></trkpt><trkpt lat="43.601968" lon="11.4172738"><ele>303.5</ele><time>2026-04-28T15:57:10.417Z</time></trkpt><trkpt lat="43.6018927" lon="11.4171628"><ele>303.0</ele><time>2026-04-28T15:57:11.417Z</time></trkpt><trkpt lat="43.6018429" lon="11.4170058"><ele>302.5</ele><time>2026-04-28T15:57:12.417Z</time></trkpt><trkpt lat="43.6018317" lon="11.4168186"><ele>302.0</ele><time>2026-04-28T15:57:13.418Z</time></trkpt><trkpt lat="43.6018401" lon="11.4166215"><ele>303.33333333333337</ele><time>2026-04-28T15:57:14.418Z</time></trkpt><trkpt lat="43.6018601" lon="11.4164101"><ele>304.6666666666667</ele><time>2026-04-28T15:57:15.417Z</time></trkpt><trkpt lat="43.60188" lon="11.4161929"><ele>306.0</ele><time>2026-04-28T15:57:16.417Z</time></trkpt><trkpt lat="43.601904" lon="11.4159568"><ele>306.3333333333333</ele><time>2026-04-28T15:57:17.417Z</time></trkpt><trkpt lat="43.6019298" lon="11.4157139"><ele>306.66666666666663</ele><time>2026-04-28T15:57:18.417Z</time></trkpt><trkpt lat="43.6019541" lon="11.4154629"><ele>307.0</ele><time>2026-04-28T15:57:19.417Z</time></trkpt><trkpt lat="43.6019791" lon="11.415228"><ele>306.3333333333333</ele><time>2026-04-28T15:57:20.417Z</time></trkpt><trkpt lat="43.6019983" lon="11.4150055"><ele>305.6666666666667</ele><time>2026-04-28T15:57:21.417Z</time></trkpt><trkpt lat="43.6020036" lon="11.4147816"><ele>305.0</ele><time>2026-04-28T15:57:22.417Z</time></trkpt><trkpt lat="43.6019973" lon="11.4145508"><ele>303.0</ele><time>2026-04-28T15:57:23.417Z</time></trkpt><trkpt lat="43.6019701" lon="11.4143229"><ele>301.0</ele><time>2026-04-28T15:57:24.417Z</time></trkpt><trkpt lat="43.6019396" lon="11.414103"><ele>299.0</ele><time>2026-04-28T15:57:25.417Z</time></trkpt><trkpt lat="43.6019129" lon="11.4138937"><ele>298.0</ele><time>2026-04-28T15:57:26.417Z</time></trkpt><trkpt lat="43.6019055" lon="11.4137013"><ele>297.0</ele><time>2026-04-28T15:57:27.417Z</time></trkpt><trkpt lat="43.6019174" lon="11.4135267"><ele>296.0</ele><time>2026-04-28T15:57:28.417Z</time></trkpt><trkpt lat="43.601951" lon="11.4133737"><ele>295.0</ele><time>2026-04-28T15:57:29.417Z</time></trkpt><trkpt lat="43.6019734" lon="11.4132319"><ele>295.0</ele><time>2026-04-28T15:57:30.417Z</time></trkpt><trkpt lat="43.6019622" lon="11.4130869"><ele>295.0</ele><time>2026-04-28T15:57:31.417Z</time></trkpt><trkpt lat="43.6019113" lon="11.4129473"><ele>295.0</ele><time>2026-04-28T15:57:32.418Z</time></trkpt><trkpt lat="43.6018358" lon="11.4128273"><ele>295.0</ele><time>2026-04-28T15:57:33.417Z</time></trkpt><trkpt lat="43.6017285" lon="11.4127782"><ele>295.0</ele><time>2026-04-28T15:57:34.417Z</time></trkpt><trkpt lat="43.601609" lon="11.4127659"><ele>295.3333333333333</ele><time>2026-04-28T15:57:35.417Z</time></trkpt><trkpt lat="43.6015098" lon="11.412772"><ele>295.66666666666663</ele><time>2026-04-28T15:57:36.417Z</time></trkpt><trkpt lat="43.6014492" lon="11.4127365"><ele>296.0</ele><time>2026-04-28T15:57:37.417Z</time></trkpt><trkpt lat="43.6014099" lon="11.4126658"><ele>296.3333333333333</ele><time>2026-04-28T15:57:38.417Z</time></trkpt><trkpt lat="43.6013826" lon="11.4125457"><ele>296.6666666666667</ele><time>2026-04-28T15:57:39.417Z</time></trkpt><trkpt lat="43.6013842" lon="11.4123893"><ele>297.0</ele><time>2026-04-28T15:57:40.417Z</time></trkpt><trkpt lat="43.6014013" lon="11.412241"><ele>297.2</ele><time>2026-04-28T15:57:41.417Z</time></trkpt><trkpt lat="43.6014243" lon="11.4120949"><ele>297.4</ele><time>2026-04-28T15:57:42.417Z</time></trkpt><trkpt lat="43.6014181" lon="11.4119699"><ele>297.6</ele><time>2026-04-28T15:57:43.417Z</time></trkpt><trkpt lat="43.6013937" lon="11.4118702"><ele>297.8</ele><time>2026-04-28T15:57:44.417Z</time></trkpt><trkpt lat="43.6013315" lon="11.4118005"><ele>298.0</ele><time>2026-04-28T15:57:45.417Z</time></trkpt><trkpt lat="43.6012363" lon="11.4118074"><ele>298.0</ele><time>2026-04-28T15:57:46.418Z</time></trkpt><trkpt lat="43.6011338" lon="11.4118457"><ele>298.0</ele><time>2026-04-28T15:57:47.417Z</time></trkpt><trkpt lat="43.6010245" lon="11.4119105"><ele>298.0</ele><time>2026-04-28T15:57:48.417Z</time></trkpt><trkpt lat="43.6009179" lon="11.4119589"><ele>298.0</ele><time>2026-04-28T15:57:49.417Z</time></trkpt><trkpt lat="43.6008206" lon="11.4120089"><ele>298.0</ele><time>2026-04-28T15:57:50.417Z</time></trkpt><trkpt lat="43.6007429" lon="11.4120379"><ele>298.0</ele><time>2026-04-28T15:57:51.417Z</time></trkpt><trkpt lat="43.6006709" lon="11.4120006"><ele>298.0</ele><time>2026-04-28T15:57:52.417Z</time></trkpt><trkpt lat="43.6005925" lon="11.4118895"><ele>298.0</ele><time>2026-04-28T15:57:53.417Z</time></trkpt><trkpt lat="43.6005139" lon="11.4117625"><ele>298.0</ele><time>2026-04-28T15:57:54.417Z</time></trkpt><trkpt lat="43.6004695" lon="11.4115816"><ele>298.0</ele><time>2026-04-28T15:57:55.417Z</time></trkpt><trkpt lat="43.6004829" lon="11.4114129"><ele>300.66666666666663</ele><time>2026-04-28T15:57:56.417Z</time></trkpt><trkpt lat="43.6005309" lon="11.4112076"><ele>303.3333333333333</ele><time>2026-04-28T15:57:57.417Z</time></trkpt><trkpt lat="43.6005985" lon="11.4110079"><ele>306.0</ele><time>2026-04-28T15:57:58.417Z</time></trkpt><trkpt lat="43.6006738" lon="11.4108175"><ele>306.0</ele><time>2026-04-28T15:57:59.417Z</time></trkpt><trkpt lat="43.6007301" lon="11.4106108"><ele>306.0</ele><time>2026-04-28T15:58:00.417Z</time></trkpt><trkpt lat="43.600774" lon="11.4103786"><ele>306.0</ele><time>2026-04-28T15:58:01.417Z</time></trkpt><trkpt lat="43.6007949" lon="11.4101367"><ele>307.3333333333333</ele><time>2026-04-28T15:58:02.417Z</time></trkpt><trkpt lat="43.6007925" lon="11.4098937"><ele>308.66666666666663</ele><time>2026-04-28T15:58:03.417Z</time></trkpt><trkpt lat="43.6007538" lon="11.4096518"><ele>310.0</ele><time>2026-04-28T15:58:04.417Z</time></trkpt><trkpt lat="43.6006798" lon="11.4094159"><ele>312.3333333333333</ele><time>2026-04-28T15:58:05.417Z</time></trkpt><trkpt lat="43.6005839" lon="11.4092112"><ele>314.6666666666667</ele><time>2026-04-28T15:58:06.417Z</time></trkpt><trkpt lat="43.600499" lon="11.4090404"><ele>317.0</ele><time>2026-04-28T15:58:07.417Z</time></trkpt><trkpt lat="43.6004232" lon="11.4088771"><ele>315.75</ele><time>2026-04-28T15:58:08.417Z</time></trkpt><trkpt lat="43.6003783" lon="11.4087246"><ele>314.5</ele><time>2026-04-28T15:58:09.417Z</time></trkpt><trkpt lat="43.6003642" lon="11.4085553"><ele>313.25</ele><time>2026-04-28T15:58:10.417Z</time></trkpt><trkpt lat="43.6003866" lon="11.4083917"><ele>312.0</ele><time>2026-04-28T15:58:11.417Z</time></trkpt><trkpt lat="43.6004658" lon="11.4082647"><ele>312.0</ele><time>2026-04-28T15:58:12.417Z</time></trkpt><trkpt lat="43.6005885" lon="11.4081861"><ele>312.0</ele><time>2026-04-28T15:58:13.417Z</time></trkpt><trkpt lat="43.6007229" lon="11.408136"><ele>312.0</ele><time>2026-04-28T15:58:14.417Z</time></trkpt><trkpt lat="43.600863" lon="11.4080632"><ele>312.0</ele><time>2026-04-28T15:58:15.417Z</time></trkpt><trkpt lat="43.6009774" lon="11.4079419"><ele>312.25</ele><time>2026-04-28T15:58:16.417Z</time></trkpt><trkpt lat="43.6010444" lon="11.407773"><ele>312.5</ele><time>2026-04-28T15:58:17.417Z</time></trkpt><trkpt lat="43.6010624" lon="11.4075727"><ele>312.75</ele><time>2026-04-28T15:58:18.417Z</time></trkpt><trkpt lat="43.6010414" lon="11.4073605"><ele>313.0</ele><time>2026-04-28T15:58:19.417Z</time></trkpt><trkpt lat="43.6009982" lon="11.4071405"><ele>313.0</ele><time>2026-04-28T15:58:20.417Z</time></trkpt><trkpt lat="43.6009371" lon="11.4069314"><ele>313.0</ele><time>2026-04-28T15:58:21.417Z</time></trkpt><trkpt lat="43.6008665" lon="11.4067193"><ele>313.0</ele><time>2026-04-28T15:58:22.417Z</time></trkpt><trkpt lat="43.6007911" lon="11.4065025"><ele>318.0</ele><time>2026-04-28T15:58:23.417Z</time></trkpt><trkpt lat="43.6007127" lon="11.4062802"><ele>323.0</ele><time>2026-04-28T15:58:24.417Z</time></trkpt><trkpt lat="43.6006066" lon="11.4060562"><ele>328.0</ele><time>2026-04-28T15:58:25.417Z</time></trkpt><trkpt lat="43.6004713" lon="11.405875"><ele>324.66666666666663</ele><time>2026-04-28T15:58:26.417Z</time></trkpt><trkpt lat="43.600308" lon="11.4057343"><ele>321.3333333333333</ele><time>2026-04-28T15:58:27.417Z</time></trkpt><trkpt lat="43.6001376" lon="11.4056184"><ele>318.0</ele><time>2026-04-28T15:58:28.417Z</time></trkpt><trkpt lat="43.5999735" lon="11.4054822"><ele>318.0</ele><time>2026-04-28T15:58:29.417Z</time></trkpt><trkpt lat="43.5998225" lon="11.4053157"><ele>318.0</ele><time>2026-04-28T15:58:30.417Z</time></trkpt><trkpt lat="43.5996876" lon="11.4051032"><ele>318.0</ele><time>2026-04-28T15:58:31.417Z</time></trkpt><trkpt lat="43.5995591" lon="11.4048565"><ele>315.3333333333333</ele><time>2026-04-28T15:58:32.417Z</time></trkpt><trkpt lat="43.5994295" lon="11.4046257"><ele>312.66666666666663</ele><time>2026-04-28T15:58:33.417Z</time></trkpt><trkpt lat="43.5993159" lon="11.4044238"><ele>310.0</ele><time>2026-04-28T15:58:34.417Z</time></trkpt><trkpt lat="43.5992217" lon="11.4042515"><ele>310.0</ele><time>2026-04-28T15:58:35.417Z</time></trkpt><trkpt lat="43.5991477" lon="11.4041049"><ele>310.0</ele><time>2026-04-28T15:58:36.417Z</time></trkpt><trkpt lat="43.5990987" lon="11.4039942"><ele>310.0</ele><time>2026-04-28T15:58:37.417Z</time></trkpt><trkpt lat="43.5990887" lon="11.4038692"><ele>310.0</ele><time>2026-04-28T15:58:38.417Z</time></trkpt><trkpt lat="43.5991167" lon="11.4037457"><ele>310.0</ele><time>2026-04-28T15:58:39.418Z</time></trkpt><trkpt lat="43.5991806" lon="11.4036397"><ele>311.0</ele><time>2026-04-28T15:58:40.417Z</time></trkpt><trkpt lat="43.5992751" lon="11.4035581"><ele>312.0</ele><time>2026-04-28T15:58:41.417Z</time></trkpt><trkpt lat="43.5993826" lon="11.4034721"><ele>313.0</ele><time>2026-04-28T15:58:42.417Z</time></trkpt><trkpt lat="43.5995002" lon="11.4033701"><ele>314.0</ele><time>2026-04-28T15:58:43.417Z</time></trkpt><trkpt lat="43.5996244" lon="11.4032557"><ele>316.6666666666667</ele><time>2026-04-28T15:58:44.417Z</time></trkpt><trkpt lat="43.599765" lon="11.403142"><ele>319.3333333333333</ele><time>2026-04-28T15:58:45.417Z</time></trkpt><trkpt lat="43.5999091" lon="11.4030226"><ele>322.0</ele><time>2026-04-28T15:58:46.417Z</time></trkpt><trkpt lat="43.6000452" lon="11.4028986"><ele>322.0</ele><time>2026-04-28T15:58:47.417Z</time></trkpt><trkpt lat="43.6001798" lon="11.402789"><ele>322.0</ele><time>2026-04-28T15:58:48.417Z</time></trkpt><trkpt lat="43.6003072" lon="11.4026685"><ele>322.0</ele><time>2026-04-28T15:58:49.417Z</time></trkpt><trkpt lat="43.600415" lon="11.4025116"><ele>321.66666666666663</ele><time>2026-04-28T15:58:50.417Z</time></trkpt><trkpt lat="43.6004874" lon="11.4023024"><ele>321.3333333333333</ele><time>2026-04-28T15:58:51.417Z</time></trkpt><trkpt lat="43.6005307" lon="11.4020657"><ele>321.0</ele><time>2026-04-28T15:58:52.417Z</time></trkpt><trkpt lat="43.6005792" lon="11.4018097"><ele>321.0</ele><time>2026-04-28T15:58:53.417Z</time></trkpt><trkpt lat="43.6006163" lon="11.4015374"><ele>321.0</ele><time>2026-04-28T15:58:54.417Z</time></trkpt><trkpt lat="43.6006576" lon="11.4012738"><ele>321.0</ele><time>2026-04-28T15:58:55.417Z</time></trkpt><trkpt lat="43.6006985" lon="11.4010218"><ele>320.3333333333333</ele><time>2026-04-28T15:58:56.417Z</time></trkpt><trkpt lat="43.6007319" lon="11.4007629"><ele>319.66666666666663</ele><time>2026-04-28T15:58:57.417Z</time></trkpt><trkpt lat="43.6007703" lon="11.4004996"><ele>319.0</ele><time>2026-04-28T15:58:58.417Z</time></trkpt><trkpt lat="43.6008084" lon="11.4002428"><ele>319.0</ele><time>2026-04-28T15:58:59.417Z</time></trkpt><trkpt lat="43.6008492" lon="11.3999917"><ele>319.0</ele><time>2026-04-28T15:59:00.417Z</time></trkpt><trkpt lat="43.6008789" lon="11.3997469"><ele>319.0</ele><time>2026-04-28T15:59:01.417Z</time></trkpt><trkpt lat="43.6008898" lon="11.3994962"><ele>320.3333333333333</ele><time>2026-04-28T15:59:02.417Z</time></trkpt><trkpt lat="43.6008515" lon="11.3992476"><ele>321.6666666666667</ele><time>2026-04-28T15:59:03.417Z</time></trkpt><trkpt lat="43.6007578" lon="11.3990027"><ele>323.0</ele><time>2026-04-28T15:59:04.417Z</time></trkpt><trkpt lat="43.6006458" lon="11.3987535"><ele>322.6666666666667</ele><time>2026-04-28T15:59:05.417Z</time></trkpt><trkpt lat="43.6005295" lon="11.3985169"><ele>322.3333333333333</ele><time>2026-04-28T15:59:06.417Z</time></trkpt><trkpt lat="43.6003884" lon="11.3982974"><ele>322.0</ele><time>2026-04-28T15:59:07.418Z</time></trkpt><trkpt lat="43.6002334" lon="11.3980819"><ele>325.0</ele><time>2026-04-28T15:59:08.417Z</time></trkpt><trkpt lat="43.6000701" lon="11.3978877"><ele>328.0</ele><time>2026-04-28T15:59:09.417Z</time></trkpt><trkpt lat="43.5998944" lon="11.3977015"><ele>331.0</ele><time>2026-04-28T15:59:10.417Z</time></trkpt><trkpt lat="43.5997291" lon="11.3975154"><ele>331.0</ele><time>2026-04-28T15:59:11.417Z</time></trkpt><trkpt lat="43.5995597" lon="11.3973381"><ele>331.0</ele><time>2026-04-28T15:59:12.417Z</time></trkpt><trkpt lat="43.599376" lon="11.3971896"><ele>331.0</ele><time>2026-04-28T15:59:13.417Z</time></trkpt><trkpt lat="43.5991887" lon="11.3970589"><ele>329.3333333333333</ele><time>2026-04-28T15:59:14.417Z</time></trkpt><trkpt lat="43.5990175" lon="11.3969048"><ele>327.6666666666667</ele><time>2026-04-28T15:59:15.417Z</time></trkpt><trkpt lat="43.5988614" lon="11.3967002"><ele>326.0</ele><time>2026-04-28T15:59:16.417Z</time></trkpt><trkpt lat="43.5987212" lon="11.3964783"><ele>325.0</ele><time>2026-04-28T15:59:17.417Z</time></trkpt><trkpt lat="43.5985833" lon="11.3962417"><ele>324.0</ele><time>2026-04-28T15:59:18.417Z</time></trkpt><trkpt lat="43.5984487" lon="11.3960152"><ele>323.0</ele><time>2026-04-28T15:59:19.417Z</time></trkpt><trkpt lat="43.5983156" lon="11.3957942"><ele>323.0</ele><time>2026-04-28T15:59:20.417Z</time></trkpt><trkpt lat="43.5981885" lon="11.3955746"><ele>323.0</ele><time>2026-04-28T15:59:21.417Z</time></trkpt><trkpt lat="43.5980945" lon="11.3953259"><ele>323.0</ele><time>2026-04-28T15:59:22.417Z</time></trkpt><trkpt lat="43.5980257" lon="11.3950524"><ele>324.6666666666667</ele><time>2026-04-28T15:59:23.417Z</time></trkpt><trkpt lat="43.5979839" lon="11.3947786"><ele>326.3333333333333</ele><time>2026-04-28T15:59:24.417Z</time></trkpt><trkpt lat="43.5979642" lon="11.3945191"><ele>328.0</ele><time>2026-04-28T15:59:25.417Z</time></trkpt><trkpt lat="43.5979488" lon="11.3942693"><ele>328.0</ele><time>2026-04-28T15:59:26.417Z</time></trkpt><trkpt lat="43.5979091" lon="11.3940474"><ele>328.0</ele><time>2026-04-28T15:59:27.417Z</time></trkpt><trkpt lat="43.5978314" lon="11.3938474"><ele>328.0</ele><time>2026-04-28T15:59:28.417Z</time></trkpt><trkpt lat="43.5977151" lon="11.3936837"><ele>329.3333333333333</ele><time>2026-04-28T15:59:29.417Z</time></trkpt><trkpt lat="43.5975591" lon="11.3935558"><ele>330.6666666666667</ele><time>2026-04-28T15:59:30.417Z</time></trkpt><trkpt lat="43.5973847" lon="11.3934605"><ele>332.0</ele><time>2026-04-28T15:59:31.417Z</time></trkpt><trkpt lat="43.5972266" lon="11.3933279"><ele>332.0</ele><time>2026-04-28T15:59:32.417Z</time></trkpt><trkpt lat="43.5970886" lon="11.3931518"><ele>332.0</ele><time>2026-04-28T15:59:33.417Z</time></trkpt><trkpt lat="43.5969697" lon="11.3929304"><ele>332.0</ele><time>2026-04-28T15:59:34.417Z</time></trkpt><trkpt lat="43.5968637" lon="11.3926991"><ele>332.33333333333337</ele><time>2026-04-28T15:59:35.417Z</time></trkpt><trkpt lat="43.5967664" lon="11.3924536"><ele>332.6666666666667</ele><time>2026-04-28T15:59:36.417Z</time></trkpt><trkpt lat="43.5966635" lon="11.3921987"><ele>333.0</ele><time>2026-04-28T15:59:37.417Z</time></trkpt><trkpt lat="43.5965611" lon="11.3919496"><ele>336.3333333333333</ele><time>2026-04-28T15:59:38.417Z</time></trkpt><trkpt lat="43.5964618" lon="11.3917065"><ele>339.66666666666663</ele><time>2026-04-28T15:59:39.417Z</time></trkpt><trkpt lat="43.5963736" lon="11.3914619"><ele>343.0</ele><time>2026-04-28T15:59:40.417Z</time></trkpt><trkpt lat="43.596293" lon="11.391201"><ele>341.66666666666663</ele><time>2026-04-28T15:59:41.418Z</time></trkpt><trkpt lat="43.5962085" lon="11.3909439"><ele>340.3333333333333</ele><time>2026-04-28T15:59:42.417Z</time></trkpt><trkpt lat="43.5961266" lon="11.3906837"><ele>339.0</ele><time>2026-04-28T15:59:43.418Z</time></trkpt><trkpt lat="43.5960544" lon="11.3904256"><ele>339.0</ele><time>2026-04-28T15:59:44.417Z</time></trkpt><trkpt lat="43.5959773" lon="11.3901758"><ele>339.0</ele><time>2026-04-28T15:59:45.417Z</time></trkpt><trkpt lat="43.5959026" lon="11.3899304"><ele>339.0</ele><time>2026-04-28T15:59:46.417Z</time></trkpt><trkpt lat="43.5958215" lon="11.3896863"><ele>339.6666666666667</ele><time>2026-04-28T15:59:47.417Z</time></trkpt><trkpt lat="43.595751" lon="11.389458"><ele>340.33333333333337</ele><time>2026-04-28T15:59:48.417Z</time></trkpt><trkpt lat="43.5957011" lon="11.3892558"><ele>341.0</ele><time>2026-04-28T15:59:49.417Z</time></trkpt><trkpt lat="43.5956588" lon="11.389075"><ele>341.0</ele><time>2026-04-28T15:59:50.417Z</time></trkpt><trkpt lat="43.5956322" lon="11.3889177"><ele>341.0</ele><time>2026-04-28T15:59:51.417Z</time></trkpt><trkpt lat="43.5956136" lon="11.3887884"><ele>341.0</ele><time>2026-04-28T15:59:52.417Z</time></trkpt><trkpt lat="43.5956045" lon="11.3886808"><ele>341.0</ele><time>2026-04-28T15:59:53.417Z</time></trkpt><trkpt lat="43.5955731" lon="11.3885941"><ele>341.0</ele><time>2026-04-28T15:59:54.417Z</time></trkpt><trkpt lat="43.595525" lon="11.3885223"><ele>341.0</ele><time>2026-04-28T15:59:55.417Z</time></trkpt><trkpt lat="43.5954604" lon="11.388499"><ele>340.75</ele><time>2026-04-28T15:59:56.417Z</time></trkpt><trkpt lat="43.5953403" lon="11.3885177"><ele>340.5</ele><time>2026-04-28T15:59:57.417Z</time></trkpt><trkpt lat="43.5952042" lon="11.3885299"><ele>340.25</ele><time>2026-04-28T15:59:58.417Z</time></trkpt><trkpt lat="43.5950551" lon="11.3885143"><ele>340.0</ele><time>2026-04-28T15:59:59.417Z</time></trkpt><trkpt lat="43.594909" lon="11.3884136"><ele>338.3333333333333</ele><time>2026-04-28T16:00:00.417Z</time></trkpt><trkpt lat="43.5947735" lon="11.3882904"><ele>336.6666666666667</ele><time>2026-04-28T16:00:01.417Z</time></trkpt><trkpt lat="43.5946464" lon="11.3881665"><ele>335.0</ele><time>2026-04-28T16:00:02.417Z</time></trkpt><trkpt lat="43.5945219" lon="11.3880306"><ele>339.33333333333337</ele><time>2026-04-28T16:00:03.417Z</time></trkpt><trkpt lat="43.5944064" lon="11.387871"><ele>343.6666666666667</ele><time>2026-04-28T16:00:04.417Z</time></trkpt><trkpt lat="43.5943342" lon="11.3876842"><ele>348.0</ele><time>2026-04-28T16:00:05.417Z</time></trkpt><trkpt lat="43.5943043" lon="11.387469"><ele>348.0</ele><time>2026-04-28T16:00:06.417Z</time></trkpt><trkpt lat="43.5943042" lon="11.387249"><ele>348.0</ele><time>2026-04-28T16:00:07.417Z</time></trkpt><trkpt lat="43.594306" lon="11.3870429"><ele>348.0</ele><time>2026-04-28T16:00:08.417Z</time></trkpt><trkpt lat="43.5942677" lon="11.3868504"><ele>347.75</ele><time>2026-04-28T16:00:09.418Z</time></trkpt><trkpt lat="43.594182" lon="11.386705"><ele>347.5</ele><time>2026-04-28T16:00:10.417Z</time></trkpt><trkpt lat="43.5940674" lon="11.3866123"><ele>347.25</ele><time>2026-04-28T16:00:11.417Z</time></trkpt><trkpt lat="43.5939266" lon="11.38657"><ele>347.0</ele><time>2026-04-28T16:00:12.417Z</time></trkpt><trkpt lat="43.5937697" lon="11.386556"><ele>349.6666666666667</ele><time>2026-04-28T16:00:13.417Z</time></trkpt><trkpt lat="43.5935884" lon="11.3865607"><ele>352.3333333333333</ele><time>2026-04-28T16:00:14.417Z</time></trkpt><trkpt lat="43.5934076" lon="11.3865812"><ele>355.0</ele><time>2026-04-28T16:00:15.417Z</time></trkpt><trkpt lat="43.5932288" lon="11.3865954"><ele>355.0</ele><time>2026-04-28T16:00:16.418Z</time></trkpt><trkpt lat="43.5930471" lon="11.3866109"><ele>355.0</ele><time>2026-04-28T16:00:17.417Z</time></trkpt><trkpt lat="43.5928737" lon="11.3866389"><ele>355.0</ele><time>2026-04-28T16:00:18.417Z</time></trkpt><trkpt lat="43.5927171" lon="11.3866861"><ele>357.25</ele><time>2026-04-28T16:00:19.417Z</time></trkpt><trkpt lat="43.5925893" lon="11.3867738"><ele>359.5</ele><time>2026-04-28T16:00:20.417Z</time></trkpt><trkpt lat="43.5924968" lon="11.3868839"><ele>361.75</ele><time>2026-04-28T16:00:21.417Z</time></trkpt><trkpt lat="43.5924533" lon="11.387037"><ele>364.0</ele><time>2026-04-28T16:00:22.417Z</time></trkpt><trkpt lat="43.5924525" lon="11.3872316"><ele>365.66666666666663</ele><time>2026-04-28T16:00:23.417Z</time></trkpt><trkpt lat="43.5924708" lon="11.3874341"><ele>367.3333333333333</ele><time>2026-04-28T16:00:24.417Z</time></trkpt><trkpt lat="43.5924857" lon="11.3876532"><ele>369.0</ele><time>2026-04-28T16:00:25.417Z</time></trkpt><trkpt lat="43.5924808" lon="11.3878894"><ele>369.3333333333333</ele><time>2026-04-28T16:00:26.417Z</time></trkpt><trkpt lat="43.5924682" lon="11.3881288"><ele>369.66666666666663</ele><time>2026-04-28T16:00:27.418Z</time></trkpt><trkpt lat="43.5924495" lon="11.3883831"><ele>370.0</ele><time>2026-04-28T16:00:28.417Z</time></trkpt><trkpt lat="43.5924252" lon="11.3886305"><ele>372.3333333333333</ele><time>2026-04-28T16:00:29.417Z</time></trkpt><trkpt lat="43.5924064" lon="11.3888689"><ele>374.6666666666667</ele><time>2026-04-28T16:00:30.417Z</time></trkpt><trkpt lat="43.5923946" lon="11.389082"><ele>377.0</ele><time>2026-04-28T16:00:31.417Z</time></trkpt><trkpt lat="43.5923752" lon="11.3892654"><ele>377.0</ele><time>2026-04-28T16:00:32.417Z</time></trkpt><trkpt lat="43.5923539" lon="11.3894243"><ele>377.0</ele><time>2026-04-28T16:00:33.417Z</time></trkpt><trkpt lat="43.5923128" lon="11.3895403"><ele>377.0</ele><time>2026-04-28T16:00:34.417Z</time></trkpt><trkpt lat="43.5922473" lon="11.3896104"><ele>377.0</ele><time>2026-04-28T16:00:35.417Z</time></trkpt><trkpt lat="43.5921572" lon="11.3895677"><ele>377.0</ele><time>2026-04-28T16:00:36.417Z</time></trkpt><trkpt lat="43.5920866" lon="11.3894612"><ele>377.0</ele><time>2026-04-28T16:00:37.417Z</time></trkpt><trkpt lat="43.5920555" lon="11.3893165"><ele>377.0</ele><time>2026-04-28T16:00:38.417Z</time></trkpt><trkpt lat="43.5920364" lon="11.3891227"><ele>377.0</ele><time>2026-04-28T16:00:39.417Z</time></trkpt><trkpt lat="43.5919999" lon="11.3889565"><ele>377.0</ele><time>2026-04-28T16:00:40.417Z</time></trkpt><trkpt lat="43.5919259" lon="11.3888058"><ele>378.75</ele><time>2026-04-28T16:00:41.417Z</time></trkpt><trkpt lat="43.5917987" lon="11.3887384"><ele>380.5</ele><time>2026-04-28T16:00:42.417Z</time></trkpt><trkpt lat="43.5916759" lon="11.3887002"><ele>382.25</ele><time>2026-04-28T16:00:43.417Z</time></trkpt><trkpt lat="43.5915148" lon="11.3887228"><ele>384.0</ele><time>2026-04-28T16:00:44.417Z</time></trkpt><trkpt lat="43.5913589" lon="11.3887518"><ele>384.0</ele><time>2026-04-28T16:00:45.417Z</time></trkpt><trkpt lat="43.5911807" lon="11.3887698"><ele>384.0</ele><time>2026-04-28T16:00:46.417Z</time></trkpt><trkpt lat="43.590996" lon="11.3887746"><ele>384.0</ele><time>2026-04-28T16:00:47.417Z</time></trkpt><trkpt lat="43.5908138" lon="11.3887863"><ele>389.33333333333337</ele><time>2026-04-28T16:00:48.418Z</time></trkpt><trkpt lat="43.590633" lon="11.3888022"><ele>394.6666666666667</ele><time>2026-04-28T16:00:49.418Z</time></trkpt><trkpt lat="43.5904485" lon="11.3888168"><ele>400.0</ele><time>2026-04-28T16:00:50.417Z</time></trkpt><trkpt lat="43.590278" lon="11.3888904"><ele>406.6666666666667</ele><time>2026-04-28T16:00:51.417Z</time></trkpt><trkpt lat="43.5901015" lon="11.3889961"><ele>413.33333333333337</ele><time>2026-04-28T16:00:52.417Z</time></trkpt><trkpt lat="43.5899226" lon="11.3890765"><ele>420.0</ele><time>2026-04-28T16:00:53.417Z</time></trkpt><trkpt lat="43.5897312" lon="11.389101"><ele>420.0</ele><time>2026-04-28T16:00:54.417Z</time></trkpt><trkpt lat="43.5895324" lon="11.389109"><ele>420.0</ele><time>2026-04-28T16:00:55.417Z</time></trkpt><trkpt lat="43.5893324" lon="11.3890901"><ele>420.0</ele><time>2026-04-28T16:00:56.417Z</time></trkpt><trkpt lat="43.5891487" lon="11.3890103"><ele>418.33333333333337</ele><time>2026-04-28T16:00:57.417Z</time></trkpt><trkpt lat="43.588967" lon="11.3888794"><ele>416.6666666666667</ele><time>2026-04-28T16:00:58.417Z</time></trkpt><trkpt lat="43.588782" lon="11.3887533"><ele>415.0</ele><time>2026-04-28T16:00:59.417Z</time></trkpt><trkpt lat="43.5886014" lon="11.388618"><ele>419.0</ele><time>2026-04-28T16:01:00.417Z</time></trkpt><trkpt lat="43.5884251" lon="11.3884964"><ele>423.0</ele><time>2026-04-28T16:01:01.417Z</time></trkpt><trkpt lat="43.5882415" lon="11.3883894"><ele>427.0</ele><time>2026-04-28T16:01:02.418Z</time></trkpt><trkpt lat="43.5880449" lon="11.3883169"><ele>430.0</ele><time>2026-04-28T16:01:03.417Z</time></trkpt><trkpt lat="43.5878418" lon="11.388254"><ele>433.0</ele><time>2026-04-28T16:01:04.417Z</time></trkpt><trkpt lat="43.587642" lon="11.3882043"><ele>436.0</ele><time>2026-04-28T16:01:05.417Z</time></trkpt><trkpt lat="43.587439" lon="11.3881607"><ele>436.0</ele><time>2026-04-28T16:01:06.417Z</time></trkpt><trkpt lat="43.5872288" lon="11.3881177"><ele>436.0</ele><time>2026-04-28T16:01:07.417Z</time></trkpt><trkpt lat="43.5870267" lon="11.3880696"><ele>436.0</ele><time>2026-04-28T16:01:08.417Z</time></trkpt><trkpt lat="43.5868297" lon="11.3880245"><ele>435.0</ele><time>2026-04-28T16:01:09.417Z</time></trkpt><trkpt lat="43.5866384" lon="11.3879781"><ele>434.0</ele><time>2026-04-28T16:01:10.417Z</time></trkpt><trkpt lat="43.5864436" lon="11.3879364"><ele>433.0</ele><time>2026-04-28T16:01:11.417Z</time></trkpt><trkpt lat="43.5862454" lon="11.3879211"><ele>434.6666666666667</ele><time>2026-04-28T16:01:12.417Z</time></trkpt><trkpt lat="43.5860472" lon="11.387949"><ele>436.33333333333337</ele><time>2026-04-28T16:01:13.417Z</time></trkpt><trkpt lat="43.5858608" lon="11.3880334"><ele>438.0</ele><time>2026-04-28T16:01:14.417Z</time></trkpt><trkpt lat="43.5857048" lon="11.3881647"><ele>439.0</ele><time>2026-04-28T16:01:15.417Z</time></trkpt><trkpt lat="43.5855618" lon="11.3882936"><ele>440.0</ele><time>2026-04-28T16:01:16.417Z</time></trkpt><trkpt lat="43.5854472" lon="11.388433"><ele>441.0</ele><time>2026-04-28T16:01:17.417Z</time></trkpt><trkpt lat="43.585338" lon="11.3885701"><ele>441.0</ele><time>2026-04-28T16:01:18.418Z</time></trkpt><trkpt lat="43.5852388" lon="11.3886959"><ele>441.0</ele><time>2026-04-28T16:01:19.418Z</time></trkpt><trkpt lat="43.5851351" lon="11.3888155"><ele>441.0</ele><time>2026-04-28T16:01:20.417Z</time></trkpt><trkpt lat="43.5850356" lon="11.3889279"><ele>441.0</ele><time>2026-04-28T16:01:21.417Z</time></trkpt><trkpt lat="43.5849373" lon="11.3890491"><ele>442.25</ele><time>2026-04-28T16:01:22.418Z</time></trkpt><trkpt lat="43.58484" lon="11.389171"><ele>443.5</ele><time>2026-04-28T16:01:23.418Z</time></trkpt><trkpt lat="43.5847265" lon="11.3892773"><ele>444.75</ele><time>2026-04-28T16:01:24.417Z</time></trkpt><trkpt lat="43.5845928" lon="11.3893525"><ele>446.0</ele><time>2026-04-28T16:01:25.417Z</time></trkpt><trkpt lat="43.5844461" lon="11.3893854"><ele>446.0</ele><time>2026-04-28T16:01:26.418Z</time></trkpt><trkpt lat="43.5842927" lon="11.3893934"><ele>446.0</ele><time>2026-04-28T16:01:27.417Z</time></trkpt><trkpt lat="43.5841352" lon="11.389377"><ele>446.0</ele><time>2026-04-28T16:01:28.418Z</time></trkpt><trkpt lat="43.5839818" lon="11.3893403"><ele>446.0</ele><time>2026-04-28T16:01:29.417Z</time></trkpt><trkpt lat="43.5838436" lon="11.3892945"><ele>446.0</ele><time>2026-04-28T16:01:30.417Z</time></trkpt><trkpt lat="43.5837192" lon="11.3892419"><ele>446.0</ele><time>2026-04-28T16:01:31.417Z</time></trkpt><trkpt lat="43.5836127" lon="11.3891933"><ele>446.0</ele><time>2026-04-28T16:01:32.417Z</time></trkpt><trkpt lat="43.5835092" lon="11.3891493"><ele>446.99999999999994</ele><time>2026-04-28T16:01:33.417Z</time></trkpt><trkpt lat="43.5834073" lon="11.3891166"><ele>448.0</ele><time>2026-04-28T16:01:34.417Z</time></trkpt><trkpt lat="43.5833141" lon="11.3890891"><ele>449.0</ele><time>2026-04-28T16:01:35.417Z</time></trkpt><trkpt lat="43.5832382" lon="11.3890804"><ele>450.0</ele><time>2026-04-28T16:01:36.417Z</time></trkpt><trkpt lat="43.5831677" lon="11.3890826"><ele>450.99999999999994</ele><time>2026-04-28T16:01:37.417Z</time></trkpt><trkpt lat="43.583101" lon="11.3890724"><ele>452.0</ele><time>2026-04-28T16:01:38.417Z</time></trkpt><trkpt lat="43.5830294" lon="11.3890628"><ele>451.99999999999994</ele><time>2026-04-28T16:01:39.417Z</time></trkpt><trkpt lat="43.5829588" lon="11.3890554"><ele>452.0</ele><time>2026-04-28T16:01:40.417Z</time></trkpt><trkpt lat="43.582895" lon="11.389056"><ele>452.0</ele><time>2026-04-28T16:01:41.417Z</time></trkpt><trkpt lat="43.582786" lon="11.3891315"><ele>452.0</ele><time>2026-04-28T16:01:43.417Z</time></trkpt><trkpt lat="43.5827284" lon="11.389184"><ele>451.99999999999994</ele><time>2026-04-28T16:01:44.417Z</time></trkpt><trkpt lat="43.5826576" lon="11.389268"><ele>452.0</ele><time>2026-04-28T16:01:45.417Z</time></trkpt><trkpt lat="43.5826008" lon="11.3893233"><ele>452.8333333333333</ele><time>2026-04-28T16:01:46.417Z</time></trkpt><trkpt lat="43.5825056" lon="11.3894146"><ele>453.66666666666663</ele><time>2026-04-28T16:01:48.418Z</time></trkpt><trkpt lat="43.5824433" lon="11.3894571"><ele>454.5</ele><time>2026-04-28T16:01:50.417Z</time></trkpt><trkpt lat="43.5824079" lon="11.3895439"><ele>455.33333333333337</ele><time>2026-04-28T16:01:53.417Z</time></trkpt><trkpt lat="43.5824918" lon="11.3896335"><ele>456.1666666666667</ele><time>2026-04-28T16:01:55.417Z</time></trkpt><trkpt lat="43.5825665" lon="11.3896722"><ele>457.0</ele><time>2026-04-28T16:01:56.417Z</time></trkpt><trkpt lat="43.5826351" lon="11.3897174"><ele>454.6</ele><time>2026-04-28T16:01:57.417Z</time></trkpt><trkpt lat="43.5827202" lon="11.3897685"><ele>452.20000000000005</ele><time>2026-04-28T16:01:58.417Z</time></trkpt><trkpt lat="43.5827982" lon="11.3898122"><ele>449.8</ele><time>2026-04-28T16:01:59.417Z</time></trkpt><trkpt lat="43.5828903" lon="11.3898582"><ele>447.4</ele><time>2026-04-28T16:02:00.417Z</time></trkpt><trkpt lat="43.5829847" lon="11.3899074"><ele>445.0</ele><time>2026-04-28T16:02:01.417Z</time></trkpt><trkpt lat="43.5830703" lon="11.3899437"><ele>444.2</ele><time>2026-04-28T16:02:02.417Z</time></trkpt><trkpt lat="43.5831505" lon="11.3899741"><ele>443.4</ele><time>2026-04-28T16:02:03.417Z</time></trkpt><trkpt lat="43.583228" lon="11.3899974"><ele>442.6</ele><time>2026-04-28T16:02:04.417Z</time></trkpt><trkpt lat="43.5832953" lon="11.390019"><ele>441.8</ele><time>2026-04-28T16:02:05.417Z</time></trkpt><trkpt lat="43.5834016" lon="11.3900787"><ele>441.0</ele><time>2026-04-28T16:02:07.417Z</time></trkpt><trkpt lat="43.5834445" lon="11.3902142"><ele>441.0</ele><time>2026-04-28T16:02:09.417Z</time></trkpt><trkpt lat="43.5834263" lon="11.3903184"><ele>441.0</ele><time>2026-04-28T16:02:10.417Z</time></trkpt><trkpt lat="43.5833843" lon="11.3904474"><ele>441.0</ele><time>2026-04-28T16:02:11.418Z</time></trkpt><trkpt lat="43.5833527" lon="11.3905908"><ele>441.0</ele><time>2026-04-28T16:02:12.418Z</time></trkpt><trkpt lat="43.5833193" lon="11.3907444"><ele>441.0</ele><time>2026-04-28T16:02:13.417Z</time></trkpt><trkpt lat="43.5832905" lon="11.3909043"><ele>439.6666666666667</ele><time>2026-04-28T16:02:14.417Z</time></trkpt><trkpt lat="43.5832664" lon="11.3910452"><ele>438.33333333333337</ele><time>2026-04-28T16:02:15.417Z</time></trkpt><trkpt lat="43.5832427" lon="11.3911558"><ele>437.0</ele><time>2026-04-28T16:02:16.417Z</time></trkpt><trkpt lat="43.5832212" lon="11.3912511"><ele>435.6666666666667</ele><time>2026-04-28T16:02:17.417Z</time></trkpt><trkpt lat="43.5832184" lon="11.3913409"><ele>434.33333333333337</ele><time>2026-04-28T16:02:18.418Z</time></trkpt><trkpt lat="43.5832344" lon="11.3914429"><ele>433.0</ele><time>2026-04-28T16:02:19.418Z</time></trkpt><trkpt lat="43.5832703" lon="11.3915408"><ele>432.71428571428567</ele><time>2026-04-28T16:02:20.417Z</time></trkpt><trkpt lat="43.5833173" lon="11.3916202"><ele>432.42857142857144</ele><time>2026-04-28T16:02:21.417Z</time></trkpt><trkpt lat="43.5833714" lon="11.3916908"><ele>432.1428571428571</ele><time>2026-04-28T16:02:22.417Z</time></trkpt><trkpt lat="43.583414" lon="11.3917708"><ele>431.85714285714283</ele><time>2026-04-28T16:02:23.417Z</time></trkpt><trkpt lat="43.5834605" lon="11.3918371"><ele>431.57142857142856</ele><time>2026-04-28T16:02:24.417Z</time></trkpt><trkpt lat="43.5835255" lon="11.3918746"><ele>431.2857142857143</ele><time>2026-04-28T16:02:25.417Z</time></trkpt><trkpt lat="43.5836072" lon="11.3919155"><ele>431.0</ele><time>2026-04-28T16:02:26.417Z</time></trkpt><trkpt lat="43.5836762" lon="11.3919601"><ele>430.66666666666663</ele><time>2026-04-28T16:02:27.417Z</time></trkpt><trkpt lat="43.583743" lon="11.3920149"><ele>430.3333333333333</ele><time>2026-04-28T16:02:28.418Z</time></trkpt><trkpt lat="43.5838076" lon="11.3920954"><ele>430.0</ele><time>2026-04-28T16:02:29.417Z</time></trkpt><trkpt lat="43.5838716" lon="11.3921757"><ele>429.66666666666663</ele><time>2026-04-28T16:02:30.417Z</time></trkpt><trkpt lat="43.5839229" lon="11.3922571"><ele>429.3333333333333</ele><time>2026-04-28T16:02:31.417Z</time></trkpt><trkpt lat="43.5839694" lon="11.3923269"><ele>429.0</ele><time>2026-04-28T16:02:32.417Z</time></trkpt><trkpt lat="43.5840034" lon="11.3924033"><ele>429.0</ele><time>2026-04-28T16:02:33.417Z</time></trkpt><trkpt lat="43.5840421" lon="11.3925685"><ele>429.0</ele><time>2026-04-28T16:02:35.417Z</time></trkpt><trkpt lat="43.5840448" lon="11.3926742"><ele>429.0</ele><time>2026-04-28T16:02:36.417Z</time></trkpt><trkpt lat="43.5840341" lon="11.3927775"><ele>429.0</ele><time>2026-04-28T16:02:37.417Z</time></trkpt><trkpt lat="43.5840154" lon="11.3928783"><ele>429.0</ele><time>2026-04-28T16:02:38.417Z</time></trkpt><trkpt lat="43.5839958" lon="11.3929795"><ele>429.0</ele><time>2026-04-28T16:02:39.417Z</time></trkpt><trkpt lat="43.5839945" lon="11.3931068"><ele>427.2</ele><time>2026-04-28T16:02:40.417Z</time></trkpt><trkpt lat="43.5839979" lon="11.3932317"><ele>425.4</ele><time>2026-04-28T16:02:41.417Z</time></trkpt><trkpt lat="43.5840072" lon="11.3933561"><ele>423.6</ele><time>2026-04-28T16:02:42.417Z</time></trkpt><trkpt lat="43.5839973" lon="11.3934961"><ele>421.8</ele><time>2026-04-28T16:02:43.417Z</time></trkpt><trkpt lat="43.583985" lon="11.3936181"><ele>420.0</ele><time>2026-04-28T16:02:44.417Z</time></trkpt><trkpt lat="43.5839701" lon="11.3937293"><ele>420.0</ele><time>2026-04-28T16:02:45.417Z</time></trkpt><trkpt lat="43.5839547" lon="11.3938339"><ele>420.0</ele><time>2026-04-28T16:02:46.417Z</time></trkpt><trkpt lat="43.5839277" lon="11.3939486"><ele>420.0</ele><time>2026-04-28T16:02:47.417Z</time></trkpt><trkpt lat="43.5838927" lon="11.3940663"><ele>420.0</ele><time>2026-04-28T16:02:48.417Z</time></trkpt><trkpt lat="43.583861" lon="11.3941645"><ele>420.0</ele><time>2026-04-28T16:02:49.417Z</time></trkpt><trkpt lat="43.5838018" lon="11.3942433"><ele>420.0</ele><time>2026-04-28T16:02:50.417Z</time></trkpt><trkpt lat="43.5837321" lon="11.3943231"><ele>418.6</ele><time>2026-04-28T16:02:51.417Z</time></trkpt><trkpt lat="43.5836516" lon="11.3944024"><ele>417.2</ele><time>2026-04-28T16:02:52.417Z</time></trkpt><trkpt lat="43.5835628" lon="11.3945054"><ele>415.79999999999995</ele><time>2026-04-28T16:02:53.417Z</time></trkpt><trkpt lat="43.5834725" lon="11.394609"><ele>414.4</ele><time>2026-04-28T16:02:54.417Z</time></trkpt><trkpt lat="43.5833911" lon="11.3946972"><ele>413.0</ele><time>2026-04-28T16:02:55.418Z</time></trkpt><trkpt lat="43.5833103" lon="11.3947804"><ele>410.79999999999995</ele><time>2026-04-28T16:02:56.417Z</time></trkpt><trkpt lat="43.5832407" lon="11.3948592"><ele>408.6</ele><time>2026-04-28T16:02:57.417Z</time></trkpt><trkpt lat="43.5831914" lon="11.3949156"><ele>406.4</ele><time>2026-04-28T16:02:58.417Z</time></trkpt><trkpt lat="43.5831014" lon="11.3949762"><ele>404.20000000000005</ele><time>2026-04-28T16:03:00.417Z</time></trkpt><trkpt lat="43.582972" lon="11.3949768"><ele>402.0</ele><time>2026-04-28T16:03:02.417Z</time></trkpt><trkpt lat="43.5828816" lon="11.3949544"><ele>401.20000000000005</ele><time>2026-04-28T16:03:03.417Z</time></trkpt><trkpt lat="43.5827826" lon="11.3949422"><ele>400.4</ele><time>2026-04-28T16:03:04.417Z</time></trkpt><trkpt lat="43.5826878" lon="11.3949468"><ele>399.6</ele><time>2026-04-28T16:03:05.418Z</time></trkpt><trkpt lat="43.5826084" lon="11.3949573"><ele>398.79999999999995</ele><time>2026-04-28T16:03:06.417Z</time></trkpt><trkpt lat="43.5825128" lon="11.3950061"><ele>398.0</ele><time>2026-04-28T16:03:08.417Z</time></trkpt><trkpt lat="43.5824383" lon="11.3950911"><ele>397.99999999999994</ele><time>2026-04-28T16:03:10.417Z</time></trkpt><trkpt lat="43.5823603" lon="11.3951652"><ele>398.0</ele><time>2026-04-28T16:03:12.417Z</time></trkpt><trkpt lat="43.5822529" lon="11.3951382"><ele>398.0</ele><time>2026-04-28T16:03:14.417Z</time></trkpt><trkpt lat="43.5821908" lon="11.3950804"><ele>398.0</ele><time>2026-04-28T16:03:15.417Z</time></trkpt><trkpt lat="43.5821263" lon="11.3950498"><ele>397.99999999999994</ele><time>2026-04-28T16:03:16.418Z</time></trkpt><trkpt lat="43.5820397" lon="11.3950583"><ele>398.0</ele><time>2026-04-28T16:03:17.417Z</time></trkpt><trkpt lat="43.5819567" lon="11.3950824"><ele>397.3333333333333</ele><time>2026-04-28T16:03:18.417Z</time></trkpt><trkpt lat="43.5818784" lon="11.3951137"><ele>396.66666666666663</ele><time>2026-04-28T16:03:19.417Z</time></trkpt><trkpt lat="43.5818037" lon="11.3951621"><ele>396.0</ele><time>2026-04-28T16:03:20.417Z</time></trkpt><trkpt lat="43.5817249" lon="11.3952058"><ele>395.33333333333337</ele><time>2026-04-28T16:03:21.417Z</time></trkpt><trkpt lat="43.581646" lon="11.3952365"><ele>394.6666666666667</ele><time>2026-04-28T16:03:22.417Z</time></trkpt><trkpt lat="43.5815663" lon="11.3952393"><ele>394.0</ele><time>2026-04-28T16:03:23.417Z</time></trkpt><trkpt lat="43.5814912" lon="11.3952349"><ele>394.00000000000006</ele><time>2026-04-28T16:03:24.417Z</time></trkpt><trkpt lat="43.5814077" lon="11.3952348"><ele>394.0</ele><time>2026-04-28T16:03:25.417Z</time></trkpt><trkpt lat="43.5813282" lon="11.3952509"><ele>394.0</ele><time>2026-04-28T16:03:26.418Z</time></trkpt><trkpt lat="43.5812606" lon="11.395296"><ele>394.0</ele><time>2026-04-28T16:03:27.417Z</time></trkpt><trkpt lat="43.5811852" lon="11.3953468"><ele>394.00000000000006</ele><time>2026-04-28T16:03:28.417Z</time></trkpt><trkpt lat="43.5811172" lon="11.3953872"><ele>394.0</ele><time>2026-04-28T16:03:29.417Z</time></trkpt><trkpt lat="43.5810443" lon="11.3954068"><ele>395.0</ele><time>2026-04-28T16:03:30.417Z</time></trkpt><trkpt lat="43.5809731" lon="11.3954095"><ele>396.0</ele><time>2026-04-28T16:03:31.417Z</time></trkpt><trkpt lat="43.5808299" lon="11.3953837"><ele>397.0</ele><time>2026-04-28T16:03:33.417Z</time></trkpt><trkpt lat="43.5807447" lon="11.3953812"><ele>398.0</ele><time>2026-04-28T16:03:34.418Z</time></trkpt><trkpt lat="43.5806554" lon="11.3954229"><ele>399.0</ele><time>2026-04-28T16:03:35.417Z</time></trkpt><trkpt lat="43.5805529" lon="11.3954586"><ele>399.0</ele><time>2026-04-28T16:03:36.417Z</time></trkpt><trkpt lat="43.5804702" lon="11.3954863"><ele>399.0</ele><time>2026-04-28T16:03:37.418Z</time></trkpt><trkpt lat="43.5803901" lon="11.395506"><ele>399.0</ele><time>2026-04-28T16:03:38.417Z</time></trkpt><trkpt lat="43.5803212" lon="11.3955103"><ele>399.0</ele><time>2026-04-28T16:03:39.417Z</time></trkpt><trkpt lat="43.5802456" lon="11.3956269"><ele>399.0</ele><time>2026-04-28T16:03:41.418Z</time></trkpt><trkpt lat="43.580245" lon="11.395804"><ele>400.0</ele><time>2026-04-28T16:03:43.417Z</time></trkpt><trkpt lat="43.580256" lon="11.3959102"><ele>401.0</ele><time>2026-04-28T16:03:44.417Z</time></trkpt><trkpt lat="43.5802717" lon="11.3960135"><ele>402.0</ele><time>2026-04-28T16:03:45.417Z</time></trkpt><trkpt lat="43.580268" lon="11.396175"><ele>403.0</ele><time>2026-04-28T16:03:47.418Z</time></trkpt><trkpt lat="43.5801767" lon="11.3962752"><ele>404.0</ele><time>2026-04-28T16:03:49.417Z</time></trkpt><trkpt lat="43.580101" lon="11.3963379"><ele>404.75</ele><time>2026-04-28T16:03:50.417Z</time></trkpt><trkpt lat="43.579985" lon="11.396421"><ele>405.5</ele><time>2026-04-28T16:03:51.417Z</time></trkpt><trkpt lat="43.5798665" lon="11.3964716"><ele>406.25</ele><time>2026-04-28T16:03:52.417Z</time></trkpt><trkpt lat="43.5797329" lon="11.3964898"><ele>407.0</ele><time>2026-04-28T16:03:53.417Z</time></trkpt><trkpt lat="43.5796117" lon="11.3964973"><ele>407.49999999999994</ele><time>2026-04-28T16:03:54.417Z</time></trkpt><trkpt lat="43.579513" lon="11.3964885"><ele>408.0</ele><time>2026-04-28T16:03:55.417Z</time></trkpt><trkpt lat="43.5794235" lon="11.3964636"><ele>408.5</ele><time>2026-04-28T16:03:56.417Z</time></trkpt><trkpt lat="43.5793547" lon="11.3964144"><ele>409.0</ele><time>2026-04-28T16:03:57.417Z</time></trkpt><trkpt lat="43.5792834" lon="11.3963582"><ele>409.49999999999994</ele><time>2026-04-28T16:03:58.417Z</time></trkpt><trkpt lat="43.5792164" lon="11.3963195"><ele>410.0</ele><time>2026-04-28T16:03:59.417Z</time></trkpt><trkpt lat="43.5791365" lon="11.3963253"><ele>410.2</ele><time>2026-04-28T16:04:00.418Z</time></trkpt><trkpt lat="43.5790382" lon="11.3963566"><ele>410.4</ele><time>2026-04-28T16:04:01.417Z</time></trkpt><trkpt lat="43.5789468" lon="11.3964063"><ele>410.6</ele><time>2026-04-28T16:04:02.417Z</time></trkpt><trkpt lat="43.5788486" lon="11.3964935"><ele>410.8</ele><time>2026-04-28T16:04:03.417Z</time></trkpt><trkpt lat="43.5787654" lon="11.3965801"><ele>411.0</ele><time>2026-04-28T16:04:04.417Z</time></trkpt><trkpt lat="43.5786871" lon="11.3966769"><ele>411.6</ele><time>2026-04-28T16:04:05.417Z</time></trkpt><trkpt lat="43.5786087" lon="11.39676"><ele>412.20000000000005</ele><time>2026-04-28T16:04:06.417Z</time></trkpt><trkpt lat="43.578533" lon="11.396821"><ele>412.79999999999995</ele><time>2026-04-28T16:04:07.418Z</time></trkpt><trkpt lat="43.5784664" lon="11.3969001"><ele>413.4</ele><time>2026-04-28T16:04:08.417Z</time></trkpt><trkpt lat="43.5783997" lon="11.3970027"><ele>414.0</ele><time>2026-04-28T16:04:09.417Z</time></trkpt><trkpt lat="43.5783295" lon="11.3971252"><ele>415.6666666666667</ele><time>2026-04-28T16:04:10.417Z</time></trkpt><trkpt lat="43.5782578" lon="11.3972185"><ele>417.33333333333337</ele><time>2026-04-28T16:04:11.417Z</time></trkpt><trkpt lat="43.5782022" lon="11.3972706"><ele>419.0</ele><time>2026-04-28T16:04:12.417Z</time></trkpt><trkpt lat="43.5781396" lon="11.3973072"><ele>420.6666666666667</ele><time>2026-04-28T16:04:13.417Z</time></trkpt><trkpt lat="43.5780078" lon="11.3973279"><ele>422.33333333333337</ele><time>2026-04-28T16:04:15.417Z</time></trkpt><trkpt lat="43.5779366" lon="11.397317"><ele>424.0</ele><time>2026-04-28T16:04:16.417Z</time></trkpt><trkpt lat="43.5778525" lon="11.3973065"><ele>425.33333333333337</ele><time>2026-04-28T16:04:17.417Z</time></trkpt><trkpt lat="43.5777647" lon="11.3972919"><ele>426.6666666666667</ele><time>2026-04-28T16:04:18.417Z</time></trkpt><trkpt lat="43.5777017" lon="11.3972889"><ele>428.0</ele><time>2026-04-28T16:04:19.418Z</time></trkpt><trkpt lat="43.5776161" lon="11.3972966"><ele>429.33333333333337</ele><time>2026-04-28T16:04:21.417Z</time></trkpt><trkpt lat="43.5775494" lon="11.3973156"><ele>430.6666666666667</ele><time>2026-04-28T16:04:35.417Z</time></trkpt><trkpt lat="43.5774712" lon="11.3972808"><ele>432.0</ele><time>2026-04-28T16:04:41.417Z</time></trkpt><trkpt lat="43.5773986" lon="11.3972166"><ele>432.0</ele><time>2026-04-28T16:04:44.417Z</time></trkpt><trkpt lat="43.5773278" lon="11.3971773"><ele>432.0</ele><time>2026-04-28T16:04:46.417Z</time></trkpt><trkpt lat="43.5772348" lon="11.3971319"><ele>432.0</ele><time>2026-04-28T16:04:48.417Z</time></trkpt><trkpt lat="43.5771571" lon="11.3970819"><ele>432.0</ele><time>2026-04-28T16:04:49.417Z</time></trkpt><trkpt lat="43.5770856" lon="11.3970244"><ele>432.0</ele><time>2026-04-28T16:04:51.417Z</time></trkpt><trkpt lat="43.5770526" lon="11.3969006"><ele>432.0</ele><time>2026-04-28T16:04:53.417Z</time></trkpt><trkpt lat="43.5770488" lon="11.3967897"><ele>432.5</ele><time>2026-04-28T16:04:54.417Z</time></trkpt><trkpt lat="43.577028" lon="11.396693"><ele>433.0</ele><time>2026-04-28T16:04:55.417Z</time></trkpt><trkpt lat="43.5769492" lon="11.3966197"><ele>433.5</ele><time>2026-04-28T16:04:57.417Z</time></trkpt><trkpt lat="43.5768638" lon="11.3966521"><ele>434.0</ele><time>2026-04-28T16:04:59.417Z</time></trkpt><trkpt lat="43.5767832" lon="11.3966438"><ele>434.5</ele><time>2026-04-28T16:05:00.417Z</time></trkpt><trkpt lat="43.5767119" lon="11.3966324"><ele>435.0</ele><time>2026-04-28T16:05:01.417Z</time></trkpt><trkpt lat="43.576593" lon="11.3965891"><ele>435.0</ele><time>2026-04-28T16:05:03.417Z</time></trkpt><trkpt lat="43.5765225" lon="11.3965723"><ele>435.0</ele><time>2026-04-28T16:05:04.417Z</time></trkpt><trkpt lat="43.5764556" lon="11.3965619"><ele>435.0</ele><time>2026-04-28T16:05:05.417Z</time></trkpt><trkpt lat="43.5763304" lon="11.3965643"><ele>435.0</ele><time>2026-04-28T16:05:07.417Z</time></trkpt><trkpt lat="43.5762652" lon="11.3965277"><ele>435.0</ele><time>2026-04-28T16:05:09.417Z</time></trkpt><trkpt lat="43.5763169" lon="11.396402"><ele>435.0</ele><time>2026-04-28T16:05:12.417Z</time></trkpt><trkpt lat="43.5763389" lon="11.3963184"><ele>434.8</ele><time>2026-04-28T16:05:13.417Z</time></trkpt><trkpt lat="43.5763566" lon="11.3961604"><ele>434.6</ele><time>2026-04-28T16:05:14.417Z</time></trkpt><trkpt lat="43.5763609" lon="11.3960262"><ele>434.4</ele><time>2026-04-28T16:05:15.417Z</time></trkpt><trkpt lat="43.5763584" lon="11.3958977"><ele>434.2</ele><time>2026-04-28T16:05:16.417Z</time></trkpt><trkpt lat="43.5763494" lon="11.3957626"><ele>434.0</ele><time>2026-04-28T16:05:17.417Z</time></trkpt><trkpt lat="43.576341" lon="11.3956294"><ele>433.99999999999994</ele><time>2026-04-28T16:05:18.417Z</time></trkpt><trkpt lat="43.5763285" lon="11.3955139"><ele>434.0</ele><time>2026-04-28T16:05:19.417Z</time></trkpt><trkpt lat="43.5763195" lon="11.3954158"><ele>434.0</ele><time>2026-04-28T16:05:20.417Z</time></trkpt><trkpt lat="43.5763143" lon="11.3953188"><ele>434.0</ele><time>2026-04-28T16:05:21.417Z</time></trkpt><trkpt lat="43.5763048" lon="11.3952119"><ele>433.99999999999994</ele><time>2026-04-28T16:05:22.417Z</time></trkpt><trkpt lat="43.5762935" lon="11.3951068"><ele>434.0</ele><time>2026-04-28T16:05:23.417Z</time></trkpt><trkpt lat="43.5762675" lon="11.3950005"><ele>434.49999999999994</ele><time>2026-04-28T16:05:24.417Z</time></trkpt><trkpt lat="43.5762362" lon="11.3948973"><ele>435.0</ele><time>2026-04-28T16:05:25.417Z</time></trkpt><trkpt lat="43.5762073" lon="11.3947846"><ele>435.5</ele><time>2026-04-28T16:05:26.417Z</time></trkpt><trkpt lat="43.5761728" lon="11.3946748"><ele>436.0</ele><time>2026-04-28T16:05:27.417Z</time></trkpt><trkpt lat="43.5761396" lon="11.3945881"><ele>436.49999999999994</ele><time>2026-04-28T16:05:28.417Z</time></trkpt><trkpt lat="43.57607" lon="11.3944865"><ele>437.0</ele><time>2026-04-28T16:05:30.417Z</time></trkpt><trkpt lat="43.5760006" lon="11.3944097"><ele>437.0</ele><time>2026-04-28T16:05:38.417Z</time></trkpt><trkpt lat="43.575909" lon="11.3943102"><ele>437.00000000000006</ele><time>2026-04-28T16:05:40.417Z</time></trkpt><trkpt lat="43.575815" lon="11.3941946"><ele>437.00000000000006</ele><time>2026-04-28T16:05:42.417Z</time></trkpt><trkpt lat="43.5757681" lon="11.39413"><ele>437.0</ele><time>2026-04-28T16:05:43.417Z</time></trkpt><trkpt lat="43.5757109" lon="11.3940676"><ele>437.0</ele><time>2026-04-28T16:05:44.417Z</time></trkpt><trkpt lat="43.5756448" lon="11.3940187"><ele>436.99999999999994</ele><time>2026-04-28T16:05:45.417Z</time></trkpt><trkpt lat="43.5755666" lon="11.3939701"><ele>437.0</ele><time>2026-04-28T16:05:46.417Z</time></trkpt><trkpt lat="43.5754899" lon="11.3939056"><ele>437.0</ele><time>2026-04-28T16:05:47.418Z</time></trkpt><trkpt lat="43.5754261" lon="11.3938408"><ele>437.0</ele><time>2026-04-28T16:05:48.417Z</time></trkpt><trkpt lat="43.575344" lon="11.3937832"><ele>436.99999999999994</ele><time>2026-04-28T16:05:49.417Z</time></trkpt><trkpt lat="43.575263" lon="11.3937382"><ele>437.0</ele><time>2026-04-28T16:05:50.417Z</time></trkpt><trkpt lat="43.5751754" lon="11.3936908"><ele>437.8</ele><time>2026-04-28T16:05:51.417Z</time></trkpt><trkpt lat="43.5750843" lon="11.3936332"><ele>438.6</ele><time>2026-04-28T16:05:52.417Z</time></trkpt><trkpt lat="43.5749944" lon="11.3935707"><ele>439.40000000000003</ele><time>2026-04-28T16:05:53.418Z</time></trkpt><trkpt lat="43.5749019" lon="11.3935095"><ele>440.20000000000005</ele><time>2026-04-28T16:05:54.417Z</time></trkpt><trkpt lat="43.5748105" lon="11.3934458"><ele>441.0</ele><time>2026-04-28T16:05:55.417Z</time></trkpt><trkpt lat="43.57472" lon="11.3933779"><ele>441.0</ele><time>2026-04-28T16:05:56.417Z</time></trkpt><trkpt lat="43.5746357" lon="11.3933124"><ele>441.0</ele><time>2026-04-28T16:05:57.417Z</time></trkpt><trkpt lat="43.5745585" lon="11.3932509"><ele>441.0</ele><time>2026-04-28T16:05:58.417Z</time></trkpt><trkpt lat="43.5744794" lon="11.3931881"><ele>441.0</ele><time>2026-04-28T16:05:59.417Z</time></trkpt><trkpt lat="43.5744003" lon="11.3931315"><ele>441.0</ele><time>2026-04-28T16:06:00.417Z</time></trkpt><trkpt lat="43.5743222" lon="11.3930774"><ele>442.1666666666667</ele><time>2026-04-28T16:06:01.417Z</time></trkpt><trkpt lat="43.5742393" lon="11.3930265"><ele>443.33333333333337</ele><time>2026-04-28T16:06:02.417Z</time></trkpt><trkpt lat="43.5741708" lon="11.3929686"><ele>444.5</ele><time>2026-04-28T16:06:03.417Z</time></trkpt><trkpt lat="43.5741097" lon="11.3929118"><ele>445.6666666666667</ele><time>2026-04-28T16:06:04.417Z</time></trkpt><trkpt lat="43.5740444" lon="11.3928592"><ele>446.83333333333337</ele><time>2026-04-28T16:06:05.417Z</time></trkpt><trkpt lat="43.5739812" lon="11.3928308"><ele>448.0</ele><time>2026-04-28T16:06:06.417Z</time></trkpt><trkpt lat="43.573879" lon="11.3928674"><ele>448.59999999999997</ele><time>2026-04-28T16:06:08.417Z</time></trkpt><trkpt lat="43.5737871" lon="11.3929089"><ele>449.19999999999993</ele><time>2026-04-28T16:06:10.417Z</time></trkpt><trkpt lat="43.573658" lon="11.3928633"><ele>449.8</ele><time>2026-04-28T16:06:12.417Z</time></trkpt><trkpt lat="43.5735796" lon="11.3928202"><ele>450.4</ele><time>2026-04-28T16:06:13.417Z</time></trkpt><trkpt lat="43.57349" lon="11.3927633"><ele>451.0</ele><time>2026-04-28T16:06:14.417Z</time></trkpt><trkpt lat="43.5734024" lon="11.3927234"><ele>452.00000000000006</ele><time>2026-04-28T16:06:15.417Z</time></trkpt><trkpt lat="43.5733296" lon="11.3926906"><ele>453.0</ele><time>2026-04-28T16:06:16.417Z</time></trkpt><trkpt lat="43.5732625" lon="11.3926626"><ele>454.0</ele><time>2026-04-28T16:06:17.417Z</time></trkpt><trkpt lat="43.5731803" lon="11.3926519"><ele>455.0</ele><time>2026-04-28T16:06:19.418Z</time></trkpt><trkpt lat="43.5730713" lon="11.3925826"><ele>456.00000000000006</ele><time>2026-04-28T16:06:21.417Z</time></trkpt><trkpt lat="43.5730048" lon="11.3925095"><ele>457.0</ele><time>2026-04-28T16:06:22.417Z</time></trkpt><trkpt lat="43.5729343" lon="11.392432"><ele>459.0</ele><time>2026-04-28T16:06:23.417Z</time></trkpt><trkpt lat="43.5728555" lon="11.3923574"><ele>461.00000000000006</ele><time>2026-04-28T16:06:24.417Z</time></trkpt><trkpt lat="43.5727679" lon="11.3922786"><ele>463.00000000000006</ele><time>2026-04-28T16:06:25.417Z</time></trkpt><trkpt lat="43.5726788" lon="11.3921841"><ele>465.0</ele><time>2026-04-28T16:06:26.417Z</time></trkpt><trkpt lat="43.5725843" lon="11.3920858"><ele>467.0</ele><time>2026-04-28T16:06:27.417Z</time></trkpt><trkpt lat="43.5724911" lon="11.3919797"><ele>467.0</ele><time>2026-04-28T16:06:28.418Z</time></trkpt><trkpt lat="43.5723933" lon="11.391878"><ele>467.00000000000006</ele><time>2026-04-28T16:06:29.417Z</time></trkpt><trkpt lat="43.5723088" lon="11.3917877"><ele>467.00000000000006</ele><time>2026-04-28T16:06:30.417Z</time></trkpt><trkpt lat="43.5722378" lon="11.3917066"><ele>467.0</ele><time>2026-04-28T16:06:31.417Z</time></trkpt><trkpt lat="43.5721651" lon="11.3916396"><ele>467.0</ele><time>2026-04-28T16:06:32.417Z</time></trkpt><trkpt lat="43.5720956" lon="11.3915799"><ele>468.8333333333333</ele><time>2026-04-28T16:06:33.417Z</time></trkpt><trkpt lat="43.5720192" lon="11.3915617"><ele>470.66666666666663</ele><time>2026-04-28T16:06:34.417Z</time></trkpt><trkpt lat="43.5719444" lon="11.3915544"><ele>472.5</ele><time>2026-04-28T16:06:35.417Z</time></trkpt><trkpt lat="43.5718725" lon="11.3915895"><ele>474.33333333333337</ele><time>2026-04-28T16:06:37.417Z</time></trkpt><trkpt lat="43.5718697" lon="11.3917099"><ele>476.1666666666667</ele><time>2026-04-28T16:06:39.417Z</time></trkpt><trkpt lat="43.5718944" lon="11.3917975"><ele>478.0</ele><time>2026-04-28T16:06:40.417Z</time></trkpt><trkpt lat="43.5719226" lon="11.3918951"><ele>478.0</ele><time>2026-04-28T16:06:41.417Z</time></trkpt><trkpt lat="43.571936" lon="11.3920156"><ele>477.99999999999994</ele><time>2026-04-28T16:06:42.417Z</time></trkpt><trkpt lat="43.5719486" lon="11.3921491"><ele>477.99999999999994</ele><time>2026-04-28T16:06:43.417Z</time></trkpt><trkpt lat="43.5719626" lon="11.3922873"><ele>478.0</ele><time>2026-04-28T16:06:44.417Z</time></trkpt><trkpt lat="43.5719818" lon="11.3924292"><ele>478.0</ele><time>2026-04-28T16:06:45.417Z</time></trkpt><trkpt lat="43.5720078" lon="11.3925728"><ele>477.75</ele><time>2026-04-28T16:06:46.418Z</time></trkpt><trkpt lat="43.5720246" lon="11.3927254"><ele>477.5</ele><time>2026-04-28T16:06:47.417Z</time></trkpt><trkpt lat="43.5720376" lon="11.3928866"><ele>477.25</ele><time>2026-04-28T16:06:48.417Z</time></trkpt><trkpt lat="43.5720415" lon="11.3930619"><ele>477.0</ele><time>2026-04-28T16:06:49.417Z</time></trkpt><trkpt lat="43.5720392" lon="11.3932387"><ele>477.0</ele><time>2026-04-28T16:06:50.417Z</time></trkpt><trkpt lat="43.5720306" lon="11.3933984"><ele>477.0</ele><time>2026-04-28T16:06:51.417Z</time></trkpt><trkpt lat="43.5720205" lon="11.3935274"><ele>477.0</ele><time>2026-04-28T16:06:52.417Z</time></trkpt><trkpt lat="43.5720208" lon="11.3936398"><ele>477.0</ele><time>2026-04-28T16:06:53.417Z</time></trkpt><trkpt lat="43.5720305" lon="11.393731"><ele>477.0</ele><time>2026-04-28T16:06:54.417Z</time></trkpt><trkpt lat="43.5720641" lon="11.3938094"><ele>477.0</ele><time>2026-04-28T16:06:55.417Z</time></trkpt><trkpt lat="43.5721118" lon="11.393888"><ele>479.40000000000003</ele><time>2026-04-28T16:06:56.417Z</time></trkpt><trkpt lat="43.5721566" lon="11.3939754"><ele>481.80000000000007</ele><time>2026-04-28T16:06:57.417Z</time></trkpt><trkpt lat="43.5721931" lon="11.3940786"><ele>484.2</ele><time>2026-04-28T16:06:58.417Z</time></trkpt><trkpt lat="43.5722096" lon="11.3942075"><ele>486.6</ele><time>2026-04-28T16:06:59.417Z</time></trkpt><trkpt lat="43.5722149" lon="11.3943459"><ele>489.0</ele><time>2026-04-28T16:07:00.417Z</time></trkpt><trkpt lat="43.5722007" lon="11.3944762"><ele>489.0</ele><time>2026-04-28T16:07:01.417Z</time></trkpt><trkpt lat="43.5721664" lon="11.3945882"><ele>489.0</ele><time>2026-04-28T16:07:02.417Z</time></trkpt><trkpt lat="43.5721181" lon="11.394675"><ele>489.0</ele><time>2026-04-28T16:07:03.418Z</time></trkpt><trkpt lat="43.5720621" lon="11.3947627"><ele>489.0</ele><time>2026-04-28T16:07:04.417Z</time></trkpt><trkpt lat="43.5720068" lon="11.3948558"><ele>489.0</ele><time>2026-04-28T16:07:05.417Z</time></trkpt><trkpt lat="43.5719567" lon="11.3949515"><ele>489.0</ele><time>2026-04-28T16:07:06.417Z</time></trkpt><trkpt lat="43.5719074" lon="11.3950177"><ele>492.0</ele><time>2026-04-28T16:07:07.417Z</time></trkpt><trkpt lat="43.5718211" lon="11.3950198"><ele>495.0</ele><time>2026-04-28T16:07:09.417Z</time></trkpt><trkpt lat="43.5717897" lon="11.3949131"><ele>498.0</ele><time>2026-04-28T16:07:11.417Z</time></trkpt><trkpt lat="43.5717601" lon="11.3948218"><ele>501.0</ele><time>2026-04-28T16:07:13.418Z</time></trkpt><trkpt lat="43.5716681" lon="11.3946929"><ele>504.0</ele><time>2026-04-28T16:07:15.417Z</time></trkpt><trkpt lat="43.5715993" lon="11.3946263"><ele>504.5</ele><time>2026-04-28T16:07:16.417Z</time></trkpt><trkpt lat="43.5715318" lon="11.3945606"><ele>505.0</ele><time>2026-04-28T16:07:17.417Z</time></trkpt><trkpt lat="43.5714761" lon="11.3944874"><ele>505.5</ele><time>2026-04-28T16:07:18.417Z</time></trkpt><trkpt lat="43.5714293" lon="11.3944122"><ele>506.0</ele><time>2026-04-28T16:07:19.417Z</time></trkpt><trkpt lat="43.571386" lon="11.3943266"><ele>506.5</ele><time>2026-04-28T16:07:20.417Z</time></trkpt><trkpt lat="43.5713619" lon="11.3942402"><ele>507.0</ele><time>2026-04-28T16:07:21.417Z</time></trkpt><trkpt lat="43.5713047" lon="11.3941013"><ele>508.8</ele><time>2026-04-28T16:07:23.417Z</time></trkpt><trkpt lat="43.5711875" lon="11.3940849"><ele>510.6</ele><time>2026-04-28T16:07:25.417Z</time></trkpt><trkpt lat="43.5711236" lon="11.3941229"><ele>512.4000000000001</ele><time>2026-04-28T16:07:26.417Z</time></trkpt><trkpt lat="43.5710531" lon="11.3941958"><ele>514.2</ele><time>2026-04-28T16:07:27.417Z</time></trkpt><trkpt lat="43.5709846" lon="11.3942759"><ele>516.0</ele><time>2026-04-28T16:07:28.417Z</time></trkpt><trkpt lat="43.5709073" lon="11.3943511"><ele>516.0</ele><time>2026-04-28T16:07:29.417Z</time></trkpt><trkpt lat="43.5708106" lon="11.3944414"><ele>516.0</ele><time>2026-04-28T16:07:30.417Z</time></trkpt><trkpt lat="43.5707171" lon="11.3945252"><ele>516.0</ele><time>2026-04-28T16:07:31.417Z</time></trkpt><trkpt lat="43.5706108" lon="11.3946095"><ele>516.0</ele><time>2026-04-28T16:07:32.417Z</time></trkpt><trkpt lat="43.5705022" lon="11.3946939"><ele>515.8</ele><time>2026-04-28T16:07:33.417Z</time></trkpt><trkpt lat="43.5704072" lon="11.3947739"><ele>515.6</ele><time>2026-04-28T16:07:34.417Z</time></trkpt><trkpt lat="43.570315" lon="11.3948714"><ele>515.4</ele><time>2026-04-28T16:07:35.417Z</time></trkpt><trkpt lat="43.5702204" lon="11.3949584"><ele>515.2</ele><time>2026-04-28T16:07:36.417Z</time></trkpt><trkpt lat="43.5701331" lon="11.3950275"><ele>515.0</ele><time>2026-04-28T16:07:37.418Z</time></trkpt><trkpt lat="43.5700386" lon="11.3950943"><ele>517.0</ele><time>2026-04-28T16:07:38.417Z</time></trkpt><trkpt lat="43.569948" lon="11.3951503"><ele>519.0</ele><time>2026-04-28T16:07:39.417Z</time></trkpt><trkpt lat="43.569873" lon="11.3951936"><ele>521.0</ele><time>2026-04-28T16:07:40.417Z</time></trkpt><trkpt lat="43.5697874" lon="11.3952672"><ele>523.0</ele><time>2026-04-28T16:07:41.417Z</time></trkpt><trkpt lat="43.5697168" lon="11.3952793"><ele>525.0</ele><time>2026-04-28T16:07:42.417Z</time></trkpt><trkpt lat="43.5696547" lon="11.395228"><ele>527.0</ele><time>2026-04-28T16:07:43.417Z</time></trkpt><trkpt lat="43.5695904" lon="11.3951509"><ele>530.5</ele><time>2026-04-28T16:07:44.417Z</time></trkpt><trkpt lat="43.5695092" lon="11.3950697"><ele>534.0</ele><time>2026-04-28T16:07:45.417Z</time></trkpt><trkpt lat="43.5694146" lon="11.3949919"><ele>537.5</ele><time>2026-04-28T16:07:46.417Z</time></trkpt><trkpt lat="43.5693118" lon="11.3949224"><ele>541.0</ele><time>2026-04-28T16:07:47.417Z</time></trkpt><trkpt lat="43.56918" lon="11.3948573"><ele>541.0</ele><time>2026-04-28T16:07:48.418Z</time></trkpt><trkpt lat="43.569045" lon="11.3947974"><ele>541.0</ele><time>2026-04-28T16:07:49.417Z</time></trkpt><trkpt lat="43.5689057" lon="11.3947663"><ele>541.0</ele><time>2026-04-28T16:07:50.417Z</time></trkpt><trkpt lat="43.5687586" lon="11.3947438"><ele>541.0</ele><time>2026-04-28T16:07:51.417Z</time></trkpt><trkpt lat="43.5686057" lon="11.3947374"><ele>542.5</ele><time>2026-04-28T16:07:52.417Z</time></trkpt><trkpt lat="43.5684637" lon="11.3947132"><ele>544.0</ele><time>2026-04-28T16:07:53.417Z</time></trkpt><trkpt lat="43.5683394" lon="11.3946846"><ele>545.5</ele><time>2026-04-28T16:07:54.417Z</time></trkpt><trkpt lat="43.5682194" lon="11.3946243"><ele>547.0</ele><time>2026-04-28T16:07:55.417Z</time></trkpt><trkpt lat="43.5681044" lon="11.3945546"><ele>545.5</ele><time>2026-04-28T16:07:56.417Z</time></trkpt><trkpt lat="43.5679985" lon="11.3944706"><ele>544.0</ele><time>2026-04-28T16:07:57.417Z</time></trkpt><trkpt lat="43.5678933" lon="11.3943808"><ele>542.5</ele><time>2026-04-28T16:07:58.417Z</time></trkpt><trkpt lat="43.5677929" lon="11.3942894"><ele>541.0</ele><time>2026-04-28T16:07:59.417Z</time></trkpt><trkpt lat="43.5676854" lon="11.3941994"><ele>541.0</ele><time>2026-04-28T16:08:00.417Z</time></trkpt><trkpt lat="43.5675617" lon="11.394143"><ele>541.0</ele><time>2026-04-28T16:08:01.417Z</time></trkpt><trkpt lat="43.5674462" lon="11.3941053"><ele>541.0</ele><time>2026-04-28T16:08:02.417Z</time></trkpt><trkpt lat="43.5673193" lon="11.3940981"><ele>541.0</ele><time>2026-04-28T16:08:03.417Z</time></trkpt><trkpt lat="43.5672051" lon="11.3941126"><ele>541.0</ele><time>2026-04-28T16:08:04.417Z</time></trkpt><trkpt lat="43.5670928" lon="11.3941329"><ele>541.0</ele><time>2026-04-28T16:08:05.417Z</time></trkpt><trkpt lat="43.5669686" lon="11.3941776"><ele>541.0</ele><time>2026-04-28T16:08:06.418Z</time></trkpt><trkpt lat="43.5668301" lon="11.3942267"><ele>541.0</ele><time>2026-04-28T16:08:07.417Z</time></trkpt><trkpt lat="43.5666922" lon="11.3942735"><ele>543.5</ele><time>2026-04-28T16:08:08.417Z</time></trkpt><trkpt lat="43.5665612" lon="11.3943273"><ele>546.0</ele><time>2026-04-28T16:08:09.417Z</time></trkpt><trkpt lat="43.5664224" lon="11.3943846"><ele>548.5</ele><time>2026-04-28T16:08:10.417Z</time></trkpt><trkpt lat="43.5662812" lon="11.3944576"><ele>551.0</ele><time>2026-04-28T16:08:11.417Z</time></trkpt><trkpt lat="43.5661538" lon="11.3945523"><ele>553.75</ele><time>2026-04-28T16:08:12.417Z</time></trkpt><trkpt lat="43.5660359" lon="11.3946389"><ele>556.5</ele><time>2026-04-28T16:08:13.417Z</time></trkpt><trkpt lat="43.5659214" lon="11.3947079"><ele>559.25</ele><time>2026-04-28T16:08:14.417Z</time></trkpt><trkpt lat="43.5658111" lon="11.394763"><ele>562.0</ele><time>2026-04-28T16:08:15.418Z</time></trkpt><trkpt lat="43.5657017" lon="11.3948039"><ele>563.2</ele><time>2026-04-28T16:08:16.417Z</time></trkpt><trkpt lat="43.5656013" lon="11.3948731"><ele>564.4000000000001</ele><time>2026-04-28T16:08:17.417Z</time></trkpt><trkpt lat="43.5655252" lon="11.3949743"><ele>565.5999999999999</ele><time>2026-04-28T16:08:18.417Z</time></trkpt><trkpt lat="43.5654559" lon="11.3950585"><ele>566.8</ele><time>2026-04-28T16:08:19.417Z</time></trkpt><trkpt lat="43.5653851" lon="11.395131"><ele>568.0</ele><time>2026-04-28T16:08:20.417Z</time></trkpt><trkpt lat="43.5653101" lon="11.3952144"><ele>569.4</ele><time>2026-04-28T16:08:22.417Z</time></trkpt><trkpt lat="43.5652411" lon="11.3952581"><ele>570.8</ele><time>2026-04-28T16:08:24.417Z</time></trkpt><trkpt lat="43.565157" lon="11.395336"><ele>572.2</ele><time>2026-04-28T16:08:26.417Z</time></trkpt><trkpt lat="43.5650497" lon="11.3954311"><ele>573.6</ele><time>2026-04-28T16:08:28.417Z</time></trkpt><trkpt lat="43.5649375" lon="11.395455"><ele>575.0</ele><time>2026-04-28T16:08:30.417Z</time></trkpt><trkpt lat="43.5648383" lon="11.3954273"><ele>575.0</ele><time>2026-04-28T16:08:32.417Z</time></trkpt><trkpt lat="43.5647749" lon="11.3953938"><ele>575.0</ele><time>2026-04-28T16:08:33.417Z</time></trkpt><trkpt lat="43.5646611" lon="11.3953763"><ele>575.0</ele><time>2026-04-28T16:08:35.417Z</time></trkpt><trkpt lat="43.5645546" lon="11.3954421"><ele>575.0</ele><time>2026-04-28T16:08:37.417Z</time></trkpt><trkpt lat="43.5644779" lon="11.395469"><ele>575.0</ele><time>2026-04-28T16:08:38.417Z</time></trkpt><trkpt lat="43.5643916" lon="11.3954844"><ele>578.2</ele><time>2026-04-28T16:08:39.418Z</time></trkpt><trkpt lat="43.564316" lon="11.3955207"><ele>581.4</ele><time>2026-04-28T16:08:40.417Z</time></trkpt><trkpt lat="43.5642214" lon="11.3955758"><ele>584.6</ele><time>2026-04-28T16:08:42.417Z</time></trkpt><trkpt lat="43.5640944" lon="11.3956202"><ele>587.8</ele><time>2026-04-28T16:08:44.417Z</time></trkpt><trkpt lat="43.5640232" lon="11.3956429"><ele>591.0</ele><time>2026-04-28T16:08:45.417Z</time></trkpt><trkpt lat="43.56396" lon="11.3956562"><ele>591.0</ele><time>2026-04-28T16:08:46.417Z</time></trkpt><trkpt lat="43.5638589" lon="11.3957201"><ele>591.0</ele><time>2026-04-28T16:08:48.417Z</time></trkpt><trkpt lat="43.5637731" lon="11.3957938"><ele>591.0</ele><time>2026-04-28T16:08:50.418Z</time></trkpt><trkpt lat="43.5636858" lon="11.3958299"><ele>591.0</ele><time>2026-04-28T16:08:52.417Z</time></trkpt><trkpt lat="43.5636018" lon="11.3958382"><ele>591.0</ele><time>2026-04-28T16:08:54.417Z</time></trkpt><trkpt lat="43.5635198" lon="11.3958356"><ele>592.5</ele><time>2026-04-28T16:08:57.417Z</time></trkpt><trkpt lat="43.5634462" lon="11.3958358"><ele>594.0</ele><time>2026-04-28T16:09:03.417Z</time></trkpt><trkpt lat="43.5633659" lon="11.3958605"><ele>595.5</ele><time>2026-04-28T16:09:06.417Z</time></trkpt><trkpt lat="43.563276" lon="11.3959052"><ele>597.0</ele><time>2026-04-28T16:09:08.417Z</time></trkpt><trkpt lat="43.5632448" lon="11.3960055"><ele>598.5</ele><time>2026-04-28T16:09:10.417Z</time></trkpt><trkpt lat="43.563194" lon="11.3960972"><ele>600.0</ele><time>2026-04-28T16:09:13.417Z</time></trkpt><trkpt lat="43.5631708" lon="11.3959791"><ele>600.0</ele><time>2026-04-28T16:09:17.417Z</time></trkpt><trkpt lat="43.5630821" lon="11.3958941"><ele>600.0</ele><time>2026-04-28T16:09:20.417Z</time></trkpt><trkpt lat="43.5630189" lon="11.3958978"><ele>600.0</ele><time>2026-04-28T16:09:22.417Z</time></trkpt><trkpt lat="43.5629556" lon="11.3958925"><ele>600.0</ele><time>2026-04-28T16:09:25.417Z</time></trkpt><trkpt lat="43.5628828" lon="11.395861"><ele>600.0</ele><time>2026-04-28T16:09:39.417Z</time></trkpt><trkpt lat="43.562802" lon="11.3958638"><ele>600.0</ele><time>2026-04-28T16:09:42.417Z</time></trkpt><trkpt lat="43.562737" lon="11.3958634"><ele>601.6</ele><time>2026-04-28T16:09:44.417Z</time></trkpt><trkpt lat="43.5626489" lon="11.3958377"><ele>603.2</ele><time>2026-04-28T16:09:46.417Z</time></trkpt><trkpt lat="43.5625545" lon="11.3957833"><ele>604.8</ele><time>2026-04-28T16:09:48.417Z</time></trkpt><trkpt lat="43.5624413" lon="11.3956933"><ele>606.4</ele><time>2026-04-28T16:09:50.417Z</time></trkpt><trkpt lat="43.5623827" lon="11.3956449"><ele>608.0</ele><time>2026-04-28T16:09:51.417Z</time></trkpt><trkpt lat="43.5623286" lon="11.3955933"><ele>608.0</ele><time>2026-04-28T16:09:52.417Z</time></trkpt><trkpt lat="43.56227" lon="11.3955429"><ele>608.0</ele><time>2026-04-28T16:09:53.417Z</time></trkpt><trkpt lat="43.5622143" lon="11.3955008"><ele>608.0</ele><time>2026-04-28T16:09:54.417Z</time></trkpt><trkpt lat="43.5621564" lon="11.3954597"><ele>608.0</ele><time>2026-04-28T16:09:55.417Z</time></trkpt><trkpt lat="43.5620553" lon="11.3953913"><ele>608.0</ele><time>2026-04-28T16:09:57.417Z</time></trkpt><trkpt lat="43.5619564" lon="11.3953385"><ele>608.0</ele><time>2026-04-28T16:09:59.417Z</time></trkpt><trkpt lat="43.5618558" lon="11.3953016"><ele>611.8</ele><time>2026-04-28T16:10:01.417Z</time></trkpt><trkpt lat="43.5617532" lon="11.3952373"><ele>615.5999999999999</ele><time>2026-04-28T16:10:03.417Z</time></trkpt><trkpt lat="43.5616549" lon="11.3951535"><ele>619.4000000000001</ele><time>2026-04-28T16:10:05.417Z</time></trkpt><trkpt lat="43.5615856" lon="11.3950602"><ele>623.2</ele><time>2026-04-28T16:10:07.417Z</time></trkpt><trkpt lat="43.5615863" lon="11.3949287"><ele>627.0</ele><time>2026-04-28T16:10:09.417Z</time></trkpt><trkpt lat="43.5616336" lon="11.3948167"><ele>627.0</ele><time>2026-04-28T16:10:11.417Z</time></trkpt><trkpt lat="43.5616956" lon="11.394726"><ele>627.0</ele><time>2026-04-28T16:10:13.417Z</time></trkpt><trkpt lat="43.5617637" lon="11.3946263"><ele>627.0</ele><time>2026-04-28T16:10:15.417Z</time></trkpt><trkpt lat="43.5618077" lon="11.3945332"><ele>627.0</ele><time>2026-04-28T16:10:17.417Z</time></trkpt><trkpt lat="43.5617704" lon="11.3944208"><ele>627.0</ele><time>2026-04-28T16:10:20.417Z</time></trkpt><trkpt lat="43.5617376" lon="11.3943259"><ele>627.0</ele><time>2026-04-28T16:10:22.417Z</time></trkpt><trkpt lat="43.561706" lon="11.3942375"><ele>628.3333333333334</ele><time>2026-04-28T16:10:24.417Z</time></trkpt><trkpt lat="43.5617295" lon="11.3943273"><ele>629.6666666666666</ele><time>2026-04-28T16:10:45.417Z</time></trkpt><trkpt lat="43.5617326" lon="11.3944182"><ele>631.0</ele><time>2026-04-28T16:10:55.417Z</time></trkpt><trkpt lat="43.5616593" lon="11.3944674"><ele>632.3333333333333</ele><time>2026-04-28T16:11:05.417Z</time></trkpt><trkpt lat="43.5615782" lon="11.3944996"><ele>633.6666666666666</ele><time>2026-04-28T16:11:07.418Z</time></trkpt><trkpt lat="43.5614778" lon="11.3945364"><ele>635.0</ele><time>2026-04-28T16:11:09.417Z</time></trkpt><trkpt lat="43.5613734" lon="11.3945479"><ele>635.0</ele><time>2026-04-28T16:11:11.418Z</time></trkpt><trkpt lat="43.5612866" lon="11.3945472"><ele>635.0</ele><time>2026-04-28T16:11:13.417Z</time></trkpt><trkpt lat="43.5613678" lon="11.3945843"><ele>635.0</ele><time>2026-04-28T16:11:19.417Z</time></trkpt><trkpt lat="43.5614472" lon="11.3945468"><ele>635.0</ele><time>2026-04-28T16:11:21.418Z</time></trkpt><trkpt lat="43.5615399" lon="11.39453"><ele>635.0</ele><time>2026-04-28T16:11:23.417Z</time></trkpt><trkpt lat="43.5616363" lon="11.3945168"><ele>635.0</ele><time>2026-04-28T16:11:25.417Z</time></trkpt><trkpt lat="43.5617214" lon="11.3944878"><ele>635.0</ele><time>2026-04-28T16:11:27.417Z</time></trkpt><trkpt lat="43.5617539" lon="11.3943966"><ele>635.0</ele><time>2026-04-28T16:11:30.417Z</time></trkpt><trkpt lat="43.5617199" lon="11.3942791"><ele>635.0</ele><time>2026-04-28T16:11:32.417Z</time></trkpt><trkpt lat="43.5616538" lon="11.3941517"><ele>635.0</ele><time>2026-04-28T16:11:34.417Z</time></trkpt><trkpt lat="43.5615777" lon="11.3940355"><ele>635.0</ele><time>2026-04-28T16:11:36.417Z</time></trkpt><trkpt lat="43.5614938" lon="11.3939195"><ele>635.2</ele><time>2026-04-28T16:11:38.417Z</time></trkpt><trkpt lat="43.5614666" lon="11.3937667"><ele>635.4</ele><time>2026-04-28T16:11:40.417Z</time></trkpt><trkpt lat="43.561476" lon="11.3936035"><ele>635.6</ele><time>2026-04-28T16:11:42.417Z</time></trkpt><trkpt lat="43.5614646" lon="11.3934466"><ele>635.8</ele><time>2026-04-28T16:11:44.417Z</time></trkpt><trkpt lat="43.5614354" lon="11.393367"><ele>636.0</ele><time>2026-04-28T16:11:45.418Z</time></trkpt><trkpt lat="43.5613887" lon="11.3933067"><ele>636.0</ele><time>2026-04-28T16:11:46.417Z</time></trkpt><trkpt lat="43.5613198" lon="11.3932581"><ele>636.0</ele><time>2026-04-28T16:11:47.417Z</time></trkpt><trkpt lat="43.5612423" lon="11.3932334"><ele>636.0</ele><time>2026-04-28T16:11:48.417Z</time></trkpt><trkpt lat="43.5611603" lon="11.3931909"><ele>636.0</ele><time>2026-04-28T16:11:49.417Z</time></trkpt><trkpt lat="43.5610747" lon="11.3931289"><ele>636.0</ele><time>2026-04-28T16:11:50.417Z</time></trkpt><trkpt lat="43.5609925" lon="11.3930403"><ele>636.0</ele><time>2026-04-28T16:11:51.417Z</time></trkpt><trkpt lat="43.5609131" lon="11.3929472"><ele>639.8</ele><time>2026-04-28T16:11:52.417Z</time></trkpt><trkpt lat="43.5608298" lon="11.3928574"><ele>643.6</ele><time>2026-04-28T16:11:53.417Z</time></trkpt><trkpt lat="43.5607378" lon="11.3927786"><ele>647.4</ele><time>2026-04-28T16:11:54.417Z</time></trkpt><trkpt lat="43.5606526" lon="11.3927066"><ele>651.2</ele><time>2026-04-28T16:11:55.417Z</time></trkpt><trkpt lat="43.5605691" lon="11.3926466"><ele>655.0</ele><time>2026-04-28T16:11:56.418Z</time></trkpt><trkpt lat="43.5604833" lon="11.3925859"><ele>655.0</ele><time>2026-04-28T16:11:57.417Z</time></trkpt><trkpt lat="43.5604148" lon="11.3925346"><ele>655.0</ele><time>2026-04-28T16:11:58.418Z</time></trkpt><trkpt lat="43.5603851" lon="11.3923731"><ele>655.0</ele><time>2026-04-28T16:12:00.417Z</time></trkpt><trkpt lat="43.5604014" lon="11.3922742"><ele>655.0</ele><time>2026-04-28T16:12:01.418Z</time></trkpt><trkpt lat="43.5604218" lon="11.3921665"><ele>655.0</ele><time>2026-04-28T16:12:02.417Z</time></trkpt><trkpt lat="43.5604387" lon="11.3920503"><ele>655.0</ele><time>2026-04-28T16:12:03.417Z</time></trkpt><trkpt lat="43.5604548" lon="11.3919315"><ele>657.0</ele><time>2026-04-28T16:12:04.417Z</time></trkpt><trkpt lat="43.5604702" lon="11.3918022"><ele>659.0</ele><time>2026-04-28T16:12:05.417Z</time></trkpt><trkpt lat="43.5604836" lon="11.3916803"><ele>661.0</ele><time>2026-04-28T16:12:06.417Z</time></trkpt><trkpt lat="43.5605003" lon="11.3915629"><ele>663.0</ele><time>2026-04-28T16:12:07.417Z</time></trkpt><trkpt lat="43.5605271" lon="11.391445"><ele>665.0</ele><time>2026-04-28T16:12:08.417Z</time></trkpt><trkpt lat="43.5605452" lon="11.3913294"><ele>667.0</ele><time>2026-04-28T16:12:09.417Z</time></trkpt><trkpt lat="43.560551" lon="11.3912223"><ele>669.3333333333334</ele><time>2026-04-28T16:12:10.417Z</time></trkpt><trkpt lat="43.5605279" lon="11.3911101"><ele>671.6666666666667</ele><time>2026-04-28T16:12:11.417Z</time></trkpt><trkpt lat="43.5604875" lon="11.3909964"><ele>674.0</ele><time>2026-04-28T16:12:12.417Z</time></trkpt><trkpt lat="43.5604509" lon="11.3908943"><ele>676.3333333333334</ele><time>2026-04-28T16:12:13.417Z</time></trkpt><trkpt lat="43.5604147" lon="11.3908101"><ele>678.6666666666666</ele><time>2026-04-28T16:12:14.417Z</time></trkpt><trkpt lat="43.5603668" lon="11.3907427"><ele>681.0</ele><time>2026-04-28T16:12:15.417Z</time></trkpt><trkpt lat="43.5603096" lon="11.3907047"><ele>683.1428571428572</ele><time>2026-04-28T16:12:16.417Z</time></trkpt><trkpt lat="43.560242" lon="11.390682"><ele>685.2857142857143</ele><time>2026-04-28T16:12:17.417Z</time></trkpt><trkpt lat="43.560178" lon="11.3906907"><ele>687.4285714285714</ele><time>2026-04-28T16:12:18.417Z</time></trkpt><trkpt lat="43.5601049" lon="11.3907219"><ele>689.5714285714287</ele><time>2026-04-28T16:12:19.417Z</time></trkpt><trkpt lat="43.5600278" lon="11.3907627"><ele>691.7142857142858</ele><time>2026-04-28T16:12:20.417Z</time></trkpt><trkpt lat="43.5599475" lon="11.3908015"><ele>693.8571428571429</ele><time>2026-04-28T16:12:21.417Z</time></trkpt><trkpt lat="43.5598826" lon="11.3908218"><ele>696.0</ele><time>2026-04-28T16:12:22.418Z</time></trkpt><trkpt lat="43.5597933" lon="11.3908993"><ele>696.0</ele><time>2026-04-28T16:12:24.417Z</time></trkpt><trkpt lat="43.5597352" lon="11.3909856"><ele>696.0</ele><time>2026-04-28T16:12:25.417Z</time></trkpt><trkpt lat="43.5596797" lon="11.3911114"><ele>696.0</ele><time>2026-04-28T16:12:26.417Z</time></trkpt><trkpt lat="43.5596151" lon="11.391246"><ele>696.0</ele><time>2026-04-28T16:12:27.417Z</time></trkpt><trkpt lat="43.5595495" lon="11.3913898"><ele>696.0</ele><time>2026-04-28T16:12:28.417Z</time></trkpt><trkpt lat="43.5594578" lon="11.3915147"><ele>698.5</ele><time>2026-04-28T16:12:29.417Z</time></trkpt><trkpt lat="43.5593328" lon="11.3916273"><ele>701.0</ele><time>2026-04-28T16:12:30.417Z</time></trkpt><trkpt lat="43.5592271" lon="11.3917113"><ele>703.5</ele><time>2026-04-28T16:12:31.417Z</time></trkpt><trkpt lat="43.5591242" lon="11.391821"><ele>706.0</ele><time>2026-04-28T16:12:32.417Z</time></trkpt><trkpt lat="43.5590495" lon="11.3919749"><ele>706.0</ele><time>2026-04-28T16:12:33.417Z</time></trkpt><trkpt lat="43.559006" lon="11.3921625"><ele>706.0</ele><time>2026-04-28T16:12:34.418Z</time></trkpt><trkpt lat="43.5589613" lon="11.3923469"><ele>706.0</ele><time>2026-04-28T16:12:35.418Z</time></trkpt><trkpt lat="43.5588987" lon="11.3925295"><ele>706.0</ele><time>2026-04-28T16:12:36.417Z</time></trkpt><trkpt lat="43.558786" lon="11.3926852"><ele>709.6666666666667</ele><time>2026-04-28T16:12:37.417Z</time></trkpt><trkpt lat="43.55866" lon="11.3928255"><ele>713.3333333333334</ele><time>2026-04-28T16:12:38.417Z</time></trkpt><trkpt lat="43.5585336" lon="11.3929491"><ele>717.0</ele><time>2026-04-28T16:12:39.417Z</time></trkpt><trkpt lat="43.5584107" lon="11.3930789"><ele>717.0</ele><time>2026-04-28T16:12:40.417Z</time></trkpt><trkpt lat="43.5583006" lon="11.3932423"><ele>717.0</ele><time>2026-04-28T16:12:41.417Z</time></trkpt><trkpt lat="43.5582205" lon="11.3934418"><ele>717.0</ele><time>2026-04-28T16:12:42.417Z</time></trkpt><trkpt lat="43.5581575" lon="11.3936671"><ele>719.6666666666666</ele><time>2026-04-28T16:12:43.417Z</time></trkpt><trkpt lat="43.5580748" lon="11.3938577"><ele>722.3333333333333</ele><time>2026-04-28T16:12:44.417Z</time></trkpt><trkpt lat="43.5579723" lon="11.3940227"><ele>725.0</ele><time>2026-04-28T16:12:45.418Z</time></trkpt><trkpt lat="43.5578525" lon="11.3941768"><ele>725.0</ele><time>2026-04-28T16:12:46.417Z</time></trkpt><trkpt lat="43.5577262" lon="11.3943219"><ele>725.0</ele><time>2026-04-28T16:12:47.417Z</time></trkpt><trkpt lat="43.5575986" lon="11.3944502"><ele>725.0</ele><time>2026-04-28T16:12:48.417Z</time></trkpt><trkpt lat="43.5574654" lon="11.39456"><ele>725.0</ele><time>2026-04-28T16:12:49.417Z</time></trkpt><trkpt lat="43.557316" lon="11.3945976"><ele>725.0</ele><time>2026-04-28T16:12:50.418Z</time></trkpt><trkpt lat="43.5571572" lon="11.3946136"><ele>725.0</ele><time>2026-04-28T16:12:51.417Z</time></trkpt><trkpt lat="43.5569888" lon="11.3946137"><ele>725.6666666666666</ele><time>2026-04-28T16:12:52.417Z</time></trkpt><trkpt lat="43.5568156" lon="11.3946245"><ele>726.3333333333334</ele><time>2026-04-28T16:12:53.417Z</time></trkpt><trkpt lat="43.5566371" lon="11.3946426"><ele>727.0</ele><time>2026-04-28T16:12:54.417Z</time></trkpt><trkpt lat="43.5564475" lon="11.3946894"><ele>724.6666666666667</ele><time>2026-04-28T16:12:55.417Z</time></trkpt><trkpt lat="43.5562721" lon="11.394755"><ele>722.3333333333334</ele><time>2026-04-28T16:12:56.417Z</time></trkpt><trkpt lat="43.556103" lon="11.3948174"><ele>720.0</ele><time>2026-04-28T16:12:57.417Z</time></trkpt><trkpt lat="43.5559461" lon="11.394864"><ele>719.0</ele><time>2026-04-28T16:12:58.417Z</time></trkpt><trkpt lat="43.5557811" lon="11.3948842"><ele>718.0</ele><time>2026-04-28T16:12:59.417Z</time></trkpt><trkpt lat="43.5556045" lon="11.3948818"><ele>717.0</ele><time>2026-04-28T16:13:00.417Z</time></trkpt><trkpt lat="43.5554224" lon="11.3948549"><ele>719.6666666666666</ele><time>2026-04-28T16:13:01.418Z</time></trkpt><trkpt lat="43.5552523" lon="11.3948472"><ele>722.3333333333333</ele><time>2026-04-28T16:13:02.417Z</time></trkpt><trkpt lat="43.5551049" lon="11.3948977"><ele>725.0</ele><time>2026-04-28T16:13:03.417Z</time></trkpt><trkpt lat="43.5549698" lon="11.3950041"><ele>725.0</ele><time>2026-04-28T16:13:04.417Z</time></trkpt><trkpt lat="43.5548361" lon="11.3951088"><ele>725.0</ele><time>2026-04-28T16:13:05.417Z</time></trkpt><trkpt lat="43.5547038" lon="11.3951939"><ele>725.0</ele><time>2026-04-28T16:13:06.417Z</time></trkpt><trkpt lat="43.5545752" lon="11.3952287"><ele>725.0</ele><time>2026-04-28T16:13:07.417Z</time></trkpt><trkpt lat="43.5544263" lon="11.3952207"><ele>727.75</ele><time>2026-04-28T16:13:08.417Z</time></trkpt><trkpt lat="43.5542908" lon="11.3951489"><ele>730.5</ele><time>2026-04-28T16:13:09.417Z</time></trkpt><trkpt lat="43.5541664" lon="11.3950389"><ele>733.25</ele><time>2026-04-28T16:13:10.417Z</time></trkpt><trkpt lat="43.5540528" lon="11.3949323"><ele>736.0</ele><time>2026-04-28T16:13:11.417Z</time></trkpt><trkpt lat="43.5539526" lon="11.3948423"><ele>736.0</ele><time>2026-04-28T16:13:12.417Z</time></trkpt><trkpt lat="43.5538534" lon="11.3947789"><ele>736.0</ele><time>2026-04-28T16:13:13.417Z</time></trkpt><trkpt lat="43.5537472" lon="11.3947427"><ele>736.0</ele><time>2026-04-28T16:13:14.417Z</time></trkpt><trkpt lat="43.5536426" lon="11.3947525"><ele>736.0</ele><time>2026-04-28T16:13:15.417Z</time></trkpt><trkpt lat="43.5535431" lon="11.3948154"><ele>736.0</ele><time>2026-04-28T16:13:16.417Z</time></trkpt><trkpt lat="43.5534546" lon="11.3949389"><ele>737.0</ele><time>2026-04-28T16:13:17.417Z</time></trkpt><trkpt lat="43.5533906" lon="11.3950921"><ele>738.0</ele><time>2026-04-28T16:13:18.417Z</time></trkpt><trkpt lat="43.553347" lon="11.3952632"><ele>739.0</ele><time>2026-04-28T16:13:19.417Z</time></trkpt><trkpt lat="43.5533027" lon="11.3954372"><ele>740.0</ele><time>2026-04-28T16:13:20.417Z</time></trkpt><trkpt lat="43.5532525" lon="11.3956175"><ele>740.0</ele><time>2026-04-28T16:13:21.417Z</time></trkpt><trkpt lat="43.5531842" lon="11.3957894"><ele>740.0</ele><time>2026-04-28T16:13:22.417Z</time></trkpt><trkpt lat="43.5530919" lon="11.3959465"><ele>740.0</ele><time>2026-04-28T16:13:23.417Z</time></trkpt><trkpt lat="43.5529783" lon="11.396078"><ele>740.0</ele><time>2026-04-28T16:13:24.417Z</time></trkpt><trkpt lat="43.5528371" lon="11.3961858"><ele>744.3333333333333</ele><time>2026-04-28T16:13:25.417Z</time></trkpt><trkpt lat="43.5526863" lon="11.3962737"><ele>748.6666666666666</ele><time>2026-04-28T16:13:26.417Z</time></trkpt><trkpt lat="43.5525414" lon="11.396366"><ele>753.0</ele><time>2026-04-28T16:13:27.417Z</time></trkpt><trkpt lat="43.5523957" lon="11.3964899"><ele>753.0</ele><time>2026-04-28T16:13:28.417Z</time></trkpt><trkpt lat="43.5522558" lon="11.3966556"><ele>753.0</ele><time>2026-04-28T16:13:29.417Z</time></trkpt><trkpt lat="43.5521243" lon="11.3968318"><ele>753.0</ele><time>2026-04-28T16:13:30.418Z</time></trkpt><trkpt lat="43.5519836" lon="11.3970022"><ele>752.6666666666666</ele><time>2026-04-28T16:13:31.417Z</time></trkpt><trkpt lat="43.5518381" lon="11.3971522"><ele>752.3333333333333</ele><time>2026-04-28T16:13:32.417Z</time></trkpt><trkpt lat="43.5516779" lon="11.3972891"><ele>752.0</ele><time>2026-04-28T16:13:33.417Z</time></trkpt><trkpt lat="43.5515159" lon="11.3974246"><ele>752.0</ele><time>2026-04-28T16:13:34.417Z</time></trkpt><trkpt lat="43.5513528" lon="11.3975651"><ele>752.0</ele><time>2026-04-28T16:13:35.417Z</time></trkpt><trkpt lat="43.5511968" lon="11.3976973"><ele>752.0</ele><time>2026-04-28T16:13:36.417Z</time></trkpt><trkpt lat="43.5510438" lon="11.3978114"><ele>753.0</ele><time>2026-04-28T16:13:37.417Z</time></trkpt><trkpt lat="43.5509038" lon="11.3979309"><ele>754.0</ele><time>2026-04-28T16:13:38.417Z</time></trkpt><trkpt lat="43.5507751" lon="11.3980421"><ele>755.0</ele><time>2026-04-28T16:13:39.417Z</time></trkpt><trkpt lat="43.5506656" lon="11.3981297"><ele>756.0</ele><time>2026-04-28T16:13:40.417Z</time></trkpt><trkpt lat="43.5505816" lon="11.398205"><ele>754.1999999999999</ele><time>2026-04-28T16:13:41.417Z</time></trkpt><trkpt lat="43.5505165" lon="11.3982594"><ele>752.4</ele><time>2026-04-28T16:13:42.417Z</time></trkpt><trkpt lat="43.5504164" lon="11.3982977"><ele>750.6</ele><time>2026-04-28T16:13:44.42Z</time></trkpt><trkpt lat="43.5503281" lon="11.3982434"><ele>748.8</ele><time>2026-04-28T16:13:46.419Z</time></trkpt><trkpt lat="43.5502185" lon="11.398191"><ele>747.0</ele><time>2026-04-28T16:13:48.419Z</time></trkpt><trkpt lat="43.5501511" lon="11.3981769"><ele>746.6666666666666</ele><time>2026-04-28T16:13:49.419Z</time></trkpt><trkpt lat="43.5500806" lon="11.3981493"><ele>746.3333333333334</ele><time>2026-04-28T16:13:50.419Z</time></trkpt><trkpt lat="43.5500106" lon="11.3981056"><ele>746.0</ele><time>2026-04-28T16:13:51.419Z</time></trkpt><trkpt lat="43.5499398" lon="11.3980502"><ele>745.6666666666667</ele><time>2026-04-28T16:13:52.419Z</time></trkpt><trkpt lat="43.5498729" lon="11.3979832"><ele>745.3333333333334</ele><time>2026-04-28T16:13:53.419Z</time></trkpt><trkpt lat="43.5498054" lon="11.3979162"><ele>745.0</ele><time>2026-04-28T16:13:54.419Z</time></trkpt><trkpt lat="43.549752" lon="11.3978486"><ele>746.5</ele><time>2026-04-28T16:13:55.419Z</time></trkpt><trkpt lat="43.5497108" lon="11.3977624"><ele>748.0</ele><time>2026-04-28T16:13:56.419Z</time></trkpt><trkpt lat="43.5496934" lon="11.3976609"><ele>749.5</ele><time>2026-04-28T16:13:57.419Z</time></trkpt><trkpt lat="43.5496865" lon="11.3975585"><ele>751.0</ele><time>2026-04-28T16:13:58.419Z</time></trkpt><trkpt lat="43.5496826" lon="11.3974537"><ele>752.5</ele><time>2026-04-28T16:13:59.419Z</time></trkpt><trkpt lat="43.5496817" lon="11.3973632"><ele>754.0</ele><time>2026-04-28T16:14:00.419Z</time></trkpt><trkpt lat="43.5497117" lon="11.3972322"><ele>755.5714285714286</ele><time>2026-04-28T16:14:02.419Z</time></trkpt><trkpt lat="43.549765" lon="11.3970839"><ele>757.1428571428571</ele><time>2026-04-28T16:14:04.419Z</time></trkpt><trkpt lat="43.549795" lon="11.3970073"><ele>758.7142857142858</ele><time>2026-04-28T16:14:05.419Z</time></trkpt><trkpt lat="43.5498272" lon="11.396929"><ele>760.2857142857142</ele><time>2026-04-28T16:14:06.419Z</time></trkpt><trkpt lat="43.5498643" lon="11.3968573"><ele>761.8571428571429</ele><time>2026-04-28T16:14:07.419Z</time></trkpt><trkpt lat="43.5499043" lon="11.396785"><ele>763.4285714285714</ele><time>2026-04-28T16:14:08.419Z</time></trkpt><trkpt lat="43.5499354" lon="11.3966981"><ele>765.0</ele><time>2026-04-28T16:14:09.419Z</time></trkpt><trkpt lat="43.5499469" lon="11.3966026"><ele>765.0</ele><time>2026-04-28T16:14:10.419Z</time></trkpt><trkpt lat="43.5499464" lon="11.3965155"><ele>765.0</ele><time>2026-04-28T16:14:11.419Z</time></trkpt><trkpt lat="43.5499396" lon="11.3964212"><ele>765.0</ele><time>2026-04-28T16:14:12.419Z</time></trkpt><trkpt lat="43.5499164" lon="11.3963359"><ele>765.0</ele><time>2026-04-28T16:14:13.419Z</time></trkpt><trkpt lat="43.549925" lon="11.3962098"><ele>765.0</ele><time>2026-04-28T16:14:15.419Z</time></trkpt><trkpt lat="43.5499936" lon="11.3961217"><ele>765.0</ele><time>2026-04-28T16:14:17.419Z</time></trkpt><trkpt lat="43.5500797" lon="11.3960367"><ele>766.0</ele><time>2026-04-28T16:14:19.419Z</time></trkpt><trkpt lat="43.550154" lon="11.395945"><ele>767.0</ele><time>2026-04-28T16:14:21.419Z</time></trkpt><trkpt lat="43.5501848" lon="11.3958122"><ele>768.0</ele><time>2026-04-28T16:14:23.419Z</time></trkpt><trkpt lat="43.5502034" lon="11.3956523"><ele>769.0</ele><time>2026-04-28T16:14:25.419Z</time></trkpt><trkpt lat="43.5502153" lon="11.3954832"><ele>770.0</ele><time>2026-04-28T16:14:27.419Z</time></trkpt><trkpt lat="43.5502189" lon="11.3953926"><ele>771.5000000000001</ele><time>2026-04-28T16:14:28.419Z</time></trkpt><trkpt lat="43.5501991" lon="11.3952907"><ele>773.0</ele><time>2026-04-28T16:14:29.419Z</time></trkpt><trkpt lat="43.5501977" lon="11.3952012"><ele>774.5</ele><time>2026-04-28T16:14:30.419Z</time></trkpt><trkpt lat="43.5502067" lon="11.3951059"><ele>776.0</ele><time>2026-04-28T16:14:31.419Z</time></trkpt><trkpt lat="43.5502433" lon="11.3949459"><ele>777.5000000000001</ele><time>2026-04-28T16:14:33.419Z</time></trkpt><trkpt lat="43.5502571" lon="11.3948332"><ele>779.0</ele><time>2026-04-28T16:14:34.419Z</time></trkpt><trkpt lat="43.5502568" lon="11.394725"><ele>781.6666666666667</ele><time>2026-04-28T16:14:35.419Z</time></trkpt><trkpt lat="43.5502602" lon="11.3946172"><ele>784.3333333333334</ele><time>2026-04-28T16:14:36.419Z</time></trkpt><trkpt lat="43.5502558" lon="11.3945111"><ele>787.0</ele><time>2026-04-28T16:14:37.419Z</time></trkpt><trkpt lat="43.550279" lon="11.3943456"><ele>789.6666666666667</ele><time>2026-04-28T16:14:39.419Z</time></trkpt><trkpt lat="43.5503124" lon="11.3942647"><ele>792.3333333333334</ele><time>2026-04-28T16:14:40.419Z</time></trkpt><trkpt lat="43.5503777" lon="11.3942257"><ele>795.0</ele><time>2026-04-28T16:14:42.419Z</time></trkpt><trkpt lat="43.5504397" lon="11.394253"><ele>795.1666666666666</ele><time>2026-04-28T16:14:44.419Z</time></trkpt><trkpt lat="43.550503" lon="11.3943598"><ele>795.3333333333333</ele><time>2026-04-28T16:14:46.419Z</time></trkpt><trkpt lat="43.5505147" lon="11.3944581"><ele>795.5</ele><time>2026-04-28T16:14:47.419Z</time></trkpt><trkpt lat="43.5505474" lon="11.3945667"><ele>795.6666666666666</ele><time>2026-04-28T16:14:48.419Z</time></trkpt><trkpt lat="43.5505511" lon="11.3946573"><ele>795.8333333333333</ele><time>2026-04-28T16:14:49.419Z</time></trkpt><trkpt lat="43.5505619" lon="11.3947537"><ele>796.0</ele><time>2026-04-28T16:14:50.419Z</time></trkpt><trkpt lat="43.5505806" lon="11.394949"><ele>795.9999999999999</ele><time>2026-04-28T16:14:52.42Z</time></trkpt><trkpt lat="43.5506297" lon="11.3950658"><ele>796.0</ele><time>2026-04-28T16:14:53.419Z</time></trkpt><trkpt lat="43.5506826" lon="11.3951664"><ele>796.0</ele><time>2026-04-28T16:14:54.419Z</time></trkpt><trkpt lat="43.550733" lon="11.3952569"><ele>796.0</ele><time>2026-04-28T16:14:55.419Z</time></trkpt><trkpt lat="43.5507895" lon="11.3953425"><ele>795.9999999999999</ele><time>2026-04-28T16:14:56.419Z</time></trkpt><trkpt lat="43.5508561" lon="11.3953871"><ele>796.0</ele><time>2026-04-28T16:14:57.419Z</time></trkpt><trkpt lat="43.5509254" lon="11.3953781"><ele>795.9999999999999</ele><time>2026-04-28T16:14:58.419Z</time></trkpt><trkpt lat="43.5510017" lon="11.3953758"><ele>796.0</ele><time>2026-04-28T16:14:59.419Z</time></trkpt><trkpt lat="43.5510817" lon="11.3953803"><ele>796.0</ele><time>2026-04-28T16:15:00.419Z</time></trkpt><trkpt lat="43.5511647" lon="11.3953611"><ele>796.0</ele><time>2026-04-28T16:15:01.419Z</time></trkpt><trkpt lat="43.5512645" lon="11.3953321"><ele>795.9999999999999</ele><time>2026-04-28T16:15:02.419Z</time></trkpt><trkpt lat="43.5513558" lon="11.3952984"><ele>796.0</ele><time>2026-04-28T16:15:03.419Z</time></trkpt><trkpt lat="43.5514414" lon="11.3952636"><ele>795.1999999999999</ele><time>2026-04-28T16:15:04.419Z</time></trkpt><trkpt lat="43.551519" lon="11.3952337"><ele>794.4</ele><time>2026-04-28T16:15:05.419Z</time></trkpt><trkpt lat="43.5515876" lon="11.3951149"><ele>793.6</ele><time>2026-04-28T16:15:07.419Z</time></trkpt><trkpt lat="43.5515536" lon="11.3949524"><ele>792.8</ele><time>2026-04-28T16:15:09.419Z</time></trkpt><trkpt lat="43.5514977" lon="11.3948716"><ele>792.0</ele><time>2026-04-28T16:15:10.419Z</time></trkpt><trkpt lat="43.5514402" lon="11.3947791"><ele>792.0</ele><time>2026-04-28T16:15:11.419Z</time></trkpt><trkpt lat="43.5513767" lon="11.3946769"><ele>792.0</ele><time>2026-04-28T16:15:12.419Z</time></trkpt><trkpt lat="43.5513182" lon="11.3945787"><ele>792.0</ele><time>2026-04-28T16:15:13.419Z</time></trkpt><trkpt lat="43.5512509" lon="11.3944752"><ele>792.0</ele><time>2026-04-28T16:15:14.419Z</time></trkpt><trkpt lat="43.5511875" lon="11.3943694"><ele>792.0</ele><time>2026-04-28T16:15:15.419Z</time></trkpt><trkpt lat="43.551129" lon="11.3942585"><ele>793.5</ele><time>2026-04-28T16:15:16.419Z</time></trkpt><trkpt lat="43.551071" lon="11.3941508"><ele>795.0</ele><time>2026-04-28T16:15:17.419Z</time></trkpt><trkpt lat="43.5510206" lon="11.3940546"><ele>796.5</ele><time>2026-04-28T16:15:18.419Z</time></trkpt><trkpt lat="43.5509743" lon="11.3939448"><ele>798.0</ele><time>2026-04-28T16:15:19.419Z</time></trkpt><trkpt lat="43.550943" lon="11.3938382"><ele>799.5</ele><time>2026-04-28T16:15:20.419Z</time></trkpt><trkpt lat="43.5509233" lon="11.3937484"><ele>801.0</ele><time>2026-04-28T16:15:21.419Z</time></trkpt><trkpt lat="43.5509372" lon="11.3936181"><ele>802.4</ele><time>2026-04-28T16:15:23.419Z</time></trkpt><trkpt lat="43.5510251" lon="11.3935268"><ele>803.8</ele><time>2026-04-28T16:15:25.419Z</time></trkpt><trkpt lat="43.551136" lon="11.3934138"><ele>805.1999999999999</ele><time>2026-04-28T16:15:27.419Z</time></trkpt><trkpt lat="43.5511732" lon="11.3933302"><ele>806.5999999999999</ele><time>2026-04-28T16:15:28.419Z</time></trkpt><trkpt lat="43.5512089" lon="11.3932394"><ele>808.0</ele><time>2026-04-28T16:15:29.419Z</time></trkpt><trkpt lat="43.5512426" lon="11.3931368"><ele>807.9999999999999</ele><time>2026-04-28T16:15:30.419Z</time></trkpt><trkpt lat="43.5512356" lon="11.3930281"><ele>808.0</ele><time>2026-04-28T16:15:31.419Z</time></trkpt><trkpt lat="43.5511978" lon="11.3929518"><ele>808.0</ele><time>2026-04-28T16:15:32.419Z</time></trkpt><trkpt lat="43.5511177" lon="11.3929057"><ele>808.0</ele><time>2026-04-28T16:15:33.419Z</time></trkpt><trkpt lat="43.5510544" lon="11.3929096"><ele>807.9999999999999</ele><time>2026-04-28T16:15:34.419Z</time></trkpt><trkpt lat="43.5509847" lon="11.3929658"><ele>808.0</ele><time>2026-04-28T16:15:35.419Z</time></trkpt><trkpt lat="43.5509206" lon="11.3930452"><ele>810.25</ele><time>2026-04-28T16:15:36.419Z</time></trkpt><trkpt lat="43.5508551" lon="11.3931379"><ele>812.5</ele><time>2026-04-28T16:15:37.419Z</time></trkpt><trkpt lat="43.5507309" lon="11.3931566"><ele>814.75</ele><time>2026-04-28T16:15:39.419Z</time></trkpt><trkpt lat="43.5505811" lon="11.3930917"><ele>817.0</ele><time>2026-04-28T16:15:41.419Z</time></trkpt><trkpt lat="43.5505068" lon="11.3930069"><ele>818.8</ele><time>2026-04-28T16:15:42.419Z</time></trkpt><trkpt lat="43.5504337" lon="11.3929283"><ele>820.6</ele><time>2026-04-28T16:15:43.419Z</time></trkpt><trkpt lat="43.5503542" lon="11.3928196"><ele>822.4</ele><time>2026-04-28T16:15:44.419Z</time></trkpt><trkpt lat="43.5502836" lon="11.3927004"><ele>824.1999999999999</ele><time>2026-04-28T16:15:45.419Z</time></trkpt><trkpt lat="43.5502303" lon="11.3926001"><ele>826.0</ele><time>2026-04-28T16:15:46.419Z</time></trkpt><trkpt lat="43.5501856" lon="11.3924419"><ele>825.9999999999999</ele><time>2026-04-28T16:15:48.42Z</time></trkpt><trkpt lat="43.550178" lon="11.3923537"><ele>826.0</ele><time>2026-04-28T16:15:49.419Z</time></trkpt><trkpt lat="43.5501987" lon="11.392259"><ele>826.0</ele><time>2026-04-28T16:15:50.419Z</time></trkpt><trkpt lat="43.5502197" lon="11.3921477"><ele>826.0</ele><time>2026-04-28T16:15:51.419Z</time></trkpt><trkpt lat="43.5502386" lon="11.3920241"><ele>825.9999999999999</ele><time>2026-04-28T16:15:52.42Z</time></trkpt><trkpt lat="43.5502628" lon="11.3918854"><ele>826.0</ele><time>2026-04-28T16:15:53.419Z</time></trkpt><trkpt lat="43.550294" lon="11.3917666"><ele>828.8</ele><time>2026-04-28T16:15:54.419Z</time></trkpt><trkpt lat="43.5503166" lon="11.3916281"><ele>831.5999999999999</ele><time>2026-04-28T16:15:55.419Z</time></trkpt><trkpt lat="43.5503438" lon="11.3914877"><ele>834.4</ele><time>2026-04-28T16:15:56.419Z</time></trkpt><trkpt lat="43.5503653" lon="11.3913687"><ele>837.2</ele><time>2026-04-28T16:15:57.42Z</time></trkpt><trkpt lat="43.5503787" lon="11.3912499"><ele>840.0</ele><time>2026-04-28T16:15:58.419Z</time></trkpt><trkpt lat="43.5503839" lon="11.3911524"><ele>843.6</ele><time>2026-04-28T16:15:59.419Z</time></trkpt><trkpt lat="43.550366" lon="11.3910663"><ele>847.2</ele><time>2026-04-28T16:16:00.419Z</time></trkpt><trkpt lat="43.5502966" lon="11.3910021"><ele>850.8</ele><time>2026-04-28T16:16:02.419Z</time></trkpt><trkpt lat="43.5502039" lon="11.3909979"><ele>854.4</ele><time>2026-04-28T16:16:04.419Z</time></trkpt><trkpt lat="43.5500829" lon="11.3910491"><ele>858.0</ele><time>2026-04-28T16:16:06.419Z</time></trkpt><trkpt lat="43.5499849" lon="11.3910882"><ele>858.0</ele><time>2026-04-28T16:16:08.42Z</time></trkpt><trkpt lat="43.549913" lon="11.3911195"><ele>858.0</ele><time>2026-04-28T16:16:09.419Z</time></trkpt><trkpt lat="43.5498106" lon="11.3910676"><ele>858.0</ele><time>2026-04-28T16:16:11.419Z</time></trkpt><trkpt lat="43.5497603" lon="11.3910007"><ele>858.0</ele><time>2026-04-28T16:16:12.419Z</time></trkpt><trkpt lat="43.5496902" lon="11.3908956"><ele>858.0</ele><time>2026-04-28T16:16:13.419Z</time></trkpt><trkpt lat="43.5496234" lon="11.3907877"><ele>858.0</ele><time>2026-04-28T16:16:14.419Z</time></trkpt><trkpt lat="43.5495634" lon="11.3906896"><ele>858.0</ele><time>2026-04-28T16:16:15.419Z</time></trkpt><trkpt lat="43.5495346" lon="11.390595"><ele>858.0</ele><time>2026-04-28T16:16:16.419Z</time></trkpt><trkpt lat="43.5495132" lon="11.3904785"><ele>858.0</ele><time>2026-04-28T16:16:17.419Z</time></trkpt><trkpt lat="43.5494991" lon="11.3903502"><ele>858.0</ele><time>2026-04-28T16:16:18.419Z</time></trkpt><trkpt lat="43.5494716" lon="11.3902256"><ele>858.0</ele><time>2026-04-28T16:16:19.419Z</time></trkpt><trkpt lat="43.5494329" lon="11.3901013"><ele>857.2</ele><time>2026-04-28T16:16:20.419Z</time></trkpt><trkpt lat="43.5493874" lon="11.389963"><ele>856.4</ele><time>2026-04-28T16:16:21.419Z</time></trkpt><trkpt lat="43.5493434" lon="11.3898468"><ele>855.6000000000001</ele><time>2026-04-28T16:16:22.419Z</time></trkpt><trkpt lat="43.5492766" lon="11.3897158"><ele>854.8000000000001</ele><time>2026-04-28T16:16:23.419Z</time></trkpt><trkpt lat="43.549206" lon="11.3896116"><ele>854.0</ele><time>2026-04-28T16:16:24.419Z</time></trkpt><trkpt lat="43.5491257" lon="11.3895049"><ele>857.2</ele><time>2026-04-28T16:16:25.419Z</time></trkpt><trkpt lat="43.5490563" lon="11.3894029"><ele>860.4000000000001</ele><time>2026-04-28T16:16:26.419Z</time></trkpt><trkpt lat="43.5489891" lon="11.3893046"><ele>863.6</ele><time>2026-04-28T16:16:27.419Z</time></trkpt><trkpt lat="43.5489175" lon="11.3892027"><ele>866.8</ele><time>2026-04-28T16:16:28.419Z</time></trkpt><trkpt lat="43.5488509" lon="11.3890949"><ele>870.0</ele><time>2026-04-28T16:16:29.419Z</time></trkpt><trkpt lat="43.5487911" lon="11.3889983"><ele>870.0</ele><time>2026-04-28T16:16:30.419Z</time></trkpt><trkpt lat="43.5487516" lon="11.3888988"><ele>870.0</ele><time>2026-04-28T16:16:31.419Z</time></trkpt><trkpt lat="43.5487347" lon="11.3888017"><ele>870.0</ele><time>2026-04-28T16:16:32.419Z</time></trkpt><trkpt lat="43.5487443" lon="11.3887041"><ele>870.0</ele><time>2026-04-28T16:16:33.419Z</time></trkpt><trkpt lat="43.5487697" lon="11.3886136"><ele>870.0</ele><time>2026-04-28T16:16:34.419Z</time></trkpt><trkpt lat="43.5488557" lon="11.3885063"><ele>870.0</ele><time>2026-04-28T16:16:36.419Z</time></trkpt><trkpt lat="43.5489444" lon="11.3884244"><ele>870.1666666666666</ele><time>2026-04-28T16:16:38.419Z</time></trkpt><trkpt lat="43.5489936" lon="11.3883688"><ele>870.3333333333333</ele><time>2026-04-28T16:16:39.419Z</time></trkpt><trkpt lat="43.5490333" lon="11.3882553"><ele>870.5</ele><time>2026-04-28T16:16:41.42Z</time></trkpt><trkpt lat="43.5490483" lon="11.3881482"><ele>870.6666666666666</ele><time>2026-04-28T16:16:42.419Z</time></trkpt><trkpt lat="43.5490608" lon="11.3880134"><ele>870.8333333333333</ele><time>2026-04-28T16:16:43.42Z</time></trkpt><trkpt lat="43.5490817" lon="11.387886"><ele>871.0</ele><time>2026-04-28T16:16:44.419Z</time></trkpt><trkpt lat="43.5491048" lon="11.387767"><ele>870.1666666666666</ele><time>2026-04-28T16:16:45.419Z</time></trkpt><trkpt lat="43.5491075" lon="11.3876537"><ele>869.3333333333333</ele><time>2026-04-28T16:16:46.419Z</time></trkpt><trkpt lat="43.5491063" lon="11.3875326"><ele>868.5</ele><time>2026-04-28T16:16:47.419Z</time></trkpt><trkpt lat="43.5490975" lon="11.3874448"><ele>867.6666666666667</ele><time>2026-04-28T16:16:48.419Z</time></trkpt><trkpt lat="43.5491308" lon="11.3873077"><ele>866.8333333333334</ele><time>2026-04-28T16:16:50.419Z</time></trkpt><trkpt lat="43.5491741" lon="11.3872024"><ele>866.0</ele><time>2026-04-28T16:16:52.419Z</time></trkpt><trkpt lat="43.5492164" lon="11.3871076"><ele>867.1666666666667</ele><time>2026-04-28T16:16:53.419Z</time></trkpt><trkpt lat="43.5492778" lon="11.3870044"><ele>868.3333333333334</ele><time>2026-04-28T16:16:54.419Z</time></trkpt><trkpt lat="43.5493306" lon="11.3869163"><ele>869.5</ele><time>2026-04-28T16:16:55.419Z</time></trkpt><trkpt lat="43.5493798" lon="11.3868319"><ele>870.6666666666667</ele><time>2026-04-28T16:16:56.419Z</time></trkpt><trkpt lat="43.5494242" lon="11.3867502"><ele>871.8333333333334</ele><time>2026-04-28T16:16:57.419Z</time></trkpt><trkpt lat="43.5494684" lon="11.386685"><ele>873.0</ele><time>2026-04-28T16:16:58.419Z</time></trkpt><trkpt lat="43.5495646" lon="11.3865607"><ele>873.0</ele><time>2026-04-28T16:17:00.419Z</time></trkpt><trkpt lat="43.549628" lon="11.3865027"><ele>873.0</ele><time>2026-04-28T16:17:01.419Z</time></trkpt><trkpt lat="43.5496991" lon="11.3864531"><ele>873.0</ele><time>2026-04-28T16:17:02.419Z</time></trkpt><trkpt lat="43.5497676" lon="11.3864091"><ele>873.0</ele><time>2026-04-28T16:17:03.419Z</time></trkpt><trkpt lat="43.54984" lon="11.3863704"><ele>873.0</ele><time>2026-04-28T16:17:04.419Z</time></trkpt><trkpt lat="43.5499152" lon="11.3863332"><ele>873.0</ele><time>2026-04-28T16:17:05.42Z</time></trkpt><trkpt lat="43.5499956" lon="11.3862947"><ele>871.1666666666666</ele><time>2026-04-28T16:17:06.419Z</time></trkpt><trkpt lat="43.5500699" lon="11.3862436"><ele>869.3333333333333</ele><time>2026-04-28T16:17:07.419Z</time></trkpt><trkpt lat="43.5501601" lon="11.3861516"><ele>867.5</ele><time>2026-04-28T16:17:09.419Z</time></trkpt><trkpt lat="43.5502196" lon="11.3860964"><ele>865.6666666666666</ele><time>2026-04-28T16:17:11.419Z</time></trkpt><trkpt lat="43.5503021" lon="11.3861587"><ele>863.8333333333333</ele><time>2026-04-28T16:17:14.419Z</time></trkpt><trkpt lat="43.5503443" lon="11.3862322"><ele>862.0</ele><time>2026-04-28T16:17:15.42Z</time></trkpt><trkpt lat="43.5503885" lon="11.3863242"><ele>863.6666666666666</ele><time>2026-04-28T16:17:16.419Z</time></trkpt><trkpt lat="43.5504327" lon="11.3864194"><ele>865.3333333333333</ele><time>2026-04-28T16:17:17.419Z</time></trkpt><trkpt lat="43.550464" lon="11.3865143"><ele>867.0</ele><time>2026-04-28T16:17:18.419Z</time></trkpt><trkpt lat="43.5504823" lon="11.3866356"><ele>868.6666666666667</ele><time>2026-04-28T16:17:19.419Z</time></trkpt><trkpt lat="43.5504918" lon="11.3867461"><ele>870.3333333333334</ele><time>2026-04-28T16:17:20.419Z</time></trkpt><trkpt lat="43.5505152" lon="11.3868305"><ele>872.0</ele><time>2026-04-28T16:17:21.419Z</time></trkpt><trkpt lat="43.5506286" lon="11.3869034"><ele>872.0000000000001</ele><time>2026-04-28T16:17:23.419Z</time></trkpt><trkpt lat="43.5507029" lon="11.3868614"><ele>872.0</ele><time>2026-04-28T16:17:24.419Z</time></trkpt><trkpt lat="43.5507653" lon="11.3868194"><ele>872.0</ele><time>2026-04-28T16:17:25.419Z</time></trkpt><trkpt lat="43.5508289" lon="11.3867618"><ele>872.0</ele><time>2026-04-28T16:17:26.419Z</time></trkpt><trkpt lat="43.5509085" lon="11.3867271"><ele>872.0000000000001</ele><time>2026-04-28T16:17:27.419Z</time></trkpt><trkpt lat="43.5509885" lon="11.3867014"><ele>872.0</ele><time>2026-04-28T16:17:28.419Z</time></trkpt><trkpt lat="43.5510763" lon="11.3866653"><ele>872.0000000000001</ele><time>2026-04-28T16:17:29.419Z</time></trkpt><trkpt lat="43.5511651" lon="11.3866348"><ele>872.0</ele><time>2026-04-28T16:17:30.419Z</time></trkpt><trkpt lat="43.5512475" lon="11.3866265"><ele>872.0</ele><time>2026-04-28T16:17:31.419Z</time></trkpt><trkpt lat="43.5513175" lon="11.3866056"><ele>872.0</ele><time>2026-04-28T16:17:32.419Z</time></trkpt><trkpt lat="43.5513861" lon="11.3866088"><ele>872.0000000000001</ele><time>2026-04-28T16:17:33.419Z</time></trkpt><trkpt lat="43.5514612" lon="11.3866093"><ele>872.0</ele><time>2026-04-28T16:17:34.42Z</time></trkpt><trkpt lat="43.551536" lon="11.386647"><ele>871.6666666666667</ele><time>2026-04-28T16:17:35.419Z</time></trkpt><trkpt lat="43.5516205" lon="11.3866903"><ele>871.3333333333334</ele><time>2026-04-28T16:17:36.419Z</time></trkpt><trkpt lat="43.5516935" lon="11.3867605"><ele>871.0</ele><time>2026-04-28T16:17:37.419Z</time></trkpt><trkpt lat="43.5517655" lon="11.386846"><ele>870.6666666666667</ele><time>2026-04-28T16:17:38.419Z</time></trkpt><trkpt lat="43.551815" lon="11.3869341"><ele>870.3333333333334</ele><time>2026-04-28T16:17:39.419Z</time></trkpt><trkpt lat="43.5518735" lon="11.3870162"><ele>870.0</ele><time>2026-04-28T16:17:40.419Z</time></trkpt><trkpt lat="43.5519407" lon="11.3871017"><ele>870.0</ele><time>2026-04-28T16:17:41.419Z</time></trkpt><trkpt lat="43.5520124" lon="11.3871393"><ele>870.0</ele><time>2026-04-28T16:17:42.419Z</time></trkpt><trkpt lat="43.5521031" lon="11.3871045"><ele>870.0</ele><time>2026-04-28T16:17:43.419Z</time></trkpt><trkpt lat="43.5521845" lon="11.3870711"><ele>870.0</ele><time>2026-04-28T16:17:44.419Z</time></trkpt><trkpt lat="43.5522615" lon="11.3870655"><ele>870.0</ele><time>2026-04-28T16:17:45.419Z</time></trkpt><trkpt lat="43.5523291" lon="11.3870899"><ele>870.0</ele><time>2026-04-28T16:17:46.419Z</time></trkpt><trkpt lat="43.5523974" lon="11.3871149"><ele>870.8333333333334</ele><time>2026-04-28T16:17:47.419Z</time></trkpt><trkpt lat="43.5524774" lon="11.3871437"><ele>871.6666666666667</ele><time>2026-04-28T16:17:48.419Z</time></trkpt><trkpt lat="43.5525741" lon="11.3871319"><ele>872.5</ele><time>2026-04-28T16:17:49.419Z</time></trkpt><trkpt lat="43.5526532" lon="11.3870918"><ele>873.3333333333334</ele><time>2026-04-28T16:17:50.419Z</time></trkpt><trkpt lat="43.5527313" lon="11.3870559"><ele>874.1666666666667</ele><time>2026-04-28T16:17:51.419Z</time></trkpt><trkpt lat="43.5528143" lon="11.3870151"><ele>875.0</ele><time>2026-04-28T16:17:52.419Z</time></trkpt><trkpt lat="43.552886" lon="11.3869797"><ele>875.6666666666667</ele><time>2026-04-28T16:17:53.419Z</time></trkpt><trkpt lat="43.5529675" lon="11.3869418"><ele>876.3333333333334</ele><time>2026-04-28T16:17:54.419Z</time></trkpt><trkpt lat="43.5530582" lon="11.386915"><ele>877.0</ele><time>2026-04-28T16:17:55.419Z</time></trkpt><trkpt lat="43.5531211" lon="11.3868959"><ele>877.6666666666667</ele><time>2026-04-28T16:17:56.419Z</time></trkpt><trkpt lat="43.5532051" lon="11.3868994"><ele>878.3333333333334</ele><time>2026-04-28T16:17:57.419Z</time></trkpt><trkpt lat="43.5533092" lon="11.3868926"><ele>879.0</ele><time>2026-04-28T16:17:58.419Z</time></trkpt><trkpt lat="43.5533931" lon="11.3868676"><ele>879.0</ele><time>2026-04-28T16:17:59.419Z</time></trkpt><trkpt lat="43.553463" lon="11.386805"><ele>879.0</ele><time>2026-04-28T16:18:00.419Z</time></trkpt><trkpt lat="43.5535282" lon="11.3867411"><ele>879.0</ele><time>2026-04-28T16:18:01.419Z</time></trkpt><trkpt lat="43.553593" lon="11.3866851"><ele>879.0</ele><time>2026-04-28T16:18:02.419Z</time></trkpt><trkpt lat="43.5536741" lon="11.3866435"><ele>879.0</ele><time>2026-04-28T16:18:03.419Z</time></trkpt><trkpt lat="43.5537565" lon="11.3866161"><ele>879.0</ele><time>2026-04-28T16:18:04.419Z</time></trkpt><trkpt lat="43.5538284" lon="11.386607"><ele>879.3333333333334</ele><time>2026-04-28T16:18:05.42Z</time></trkpt><trkpt lat="43.5539225" lon="11.386606"><ele>879.6666666666667</ele><time>2026-04-28T16:18:06.419Z</time></trkpt><trkpt lat="43.5539967" lon="11.3865784"><ele>880.0</ele><time>2026-04-28T16:18:07.419Z</time></trkpt><trkpt lat="43.5540561" lon="11.3865455"><ele>880.3333333333334</ele><time>2026-04-28T16:18:08.42Z</time></trkpt><trkpt lat="43.5541148" lon="11.3865141"><ele>880.6666666666667</ele><time>2026-04-28T16:18:09.419Z</time></trkpt><trkpt lat="43.5541835" lon="11.3864675"><ele>881.0</ele><time>2026-04-28T16:18:11.419Z</time></trkpt><trkpt lat="43.5542583" lon="11.386508"><ele>881.0000000000001</ele><time>2026-04-28T16:18:14.419Z</time></trkpt><trkpt lat="43.5542593" lon="11.3866391"><ele>881.0</ele><time>2026-04-28T16:18:16.419Z</time></trkpt><trkpt lat="43.5542414" lon="11.386728"><ele>881.0</ele><time>2026-04-28T16:18:17.419Z</time></trkpt><trkpt lat="43.5542152" lon="11.3868396"><ele>881.0</ele><time>2026-04-28T16:18:18.419Z</time></trkpt><trkpt lat="43.5542088" lon="11.3869684"><ele>881.0000000000001</ele><time>2026-04-28T16:18:20.419Z</time></trkpt><trkpt lat="43.5542928" lon="11.3870605"><ele>881.0</ele><time>2026-04-28T16:18:22.419Z</time></trkpt><trkpt lat="43.5543743" lon="11.3870681"><ele>881.0</ele><time>2026-04-28T16:18:24.419Z</time></trkpt><trkpt lat="43.5544326" lon="11.387107"><ele>881.0</ele><time>2026-04-28T16:18:27.419Z</time></trkpt><trkpt lat="43.5543932" lon="11.3870357"><ele>881.0</ele><time>2026-04-28T16:23:36.419Z</time></trkpt><trkpt lat="43.5543845" lon="11.3869428"><ele>881.0</ele><time>2026-04-28T16:23:42.447Z</time></trkpt><trkpt lat="43.5544098" lon="11.387038"><ele>881.0</ele><time>2026-04-28T16:24:00.419Z</time></trkpt><trkpt lat="43.5544252" lon="11.3871224"><ele>881.0</ele><time>2026-04-28T16:24:14.42Z</time></trkpt><trkpt lat="43.5543556" lon="11.3871121"><ele>881.0</ele><time>2026-04-28T16:32:29.419Z</time></trkpt><trkpt lat="43.5542645" lon="11.3870782"><ele>881.0</ele><time>2026-04-28T16:32:32.419Z</time></trkpt><trkpt lat="43.5542251" lon="11.3869776"><ele>880.9999999999999</ele><time>2026-04-28T16:32:34.419Z</time></trkpt><trkpt lat="43.5542263" lon="11.3868647"><ele>880.9999999999999</ele><time>2026-04-28T16:32:36.379Z</time></trkpt><trkpt lat="43.5542659" lon="11.3867242"><ele>881.0</ele><time>2026-04-28T16:32:38.378Z</time></trkpt><trkpt lat="43.5542728" lon="11.3865885"><ele>881.0</ele><time>2026-04-28T16:32:39.419Z</time></trkpt><trkpt lat="43.5542738" lon="11.3864295"><ele>881.0000000000001</ele><time>2026-04-28T16:32:41.419Z</time></trkpt><trkpt lat="43.55429" lon="11.3863454"><ele>881.0</ele><time>2026-04-28T16:32:42.419Z</time></trkpt><trkpt lat="43.55434" lon="11.3862028"><ele>881.0</ele><time>2026-04-28T16:32:44.419Z</time></trkpt><trkpt lat="43.5543701" lon="11.3861188"><ele>881.0</ele><time>2026-04-28T16:32:45.419Z</time></trkpt><trkpt lat="43.5543956" lon="11.3860247"><ele>881.0000000000001</ele><time>2026-04-28T16:32:46.419Z</time></trkpt><trkpt lat="43.5544377" lon="11.3859329"><ele>881.0</ele><time>2026-04-28T16:32:47.419Z</time></trkpt><trkpt lat="43.5544715" lon="11.38583"><ele>881.5000000000001</ele><time>2026-04-28T16:32:48.419Z</time></trkpt><trkpt lat="43.5545113" lon="11.3857222"><ele>882.0</ele><time>2026-04-28T16:32:49.419Z</time></trkpt><trkpt lat="43.5545477" lon="11.3856248"><ele>882.5</ele><time>2026-04-28T16:32:50.419Z</time></trkpt><trkpt lat="43.5545949" lon="11.3855307"><ele>883.0</ele><time>2026-04-28T16:32:51.419Z</time></trkpt><trkpt lat="43.5546321" lon="11.3854416"><ele>883.5000000000001</ele><time>2026-04-28T16:32:52.419Z</time></trkpt><trkpt lat="43.5546716" lon="11.3853532"><ele>884.0</ele><time>2026-04-28T16:32:53.419Z</time></trkpt><trkpt lat="43.5547092" lon="11.3852677"><ele>881.7142857142858</ele><time>2026-04-28T16:32:54.419Z</time></trkpt><trkpt lat="43.5547488" lon="11.3851869"><ele>879.4285714285714</ele><time>2026-04-28T16:32:55.419Z</time></trkpt><trkpt lat="43.5547829" lon="11.3851053"><ele>877.1428571428571</ele><time>2026-04-28T16:32:56.419Z</time></trkpt><trkpt lat="43.5548154" lon="11.3850208"><ele>874.8571428571429</ele><time>2026-04-28T16:32:57.419Z</time></trkpt><trkpt lat="43.5548395" lon="11.3849153"><ele>872.5714285714286</ele><time>2026-04-28T16:32:58.419Z</time></trkpt><trkpt lat="43.5548599" lon="11.3848281"><ele>870.2857142857143</ele><time>2026-04-28T16:32:59.419Z</time></trkpt><trkpt lat="43.5548933" lon="11.3847408"><ele>868.0</ele><time>2026-04-28T16:33:00.42Z</time></trkpt><trkpt lat="43.5549553" lon="11.3846166"><ele>866.9999999999999</ele><time>2026-04-28T16:33:02.419Z</time></trkpt><trkpt lat="43.5550048" lon="11.3845095"><ele>866.0</ele><time>2026-04-28T16:33:04.419Z</time></trkpt><trkpt lat="43.5550708" lon="11.3844409"><ele>865.0</ele><time>2026-04-28T16:33:06.419Z</time></trkpt><trkpt lat="43.5551336" lon="11.3844293"><ele>864.0</ele><time>2026-04-28T16:33:07.419Z</time></trkpt><trkpt lat="43.5552582" lon="11.3844148"><ele>862.9999999999999</ele><time>2026-04-28T16:33:09.419Z</time></trkpt><trkpt lat="43.5553265" lon="11.3844012"><ele>862.0</ele><time>2026-04-28T16:33:10.419Z</time></trkpt><trkpt lat="43.5553961" lon="11.3843972"><ele>861.9999999999999</ele><time>2026-04-28T16:33:11.419Z</time></trkpt><trkpt lat="43.555471" lon="11.3843964"><ele>862.0</ele><time>2026-04-28T16:33:12.419Z</time></trkpt><trkpt lat="43.5555516" lon="11.3843932"><ele>862.0</ele><time>2026-04-28T16:33:13.419Z</time></trkpt><trkpt lat="43.5556221" lon="11.3843605"><ele>862.0</ele><time>2026-04-28T16:33:14.419Z</time></trkpt><trkpt lat="43.5556931" lon="11.3843214"><ele>861.9999999999999</ele><time>2026-04-28T16:33:15.419Z</time></trkpt><trkpt lat="43.5557514" lon="11.3842764"><ele>862.0</ele><time>2026-04-28T16:33:16.419Z</time></trkpt><trkpt lat="43.5558487" lon="11.3841514"><ele>861.9999999999999</ele><time>2026-04-28T16:33:18.419Z</time></trkpt><trkpt lat="43.5559055" lon="11.3840892"><ele>862.0</ele><time>2026-04-28T16:33:19.419Z</time></trkpt><trkpt lat="43.5559708" lon="11.3840388"><ele>862.0</ele><time>2026-04-28T16:33:20.419Z</time></trkpt><trkpt lat="43.5560414" lon="11.3839921"><ele>862.0</ele><time>2026-04-28T16:33:21.42Z</time></trkpt><trkpt lat="43.5561159" lon="11.3839564"><ele>861.9999999999999</ele><time>2026-04-28T16:33:22.419Z</time></trkpt><trkpt lat="43.5561841" lon="11.3839171"><ele>862.0</ele><time>2026-04-28T16:33:23.419Z</time></trkpt><trkpt lat="43.5562503" lon="11.383881"><ele>860.8571428571429</ele><time>2026-04-28T16:33:24.419Z</time></trkpt><trkpt lat="43.5563119" lon="11.3838479"><ele>859.7142857142857</ele><time>2026-04-28T16:33:25.419Z</time></trkpt><trkpt lat="43.55638" lon="11.3838081"><ele>858.5714285714286</ele><time>2026-04-28T16:33:26.419Z</time></trkpt><trkpt lat="43.5564604" lon="11.3837841"><ele>857.4285714285714</ele><time>2026-04-28T16:33:27.419Z</time></trkpt><trkpt lat="43.5565352" lon="11.3837541"><ele>856.2857142857142</ele><time>2026-04-28T16:33:28.419Z</time></trkpt><trkpt lat="43.5566082" lon="11.3837226"><ele>855.1428571428571</ele><time>2026-04-28T16:33:29.419Z</time></trkpt><trkpt lat="43.5566731" lon="11.383686"><ele>854.0</ele><time>2026-04-28T16:33:30.419Z</time></trkpt><trkpt lat="43.5567432" lon="11.3836633"><ele>854.0000000000001</ele><time>2026-04-28T16:33:31.42Z</time></trkpt><trkpt lat="43.5568145" lon="11.3836491"><ele>854.0</ele><time>2026-04-28T16:33:32.419Z</time></trkpt><trkpt lat="43.5568914" lon="11.3836522"><ele>854.0</ele><time>2026-04-28T16:33:33.419Z</time></trkpt><trkpt lat="43.5569672" lon="11.3836639"><ele>854.0</ele><time>2026-04-28T16:33:34.419Z</time></trkpt><trkpt lat="43.5570484" lon="11.3836931"><ele>854.0000000000001</ele><time>2026-04-28T16:33:35.419Z</time></trkpt><trkpt lat="43.557136" lon="11.3837378"><ele>854.0</ele><time>2026-04-28T16:33:36.419Z</time></trkpt><trkpt lat="43.5572084" lon="11.3837619"><ele>854.0000000000001</ele><time>2026-04-28T16:33:37.42Z</time></trkpt><trkpt lat="43.557281" lon="11.3837812"><ele>854.0</ele><time>2026-04-28T16:33:38.419Z</time></trkpt><trkpt lat="43.557355" lon="11.3837828"><ele>854.0</ele><time>2026-04-28T16:33:39.419Z</time></trkpt><trkpt lat="43.5574419" lon="11.383767"><ele>854.0</ele><time>2026-04-28T16:33:40.419Z</time></trkpt><trkpt lat="43.5575297" lon="11.3837247"><ele>854.0000000000001</ele><time>2026-04-28T16:33:41.419Z</time></trkpt><trkpt lat="43.5576151" lon="11.3836744"><ele>854.0</ele><time>2026-04-28T16:33:42.42Z</time></trkpt><trkpt lat="43.5576989" lon="11.3836365"><ele>854.0</ele><time>2026-04-28T16:33:43.419Z</time></trkpt><trkpt lat="43.5577771" lon="11.3835851"><ele>854.0000000000001</ele><time>2026-04-28T16:33:44.419Z</time></trkpt><trkpt lat="43.557858" lon="11.3835396"><ele>854.0000000000001</ele><time>2026-04-28T16:33:45.419Z</time></trkpt><trkpt lat="43.5579437" lon="11.383481"><ele>854.0</ele><time>2026-04-28T16:33:46.419Z</time></trkpt><trkpt lat="43.5580222" lon="11.3834239"><ele>854.0</ele><time>2026-04-28T16:33:47.419Z</time></trkpt><trkpt lat="43.5581064" lon="11.3833724"><ele>854.3333333333334</ele><time>2026-04-28T16:33:48.419Z</time></trkpt><trkpt lat="43.5581746" lon="11.3833179"><ele>854.6666666666667</ele><time>2026-04-28T16:33:49.419Z</time></trkpt><trkpt lat="43.5582415" lon="11.3832394"><ele>855.0</ele><time>2026-04-28T16:33:50.419Z</time></trkpt><trkpt lat="43.5583033" lon="11.3831777"><ele>855.3333333333333</ele><time>2026-04-28T16:33:51.42Z</time></trkpt><trkpt lat="43.5583571" lon="11.3831239"><ele>855.6666666666666</ele><time>2026-04-28T16:33:52.419Z</time></trkpt><trkpt lat="43.5584176" lon="11.3830542"><ele>856.0</ele><time>2026-04-28T16:33:53.419Z</time></trkpt><trkpt lat="43.5584831" lon="11.3829795"><ele>854.3333333333333</ele><time>2026-04-28T16:33:54.419Z</time></trkpt><trkpt lat="43.5585508" lon="11.3829307"><ele>852.6666666666666</ele><time>2026-04-28T16:33:55.419Z</time></trkpt><trkpt lat="43.558623" lon="11.3828936"><ele>851.0</ele><time>2026-04-28T16:33:56.419Z</time></trkpt><trkpt lat="43.5586961" lon="11.3828663"><ele>849.3333333333333</ele><time>2026-04-28T16:33:57.419Z</time></trkpt><trkpt lat="43.5587763" lon="11.3828366"><ele>847.6666666666666</ele><time>2026-04-28T16:33:58.419Z</time></trkpt><trkpt lat="43.5588515" lon="11.3828104"><ele>846.0</ele><time>2026-04-28T16:33:59.419Z</time></trkpt><trkpt lat="43.5589376" lon="11.3827836"><ele>845.5999999999999</ele><time>2026-04-28T16:34:00.419Z</time></trkpt><trkpt lat="43.5590163" lon="11.3827562"><ele>845.2</ele><time>2026-04-28T16:34:01.419Z</time></trkpt><trkpt lat="43.5590927" lon="11.3827154"><ele>844.8</ele><time>2026-04-28T16:34:02.419Z</time></trkpt><trkpt lat="43.5591833" lon="11.382648"><ele>844.4000000000001</ele><time>2026-04-28T16:34:03.42Z</time></trkpt><trkpt lat="43.5592621" lon="11.3825678"><ele>844.0</ele><time>2026-04-28T16:34:04.419Z</time></trkpt><trkpt lat="43.5593353" lon="11.3824851"><ele>844.0</ele><time>2026-04-28T16:34:05.42Z</time></trkpt><trkpt lat="43.5594034" lon="11.3824042"><ele>844.0</ele><time>2026-04-28T16:34:06.419Z</time></trkpt><trkpt lat="43.5594692" lon="11.382328"><ele>844.0</ele><time>2026-04-28T16:34:07.419Z</time></trkpt><trkpt lat="43.5595309" lon="11.3822316"><ele>844.0</ele><time>2026-04-28T16:34:08.419Z</time></trkpt><trkpt lat="43.5595868" lon="11.3821315"><ele>844.0</ele><time>2026-04-28T16:34:09.419Z</time></trkpt><trkpt lat="43.5596438" lon="11.3820262"><ele>843.0</ele><time>2026-04-28T16:34:10.419Z</time></trkpt><trkpt lat="43.5597086" lon="11.3819216"><ele>842.0</ele><time>2026-04-28T16:34:11.419Z</time></trkpt><trkpt lat="43.5597692" lon="11.381825"><ele>841.0</ele><time>2026-04-28T16:34:12.419Z</time></trkpt><trkpt lat="43.5598209" lon="11.381717"><ele>840.0</ele><time>2026-04-28T16:34:13.419Z</time></trkpt><trkpt lat="43.559876" lon="11.3816159"><ele>839.0</ele><time>2026-04-28T16:34:14.419Z</time></trkpt><trkpt lat="43.5599292" lon="11.3815164"><ele>839.0000000000001</ele><time>2026-04-28T16:34:15.419Z</time></trkpt><trkpt lat="43.5599825" lon="11.3814128"><ele>839.0</ele><time>2026-04-28T16:34:16.419Z</time></trkpt><trkpt lat="43.5600401" lon="11.3813168"><ele>839.0</ele><time>2026-04-28T16:34:17.419Z</time></trkpt><trkpt lat="43.5600921" lon="11.3812231"><ele>839.0</ele><time>2026-04-28T16:34:18.419Z</time></trkpt><trkpt lat="43.5601409" lon="11.3811345"><ele>839.0000000000001</ele><time>2026-04-28T16:34:19.419Z</time></trkpt><trkpt lat="43.5601822" lon="11.3810589"><ele>839.0</ele><time>2026-04-28T16:34:20.419Z</time></trkpt><trkpt lat="43.5602196" lon="11.3809864"><ele>840.4000000000001</ele><time>2026-04-28T16:34:21.419Z</time></trkpt><trkpt lat="43.5602888" lon="11.3808508"><ele>841.8</ele><time>2026-04-28T16:34:23.419Z</time></trkpt><trkpt lat="43.5603462" lon="11.3807573"><ele>843.2</ele><time>2026-04-28T16:34:25.419Z</time></trkpt><trkpt lat="43.5604182" lon="11.3807134"><ele>844.5999999999999</ele><time>2026-04-28T16:34:27.419Z</time></trkpt><trkpt lat="43.5604948" lon="11.3806399"><ele>846.0</ele><time>2026-04-28T16:34:29.419Z</time></trkpt><trkpt lat="43.560585" lon="11.3806046"><ele>846.0</ele><time>2026-04-28T16:34:31.419Z</time></trkpt><trkpt lat="43.5606871" lon="11.3805999"><ele>846.0</ele><time>2026-04-28T16:34:33.419Z</time></trkpt><trkpt lat="43.560801" lon="11.3805593"><ele>846.0</ele><time>2026-04-28T16:34:35.419Z</time></trkpt><trkpt lat="43.5608639" lon="11.3805289"><ele>846.0</ele><time>2026-04-28T16:34:36.419Z</time></trkpt><trkpt lat="43.560927" lon="11.380503"><ele>846.0</ele><time>2026-04-28T16:34:37.419Z</time></trkpt><trkpt lat="43.5609939" lon="11.380464"><ele>846.0</ele><time>2026-04-28T16:34:38.419Z</time></trkpt><trkpt lat="43.5610658" lon="11.3804215"><ele>847.1666666666666</ele><time>2026-04-28T16:34:39.419Z</time></trkpt><trkpt lat="43.5611394" lon="11.380384"><ele>848.3333333333333</ele><time>2026-04-28T16:34:40.419Z</time></trkpt><trkpt lat="43.5612103" lon="11.380341"><ele>849.5</ele><time>2026-04-28T16:34:41.419Z</time></trkpt><trkpt lat="43.5612837" lon="11.3802995"><ele>850.6666666666666</ele><time>2026-04-28T16:34:42.419Z</time></trkpt><trkpt lat="43.5613495" lon="11.3802546"><ele>851.8333333333333</ele><time>2026-04-28T16:34:43.419Z</time></trkpt><trkpt lat="43.5614029" lon="11.3802027"><ele>853.0</ele><time>2026-04-28T16:34:44.419Z</time></trkpt><trkpt lat="43.5614923" lon="11.3801005"><ele>852.9999999999999</ele><time>2026-04-28T16:34:46.419Z</time></trkpt><trkpt lat="43.5615583" lon="11.3799778"><ele>853.0</ele><time>2026-04-28T16:34:48.419Z</time></trkpt><trkpt lat="43.5615937" lon="11.3799027"><ele>853.0</ele><time>2026-04-28T16:34:49.419Z</time></trkpt><trkpt lat="43.5616361" lon="11.3798229"><ele>853.0</ele><time>2026-04-28T16:34:50.419Z</time></trkpt><trkpt lat="43.5616852" lon="11.3797327"><ele>852.9999999999999</ele><time>2026-04-28T16:34:51.419Z</time></trkpt><trkpt lat="43.5617424" lon="11.3796399"><ele>853.0</ele><time>2026-04-28T16:34:52.419Z</time></trkpt><trkpt lat="43.5618008" lon="11.3795458"><ele>855.5999999999999</ele><time>2026-04-28T16:34:53.419Z</time></trkpt><trkpt lat="43.5618621" lon="11.3794634"><ele>858.1999999999999</ele><time>2026-04-28T16:34:54.419Z</time></trkpt><trkpt lat="43.5619282" lon="11.3793702"><ele>860.8</ele><time>2026-04-28T16:34:55.419Z</time></trkpt><trkpt lat="43.5619973" lon="11.3792729"><ele>863.4</ele><time>2026-04-28T16:34:56.419Z</time></trkpt><trkpt lat="43.5620577" lon="11.379164"><ele>866.0</ele><time>2026-04-28T16:34:57.419Z</time></trkpt><trkpt lat="43.5621091" lon="11.3790509"><ele>861.4</ele><time>2026-04-28T16:34:58.419Z</time></trkpt><trkpt lat="43.5621573" lon="11.378936"><ele>856.8</ele><time>2026-04-28T16:34:59.419Z</time></trkpt><trkpt lat="43.5622081" lon="11.378822"><ele>852.1999999999999</ele><time>2026-04-28T16:35:00.419Z</time></trkpt><trkpt lat="43.562261" lon="11.3787143"><ele>847.5999999999999</ele><time>2026-04-28T16:35:01.42Z</time></trkpt><trkpt lat="43.5623181" lon="11.3786109"><ele>843.0</ele><time>2026-04-28T16:35:02.419Z</time></trkpt><trkpt lat="43.5623824" lon="11.3785108"><ele>843.0</ele><time>2026-04-28T16:35:03.419Z</time></trkpt><trkpt lat="43.5624551" lon="11.3784241"><ele>843.0</ele><time>2026-04-28T16:35:04.419Z</time></trkpt><trkpt lat="43.5625275" lon="11.3783392"><ele>843.0</ele><time>2026-04-28T16:35:05.419Z</time></trkpt><trkpt lat="43.562602" lon="11.3782585"><ele>843.0</ele><time>2026-04-28T16:35:06.419Z</time></trkpt><trkpt lat="43.5626829" lon="11.3781995"><ele>843.0</ele><time>2026-04-28T16:35:07.419Z</time></trkpt><trkpt lat="43.5627689" lon="11.3781614"><ele>843.0</ele><time>2026-04-28T16:35:08.419Z</time></trkpt><trkpt lat="43.5628634" lon="11.3781439"><ele>843.0</ele><time>2026-04-28T16:35:09.419Z</time></trkpt><trkpt lat="43.5629475" lon="11.3781033"><ele>843.0</ele><time>2026-04-28T16:35:10.419Z</time></trkpt><trkpt lat="43.5630275" lon="11.3780599"><ele>843.0</ele><time>2026-04-28T16:35:11.419Z</time></trkpt><trkpt lat="43.5631033" lon="11.3780243"><ele>843.0</ele><time>2026-04-28T16:35:12.419Z</time></trkpt><trkpt lat="43.56318" lon="11.3779861"><ele>843.0</ele><time>2026-04-28T16:35:13.419Z</time></trkpt><trkpt lat="43.5632535" lon="11.3779469"><ele>840.2</ele><time>2026-04-28T16:35:14.419Z</time></trkpt><trkpt lat="43.5633265" lon="11.3779103"><ele>837.4</ele><time>2026-04-28T16:35:15.419Z</time></trkpt><trkpt lat="43.563399" lon="11.3778802"><ele>834.6</ele><time>2026-04-28T16:35:16.419Z</time></trkpt><trkpt lat="43.563518" lon="11.3778316"><ele>831.8000000000001</ele><time>2026-04-28T16:35:18.419Z</time></trkpt><trkpt lat="43.5635785" lon="11.3778045"><ele>829.0</ele><time>2026-04-28T16:35:19.419Z</time></trkpt><trkpt lat="43.5636938" lon="11.3777701"><ele>828.1666666666666</ele><time>2026-04-28T16:35:21.419Z</time></trkpt><trkpt lat="43.5637781" lon="11.377773"><ele>827.3333333333333</ele><time>2026-04-28T16:35:23.419Z</time></trkpt><trkpt lat="43.5638527" lon="11.3777921"><ele>826.5</ele><time>2026-04-28T16:35:26.419Z</time></trkpt><trkpt lat="43.5639144" lon="11.3778179"><ele>825.6666666666667</ele><time>2026-04-28T16:36:10.419Z</time></trkpt><trkpt lat="43.563943" lon="11.377921"><ele>824.8333333333334</ele><time>2026-04-28T16:36:13.419Z</time></trkpt><trkpt lat="43.5639673" lon="11.3780523"><ele>824.0</ele><time>2026-04-28T16:36:15.419Z</time></trkpt><trkpt lat="43.5639577" lon="11.3781607"><ele>823.6666666666667</ele><time>2026-04-28T16:36:17.419Z</time></trkpt><trkpt lat="43.5639218" lon="11.37824"><ele>823.3333333333334</ele><time>2026-04-28T16:36:19.419Z</time></trkpt><trkpt lat="43.56387" lon="11.3783504"><ele>823.0</ele><time>2026-04-28T16:36:21.419Z</time></trkpt><trkpt lat="43.5638413" lon="11.3784793"><ele>822.6666666666667</ele><time>2026-04-28T16:36:23.419Z</time></trkpt><trkpt lat="43.5638498" lon="11.3786063"><ele>822.3333333333334</ele><time>2026-04-28T16:36:25.419Z</time></trkpt><trkpt lat="43.5638938" lon="11.3787164"><ele>822.0</ele><time>2026-04-28T16:36:27.419Z</time></trkpt><trkpt lat="43.5639897" lon="11.3787949"><ele>822.0</ele><time>2026-04-28T16:36:29.419Z</time></trkpt><trkpt lat="43.5640526" lon="11.3788107"><ele>822.0</ele><time>2026-04-28T16:36:30.419Z</time></trkpt><trkpt lat="43.5641198" lon="11.3788216"><ele>822.0</ele><time>2026-04-28T16:36:31.419Z</time></trkpt><trkpt lat="43.5641873" lon="11.3788174"><ele>822.0</ele><time>2026-04-28T16:36:32.419Z</time></trkpt><trkpt lat="43.5643169" lon="11.3787955"><ele>822.0</ele><time>2026-04-28T16:36:34.419Z</time></trkpt><trkpt lat="43.5643824" lon="11.3787791"><ele>822.0</ele><time>2026-04-28T16:36:35.419Z</time></trkpt><trkpt lat="43.5644487" lon="11.3787603"><ele>822.0</ele><time>2026-04-28T16:36:36.419Z</time></trkpt><trkpt lat="43.564517" lon="11.378738"><ele>822.0</ele><time>2026-04-28T16:36:37.419Z</time></trkpt><trkpt lat="43.564591" lon="11.3787137"><ele>822.0</ele><time>2026-04-28T16:36:38.419Z</time></trkpt><trkpt lat="43.5646636" lon="11.3786919"><ele>822.0</ele><time>2026-04-28T16:36:39.419Z</time></trkpt><trkpt lat="43.5647354" lon="11.3786615"><ele>822.0</ele><time>2026-04-28T16:36:40.419Z</time></trkpt><trkpt lat="43.5648072" lon="11.3786248"><ele>822.0</ele><time>2026-04-28T16:36:41.419Z</time></trkpt><trkpt lat="43.5648745" lon="11.3785942"><ele>822.0</ele><time>2026-04-28T16:36:42.419Z</time></trkpt><trkpt lat="43.5649409" lon="11.3785508"><ele>819.0</ele><time>2026-04-28T16:36:43.419Z</time></trkpt><trkpt lat="43.5650027" lon="11.378508"><ele>816.0</ele><time>2026-04-28T16:36:44.42Z</time></trkpt><trkpt lat="43.565065" lon="11.3784611"><ele>813.0</ele><time>2026-04-28T16:36:45.419Z</time></trkpt><trkpt lat="43.5651662" lon="11.3783632"><ele>810.0</ele><time>2026-04-28T16:36:47.419Z</time></trkpt><trkpt lat="43.5652496" lon="11.3782708"><ele>807.0</ele><time>2026-04-28T16:36:49.419Z</time></trkpt><trkpt lat="43.5653311" lon="11.3781702"><ele>805.6</ele><time>2026-04-28T16:36:51.419Z</time></trkpt><trkpt lat="43.5654041" lon="11.3780679"><ele>804.2</ele><time>2026-04-28T16:36:53.419Z</time></trkpt><trkpt lat="43.5654799" lon="11.3779687"><ele>802.8</ele><time>2026-04-28T16:36:55.419Z</time></trkpt><trkpt lat="43.5655646" lon="11.3778744"><ele>801.4</ele><time>2026-04-28T16:36:57.42Z</time></trkpt><trkpt lat="43.5656602" lon="11.3777645"><ele>800.0</ele><time>2026-04-28T16:36:59.419Z</time></trkpt><trkpt lat="43.5657141" lon="11.3777117"><ele>799.0000000000001</ele><time>2026-04-28T16:37:00.419Z</time></trkpt><trkpt lat="43.5658334" lon="11.3776502"><ele>798.0</ele><time>2026-04-28T16:37:02.419Z</time></trkpt><trkpt lat="43.565901" lon="11.3776451"><ele>797.0</ele><time>2026-04-28T16:37:03.419Z</time></trkpt><trkpt lat="43.5659713" lon="11.3776471"><ele>796.0</ele><time>2026-04-28T16:37:04.419Z</time></trkpt><trkpt lat="43.5660406" lon="11.3776636"><ele>795.0000000000001</ele><time>2026-04-28T16:37:05.419Z</time></trkpt><trkpt lat="43.5661069" lon="11.3776845"><ele>794.0</ele><time>2026-04-28T16:37:06.419Z</time></trkpt><trkpt lat="43.5662146" lon="11.3777523"><ele>791.8000000000001</ele><time>2026-04-28T16:37:08.419Z</time></trkpt><trkpt lat="43.5663216" lon="11.3778222"><ele>789.6</ele><time>2026-04-28T16:37:10.419Z</time></trkpt><trkpt lat="43.5664181" lon="11.3778809"><ele>787.4</ele><time>2026-04-28T16:37:12.419Z</time></trkpt><trkpt lat="43.566509" lon="11.3779227"><ele>785.2</ele><time>2026-04-28T16:37:14.419Z</time></trkpt><trkpt lat="43.5665994" lon="11.3779624"><ele>783.0</ele><time>2026-04-28T16:37:16.419Z</time></trkpt><trkpt lat="43.5667038" lon="11.3779989"><ele>783.4285714285714</ele><time>2026-04-28T16:37:18.419Z</time></trkpt><trkpt lat="43.5668163" lon="11.3780391"><ele>783.8571428571429</ele><time>2026-04-28T16:37:20.419Z</time></trkpt><trkpt lat="43.5668825" lon="11.3780473"><ele>784.2857142857143</ele><time>2026-04-28T16:37:21.42Z</time></trkpt><trkpt lat="43.5669471" lon="11.3780528"><ele>784.7142857142858</ele><time>2026-04-28T16:37:22.419Z</time></trkpt><trkpt lat="43.5670119" lon="11.3780702"><ele>785.1428571428571</ele><time>2026-04-28T16:37:23.419Z</time></trkpt><trkpt lat="43.5670774" lon="11.3780925"><ele>785.5714285714287</ele><time>2026-04-28T16:37:24.419Z</time></trkpt><trkpt lat="43.5671401" lon="11.3781182"><ele>786.0</ele><time>2026-04-28T16:37:25.419Z</time></trkpt><trkpt lat="43.5672045" lon="11.3781396"><ele>784.5714285714287</ele><time>2026-04-28T16:37:26.42Z</time></trkpt><trkpt lat="43.5672668" lon="11.3781682"><ele>783.1428571428571</ele><time>2026-04-28T16:37:27.419Z</time></trkpt><trkpt lat="43.5673341" lon="11.3781887"><ele>781.7142857142858</ele><time>2026-04-28T16:37:28.42Z</time></trkpt><trkpt lat="43.567398" lon="11.3781969"><ele>780.2857142857143</ele><time>2026-04-28T16:37:29.419Z</time></trkpt><trkpt lat="43.5674674" lon="11.378201"><ele>778.8571428571429</ele><time>2026-04-28T16:37:30.419Z</time></trkpt><trkpt lat="43.5675307" lon="11.3781967"><ele>777.4285714285714</ele><time>2026-04-28T16:37:31.419Z</time></trkpt><trkpt lat="43.5675961" lon="11.3781808"><ele>776.0</ele><time>2026-04-28T16:37:32.419Z</time></trkpt><trkpt lat="43.5676964" lon="11.3781402"><ele>776.0</ele><time>2026-04-28T16:37:34.419Z</time></trkpt><trkpt lat="43.5677673" lon="11.3780869"><ele>776.0</ele><time>2026-04-28T16:37:36.419Z</time></trkpt><trkpt lat="43.5678416" lon="11.3780072"><ele>776.0</ele><time>2026-04-28T16:37:38.419Z</time></trkpt><trkpt lat="43.5679246" lon="11.377898"><ele>776.0</ele><time>2026-04-28T16:37:40.419Z</time></trkpt><trkpt lat="43.5680241" lon="11.3777933"><ele>776.0</ele><time>2026-04-28T16:37:42.419Z</time></trkpt><trkpt lat="43.5680621" lon="11.3777226"><ele>773.25</ele><time>2026-04-28T16:37:43.419Z</time></trkpt><trkpt lat="43.568119" lon="11.3775683"><ele>770.5</ele><time>2026-04-28T16:37:45.419Z</time></trkpt><trkpt lat="43.5681398" lon="11.3774068"><ele>767.75</ele><time>2026-04-28T16:37:47.419Z</time></trkpt><trkpt lat="43.568145" lon="11.3772553"><ele>765.0</ele><time>2026-04-28T16:37:49.419Z</time></trkpt><trkpt lat="43.5681994" lon="11.377112"><ele>765.0</ele><time>2026-04-28T16:37:51.42Z</time></trkpt><trkpt lat="43.5683047" lon="11.3770774"><ele>765.0</ele><time>2026-04-28T16:37:53.42Z</time></trkpt><trkpt lat="43.5683636" lon="11.3771289"><ele>765.0</ele><time>2026-04-28T16:37:54.419Z</time></trkpt><trkpt lat="43.5684323" lon="11.3772423"><ele>765.0</ele><time>2026-04-28T16:37:56.419Z</time></trkpt><trkpt lat="43.5684784" lon="11.377359"><ele>765.0</ele><time>2026-04-28T16:37:58.419Z</time></trkpt><trkpt lat="43.5685255" lon="11.3775258"><ele>765.0000000000001</ele><time>2026-04-28T16:38:00.419Z</time></trkpt><trkpt lat="43.5685563" lon="11.3776196"><ele>765.0</ele><time>2026-04-28T16:38:01.419Z</time></trkpt><trkpt lat="43.5685818" lon="11.3777083"><ele>765.0</ele><time>2026-04-28T16:38:02.419Z</time></trkpt><trkpt lat="43.5686039" lon="11.3777961"><ele>765.0</ele><time>2026-04-28T16:38:03.419Z</time></trkpt><trkpt lat="43.5686225" lon="11.3778834"><ele>765.0</ele><time>2026-04-28T16:38:04.419Z</time></trkpt><trkpt lat="43.5686429" lon="11.3779722"><ele>765.0000000000001</ele><time>2026-04-28T16:38:05.419Z</time></trkpt><trkpt lat="43.5686661" lon="11.3780569"><ele>765.0</ele><time>2026-04-28T16:38:06.419Z</time></trkpt><trkpt lat="43.568712" lon="11.3782034"><ele>761.6</ele><time>2026-04-28T16:38:08.419Z</time></trkpt><trkpt lat="43.5687796" lon="11.3783056"><ele>758.2</ele><time>2026-04-28T16:38:10.419Z</time></trkpt><trkpt lat="43.5688449" lon="11.3783145"><ele>754.8</ele><time>2026-04-28T16:38:11.419Z</time></trkpt><trkpt lat="43.5689159" lon="11.3782972"><ele>751.4</ele><time>2026-04-28T16:38:12.419Z</time></trkpt><trkpt lat="43.5690236" lon="11.378215"><ele>748.0</ele><time>2026-04-28T16:38:14.419Z</time></trkpt><trkpt lat="43.5691157" lon="11.3781129"><ele>748.0</ele><time>2026-04-28T16:38:16.419Z</time></trkpt><trkpt lat="43.5691951" lon="11.3780295"><ele>748.0</ele><time>2026-04-28T16:38:18.419Z</time></trkpt><trkpt lat="43.5692613" lon="11.3779747"><ele>748.0</ele><time>2026-04-28T16:38:20.419Z</time></trkpt><trkpt lat="43.5693488" lon="11.3779388"><ele>748.0</ele><time>2026-04-28T16:38:23.419Z</time></trkpt><trkpt lat="43.5694279" lon="11.3778885"><ele>748.0</ele><time>2026-04-28T16:38:26.419Z</time></trkpt><trkpt lat="43.5694869" lon="11.3778497"><ele>748.0</ele><time>2026-04-28T16:38:29.419Z</time></trkpt><trkpt lat="43.5694533" lon="11.3779637"><ele>748.0</ele><time>2026-04-28T16:39:11.42Z</time></trkpt><trkpt lat="43.569376" lon="11.378049"><ele>748.0</ele><time>2026-04-28T16:39:13.419Z</time></trkpt><trkpt lat="43.5692975" lon="11.3781295"><ele>748.0</ele><time>2026-04-28T16:39:15.419Z</time></trkpt><trkpt lat="43.5692193" lon="11.3782383"><ele>748.0</ele><time>2026-04-28T16:39:17.419Z</time></trkpt><trkpt lat="43.5691518" lon="11.3783557"><ele>748.0</ele><time>2026-04-28T16:39:19.419Z</time></trkpt><trkpt lat="43.5690786" lon="11.378474"><ele>748.0</ele><time>2026-04-28T16:39:21.419Z</time></trkpt><trkpt lat="43.5690248" lon="11.3785273"><ele>748.0</ele><time>2026-04-28T16:39:22.419Z</time></trkpt><trkpt lat="43.5689717" lon="11.37859"><ele>748.0</ele><time>2026-04-28T16:39:23.419Z</time></trkpt><trkpt lat="43.568926" lon="11.3786529"><ele>748.0</ele><time>2026-04-28T16:39:24.419Z</time></trkpt><trkpt lat="43.5688691" lon="11.3787246"><ele>748.0</ele><time>2026-04-28T16:39:25.419Z</time></trkpt><trkpt lat="43.5688124" lon="11.378793"><ele>748.0</ele><time>2026-04-28T16:39:26.419Z</time></trkpt><trkpt lat="43.5687543" lon="11.3788616"><ele>748.0</ele><time>2026-04-28T16:39:27.419Z</time></trkpt><trkpt lat="43.5686994" lon="11.3789339"><ele>748.1428571428571</ele><time>2026-04-28T16:39:28.419Z</time></trkpt><trkpt lat="43.5686533" lon="11.3790109"><ele>748.2857142857143</ele><time>2026-04-28T16:39:29.42Z</time></trkpt><trkpt lat="43.5686032" lon="11.3790747"><ele>748.4285714285714</ele><time>2026-04-28T16:39:30.419Z</time></trkpt><trkpt lat="43.5685517" lon="11.3791396"><ele>748.5714285714286</ele><time>2026-04-28T16:39:31.419Z</time></trkpt><trkpt lat="43.5684899" lon="11.3792009"><ele>748.7142857142858</ele><time>2026-04-28T16:39:32.419Z</time></trkpt><trkpt lat="43.5684249" lon="11.3792521"><ele>748.8571428571429</ele><time>2026-04-28T16:39:33.419Z</time></trkpt><trkpt lat="43.5683623" lon="11.379309"><ele>749.0</ele><time>2026-04-28T16:39:34.419Z</time></trkpt><trkpt lat="43.568303" lon="11.3793562"><ele>749.0</ele><time>2026-04-28T16:39:35.419Z</time></trkpt><trkpt lat="43.568206" lon="11.3794906"><ele>749.0</ele><time>2026-04-28T16:39:37.419Z</time></trkpt><trkpt lat="43.5681738" lon="11.3795742"><ele>749.0</ele><time>2026-04-28T16:39:38.419Z</time></trkpt><trkpt lat="43.568148" lon="11.3796725"><ele>749.0</ele><time>2026-04-28T16:39:39.419Z</time></trkpt><trkpt lat="43.5681255" lon="11.379761"><ele>749.0</ele><time>2026-04-28T16:39:40.42Z</time></trkpt><trkpt lat="43.5681008" lon="11.3798565"><ele>749.0</ele><time>2026-04-28T16:39:41.42Z</time></trkpt><trkpt lat="43.5680677" lon="11.3799484"><ele>748.4285714285714</ele><time>2026-04-28T16:39:42.419Z</time></trkpt><trkpt lat="43.5680193" lon="11.3800342"><ele>747.8571428571429</ele><time>2026-04-28T16:39:43.419Z</time></trkpt><trkpt lat="43.5679649" lon="11.3801136"><ele>747.2857142857142</ele><time>2026-04-28T16:39:44.419Z</time></trkpt><trkpt lat="43.5679073" lon="11.3801741"><ele>746.7142857142858</ele><time>2026-04-28T16:39:45.419Z</time></trkpt><trkpt lat="43.5678426" lon="11.3802016"><ele>746.1428571428571</ele><time>2026-04-28T16:39:46.42Z</time></trkpt><trkpt lat="43.5677734" lon="11.3802144"><ele>745.5714285714286</ele><time>2026-04-28T16:39:47.419Z</time></trkpt><trkpt lat="43.5677011" lon="11.3802147"><ele>745.0</ele><time>2026-04-28T16:39:48.419Z</time></trkpt><trkpt lat="43.5676363" lon="11.380211"><ele>745.0</ele><time>2026-04-28T16:39:49.419Z</time></trkpt><trkpt lat="43.5675727" lon="11.3802295"><ele>745.0</ele><time>2026-04-28T16:39:50.419Z</time></trkpt><trkpt lat="43.5675106" lon="11.3802635"><ele>745.0</ele><time>2026-04-28T16:39:51.419Z</time></trkpt><trkpt lat="43.5674548" lon="11.3803131"><ele>745.0</ele><time>2026-04-28T16:39:52.419Z</time></trkpt><trkpt lat="43.5673587" lon="11.3803528"><ele>745.0</ele><time>2026-04-28T16:39:54.419Z</time></trkpt><trkpt lat="43.5673021" lon="11.3803945"><ele>745.0</ele><time>2026-04-28T16:39:55.419Z</time></trkpt><trkpt lat="43.5671992" lon="11.3804766"><ele>743.1666666666667</ele><time>2026-04-28T16:39:57.419Z</time></trkpt><trkpt lat="43.567145" lon="11.3805282"><ele>741.3333333333334</ele><time>2026-04-28T16:39:58.419Z</time></trkpt><trkpt lat="43.5670406" lon="11.3806414"><ele>739.5</ele><time>2026-04-28T16:40:00.419Z</time></trkpt><trkpt lat="43.5669811" lon="11.3807096"><ele>737.6666666666666</ele><time>2026-04-28T16:40:01.419Z</time></trkpt><trkpt lat="43.5669207" lon="11.3807576"><ele>735.8333333333333</ele><time>2026-04-28T16:40:02.419Z</time></trkpt><trkpt lat="43.5668585" lon="11.3808105"><ele>734.0</ele><time>2026-04-28T16:40:03.419Z</time></trkpt><trkpt lat="43.5668018" lon="11.3808537"><ele>734.0</ele><time>2026-04-28T16:40:04.419Z</time></trkpt><trkpt lat="43.5667441" lon="11.3808903"><ele>734.0</ele><time>2026-04-28T16:40:05.419Z</time></trkpt><trkpt lat="43.5666162" lon="11.3809327"><ele>734.0</ele><time>2026-04-28T16:40:07.419Z</time></trkpt><trkpt lat="43.5664986" lon="11.3809501"><ele>734.0</ele><time>2026-04-28T16:40:09.419Z</time></trkpt><trkpt lat="43.5664312" lon="11.3809727"><ele>734.0</ele><time>2026-04-28T16:40:10.419Z</time></trkpt><trkpt lat="43.5663677" lon="11.3809996"><ele>734.0</ele><time>2026-04-28T16:40:11.419Z</time></trkpt><trkpt lat="43.5663078" lon="11.3810432"><ele>734.0</ele><time>2026-04-28T16:40:12.419Z</time></trkpt><trkpt lat="43.5662449" lon="11.3810973"><ele>734.0</ele><time>2026-04-28T16:40:13.419Z</time></trkpt><trkpt lat="43.5661854" lon="11.3811479"><ele>734.0</ele><time>2026-04-28T16:40:14.419Z</time></trkpt><trkpt lat="43.5661302" lon="11.3811925"><ele>734.0</ele><time>2026-04-28T16:40:15.419Z</time></trkpt><trkpt lat="43.5660668" lon="11.381255"><ele>734.0</ele><time>2026-04-28T16:40:16.419Z</time></trkpt><trkpt lat="43.566002" lon="11.3813168"><ele>734.0</ele><time>2026-04-28T16:40:17.419Z</time></trkpt><trkpt lat="43.5659327" lon="11.3813836"><ele>734.0</ele><time>2026-04-28T16:40:18.419Z</time></trkpt><trkpt lat="43.5658733" lon="11.3814453"><ele>732.8333333333333</ele><time>2026-04-28T16:40:19.419Z</time></trkpt><trkpt lat="43.5658107" lon="11.3815166"><ele>731.6666666666666</ele><time>2026-04-28T16:40:20.419Z</time></trkpt><trkpt lat="43.5657462" lon="11.3815766"><ele>730.5</ele><time>2026-04-28T16:40:21.419Z</time></trkpt><trkpt lat="43.5656676" lon="11.3816365"><ele>729.3333333333334</ele><time>2026-04-28T16:40:22.419Z</time></trkpt><trkpt lat="43.5655946" lon="11.3816904"><ele>728.1666666666667</ele><time>2026-04-28T16:40:23.419Z</time></trkpt><trkpt lat="43.565525" lon="11.3817407"><ele>727.0</ele><time>2026-04-28T16:40:24.419Z</time></trkpt><trkpt lat="43.5654456" lon="11.3817929"><ele>727.0</ele><time>2026-04-28T16:40:25.419Z</time></trkpt><trkpt lat="43.5653644" lon="11.3818342"><ele>727.0</ele><time>2026-04-28T16:40:26.419Z</time></trkpt><trkpt lat="43.5652934" lon="11.3818838"><ele>727.0</ele><time>2026-04-28T16:40:27.419Z</time></trkpt><trkpt lat="43.5652305" lon="11.3819602"><ele>727.0</ele><time>2026-04-28T16:40:28.419Z</time></trkpt><trkpt lat="43.5651705" lon="11.3820539"><ele>727.0</ele><time>2026-04-28T16:40:29.419Z</time></trkpt><trkpt lat="43.5651124" lon="11.3821481"><ele>727.0</ele><time>2026-04-28T16:40:30.419Z</time></trkpt><trkpt lat="43.5650737" lon="11.3822469"><ele>725.0</ele><time>2026-04-28T16:40:31.42Z</time></trkpt><trkpt lat="43.5650366" lon="11.3823451"><ele>723.0</ele><time>2026-04-28T16:40:32.419Z</time></trkpt><trkpt lat="43.5650039" lon="11.3824276"><ele>721.0</ele><time>2026-04-28T16:40:33.419Z</time></trkpt><trkpt lat="43.5648901" lon="11.3825087"><ele>719.0</ele><time>2026-04-28T16:40:35.42Z</time></trkpt><trkpt lat="43.5648153" lon="11.3825189"><ele>717.0</ele><time>2026-04-28T16:40:36.42Z</time></trkpt><trkpt lat="43.5646856" lon="11.3825238"><ele>717.0</ele><time>2026-04-28T16:40:38.42Z</time></trkpt><trkpt lat="43.5646165" lon="11.3825178"><ele>717.0</ele><time>2026-04-28T16:40:39.419Z</time></trkpt><trkpt lat="43.5645432" lon="11.3825094"><ele>717.0</ele><time>2026-04-28T16:40:40.419Z</time></trkpt><trkpt lat="43.5644717" lon="11.3825028"><ele>717.0</ele><time>2026-04-28T16:40:41.419Z</time></trkpt><trkpt lat="43.5643974" lon="11.3825151"><ele>717.0</ele><time>2026-04-28T16:40:42.419Z</time></trkpt><trkpt lat="43.5643178" lon="11.3825532"><ele>717.0</ele><time>2026-04-28T16:40:43.419Z</time></trkpt><trkpt lat="43.564256" lon="11.3826125"><ele>717.0</ele><time>2026-04-28T16:40:44.419Z</time></trkpt><trkpt lat="43.5642395" lon="11.3827727"><ele>716.2857142857142</ele><time>2026-04-28T16:40:46.419Z</time></trkpt><trkpt lat="43.5642586" lon="11.3828587"><ele>715.5714285714286</ele><time>2026-04-28T16:40:47.419Z</time></trkpt><trkpt lat="43.5642622" lon="11.3829602"><ele>714.8571428571429</ele><time>2026-04-28T16:40:48.419Z</time></trkpt><trkpt lat="43.56427" lon="11.3830498"><ele>714.1428571428571</ele><time>2026-04-28T16:40:49.419Z</time></trkpt><trkpt lat="43.5642693" lon="11.3831514"><ele>713.4285714285714</ele><time>2026-04-28T16:40:50.419Z</time></trkpt><trkpt lat="43.5642599" lon="11.3832635"><ele>712.7142857142857</ele><time>2026-04-28T16:40:51.419Z</time></trkpt><trkpt lat="43.564254" lon="11.3833606"><ele>712.0</ele><time>2026-04-28T16:40:52.419Z</time></trkpt><trkpt lat="43.5642382" lon="11.3834541"><ele>712.0</ele><time>2026-04-28T16:40:53.419Z</time></trkpt><trkpt lat="43.564218" lon="11.3835457"><ele>712.0</ele><time>2026-04-28T16:40:54.42Z</time></trkpt><trkpt lat="43.5641833" lon="11.3836405"><ele>712.0</ele><time>2026-04-28T16:40:55.419Z</time></trkpt><trkpt lat="43.564139" lon="11.3837335"><ele>712.0</ele><time>2026-04-28T16:40:56.42Z</time></trkpt><trkpt lat="43.5640963" lon="11.383824"><ele>712.0</ele><time>2026-04-28T16:40:57.419Z</time></trkpt><trkpt lat="43.564043" lon="11.3839229"><ele>712.0</ele><time>2026-04-28T16:40:58.419Z</time></trkpt><trkpt lat="43.5639951" lon="11.3840133"><ele>709.8333333333334</ele><time>2026-04-28T16:40:59.419Z</time></trkpt><trkpt lat="43.5639473" lon="11.3841064"><ele>707.6666666666667</ele><time>2026-04-28T16:41:00.419Z</time></trkpt><trkpt lat="43.5638935" lon="11.3841997"><ele>705.5</ele><time>2026-04-28T16:41:01.419Z</time></trkpt><trkpt lat="43.563841" lon="11.3842815"><ele>703.3333333333334</ele><time>2026-04-28T16:41:02.419Z</time></trkpt><trkpt lat="43.5637863" lon="11.3843633"><ele>701.1666666666666</ele><time>2026-04-28T16:41:03.419Z</time></trkpt><trkpt lat="43.5637249" lon="11.3844351"><ele>699.0</ele><time>2026-04-28T16:41:04.42Z</time></trkpt><trkpt lat="43.5636634" lon="11.3845005"><ele>699.6666666666666</ele><time>2026-04-28T16:41:05.419Z</time></trkpt><trkpt lat="43.563599" lon="11.3845675"><ele>700.3333333333334</ele><time>2026-04-28T16:41:06.419Z</time></trkpt><trkpt lat="43.5635347" lon="11.3846342"><ele>701.0</ele><time>2026-04-28T16:41:07.419Z</time></trkpt><trkpt lat="43.563469" lon="11.3847031"><ele>701.6666666666667</ele><time>2026-04-28T16:41:08.419Z</time></trkpt><trkpt lat="43.5633978" lon="11.3847631"><ele>702.3333333333334</ele><time>2026-04-28T16:41:09.419Z</time></trkpt><trkpt lat="43.563326" lon="11.3848115"><ele>703.0</ele><time>2026-04-28T16:41:10.419Z</time></trkpt><trkpt lat="43.5632668" lon="11.3848507"><ele>703.0</ele><time>2026-04-28T16:41:11.419Z</time></trkpt><trkpt lat="43.5632011" lon="11.3848868"><ele>703.0</ele><time>2026-04-28T16:41:12.419Z</time></trkpt><trkpt lat="43.5630906" lon="11.3849546"><ele>703.0</ele><time>2026-04-28T16:41:14.419Z</time></trkpt><trkpt lat="43.5629867" lon="11.3850226"><ele>703.0</ele><time>2026-04-28T16:41:16.419Z</time></trkpt><trkpt lat="43.5629189" lon="11.3850922"><ele>703.0</ele><time>2026-04-28T16:41:18.419Z</time></trkpt><trkpt lat="43.5629044" lon="11.385188"><ele>703.0</ele><time>2026-04-28T16:41:21.419Z</time></trkpt><trkpt lat="43.5630043" lon="11.3851393"><ele>703.0</ele><time>2026-04-28T16:41:24.419Z</time></trkpt><trkpt lat="43.5630714" lon="11.3851094"><ele>703.0</ele><time>2026-04-28T16:41:25.419Z</time></trkpt><trkpt lat="43.5631426" lon="11.385075"><ele>703.0</ele><time>2026-04-28T16:41:26.419Z</time></trkpt><trkpt lat="43.5632052" lon="11.3850368"><ele>703.0</ele><time>2026-04-28T16:41:27.419Z</time></trkpt><trkpt lat="43.5632742" lon="11.3849968"><ele>703.0</ele><time>2026-04-28T16:41:28.419Z</time></trkpt><trkpt lat="43.5633582" lon="11.3849586"><ele>703.0</ele><time>2026-04-28T16:41:29.419Z</time></trkpt><trkpt lat="43.5634492" lon="11.3849125"><ele>703.0</ele><time>2026-04-28T16:41:30.419Z</time></trkpt><trkpt lat="43.5635504" lon="11.384858"><ele>703.0</ele><time>2026-04-28T16:41:31.419Z</time></trkpt><trkpt lat="43.5636499" lon="11.384797"><ele>703.0</ele><time>2026-04-28T16:41:32.42Z</time></trkpt><trkpt lat="43.5637531" lon="11.3847349"><ele>703.0</ele><time>2026-04-28T16:41:33.419Z</time></trkpt><trkpt lat="43.5638595" lon="11.3846658"><ele>702.0</ele><time>2026-04-28T16:41:34.419Z</time></trkpt><trkpt lat="43.5639722" lon="11.3846054"><ele>701.0</ele><time>2026-04-28T16:41:35.42Z</time></trkpt><trkpt lat="43.5640836" lon="11.3845648"><ele>700.0</ele><time>2026-04-28T16:41:36.419Z</time></trkpt><trkpt lat="43.5641993" lon="11.38453"><ele>699.0</ele><time>2026-04-28T16:41:37.419Z</time></trkpt><trkpt lat="43.5643166" lon="11.3844997"><ele>699.0</ele><time>2026-04-28T16:41:38.419Z</time></trkpt><trkpt lat="43.5644347" lon="11.3844606"><ele>699.0</ele><time>2026-04-28T16:41:39.419Z</time></trkpt><trkpt lat="43.5645504" lon="11.3844143"><ele>699.0</ele><time>2026-04-28T16:41:40.419Z</time></trkpt><trkpt lat="43.5646547" lon="11.3843368"><ele>699.0</ele><time>2026-04-28T16:41:41.419Z</time></trkpt><trkpt lat="43.5647458" lon="11.3842408"><ele>693.25</ele><time>2026-04-28T16:41:42.419Z</time></trkpt><trkpt lat="43.5648165" lon="11.384111"><ele>687.5</ele><time>2026-04-28T16:41:43.419Z</time></trkpt><trkpt lat="43.5649004" lon="11.383995"><ele>681.75</ele><time>2026-04-28T16:41:44.419Z</time></trkpt><trkpt lat="43.5649961" lon="11.3839224"><ele>676.0</ele><time>2026-04-28T16:41:45.419Z</time></trkpt><trkpt lat="43.5651085" lon="11.3838934"><ele>676.0</ele><time>2026-04-28T16:41:46.419Z</time></trkpt><trkpt lat="43.5652248" lon="11.3838875"><ele>676.0</ele><time>2026-04-28T16:41:47.419Z</time></trkpt><trkpt lat="43.565342" lon="11.3838753"><ele>676.0</ele><time>2026-04-28T16:41:48.419Z</time></trkpt><trkpt lat="43.565457" lon="11.383863"><ele>676.0</ele><time>2026-04-28T16:41:49.419Z</time></trkpt><trkpt lat="43.5655699" lon="11.3838367"><ele>676.75</ele><time>2026-04-28T16:41:50.419Z</time></trkpt><trkpt lat="43.5656854" lon="11.383807"><ele>677.5</ele><time>2026-04-28T16:41:51.419Z</time></trkpt><trkpt lat="43.5657914" lon="11.3837717"><ele>678.25</ele><time>2026-04-28T16:41:52.419Z</time></trkpt><trkpt lat="43.5658992" lon="11.3837364"><ele>679.0</ele><time>2026-04-28T16:41:53.419Z</time></trkpt><trkpt lat="43.5660217" lon="11.3837052"><ele>679.0</ele><time>2026-04-28T16:41:54.42Z</time></trkpt><trkpt lat="43.566153" lon="11.3836771"><ele>679.0</ele><time>2026-04-28T16:41:55.419Z</time></trkpt><trkpt lat="43.566283" lon="11.3836698"><ele>679.0</ele><time>2026-04-28T16:41:56.419Z</time></trkpt><trkpt lat="43.5664119" lon="11.3836772"><ele>679.0</ele><time>2026-04-28T16:41:57.419Z</time></trkpt><trkpt lat="43.5665455" lon="11.3836964"><ele>676.25</ele><time>2026-04-28T16:41:58.419Z</time></trkpt><trkpt lat="43.5666714" lon="11.3837142"><ele>673.5</ele><time>2026-04-28T16:41:59.419Z</time></trkpt><trkpt lat="43.5668022" lon="11.3837159"><ele>670.75</ele><time>2026-04-28T16:42:00.419Z</time></trkpt><trkpt lat="43.566933" lon="11.3837037"><ele>668.0</ele><time>2026-04-28T16:42:01.42Z</time></trkpt><trkpt lat="43.5670669" lon="11.3836825"><ele>664.75</ele><time>2026-04-28T16:42:02.419Z</time></trkpt><trkpt lat="43.5671964" lon="11.3836581"><ele>661.5</ele><time>2026-04-28T16:42:03.42Z</time></trkpt><trkpt lat="43.5673183" lon="11.3836266"><ele>658.25</ele><time>2026-04-28T16:42:04.419Z</time></trkpt><trkpt lat="43.5674432" lon="11.3835948"><ele>655.0</ele><time>2026-04-28T16:42:05.419Z</time></trkpt><trkpt lat="43.5675682" lon="11.3835492"><ele>655.0</ele><time>2026-04-28T16:42:06.419Z</time></trkpt><trkpt lat="43.5676896" lon="11.3835034"><ele>655.0</ele><time>2026-04-28T16:42:07.419Z</time></trkpt><trkpt lat="43.5678159" lon="11.383443"><ele>655.0</ele><time>2026-04-28T16:42:08.419Z</time></trkpt><trkpt lat="43.5679394" lon="11.3833859"><ele>655.0</ele><time>2026-04-28T16:42:09.419Z</time></trkpt><trkpt lat="43.5680636" lon="11.383335"><ele>651.75</ele><time>2026-04-28T16:42:10.419Z</time></trkpt><trkpt lat="43.5681848" lon="11.3832831"><ele>648.5</ele><time>2026-04-28T16:42:11.419Z</time></trkpt><trkpt lat="43.5683076" lon="11.3832286"><ele>645.25</ele><time>2026-04-28T16:42:12.419Z</time></trkpt><trkpt lat="43.5684355" lon="11.3831622"><ele>642.0</ele><time>2026-04-28T16:42:13.419Z</time></trkpt><trkpt lat="43.5685644" lon="11.3831036"><ele>642.0</ele><time>2026-04-28T16:42:14.419Z</time></trkpt><trkpt lat="43.5686905" lon="11.3830498"><ele>642.0</ele><time>2026-04-28T16:42:15.419Z</time></trkpt><trkpt lat="43.5688191" lon="11.382994"><ele>642.0</ele><time>2026-04-28T16:42:16.419Z</time></trkpt><trkpt lat="43.5689482" lon="11.3829372"><ele>642.0</ele><time>2026-04-28T16:42:17.419Z</time></trkpt><trkpt lat="43.5690642" lon="11.3828924"><ele>644.2</ele><time>2026-04-28T16:42:18.419Z</time></trkpt><trkpt lat="43.569176" lon="11.3828625"><ele>646.4000000000001</ele><time>2026-04-28T16:42:19.42Z</time></trkpt><trkpt lat="43.5692901" lon="11.3828559"><ele>648.5999999999999</ele><time>2026-04-28T16:42:20.419Z</time></trkpt><trkpt lat="43.5693884" lon="11.3828766"><ele>650.8</ele><time>2026-04-28T16:42:21.419Z</time></trkpt><trkpt lat="43.5694806" lon="11.3829473"><ele>653.0</ele><time>2026-04-28T16:42:22.419Z</time></trkpt><trkpt lat="43.5695694" lon="11.383034"><ele>646.6</ele><time>2026-04-28T16:42:23.419Z</time></trkpt><trkpt lat="43.5696525" lon="11.3831117"><ele>640.1999999999999</ele><time>2026-04-28T16:42:24.419Z</time></trkpt><trkpt lat="43.5697334" lon="11.3831732"><ele>633.8</ele><time>2026-04-28T16:42:25.42Z</time></trkpt><trkpt lat="43.5698294" lon="11.3831938"><ele>627.4</ele><time>2026-04-28T16:42:26.419Z</time></trkpt><trkpt lat="43.5699116" lon="11.3831937"><ele>621.0</ele><time>2026-04-28T16:42:27.419Z</time></trkpt><trkpt lat="43.5699908" lon="11.3832279"><ele>621.0</ele><time>2026-04-28T16:42:28.419Z</time></trkpt><trkpt lat="43.5700566" lon="11.3833229"><ele>621.0</ele><time>2026-04-28T16:42:29.42Z</time></trkpt><trkpt lat="43.5701096" lon="11.3834294"><ele>621.0</ele><time>2026-04-28T16:42:30.419Z</time></trkpt><trkpt lat="43.5701543" lon="11.3835364"><ele>621.0</ele><time>2026-04-28T16:42:31.419Z</time></trkpt><trkpt lat="43.5702077" lon="11.3836548"><ele>621.0</ele><time>2026-04-28T16:42:32.419Z</time></trkpt><trkpt lat="43.5702784" lon="11.3837631"><ele>619.8</ele><time>2026-04-28T16:42:33.419Z</time></trkpt><trkpt lat="43.5703491" lon="11.3838587"><ele>618.6</ele><time>2026-04-28T16:42:34.419Z</time></trkpt><trkpt lat="43.5704268" lon="11.3839501"><ele>617.4</ele><time>2026-04-28T16:42:35.419Z</time></trkpt><trkpt lat="43.5705108" lon="11.3840314"><ele>616.2</ele><time>2026-04-28T16:42:36.419Z</time></trkpt><trkpt lat="43.5705912" lon="11.3841136"><ele>615.0</ele><time>2026-04-28T16:42:37.419Z</time></trkpt><trkpt lat="43.570668" lon="11.3841985"><ele>615.0</ele><time>2026-04-28T16:42:38.42Z</time></trkpt><trkpt lat="43.5707436" lon="11.3842887"><ele>615.0</ele><time>2026-04-28T16:42:39.419Z</time></trkpt><trkpt lat="43.5708275" lon="11.3843708"><ele>615.0</ele><time>2026-04-28T16:42:40.419Z</time></trkpt><trkpt lat="43.570914" lon="11.3844396"><ele>615.0</ele><time>2026-04-28T16:42:41.42Z</time></trkpt><trkpt lat="43.5710011" lon="11.3844947"><ele>615.0</ele><time>2026-04-28T16:42:42.419Z</time></trkpt><trkpt lat="43.571086" lon="11.3845362"><ele>615.0</ele><time>2026-04-28T16:42:43.419Z</time></trkpt><trkpt lat="43.5711791" lon="11.384572"><ele>615.0</ele><time>2026-04-28T16:42:44.419Z</time></trkpt><trkpt lat="43.5712652" lon="11.3846119"><ele>615.0</ele><time>2026-04-28T16:42:45.419Z</time></trkpt><trkpt lat="43.5713539" lon="11.3846518"><ele>615.0</ele><time>2026-04-28T16:42:46.419Z</time></trkpt><trkpt lat="43.5714424" lon="11.3846848"><ele>615.0</ele><time>2026-04-28T16:42:47.419Z</time></trkpt><trkpt lat="43.5715313" lon="11.3847202"><ele>613.8333333333334</ele><time>2026-04-28T16:42:48.419Z</time></trkpt><trkpt lat="43.5716163" lon="11.3847566"><ele>612.6666666666666</ele><time>2026-04-28T16:42:49.419Z</time></trkpt><trkpt lat="43.571694" lon="11.3848077"><ele>611.5</ele><time>2026-04-28T16:42:50.419Z</time></trkpt><trkpt lat="43.5717613" lon="11.3848668"><ele>610.3333333333333</ele><time>2026-04-28T16:42:51.419Z</time></trkpt><trkpt lat="43.5718106" lon="11.3849481"><ele>609.1666666666666</ele><time>2026-04-28T16:42:52.419Z</time></trkpt><trkpt lat="43.5718402" lon="11.3850564"><ele>608.0</ele><time>2026-04-28T16:42:53.42Z</time></trkpt><trkpt lat="43.5718589" lon="11.3851773"><ele>608.0</ele><time>2026-04-28T16:42:54.42Z</time></trkpt><trkpt lat="43.5718548" lon="11.385314"><ele>608.0</ele><time>2026-04-28T16:42:55.42Z</time></trkpt><trkpt lat="43.5718288" lon="11.3854371"><ele>608.0</ele><time>2026-04-28T16:42:56.419Z</time></trkpt><trkpt lat="43.571789" lon="11.3855692"><ele>608.0</ele><time>2026-04-28T16:42:57.419Z</time></trkpt><trkpt lat="43.571738" lon="11.3856993"><ele>608.0</ele><time>2026-04-28T16:42:58.419Z</time></trkpt><trkpt lat="43.5716776" lon="11.3858152"><ele>605.8</ele><time>2026-04-28T16:42:59.419Z</time></trkpt><trkpt lat="43.5716046" lon="11.385924"><ele>603.5999999999999</ele><time>2026-04-28T16:43:00.419Z</time></trkpt><trkpt lat="43.5715319" lon="11.3860247"><ele>601.4000000000001</ele><time>2026-04-28T16:43:01.419Z</time></trkpt><trkpt lat="43.5714524" lon="11.3861058"><ele>599.2</ele><time>2026-04-28T16:43:02.419Z</time></trkpt><trkpt lat="43.5713653" lon="11.3861822"><ele>597.0</ele><time>2026-04-28T16:43:03.419Z</time></trkpt><trkpt lat="43.5712599" lon="11.3862408"><ele>597.6</ele><time>2026-04-28T16:43:04.419Z</time></trkpt><trkpt lat="43.5711535" lon="11.3862734"><ele>598.2</ele><time>2026-04-28T16:43:05.419Z</time></trkpt><trkpt lat="43.571039" lon="11.3862697"><ele>598.8</ele><time>2026-04-28T16:43:06.419Z</time></trkpt><trkpt lat="43.5709356" lon="11.3862572"><ele>599.4</ele><time>2026-04-28T16:43:07.419Z</time></trkpt><trkpt lat="43.5708344" lon="11.3862508"><ele>600.0</ele><time>2026-04-28T16:43:08.419Z</time></trkpt><trkpt lat="43.5707355" lon="11.3862457"><ele>600.0</ele><time>2026-04-28T16:43:09.42Z</time></trkpt><trkpt lat="43.5706363" lon="11.386239"><ele>600.0</ele><time>2026-04-28T16:43:10.419Z</time></trkpt><trkpt lat="43.5705394" lon="11.3862197"><ele>600.0</ele><time>2026-04-28T16:43:11.419Z</time></trkpt><trkpt lat="43.5704427" lon="11.3861972"><ele>600.0</ele><time>2026-04-28T16:43:12.419Z</time></trkpt><trkpt lat="43.5703491" lon="11.386153"><ele>600.0</ele><time>2026-04-28T16:43:13.419Z</time></trkpt><trkpt lat="43.5702592" lon="11.3860844"><ele>597.6</ele><time>2026-04-28T16:43:14.419Z</time></trkpt><trkpt lat="43.5701839" lon="11.3860074"><ele>595.2</ele><time>2026-04-28T16:43:15.419Z</time></trkpt><trkpt lat="43.5701105" lon="11.3859189"><ele>592.8</ele><time>2026-04-28T16:43:16.419Z</time></trkpt><trkpt lat="43.570033" lon="11.385823"><ele>590.4</ele><time>2026-04-28T16:43:17.42Z</time></trkpt><trkpt lat="43.5699667" lon="11.3857283"><ele>588.0</ele><time>2026-04-28T16:43:18.419Z</time></trkpt><trkpt lat="43.5698971" lon="11.3856385"><ele>588.0</ele><time>2026-04-28T16:43:19.419Z</time></trkpt><trkpt lat="43.569826" lon="11.3855797"><ele>588.0</ele><time>2026-04-28T16:43:20.419Z</time></trkpt><trkpt lat="43.5697432" lon="11.3855697"><ele>588.0</ele><time>2026-04-28T16:43:21.419Z</time></trkpt><trkpt lat="43.5696514" lon="11.3856332"><ele>588.0</ele><time>2026-04-28T16:43:22.419Z</time></trkpt><trkpt lat="43.5695913" lon="11.3857584"><ele>588.0</ele><time>2026-04-28T16:43:23.419Z</time></trkpt><trkpt lat="43.5695666" lon="11.385909"><ele>588.0</ele><time>2026-04-28T16:43:24.419Z</time></trkpt><trkpt lat="43.5695973" lon="11.3860504"><ele>588.0</ele><time>2026-04-28T16:43:25.419Z</time></trkpt><trkpt lat="43.569659" lon="11.3861694"><ele>588.0</ele><time>2026-04-28T16:43:26.419Z</time></trkpt><trkpt lat="43.5697552" lon="11.3862642"><ele>588.0</ele><time>2026-04-28T16:43:27.419Z</time></trkpt><trkpt lat="43.5698615" lon="11.386334"><ele>588.0</ele><time>2026-04-28T16:43:28.419Z</time></trkpt><trkpt lat="43.5699731" lon="11.3864139"><ele>586.25</ele><time>2026-04-28T16:43:29.419Z</time></trkpt><trkpt lat="43.5700772" lon="11.3865099"><ele>584.5</ele><time>2026-04-28T16:43:30.419Z</time></trkpt><trkpt lat="43.5701802" lon="11.3866166"><ele>582.75</ele><time>2026-04-28T16:43:31.419Z</time></trkpt><trkpt lat="43.5702802" lon="11.3867328"><ele>581.0</ele><time>2026-04-28T16:43:32.419Z</time></trkpt><trkpt lat="43.5703718" lon="11.3868475"><ele>581.0</ele><time>2026-04-28T16:43:33.419Z</time></trkpt><trkpt lat="43.570468" lon="11.3869598"><ele>581.0</ele><time>2026-04-28T16:43:34.419Z</time></trkpt><trkpt lat="43.5705687" lon="11.3870679"><ele>581.0</ele><time>2026-04-28T16:43:35.42Z</time></trkpt><trkpt lat="43.5706736" lon="11.387163"><ele>581.0</ele><time>2026-04-28T16:43:36.419Z</time></trkpt><trkpt lat="43.5707828" lon="11.3872418"><ele>575.0</ele><time>2026-04-28T16:43:37.419Z</time></trkpt><trkpt lat="43.5708921" lon="11.3873164"><ele>569.0</ele><time>2026-04-28T16:43:38.419Z</time></trkpt><trkpt lat="43.5710058" lon="11.387384"><ele>563.0</ele><time>2026-04-28T16:43:39.419Z</time></trkpt><trkpt lat="43.5711185" lon="11.3874302"><ele>557.0</ele><time>2026-04-28T16:43:40.419Z</time></trkpt><trkpt lat="43.5712393" lon="11.387434"><ele>554.5</ele><time>2026-04-28T16:43:41.419Z</time></trkpt><trkpt lat="43.5713563" lon="11.3873801"><ele>552.0</ele><time>2026-04-28T16:43:42.419Z</time></trkpt><trkpt lat="43.5714485" lon="11.3872986"><ele>549.5</ele><time>2026-04-28T16:43:43.419Z</time></trkpt><trkpt lat="43.5715274" lon="11.3871839"><ele>547.0</ele><time>2026-04-28T16:43:44.419Z</time></trkpt><trkpt lat="43.5716069" lon="11.38707"><ele>548.0</ele><time>2026-04-28T16:43:45.419Z</time></trkpt><trkpt lat="43.5716887" lon="11.3869753"><ele>549.0</ele><time>2026-04-28T16:43:46.419Z</time></trkpt><trkpt lat="43.5717827" lon="11.3868881"><ele>550.0</ele><time>2026-04-28T16:43:47.419Z</time></trkpt><trkpt lat="43.5718754" lon="11.386822"><ele>551.0</ele><time>2026-04-28T16:43:48.419Z</time></trkpt><trkpt lat="43.5719783" lon="11.3867769"><ele>552.0</ele><time>2026-04-28T16:43:49.419Z</time></trkpt><trkpt lat="43.572082" lon="11.3867531"><ele>552.0</ele><time>2026-04-28T16:43:50.419Z</time></trkpt><trkpt lat="43.5721904" lon="11.3867361"><ele>552.0</ele><time>2026-04-28T16:43:51.419Z</time></trkpt><trkpt lat="43.5723036" lon="11.386735"><ele>552.0</ele><time>2026-04-28T16:43:52.419Z</time></trkpt><trkpt lat="43.5724126" lon="11.3867513"><ele>552.0</ele><time>2026-04-28T16:43:53.419Z</time></trkpt><trkpt lat="43.5725212" lon="11.3867769"><ele>552.0</ele><time>2026-04-28T16:43:54.419Z</time></trkpt><trkpt lat="43.5726307" lon="11.3868135"><ele>552.0</ele><time>2026-04-28T16:43:55.419Z</time></trkpt><trkpt lat="43.5727385" lon="11.3868527"><ele>552.0</ele><time>2026-04-28T16:43:56.419Z</time></trkpt><trkpt lat="43.5728447" lon="11.386902"><ele>552.0</ele><time>2026-04-28T16:43:57.42Z</time></trkpt><trkpt lat="43.5729368" lon="11.3869735"><ele>552.0</ele><time>2026-04-28T16:43:58.419Z</time></trkpt><trkpt lat="43.5730027" lon="11.3870631"><ele>552.0</ele><time>2026-04-28T16:43:59.419Z</time></trkpt><trkpt lat="43.5730599" lon="11.3871823"><ele>549.4</ele><time>2026-04-28T16:44:00.419Z</time></trkpt><trkpt lat="43.5731046" lon="11.3873015"><ele>546.8000000000001</ele><time>2026-04-28T16:44:01.419Z</time></trkpt><trkpt lat="43.5731274" lon="11.3874274"><ele>544.2</ele><time>2026-04-28T16:44:02.419Z</time></trkpt><trkpt lat="43.5731449" lon="11.3875568"><ele>541.6</ele><time>2026-04-28T16:44:03.419Z</time></trkpt><trkpt lat="43.5731521" lon="11.3876941"><ele>539.0</ele><time>2026-04-28T16:44:04.419Z</time></trkpt><trkpt lat="43.5731566" lon="11.38783"><ele>539.0</ele><time>2026-04-28T16:44:05.419Z</time></trkpt><trkpt lat="43.5731171" lon="11.3879707"><ele>539.0</ele><time>2026-04-28T16:44:06.419Z</time></trkpt><trkpt lat="43.5730796" lon="11.3881072"><ele>539.0</ele><time>2026-04-28T16:44:07.42Z</time></trkpt><trkpt lat="43.5730435" lon="11.388232"><ele>539.0</ele><time>2026-04-28T16:44:08.419Z</time></trkpt><trkpt lat="43.573001" lon="11.3883504"><ele>539.0</ele><time>2026-04-28T16:44:09.419Z</time></trkpt><trkpt lat="43.5729673" lon="11.3884664"><ele>538.8</ele><time>2026-04-28T16:44:10.419Z</time></trkpt><trkpt lat="43.5729196" lon="11.3885941"><ele>538.5999999999999</ele><time>2026-04-28T16:44:11.419Z</time></trkpt><trkpt lat="43.5728985" lon="11.3887339"><ele>538.4</ele><time>2026-04-28T16:44:12.419Z</time></trkpt><trkpt lat="43.5729057" lon="11.3888634"><ele>538.1999999999999</ele><time>2026-04-28T16:44:13.419Z</time></trkpt><trkpt lat="43.5729408" lon="11.388967"><ele>538.0</ele><time>2026-04-28T16:44:14.419Z</time></trkpt><trkpt lat="43.573003" lon="11.3890643"><ele>536.4</ele><time>2026-04-28T16:44:15.419Z</time></trkpt><trkpt lat="43.5730821" lon="11.3891521"><ele>534.8</ele><time>2026-04-28T16:44:16.419Z</time></trkpt><trkpt lat="43.5731756" lon="11.3892413"><ele>533.2</ele><time>2026-04-28T16:44:17.42Z</time></trkpt><trkpt lat="43.5732686" lon="11.3893233"><ele>531.6</ele><time>2026-04-28T16:44:18.42Z</time></trkpt><trkpt lat="43.5733711" lon="11.3893889"><ele>530.0</ele><time>2026-04-28T16:44:19.42Z</time></trkpt><trkpt lat="43.5734862" lon="11.3894416"><ele>530.0</ele><time>2026-04-28T16:44:20.419Z</time></trkpt><trkpt lat="43.573611" lon="11.389475"><ele>530.0</ele><time>2026-04-28T16:44:21.419Z</time></trkpt><trkpt lat="43.5737312" lon="11.3895076"><ele>530.0</ele><time>2026-04-28T16:44:22.419Z</time></trkpt><trkpt lat="43.573844" lon="11.3895262"><ele>530.0</ele><time>2026-04-28T16:44:23.419Z</time></trkpt><trkpt lat="43.5739547" lon="11.3895344"><ele>529.0</ele><time>2026-04-28T16:44:24.419Z</time></trkpt><trkpt lat="43.5740677" lon="11.3895315"><ele>528.0</ele><time>2026-04-28T16:44:25.419Z</time></trkpt><trkpt lat="43.5741716" lon="11.3895009"><ele>527.0</ele><time>2026-04-28T16:44:26.419Z</time></trkpt><trkpt lat="43.5742694" lon="11.3894267"><ele>526.0</ele><time>2026-04-28T16:44:27.42Z</time></trkpt><trkpt lat="43.5743568" lon="11.3893186"><ele>525.0</ele><time>2026-04-28T16:44:28.419Z</time></trkpt><trkpt lat="43.5744231" lon="11.3891906"><ele>525.0</ele><time>2026-04-28T16:44:29.419Z</time></trkpt><trkpt lat="43.5744457" lon="11.3890257"><ele>525.0</ele><time>2026-04-28T16:44:30.419Z</time></trkpt><trkpt lat="43.5744332" lon="11.3888543"><ele>525.0</ele><time>2026-04-28T16:44:31.419Z</time></trkpt><trkpt lat="43.574393" lon="11.3886871"><ele>525.0</ele><time>2026-04-28T16:44:32.42Z</time></trkpt><trkpt lat="43.5743443" lon="11.388526"><ele>525.5</ele><time>2026-04-28T16:44:33.419Z</time></trkpt><trkpt lat="43.5742995" lon="11.3883664"><ele>526.0</ele><time>2026-04-28T16:44:34.42Z</time></trkpt><trkpt lat="43.5742438" lon="11.3882058"><ele>526.5</ele><time>2026-04-28T16:44:35.419Z</time></trkpt><trkpt lat="43.5741962" lon="11.3880463"><ele>527.0</ele><time>2026-04-28T16:44:36.419Z</time></trkpt><trkpt lat="43.5741542" lon="11.3878917"><ele>527.4</ele><time>2026-04-28T16:44:37.419Z</time></trkpt><trkpt lat="43.5741194" lon="11.3877467"><ele>527.8000000000001</ele><time>2026-04-28T16:44:38.419Z</time></trkpt><trkpt lat="43.5741041" lon="11.3876092"><ele>528.2</ele><time>2026-04-28T16:44:39.419Z</time></trkpt><trkpt lat="43.5741091" lon="11.3874855"><ele>528.6</ele><time>2026-04-28T16:44:40.419Z</time></trkpt><trkpt lat="43.5741193" lon="11.3873625"><ele>529.0</ele><time>2026-04-28T16:44:41.419Z</time></trkpt><trkpt lat="43.5741333" lon="11.3872375"><ele>529.8</ele><time>2026-04-28T16:44:42.419Z</time></trkpt><trkpt lat="43.5741647" lon="11.3871222"><ele>530.5999999999999</ele><time>2026-04-28T16:44:43.42Z</time></trkpt><trkpt lat="43.5742145" lon="11.38702"><ele>531.4</ele><time>2026-04-28T16:44:44.419Z</time></trkpt><trkpt lat="43.5742736" lon="11.3869184"><ele>532.1999999999999</ele><time>2026-04-28T16:44:45.419Z</time></trkpt><trkpt lat="43.5743474" lon="11.386829"><ele>533.0</ele><time>2026-04-28T16:44:46.419Z</time></trkpt><trkpt lat="43.5744316" lon="11.3867481"><ele>530.25</ele><time>2026-04-28T16:44:47.419Z</time></trkpt><trkpt lat="43.5745272" lon="11.3866869"><ele>527.5</ele><time>2026-04-28T16:44:48.419Z</time></trkpt><trkpt lat="43.5746386" lon="11.3866539"><ele>524.75</ele><time>2026-04-28T16:44:49.419Z</time></trkpt><trkpt lat="43.5747557" lon="11.386628"><ele>522.0</ele><time>2026-04-28T16:44:50.419Z</time></trkpt><trkpt lat="43.574878" lon="11.3866048"><ele>522.0</ele><time>2026-04-28T16:44:51.419Z</time></trkpt><trkpt lat="43.5750076" lon="11.3865848"><ele>522.0</ele><time>2026-04-28T16:44:52.419Z</time></trkpt><trkpt lat="43.5751252" lon="11.3865586"><ele>522.0</ele><time>2026-04-28T16:44:53.419Z</time></trkpt><trkpt lat="43.5752429" lon="11.3865302"><ele>522.0</ele><time>2026-04-28T16:44:54.419Z</time></trkpt><trkpt lat="43.5753621" lon="11.386508"><ele>519.25</ele><time>2026-04-28T16:44:55.419Z</time></trkpt><trkpt lat="43.5754813" lon="11.3864784"><ele>516.5</ele><time>2026-04-28T16:44:56.419Z</time></trkpt><trkpt lat="43.5755909" lon="11.3864477"><ele>513.75</ele><time>2026-04-28T16:44:57.419Z</time></trkpt><trkpt lat="43.5757018" lon="11.3864234"><ele>511.0</ele><time>2026-04-28T16:44:58.42Z</time></trkpt><trkpt lat="43.5758115" lon="11.3864003"><ele>511.0</ele><time>2026-04-28T16:44:59.419Z</time></trkpt><trkpt lat="43.5759242" lon="11.3863755"><ele>511.0</ele><time>2026-04-28T16:45:00.419Z</time></trkpt><trkpt lat="43.5760377" lon="11.3863606"><ele>511.0</ele><time>2026-04-28T16:45:01.419Z</time></trkpt><trkpt lat="43.5761548" lon="11.3863365"><ele>511.0</ele><time>2026-04-28T16:45:02.419Z</time></trkpt><trkpt lat="43.5762788" lon="11.3863051"><ele>512.5</ele><time>2026-04-28T16:45:03.419Z</time></trkpt><trkpt lat="43.5764068" lon="11.3862733"><ele>514.0</ele><time>2026-04-28T16:45:04.42Z</time></trkpt><trkpt lat="43.5765405" lon="11.3862417"><ele>515.5</ele><time>2026-04-28T16:45:05.419Z</time></trkpt><trkpt lat="43.5766764" lon="11.386212"><ele>517.0</ele><time>2026-04-28T16:45:06.419Z</time></trkpt><trkpt lat="43.5768116" lon="11.3861861"><ele>517.0</ele><time>2026-04-28T16:45:07.419Z</time></trkpt><trkpt lat="43.5769475" lon="11.386183"><ele>517.0</ele><time>2026-04-28T16:45:08.419Z</time></trkpt><trkpt lat="43.5770842" lon="11.3862034"><ele>517.0</ele><time>2026-04-28T16:45:09.42Z</time></trkpt><trkpt lat="43.5772264" lon="11.3862378"><ele>517.0</ele><time>2026-04-28T16:45:10.419Z</time></trkpt><trkpt lat="43.5773629" lon="11.3862965"><ele>509.33333333333337</ele><time>2026-04-28T16:45:11.419Z</time></trkpt><trkpt lat="43.5774967" lon="11.3863716"><ele>501.66666666666663</ele><time>2026-04-28T16:45:12.419Z</time></trkpt><trkpt lat="43.5776332" lon="11.3864795"><ele>494.0</ele><time>2026-04-28T16:45:13.419Z</time></trkpt><trkpt lat="43.5777642" lon="11.3865978"><ele>494.66666666666663</ele><time>2026-04-28T16:45:14.419Z</time></trkpt><trkpt lat="43.5778935" lon="11.386719"><ele>495.33333333333337</ele><time>2026-04-28T16:45:15.419Z</time></trkpt><trkpt lat="43.5780302" lon="11.3868417"><ele>496.0</ele><time>2026-04-28T16:45:16.419Z</time></trkpt><trkpt lat="43.5781684" lon="11.3869648"><ele>496.0</ele><time>2026-04-28T16:45:17.419Z</time></trkpt><trkpt lat="43.5782989" lon="11.3870905"><ele>496.0</ele><time>2026-04-28T16:45:18.419Z</time></trkpt><trkpt lat="43.5784282" lon="11.3872167"><ele>496.0</ele><time>2026-04-28T16:45:19.419Z</time></trkpt><trkpt lat="43.5785541" lon="11.3873347"><ele>494.5</ele><time>2026-04-28T16:45:20.419Z</time></trkpt><trkpt lat="43.5786763" lon="11.3874516"><ele>493.0</ele><time>2026-04-28T16:45:21.419Z</time></trkpt><trkpt lat="43.5787939" lon="11.3875673"><ele>491.5</ele><time>2026-04-28T16:45:22.419Z</time></trkpt><trkpt lat="43.5789145" lon="11.387682"><ele>490.0</ele><time>2026-04-28T16:45:23.419Z</time></trkpt><trkpt lat="43.5790326" lon="11.3877815"><ele>490.0</ele><time>2026-04-28T16:45:24.419Z</time></trkpt><trkpt lat="43.5791553" lon="11.3878622"><ele>490.0</ele><time>2026-04-28T16:45:25.419Z</time></trkpt><trkpt lat="43.5792882" lon="11.3879162"><ele>490.0</ele><time>2026-04-28T16:45:26.419Z</time></trkpt><trkpt lat="43.5794252" lon="11.3879311"><ele>490.0</ele><time>2026-04-28T16:45:27.419Z</time></trkpt><trkpt lat="43.5795634" lon="11.3879023"><ele>489.0</ele><time>2026-04-28T16:45:28.419Z</time></trkpt><trkpt lat="43.5796975" lon="11.3878581"><ele>488.0</ele><time>2026-04-28T16:45:29.419Z</time></trkpt><trkpt lat="43.5798349" lon="11.387811"><ele>487.0</ele><time>2026-04-28T16:45:30.419Z</time></trkpt><trkpt lat="43.579974" lon="11.3877701"><ele>486.0</ele><time>2026-04-28T16:45:31.42Z</time></trkpt><trkpt lat="43.5801212" lon="11.3877394"><ele>486.0</ele><time>2026-04-28T16:45:32.419Z</time></trkpt><trkpt lat="43.5802665" lon="11.3877182"><ele>486.0</ele><time>2026-04-28T16:45:33.419Z</time></trkpt><trkpt lat="43.5804155" lon="11.3877017"><ele>486.0</ele><time>2026-04-28T16:45:34.419Z</time></trkpt><trkpt lat="43.5805673" lon="11.3876863"><ele>486.0</ele><time>2026-04-28T16:45:35.419Z</time></trkpt><trkpt lat="43.5807216" lon="11.3876757"><ele>485.0</ele><time>2026-04-28T16:45:36.419Z</time></trkpt><trkpt lat="43.5808759" lon="11.3876678"><ele>484.0</ele><time>2026-04-28T16:45:37.419Z</time></trkpt><trkpt lat="43.5810345" lon="11.3876585"><ele>483.0</ele><time>2026-04-28T16:45:38.419Z</time></trkpt><trkpt lat="43.5811924" lon="11.387664"><ele>480.33333333333337</ele><time>2026-04-28T16:45:39.419Z</time></trkpt><trkpt lat="43.5813522" lon="11.3877024"><ele>477.6666666666667</ele><time>2026-04-28T16:45:40.419Z</time></trkpt><trkpt lat="43.5815084" lon="11.3877647"><ele>475.0</ele><time>2026-04-28T16:45:41.419Z</time></trkpt><trkpt lat="43.5816577" lon="11.3878458"><ele>475.0</ele><time>2026-04-28T16:45:42.419Z</time></trkpt><trkpt lat="43.5818044" lon="11.3879468"><ele>475.0</ele><time>2026-04-28T16:45:43.419Z</time></trkpt><trkpt lat="43.5819501" lon="11.3880537"><ele>475.0</ele><time>2026-04-28T16:45:44.42Z</time></trkpt><trkpt lat="43.5820983" lon="11.3881741"><ele>470.0</ele><time>2026-04-28T16:45:45.419Z</time></trkpt><trkpt lat="43.5822535" lon="11.3882861"><ele>465.0</ele><time>2026-04-28T16:45:46.42Z</time></trkpt><trkpt lat="43.5824096" lon="11.3883985"><ele>460.0</ele><time>2026-04-28T16:45:47.419Z</time></trkpt><trkpt lat="43.5825656" lon="11.3885094"><ele>460.0</ele><time>2026-04-28T16:45:48.419Z</time></trkpt><trkpt lat="43.5827156" lon="11.3886267"><ele>460.0</ele><time>2026-04-28T16:45:49.42Z</time></trkpt><trkpt lat="43.5828689" lon="11.3887419"><ele>460.0</ele><time>2026-04-28T16:45:50.42Z</time></trkpt><trkpt lat="43.58302" lon="11.3888516"><ele>457.33333333333337</ele><time>2026-04-28T16:45:51.419Z</time></trkpt><trkpt lat="43.5831765" lon="11.3889574"><ele>454.66666666666663</ele><time>2026-04-28T16:45:52.419Z</time></trkpt><trkpt lat="43.5833364" lon="11.3890621"><ele>452.0</ele><time>2026-04-28T16:45:53.42Z</time></trkpt><trkpt lat="43.5835001" lon="11.3891505"><ele>452.0</ele><time>2026-04-28T16:45:54.419Z</time></trkpt><trkpt lat="43.58367" lon="11.3892279"><ele>452.0</ele><time>2026-04-28T16:45:55.419Z</time></trkpt><trkpt lat="43.5838425" lon="11.3893031"><ele>452.0</ele><time>2026-04-28T16:45:56.419Z</time></trkpt><trkpt lat="43.5840137" lon="11.3893676"><ele>450.0</ele><time>2026-04-28T16:45:57.419Z</time></trkpt><trkpt lat="43.5841823" lon="11.3894123"><ele>448.0</ele><time>2026-04-28T16:45:58.419Z</time></trkpt><trkpt lat="43.5843471" lon="11.3894315"><ele>446.0</ele><time>2026-04-28T16:45:59.419Z</time></trkpt><trkpt lat="43.5845082" lon="11.3894187"><ele>447.3333333333333</ele><time>2026-04-28T16:46:00.419Z</time></trkpt><trkpt lat="43.5846543" lon="11.3893663"><ele>448.66666666666663</ele><time>2026-04-28T16:46:01.419Z</time></trkpt><trkpt lat="43.5847944" lon="11.3892803"><ele>450.0</ele><time>2026-04-28T16:46:02.419Z</time></trkpt><trkpt lat="43.5849231" lon="11.3891495"><ele>450.0</ele><time>2026-04-28T16:46:03.419Z</time></trkpt><trkpt lat="43.5850547" lon="11.3890005"><ele>450.0</ele><time>2026-04-28T16:46:04.419Z</time></trkpt><trkpt lat="43.5851834" lon="11.3888457"><ele>450.0</ele><time>2026-04-28T16:46:05.419Z</time></trkpt><trkpt lat="43.5853134" lon="11.3886981"><ele>449.33333333333337</ele><time>2026-04-28T16:46:06.419Z</time></trkpt><trkpt lat="43.5854411" lon="11.3885634"><ele>448.6666666666667</ele><time>2026-04-28T16:46:07.419Z</time></trkpt><trkpt lat="43.5855598" lon="11.3884271"><ele>448.0</ele><time>2026-04-28T16:46:08.419Z</time></trkpt><trkpt lat="43.5856717" lon="11.3882995"><ele>448.0</ele><time>2026-04-28T16:46:09.419Z</time></trkpt><trkpt lat="43.5857903" lon="11.3881757"><ele>448.0</ele><time>2026-04-28T16:46:10.42Z</time></trkpt><trkpt lat="43.5859133" lon="11.3880737"><ele>448.0</ele><time>2026-04-28T16:46:11.42Z</time></trkpt><trkpt lat="43.5860533" lon="11.3880076"><ele>448.0</ele><time>2026-04-28T16:46:12.419Z</time></trkpt><trkpt lat="43.5861951" lon="11.3879665"><ele>447.33333333333337</ele><time>2026-04-28T16:46:13.419Z</time></trkpt><trkpt lat="43.5863429" lon="11.3879579"><ele>446.66666666666663</ele><time>2026-04-28T16:46:14.419Z</time></trkpt><trkpt lat="43.5864968" lon="11.3879809"><ele>446.0</ele><time>2026-04-28T16:46:15.419Z</time></trkpt><trkpt lat="43.5866529" lon="11.3880181"><ele>446.0</ele><time>2026-04-28T16:46:16.419Z</time></trkpt><trkpt lat="43.5868111" lon="11.3880611"><ele>446.0</ele><time>2026-04-28T16:46:17.419Z</time></trkpt><trkpt lat="43.5869724" lon="11.3880976"><ele>446.0</ele><time>2026-04-28T16:46:18.419Z</time></trkpt><trkpt lat="43.5871244" lon="11.3881287"><ele>442.66666666666663</ele><time>2026-04-28T16:46:19.419Z</time></trkpt><trkpt lat="43.5872759" lon="11.3881562"><ele>439.33333333333337</ele><time>2026-04-28T16:46:20.419Z</time></trkpt><trkpt lat="43.5874246" lon="11.3881932"><ele>436.0</ele><time>2026-04-28T16:46:21.419Z</time></trkpt><trkpt lat="43.5875754" lon="11.3882254"><ele>436.0</ele><time>2026-04-28T16:46:22.419Z</time></trkpt><trkpt lat="43.5877257" lon="11.3882566"><ele>436.0</ele><time>2026-04-28T16:46:23.419Z</time></trkpt><trkpt lat="43.5878737" lon="11.3882903"><ele>436.0</ele><time>2026-04-28T16:46:24.419Z</time></trkpt><trkpt lat="43.5880207" lon="11.3883424"><ele>433.0</ele><time>2026-04-28T16:46:25.419Z</time></trkpt><trkpt lat="43.5881699" lon="11.3884006"><ele>430.0</ele><time>2026-04-28T16:46:26.419Z</time></trkpt><trkpt lat="43.5883132" lon="11.3884646"><ele>427.0</ele><time>2026-04-28T16:46:27.419Z</time></trkpt><trkpt lat="43.5884548" lon="11.3885473"><ele>427.0</ele><time>2026-04-28T16:46:28.419Z</time></trkpt><trkpt lat="43.5885968" lon="11.3886403"><ele>427.0</ele><time>2026-04-28T16:46:29.419Z</time></trkpt><trkpt lat="43.5887312" lon="11.3887335"><ele>427.0</ele><time>2026-04-28T16:46:30.419Z</time></trkpt><trkpt lat="43.5888601" lon="11.3888259"><ele>428.0</ele><time>2026-04-28T16:46:31.419Z</time></trkpt><trkpt lat="43.588992" lon="11.388916"><ele>429.0</ele><time>2026-04-28T16:46:32.419Z</time></trkpt><trkpt lat="43.589128" lon="11.3889982"><ele>430.0</ele><time>2026-04-28T16:46:33.419Z</time></trkpt><trkpt lat="43.5892734" lon="11.3890621"><ele>431.0</ele><time>2026-04-28T16:46:34.419Z</time></trkpt><trkpt lat="43.5894161" lon="11.3891008"><ele>428.25</ele><time>2026-04-28T16:46:35.419Z</time></trkpt><trkpt lat="43.5895595" lon="11.3891159"><ele>425.5</ele><time>2026-04-28T16:46:36.419Z</time></trkpt><trkpt lat="43.5897016" lon="11.3891155"><ele>422.75</ele><time>2026-04-28T16:46:37.42Z</time></trkpt><trkpt lat="43.5898496" lon="11.3890984"><ele>420.0</ele><time>2026-04-28T16:46:38.419Z</time></trkpt><trkpt lat="43.5899929" lon="11.3890721"><ele>420.0</ele><time>2026-04-28T16:46:39.419Z</time></trkpt><trkpt lat="43.5901335" lon="11.3890352"><ele>420.0</ele><time>2026-04-28T16:46:40.419Z</time></trkpt><trkpt lat="43.5902628" lon="11.3889627"><ele>420.0</ele><time>2026-04-28T16:46:41.419Z</time></trkpt><trkpt lat="43.5904058" lon="11.3888911"><ele>420.0</ele><time>2026-04-28T16:46:42.419Z</time></trkpt><trkpt lat="43.5905549" lon="11.388857"><ele>415.0</ele><time>2026-04-28T16:46:43.419Z</time></trkpt><trkpt lat="43.5907056" lon="11.3888425"><ele>410.0</ele><time>2026-04-28T16:46:44.419Z</time></trkpt><trkpt lat="43.5908538" lon="11.3888337"><ele>405.0</ele><time>2026-04-28T16:46:45.419Z</time></trkpt><trkpt lat="43.5910032" lon="11.3888171"><ele>400.0</ele><time>2026-04-28T16:46:46.419Z</time></trkpt><trkpt lat="43.5911551" lon="11.388803"><ele>396.0</ele><time>2026-04-28T16:46:47.419Z</time></trkpt><trkpt lat="43.5913084" lon="11.3887829"><ele>392.0</ele><time>2026-04-28T16:46:48.419Z</time></trkpt><trkpt lat="43.5914522" lon="11.3887693"><ele>388.0</ele><time>2026-04-28T16:46:49.419Z</time></trkpt><trkpt lat="43.5915952" lon="11.3887572"><ele>384.0</ele><time>2026-04-28T16:46:50.419Z</time></trkpt><trkpt lat="43.5917239" lon="11.3887523"><ele>384.0</ele><time>2026-04-28T16:46:51.419Z</time></trkpt><trkpt lat="43.5918448" lon="11.3887727"><ele>384.0</ele><time>2026-04-28T16:46:52.419Z</time></trkpt><trkpt lat="43.5919396" lon="11.3888694"><ele>384.0</ele><time>2026-04-28T16:46:53.419Z</time></trkpt><trkpt lat="43.5919954" lon="11.3890091"><ele>384.0</ele><time>2026-04-28T16:46:54.419Z</time></trkpt><trkpt lat="43.5920082" lon="11.3891543"><ele>382.6</ele><time>2026-04-28T16:46:55.419Z</time></trkpt><trkpt lat="43.5920085" lon="11.3893006"><ele>381.2</ele><time>2026-04-28T16:46:56.419Z</time></trkpt><trkpt lat="43.5920264" lon="11.3894328"><ele>379.8</ele><time>2026-04-28T16:46:57.419Z</time></trkpt><trkpt lat="43.5920738" lon="11.389549"><ele>378.40000000000003</ele><time>2026-04-28T16:46:58.419Z</time></trkpt><trkpt lat="43.5921558" lon="11.389617"><ele>377.0</ele><time>2026-04-28T16:46:59.419Z</time></trkpt><trkpt lat="43.5922551" lon="11.3896177"><ele>377.0</ele><time>2026-04-28T16:47:00.419Z</time></trkpt><trkpt lat="43.592348" lon="11.3895186"><ele>377.0</ele><time>2026-04-28T16:47:01.42Z</time></trkpt><trkpt lat="43.5923918" lon="11.3893746"><ele>377.0</ele><time>2026-04-28T16:47:02.419Z</time></trkpt><trkpt lat="43.5924071" lon="11.3892197"><ele>377.0</ele><time>2026-04-28T16:47:03.419Z</time></trkpt><trkpt lat="43.5924122" lon="11.3890502"><ele>377.0</ele><time>2026-04-28T16:47:04.419Z</time></trkpt><trkpt lat="43.5924278" lon="11.3888751"><ele>377.0</ele><time>2026-04-28T16:47:05.419Z</time></trkpt><trkpt lat="43.5924439" lon="11.3886891"><ele>377.0</ele><time>2026-04-28T16:47:06.419Z</time></trkpt><trkpt lat="43.5924541" lon="11.3884977"><ele>377.0</ele><time>2026-04-28T16:47:07.419Z</time></trkpt><trkpt lat="43.5924752" lon="11.3882964"><ele>375.25</ele><time>2026-04-28T16:47:08.419Z</time></trkpt><trkpt lat="43.5924896" lon="11.3880928"><ele>373.5</ele><time>2026-04-28T16:47:09.419Z</time></trkpt><trkpt lat="43.5925063" lon="11.3878981"><ele>371.75</ele><time>2026-04-28T16:47:10.419Z</time></trkpt><trkpt lat="43.5925111" lon="11.3877087"><ele>370.0</ele><time>2026-04-28T16:47:11.419Z</time></trkpt><trkpt lat="43.5925047" lon="11.3875205"><ele>369.75</ele><time>2026-04-28T16:47:12.419Z</time></trkpt><trkpt lat="43.5924889" lon="11.3873464"><ele>369.5</ele><time>2026-04-28T16:47:13.419Z</time></trkpt><trkpt lat="43.5924782" lon="11.3871805"><ele>369.25</ele><time>2026-04-28T16:47:14.419Z</time></trkpt><trkpt lat="43.5924881" lon="11.3870314"><ele>369.0</ele><time>2026-04-28T16:47:15.419Z</time></trkpt><trkpt lat="43.5925425" lon="11.3869071"><ele>367.75</ele><time>2026-04-28T16:47:16.419Z</time></trkpt><trkpt lat="43.592635" lon="11.3868089"><ele>366.5</ele><time>2026-04-28T16:47:17.419Z</time></trkpt><trkpt lat="43.5927531" lon="11.3867423"><ele>365.25</ele><time>2026-04-28T16:47:18.419Z</time></trkpt><trkpt lat="43.5928769" lon="11.3867033"><ele>364.0</ele><time>2026-04-28T16:47:19.419Z</time></trkpt><trkpt lat="43.5930017" lon="11.3866734"><ele>361.75</ele><time>2026-04-28T16:47:20.42Z</time></trkpt><trkpt lat="43.5931289" lon="11.3866506"><ele>359.5</ele><time>2026-04-28T16:47:21.419Z</time></trkpt><trkpt lat="43.5932574" lon="11.3866408"><ele>357.25</ele><time>2026-04-28T16:47:22.419Z</time></trkpt><trkpt lat="43.5933864" lon="11.3866347"><ele>355.0</ele><time>2026-04-28T16:47:23.419Z</time></trkpt><trkpt lat="43.593511" lon="11.3866274"><ele>355.0</ele><time>2026-04-28T16:47:24.419Z</time></trkpt><trkpt lat="43.5936381" lon="11.3866097"><ele>355.0</ele><time>2026-04-28T16:47:25.419Z</time></trkpt><trkpt lat="43.5937642" lon="11.3866005"><ele>355.0</ele><time>2026-04-28T16:47:26.419Z</time></trkpt><trkpt lat="43.5938888" lon="11.3866041"><ele>355.0</ele><time>2026-04-28T16:47:27.419Z</time></trkpt><trkpt lat="43.5940153" lon="11.3866212"><ele>353.0</ele><time>2026-04-28T16:47:28.419Z</time></trkpt><trkpt lat="43.5941246" lon="11.3866746"><ele>351.0</ele><time>2026-04-28T16:47:29.419Z</time></trkpt><trkpt lat="43.5942175" lon="11.3867865"><ele>349.0</ele><time>2026-04-28T16:47:30.419Z</time></trkpt><trkpt lat="43.5942799" lon="11.3869456"><ele>347.0</ele><time>2026-04-28T16:47:31.419Z</time></trkpt><trkpt lat="43.5943012" lon="11.3871196"><ele>347.25</ele><time>2026-04-28T16:47:32.419Z</time></trkpt><trkpt lat="43.5943101" lon="11.3872919"><ele>347.5</ele><time>2026-04-28T16:47:33.419Z</time></trkpt><trkpt lat="43.594308" lon="11.387457"><ele>347.75</ele><time>2026-04-28T16:47:34.419Z</time></trkpt><trkpt lat="43.5943279" lon="11.3876228"><ele>348.0</ele><time>2026-04-28T16:47:35.419Z</time></trkpt><trkpt lat="43.5943649" lon="11.3877911"><ele>348.0</ele><time>2026-04-28T16:47:36.419Z</time></trkpt><trkpt lat="43.5944378" lon="11.3879413"><ele>348.0</ele><time>2026-04-28T16:47:37.42Z</time></trkpt><trkpt lat="43.5945434" lon="11.3880793"><ele>348.0</ele><time>2026-04-28T16:47:38.42Z</time></trkpt><trkpt lat="43.5946523" lon="11.3881926"><ele>348.0</ele><time>2026-04-28T16:47:39.419Z</time></trkpt><trkpt lat="43.5947591" lon="11.3883024"><ele>344.75</ele><time>2026-04-28T16:47:40.419Z</time></trkpt><trkpt lat="43.5948628" lon="11.3883981"><ele>341.5</ele><time>2026-04-28T16:47:41.42Z</time></trkpt><trkpt lat="43.5949676" lon="11.3884898"><ele>338.25</ele><time>2026-04-28T16:47:42.419Z</time></trkpt><trkpt lat="43.5950691" lon="11.388551"><ele>335.0</ele><time>2026-04-28T16:47:43.419Z</time></trkpt><trkpt lat="43.5951735" lon="11.3885891"><ele>335.0</ele><time>2026-04-28T16:47:44.419Z</time></trkpt><trkpt lat="43.5952758" lon="11.3885969"><ele>335.0</ele><time>2026-04-28T16:47:45.419Z</time></trkpt><trkpt lat="43.5953724" lon="11.3885866"><ele>335.0</ele><time>2026-04-28T16:47:46.419Z</time></trkpt><trkpt lat="43.5954528" lon="11.3885669"><ele>335.0</ele><time>2026-04-28T16:47:47.419Z</time></trkpt><trkpt lat="43.5955421" lon="11.3885933"><ele>335.0</ele><time>2026-04-28T16:47:49.419Z</time></trkpt><trkpt lat="43.595603" lon="11.3887256"><ele>336.2</ele><time>2026-04-28T16:47:51.419Z</time></trkpt><trkpt lat="43.5956263" lon="11.3888551"><ele>337.4</ele><time>2026-04-28T16:47:52.419Z</time></trkpt><trkpt lat="43.595652" lon="11.3889947"><ele>338.6</ele><time>2026-04-28T16:47:53.419Z</time></trkpt><trkpt lat="43.5956757" lon="11.3891492"><ele>339.8</ele><time>2026-04-28T16:47:54.419Z</time></trkpt><trkpt lat="43.595709" lon="11.3893137"><ele>341.0</ele><time>2026-04-28T16:47:55.419Z</time></trkpt><trkpt lat="43.5957569" lon="11.3894746"><ele>341.0</ele><time>2026-04-28T16:47:56.419Z</time></trkpt><trkpt lat="43.595811" lon="11.389648"><ele>341.0</ele><time>2026-04-28T16:47:57.419Z</time></trkpt><trkpt lat="43.5958627" lon="11.3898287"><ele>341.0</ele><time>2026-04-28T16:47:58.419Z</time></trkpt><trkpt lat="43.59592" lon="11.3900183"><ele>341.0</ele><time>2026-04-28T16:47:59.419Z</time></trkpt><trkpt lat="43.5959783" lon="11.3902126"><ele>340.33333333333337</ele><time>2026-04-28T16:48:00.419Z</time></trkpt><trkpt lat="43.5960393" lon="11.3904032"><ele>339.6666666666667</ele><time>2026-04-28T16:48:01.419Z</time></trkpt><trkpt lat="43.5960969" lon="11.3906032"><ele>339.0</ele><time>2026-04-28T16:48:02.419Z</time></trkpt><trkpt lat="43.5961541" lon="11.3908094"><ele>340.3333333333333</ele><time>2026-04-28T16:48:03.419Z</time></trkpt><trkpt lat="43.5962111" lon="11.3910114"><ele>341.66666666666663</ele><time>2026-04-28T16:48:04.419Z</time></trkpt><trkpt lat="43.5962799" lon="11.3912062"><ele>343.0</ele><time>2026-04-28T16:48:05.419Z</time></trkpt><trkpt lat="43.5963552" lon="11.3914023"><ele>343.0</ele><time>2026-04-28T16:48:06.419Z</time></trkpt><trkpt lat="43.5964331" lon="11.3915988"><ele>343.0</ele><time>2026-04-28T16:48:07.419Z</time></trkpt><trkpt lat="43.5965138" lon="11.3917998"><ele>343.0</ele><time>2026-04-28T16:48:08.419Z</time></trkpt><trkpt lat="43.5965968" lon="11.3920088"><ele>339.66666666666663</ele><time>2026-04-28T16:48:09.419Z</time></trkpt><trkpt lat="43.5966811" lon="11.3922152"><ele>336.3333333333333</ele><time>2026-04-28T16:48:10.419Z</time></trkpt><trkpt lat="43.5967617" lon="11.3924205"><ele>333.0</ele><time>2026-04-28T16:48:11.42Z</time></trkpt><trkpt lat="43.5968397" lon="11.3926284"><ele>333.0</ele><time>2026-04-28T16:48:12.419Z</time></trkpt><trkpt lat="43.5969152" lon="11.3928343"><ele>333.0</ele><time>2026-04-28T16:48:13.419Z</time></trkpt><trkpt lat="43.5970043" lon="11.3930309"><ele>333.0</ele><time>2026-04-28T16:48:14.419Z</time></trkpt><trkpt lat="43.5971087" lon="11.3932129"><ele>332.6666666666667</ele><time>2026-04-28T16:48:15.419Z</time></trkpt><trkpt lat="43.5972209" lon="11.3933745"><ele>332.33333333333337</ele><time>2026-04-28T16:48:16.419Z</time></trkpt><trkpt lat="43.5973533" lon="11.3935143"><ele>332.0</ele><time>2026-04-28T16:48:17.419Z</time></trkpt><trkpt lat="43.5974932" lon="11.3936104"><ele>332.0</ele><time>2026-04-28T16:48:18.419Z</time></trkpt><trkpt lat="43.5976348" lon="11.3936919"><ele>332.0</ele><time>2026-04-28T16:48:19.419Z</time></trkpt><trkpt lat="43.5977617" lon="11.3938032"><ele>332.0</ele><time>2026-04-28T16:48:20.419Z</time></trkpt><trkpt lat="43.5978594" lon="11.3939513"><ele>332.0</ele><time>2026-04-28T16:48:21.419Z</time></trkpt><trkpt lat="43.5979138" lon="11.3941377"><ele>330.6666666666667</ele><time>2026-04-28T16:48:22.419Z</time></trkpt><trkpt lat="43.5979404" lon="11.3943437"><ele>329.3333333333333</ele><time>2026-04-28T16:48:23.42Z</time></trkpt><trkpt lat="43.5979531" lon="11.3945518"><ele>328.0</ele><time>2026-04-28T16:48:24.419Z</time></trkpt><trkpt lat="43.5979767" lon="11.3947607"><ele>328.0</ele><time>2026-04-28T16:48:25.419Z</time></trkpt><trkpt lat="43.5980034" lon="11.3949711"><ele>328.0</ele><time>2026-04-28T16:48:26.42Z</time></trkpt><trkpt lat="43.59805" lon="11.3951825"><ele>328.0</ele><time>2026-04-28T16:48:27.419Z</time></trkpt><trkpt lat="43.5981137" lon="11.3953903"><ele>326.3333333333333</ele><time>2026-04-28T16:48:28.419Z</time></trkpt><trkpt lat="43.5981963" lon="11.395595"><ele>324.6666666666667</ele><time>2026-04-28T16:48:29.419Z</time></trkpt><trkpt lat="43.598288" lon="11.3957947"><ele>323.0</ele><time>2026-04-28T16:48:30.419Z</time></trkpt><trkpt lat="43.5983995" lon="11.3959886"><ele>323.0</ele><time>2026-04-28T16:48:31.419Z</time></trkpt><trkpt lat="43.5985141" lon="11.3961756"><ele>323.0</ele><time>2026-04-28T16:48:32.419Z</time></trkpt><trkpt lat="43.598626" lon="11.3963657"><ele>323.0</ele><time>2026-04-28T16:48:33.419Z</time></trkpt><trkpt lat="43.5987327" lon="11.3965461"><ele>324.0</ele><time>2026-04-28T16:48:34.419Z</time></trkpt><trkpt lat="43.5988384" lon="11.3967224"><ele>325.0</ele><time>2026-04-28T16:48:35.419Z</time></trkpt><trkpt lat="43.5989539" lon="11.3968877"><ele>326.0</ele><time>2026-04-28T16:48:36.419Z</time></trkpt><trkpt lat="43.5990816" lon="11.3970207"><ele>326.0</ele><time>2026-04-28T16:48:37.419Z</time></trkpt><trkpt lat="43.5992188" lon="11.3971415"><ele>326.0</ele><time>2026-04-28T16:48:38.419Z</time></trkpt><trkpt lat="43.5993575" lon="11.3972487"><ele>326.0</ele><time>2026-04-28T16:48:39.419Z</time></trkpt><trkpt lat="43.5994929" lon="11.3973586"><ele>327.6666666666667</ele><time>2026-04-28T16:48:40.419Z</time></trkpt><trkpt lat="43.5996265" lon="11.3974689"><ele>329.3333333333333</ele><time>2026-04-28T16:48:41.419Z</time></trkpt><trkpt lat="43.5997587" lon="11.397587"><ele>331.0</ele><time>2026-04-28T16:48:42.419Z</time></trkpt><trkpt lat="43.5998855" lon="11.3977241"><ele>331.0</ele><time>2026-04-28T16:48:43.419Z</time></trkpt><trkpt lat="43.6000075" lon="11.3978611"><ele>331.0</ele><time>2026-04-28T16:48:44.419Z</time></trkpt><trkpt lat="43.6001193" lon="11.3979994"><ele>331.0</ele><time>2026-04-28T16:48:45.419Z</time></trkpt><trkpt lat="43.6002328" lon="11.3981376"><ele>330.66666666666663</ele><time>2026-04-28T16:48:46.419Z</time></trkpt><trkpt lat="43.6003438" lon="11.3982826"><ele>330.3333333333333</ele><time>2026-04-28T16:48:47.419Z</time></trkpt><trkpt lat="43.6004495" lon="11.3984376"><ele>330.0</ele><time>2026-04-28T16:48:48.419Z</time></trkpt><trkpt lat="43.6005449" lon="11.3986072"><ele>330.0</ele><time>2026-04-28T16:48:49.419Z</time></trkpt><trkpt lat="43.6006351" lon="11.3987789"><ele>330.0</ele><time>2026-04-28T16:48:50.419Z</time></trkpt><trkpt lat="43.6007238" lon="11.3989605"><ele>330.0</ele><time>2026-04-28T16:48:51.419Z</time></trkpt><trkpt lat="43.600802" lon="11.3991432"><ele>328.25</ele><time>2026-04-28T16:48:52.419Z</time></trkpt><trkpt lat="43.6008553" lon="11.3993391"><ele>326.5</ele><time>2026-04-28T16:48:53.419Z</time></trkpt><trkpt lat="43.6008878" lon="11.3995155"><ele>324.75</ele><time>2026-04-28T16:48:54.419Z</time></trkpt><trkpt lat="43.6008974" lon="11.3996943"><ele>323.0</ele><time>2026-04-28T16:48:55.419Z</time></trkpt><trkpt lat="43.6008809" lon="11.3998952"><ele>321.6666666666667</ele><time>2026-04-28T16:48:56.419Z</time></trkpt><trkpt lat="43.6008519" lon="11.4001102"><ele>320.3333333333333</ele><time>2026-04-28T16:48:57.42Z</time></trkpt><trkpt lat="43.6008098" lon="11.4003268"><ele>319.0</ele><time>2026-04-28T16:48:58.419Z</time></trkpt><trkpt lat="43.6007747" lon="11.4005469"><ele>318.66666666666663</ele><time>2026-04-28T16:48:59.419Z</time></trkpt><trkpt lat="43.6007367" lon="11.4007738"><ele>318.3333333333333</ele><time>2026-04-28T16:49:00.419Z</time></trkpt><trkpt lat="43.6007065" lon="11.400991"><ele>318.0</ele><time>2026-04-28T16:49:01.419Z</time></trkpt><trkpt lat="43.6006651" lon="11.4012098"><ele>319.0</ele><time>2026-04-28T16:49:02.419Z</time></trkpt><trkpt lat="43.6006348" lon="11.4014369"><ele>320.0</ele><time>2026-04-28T16:49:03.419Z</time></trkpt><trkpt lat="43.6005958" lon="11.4016677"><ele>321.0</ele><time>2026-04-28T16:49:04.419Z</time></trkpt><trkpt lat="43.60056" lon="11.4019068"><ele>321.0</ele><time>2026-04-28T16:49:05.419Z</time></trkpt><trkpt lat="43.6005193" lon="11.4021286"><ele>321.0</ele><time>2026-04-28T16:49:06.419Z</time></trkpt><trkpt lat="43.6004736" lon="11.4023384"><ele>321.0</ele><time>2026-04-28T16:49:07.419Z</time></trkpt><trkpt lat="43.6004002" lon="11.4025304"><ele>321.3333333333333</ele><time>2026-04-28T16:49:08.419Z</time></trkpt><trkpt lat="43.6002795" lon="11.4026743"><ele>321.66666666666663</ele><time>2026-04-28T16:49:09.419Z</time></trkpt><trkpt lat="43.6001481" lon="11.4028026"><ele>322.0</ele><time>2026-04-28T16:49:10.419Z</time></trkpt><trkpt lat="43.600013" lon="11.4029324"><ele>323.3333333333333</ele><time>2026-04-28T16:49:11.419Z</time></trkpt><trkpt lat="43.5998797" lon="11.4030479"><ele>324.6666666666667</ele><time>2026-04-28T16:49:12.419Z</time></trkpt><trkpt lat="43.5997481" lon="11.4031714"><ele>326.0</ele><time>2026-04-28T16:49:13.419Z</time></trkpt><trkpt lat="43.5996216" lon="11.4032853"><ele>326.0</ele><time>2026-04-28T16:49:14.419Z</time></trkpt><trkpt lat="43.5995009" lon="11.4033922"><ele>326.0</ele><time>2026-04-28T16:49:15.419Z</time></trkpt><trkpt lat="43.5993864" lon="11.4034851"><ele>326.0</ele><time>2026-04-28T16:49:16.419Z</time></trkpt><trkpt lat="43.5992821" lon="11.4035766"><ele>326.0</ele><time>2026-04-28T16:49:17.419Z</time></trkpt><trkpt lat="43.5991793" lon="11.4036649"><ele>323.6</ele><time>2026-04-28T16:49:18.419Z</time></trkpt><trkpt lat="43.5991101" lon="11.4037585"><ele>321.20000000000005</ele><time>2026-04-28T16:49:19.419Z</time></trkpt><trkpt lat="43.5990787" lon="11.4038848"><ele>318.79999999999995</ele><time>2026-04-28T16:49:20.419Z</time></trkpt><trkpt lat="43.5990874" lon="11.4040046"><ele>316.4</ele><time>2026-04-28T16:49:21.419Z</time></trkpt><trkpt lat="43.5991428" lon="11.4041201"><ele>314.0</ele><time>2026-04-28T16:49:22.42Z</time></trkpt><trkpt lat="43.5992126" lon="11.4042355"><ele>313.75</ele><time>2026-04-28T16:49:23.419Z</time></trkpt><trkpt lat="43.5992878" lon="11.4043749"><ele>313.5</ele><time>2026-04-28T16:49:24.419Z</time></trkpt><trkpt lat="43.5993753" lon="11.4045183"><ele>313.25</ele><time>2026-04-28T16:49:25.419Z</time></trkpt><trkpt lat="43.5994544" lon="11.4046749"><ele>313.0</ele><time>2026-04-28T16:49:26.419Z</time></trkpt><trkpt lat="43.5995367" lon="11.4048381"><ele>314.66666666666663</ele><time>2026-04-28T16:49:27.419Z</time></trkpt><trkpt lat="43.5996216" lon="11.4050151"><ele>316.3333333333333</ele><time>2026-04-28T16:49:28.419Z</time></trkpt><trkpt lat="43.5997136" lon="11.4051883"><ele>318.0</ele><time>2026-04-28T16:49:29.419Z</time></trkpt><trkpt lat="43.5998097" lon="11.4053592"><ele>315.3333333333333</ele><time>2026-04-28T16:49:30.419Z</time></trkpt><trkpt lat="43.5999133" lon="11.405519"><ele>312.66666666666663</ele><time>2026-04-28T16:49:31.419Z</time></trkpt><trkpt lat="43.6000386" lon="11.4056569"><ele>310.0</ele><time>2026-04-28T16:49:32.419Z</time></trkpt><trkpt lat="43.6001803" lon="11.4057654"><ele>310.0</ele><time>2026-04-28T16:49:33.419Z</time></trkpt><trkpt lat="43.6003326" lon="11.4058627"><ele>310.0</ele><time>2026-04-28T16:49:34.419Z</time></trkpt><trkpt lat="43.6004693" lon="11.4059693"><ele>310.0</ele><time>2026-04-28T16:49:35.419Z</time></trkpt><trkpt lat="43.6005963" lon="11.4061135"><ele>311.0</ele><time>2026-04-28T16:49:36.419Z</time></trkpt><trkpt lat="43.6006901" lon="11.4062859"><ele>312.0</ele><time>2026-04-28T16:49:37.419Z</time></trkpt><trkpt lat="43.600764" lon="11.4064756"><ele>313.0</ele><time>2026-04-28T16:49:38.419Z</time></trkpt><trkpt lat="43.600824" lon="11.4066728"><ele>313.0</ele><time>2026-04-28T16:49:39.419Z</time></trkpt><trkpt lat="43.600883" lon="11.4068615"><ele>313.0</ele><time>2026-04-28T16:49:40.419Z</time></trkpt><trkpt lat="43.6009412" lon="11.4070499"><ele>313.0</ele><time>2026-04-28T16:49:41.42Z</time></trkpt><trkpt lat="43.6009994" lon="11.407237"><ele>313.0</ele><time>2026-04-28T16:49:42.419Z</time></trkpt><trkpt lat="43.6010366" lon="11.4074243"><ele>312.75</ele><time>2026-04-28T16:49:43.42Z</time></trkpt><trkpt lat="43.6010417" lon="11.4076152"><ele>312.5</ele><time>2026-04-28T16:49:44.419Z</time></trkpt><trkpt lat="43.6010247" lon="11.4077985"><ele>312.25</ele><time>2026-04-28T16:49:45.419Z</time></trkpt><trkpt lat="43.600954" lon="11.4079519"><ele>312.0</ele><time>2026-04-28T16:49:46.419Z</time></trkpt><trkpt lat="43.600824" lon="11.4080734"><ele>312.0</ele><time>2026-04-28T16:49:47.419Z</time></trkpt><trkpt lat="43.6006959" lon="11.4081421"><ele>312.0</ele><time>2026-04-28T16:49:48.419Z</time></trkpt><trkpt lat="43.6005831" lon="11.4081929"><ele>312.0</ele><time>2026-04-28T16:49:49.42Z</time></trkpt><trkpt lat="43.6004909" lon="11.4082566"><ele>312.0</ele><time>2026-04-28T16:49:50.419Z</time></trkpt><trkpt lat="43.600404" lon="11.4083475"><ele>312.0</ele><time>2026-04-28T16:49:51.419Z</time></trkpt><trkpt lat="43.6003456" lon="11.4084601"><ele>312.0</ele><time>2026-04-28T16:49:52.42Z</time></trkpt><trkpt lat="43.6003314" lon="11.4086079"><ele>312.0</ele><time>2026-04-28T16:49:53.419Z</time></trkpt><trkpt lat="43.6003595" lon="11.4087776"><ele>312.0</ele><time>2026-04-28T16:49:54.419Z</time></trkpt><trkpt lat="43.6004028" lon="11.408947"><ele>311.5</ele><time>2026-04-28T16:49:55.419Z</time></trkpt><trkpt lat="43.6004606" lon="11.4091221"><ele>311.0</ele><time>2026-04-28T16:49:56.419Z</time></trkpt><trkpt lat="43.6005302" lon="11.4093005"><ele>310.5</ele><time>2026-04-28T16:49:57.419Z</time></trkpt><trkpt lat="43.6006005" lon="11.4094765"><ele>310.0</ele><time>2026-04-28T16:49:58.419Z</time></trkpt><trkpt lat="43.6006799" lon="11.4096589"><ele>310.0</ele><time>2026-04-28T16:49:59.419Z</time></trkpt><trkpt lat="43.6007401" lon="11.4098502"><ele>310.0</ele><time>2026-04-28T16:50:00.419Z</time></trkpt><trkpt lat="43.6007641" lon="11.410047"><ele>310.0</ele><time>2026-04-28T16:50:01.419Z</time></trkpt><trkpt lat="43.6007465" lon="11.4102583"><ele>310.0</ele><time>2026-04-28T16:50:02.419Z</time></trkpt><trkpt lat="43.6007205" lon="11.4104722"><ele>310.0</ele><time>2026-04-28T16:50:03.419Z</time></trkpt><trkpt lat="43.6006943" lon="11.4106766"><ele>310.0</ele><time>2026-04-28T16:50:04.419Z</time></trkpt><trkpt lat="43.6006524" lon="11.4108755"><ele>309.0</ele><time>2026-04-28T16:50:05.419Z</time></trkpt><trkpt lat="43.6005914" lon="11.411061"><ele>308.0</ele><time>2026-04-28T16:50:06.419Z</time></trkpt><trkpt lat="43.6005264" lon="11.4112261"><ele>307.0</ele><time>2026-04-28T16:50:07.419Z</time></trkpt><trkpt lat="43.6004742" lon="11.4113856"><ele>306.0</ele><time>2026-04-28T16:50:08.419Z</time></trkpt><trkpt lat="43.6004552" lon="11.4115456"><ele>304.40000000000003</ele><time>2026-04-28T16:50:09.419Z</time></trkpt><trkpt lat="43.6004704" lon="11.4117092"><ele>302.8</ele><time>2026-04-28T16:50:10.419Z</time></trkpt><trkpt lat="43.6005091" lon="11.411842"><ele>301.20000000000005</ele><time>2026-04-28T16:50:11.419Z</time></trkpt><trkpt lat="43.6005699" lon="11.4119581"><ele>299.6</ele><time>2026-04-28T16:50:12.419Z</time></trkpt><trkpt lat="43.600641" lon="11.4120498"><ele>298.0</ele><time>2026-04-28T16:50:13.419Z</time></trkpt><trkpt lat="43.6007305" lon="11.4120944"><ele>298.0</ele><time>2026-04-28T16:50:14.419Z</time></trkpt><trkpt lat="43.6008239" lon="11.4120747"><ele>298.0</ele><time>2026-04-28T16:50:15.419Z</time></trkpt><trkpt lat="43.6009108" lon="11.4120212"><ele>298.0</ele><time>2026-04-28T16:50:16.419Z</time></trkpt><trkpt lat="43.6010027" lon="11.4119651"><ele>298.0</ele><time>2026-04-28T16:50:17.419Z</time></trkpt><trkpt lat="43.6010975" lon="11.4119045"><ele>298.0</ele><time>2026-04-28T16:50:18.419Z</time></trkpt><trkpt lat="43.6011832" lon="11.4118577"><ele>298.0</ele><time>2026-04-28T16:50:19.419Z</time></trkpt><trkpt lat="43.601275" lon="11.4118328"><ele>298.0</ele><time>2026-04-28T16:50:20.42Z</time></trkpt><trkpt lat="43.6013456" lon="11.4118536"><ele>298.0</ele><time>2026-04-28T16:50:21.42Z</time></trkpt><trkpt lat="43.6013851" lon="11.4119405"><ele>298.0</ele><time>2026-04-28T16:50:22.42Z</time></trkpt><trkpt lat="43.6014096" lon="11.4120652"><ele>298.0</ele><time>2026-04-28T16:50:23.419Z</time></trkpt><trkpt lat="43.6013964" lon="11.4122032"><ele>298.0</ele><time>2026-04-28T16:50:24.419Z</time></trkpt><trkpt lat="43.6013672" lon="11.4123515"><ele>297.8</ele><time>2026-04-28T16:50:25.419Z</time></trkpt><trkpt lat="43.6013517" lon="11.4124929"><ele>297.6</ele><time>2026-04-28T16:50:26.419Z</time></trkpt><trkpt lat="43.6013544" lon="11.4126326"><ele>297.4</ele><time>2026-04-28T16:50:27.419Z</time></trkpt><trkpt lat="43.6013842" lon="11.4127607"><ele>297.2</ele><time>2026-04-28T16:50:28.419Z</time></trkpt><trkpt lat="43.6014516" lon="11.4128414"><ele>297.0</ele><time>2026-04-28T16:50:29.42Z</time></trkpt><trkpt lat="43.6015368" lon="11.4128667"><ele>297.0</ele><time>2026-04-28T16:50:30.419Z</time></trkpt><trkpt lat="43.6016454" lon="11.4128476"><ele>297.0</ele><time>2026-04-28T16:50:31.419Z</time></trkpt><trkpt lat="43.6017476" lon="11.4128682"><ele>297.0</ele><time>2026-04-28T16:50:32.419Z</time></trkpt><trkpt lat="43.6018555" lon="11.4129196"><ele>297.0</ele><time>2026-04-28T16:50:33.419Z</time></trkpt><trkpt lat="43.601926" lon="11.4130232"><ele>297.0</ele><time>2026-04-28T16:50:34.419Z</time></trkpt><trkpt lat="43.6019647" lon="11.4131636"><ele>296.5</ele><time>2026-04-28T16:50:35.419Z</time></trkpt><trkpt lat="43.6019698" lon="11.4133285"><ele>296.0</ele><time>2026-04-28T16:50:36.419Z</time></trkpt><trkpt lat="43.6019408" lon="11.4134775"><ele>295.5</ele><time>2026-04-28T16:50:37.419Z</time></trkpt><trkpt lat="43.6019151" lon="11.4136283"><ele>295.0</ele><time>2026-04-28T16:50:38.419Z</time></trkpt><trkpt lat="43.6019131" lon="11.4137886"><ele>295.8</ele><time>2026-04-28T16:50:39.419Z</time></trkpt><trkpt lat="43.6019346" lon="11.4139395"><ele>296.6</ele><time>2026-04-28T16:50:40.419Z</time></trkpt><trkpt lat="43.6019535" lon="11.4140888"><ele>297.4</ele><time>2026-04-28T16:50:41.419Z</time></trkpt><trkpt lat="43.6019747" lon="11.4142335"><ele>298.2</ele><time>2026-04-28T16:50:42.42Z</time></trkpt><trkpt lat="43.6019987" lon="11.4143704"><ele>299.0</ele><time>2026-04-28T16:50:43.419Z</time></trkpt><trkpt lat="43.6020156" lon="11.4145078"><ele>300.2</ele><time>2026-04-28T16:50:44.419Z</time></trkpt><trkpt lat="43.6020267" lon="11.4146367"><ele>301.4</ele><time>2026-04-28T16:50:45.419Z</time></trkpt><trkpt lat="43.6020245" lon="11.4147653"><ele>302.6</ele><time>2026-04-28T16:50:46.419Z</time></trkpt><trkpt lat="43.6020166" lon="11.4148994"><ele>303.8</ele><time>2026-04-28T16:50:47.42Z</time></trkpt><trkpt lat="43.6019983" lon="11.4150406"><ele>305.0</ele><time>2026-04-28T16:50:48.419Z</time></trkpt><trkpt lat="43.6019833" lon="11.4151887"><ele>305.0</ele><time>2026-04-28T16:50:49.419Z</time></trkpt><trkpt lat="43.6019686" lon="11.415349"><ele>305.0</ele><time>2026-04-28T16:50:50.419Z</time></trkpt><trkpt lat="43.6019501" lon="11.4155172"><ele>305.0</ele><time>2026-04-28T16:50:51.419Z</time></trkpt><trkpt lat="43.6019287" lon="11.4156906"><ele>305.0</ele><time>2026-04-28T16:50:52.419Z</time></trkpt><trkpt lat="43.601909" lon="11.4158706"><ele>305.25</ele><time>2026-04-28T16:50:53.419Z</time></trkpt><trkpt lat="43.6018895" lon="11.416053"><ele>305.5</ele><time>2026-04-28T16:50:54.419Z</time></trkpt><trkpt lat="43.6018747" lon="11.4162325"><ele>305.75</ele><time>2026-04-28T16:50:55.419Z</time></trkpt><trkpt lat="43.6018564" lon="11.4164073"><ele>306.0</ele><time>2026-04-28T16:50:56.419Z</time></trkpt><trkpt lat="43.6018374" lon="11.4165679"><ele>306.0</ele><time>2026-04-28T16:50:57.419Z</time></trkpt><trkpt lat="43.601818" lon="11.4167204"><ele>306.0</ele><time>2026-04-28T16:50:58.419Z</time></trkpt><trkpt lat="43.6018062" lon="11.4168706"><ele>306.0</ele><time>2026-04-28T16:50:59.419Z</time></trkpt><trkpt lat="43.601812" lon="11.4170175"><ele>306.0</ele><time>2026-04-28T16:51:00.419Z</time></trkpt><trkpt lat="43.6018525" lon="11.4171561"><ele>306.0</ele><time>2026-04-28T16:51:01.42Z</time></trkpt><trkpt lat="43.6019214" lon="11.4172802"><ele>305.5</ele><time>2026-04-28T16:51:02.419Z</time></trkpt><trkpt lat="43.6020132" lon="11.4173707"><ele>305.0</ele><time>2026-04-28T16:51:03.419Z</time></trkpt><trkpt lat="43.6021269" lon="11.4174222"><ele>304.5</ele><time>2026-04-28T16:51:04.419Z</time></trkpt><trkpt lat="43.6022446" lon="11.4174444"><ele>304.0</ele><time>2026-04-28T16:51:05.42Z</time></trkpt><trkpt lat="43.6023719" lon="11.4174387"><ele>304.0</ele><time>2026-04-28T16:51:06.419Z</time></trkpt><trkpt lat="43.6025044" lon="11.4174304"><ele>304.0</ele><time>2026-04-28T16:51:07.419Z</time></trkpt><trkpt lat="43.6026374" lon="11.4174186"><ele>304.0</ele><time>2026-04-28T16:51:08.419Z</time></trkpt><trkpt lat="43.6027742" lon="11.4174128"><ele>304.0</ele><time>2026-04-28T16:51:09.419Z</time></trkpt><trkpt lat="43.6029124" lon="11.4174094"><ele>302.5</ele><time>2026-04-28T16:51:10.419Z</time></trkpt><trkpt lat="43.6030516" lon="11.4174082"><ele>301.0</ele><time>2026-04-28T16:51:11.419Z</time></trkpt><trkpt lat="43.6031915" lon="11.4174077"><ele>299.5</ele><time>2026-04-28T16:51:12.419Z</time></trkpt><trkpt lat="43.6033305" lon="11.4174173"><ele>298.0</ele><time>2026-04-28T16:51:13.419Z</time></trkpt><trkpt lat="43.6034697" lon="11.4174578"><ele>298.0</ele><time>2026-04-28T16:51:14.419Z</time></trkpt><trkpt lat="43.6036124" lon="11.4175304"><ele>298.0</ele><time>2026-04-28T16:51:15.419Z</time></trkpt><trkpt lat="43.6037384" lon="11.4176434"><ele>298.0</ele><time>2026-04-28T16:51:16.419Z</time></trkpt><trkpt lat="43.603844" lon="11.4177863"><ele>296.66666666666663</ele><time>2026-04-28T16:51:17.419Z</time></trkpt><trkpt lat="43.603926" lon="11.4179559"><ele>295.3333333333333</ele><time>2026-04-28T16:51:18.419Z</time></trkpt><trkpt lat="43.6039703" lon="11.418153"><ele>294.0</ele><time>2026-04-28T16:51:19.419Z</time></trkpt><trkpt lat="43.6040175" lon="11.4183638"><ele>292.3333333333333</ele><time>2026-04-28T16:51:20.419Z</time></trkpt><trkpt lat="43.6040589" lon="11.4185768"><ele>290.66666666666663</ele><time>2026-04-28T16:51:21.419Z</time></trkpt><trkpt lat="43.6041019" lon="11.4187964"><ele>289.0</ele><time>2026-04-28T16:51:22.419Z</time></trkpt><trkpt lat="43.6041387" lon="11.4190182"><ele>287.66666666666663</ele><time>2026-04-28T16:51:23.419Z</time></trkpt><trkpt lat="43.6041733" lon="11.4192331"><ele>286.3333333333333</ele><time>2026-04-28T16:51:24.419Z</time></trkpt><trkpt lat="43.6042054" lon="11.4194503"><ele>285.0</ele><time>2026-04-28T16:51:25.419Z</time></trkpt><trkpt lat="43.6042373" lon="11.4196626"><ele>284.6666666666667</ele><time>2026-04-28T16:51:26.419Z</time></trkpt><trkpt lat="43.6042714" lon="11.419868"><ele>284.33333333333337</ele><time>2026-04-28T16:51:27.42Z</time></trkpt><trkpt lat="43.6043153" lon="11.4200666"><ele>284.0</ele><time>2026-04-28T16:51:28.419Z</time></trkpt><trkpt lat="43.6043746" lon="11.4202608"><ele>284.0</ele><time>2026-04-28T16:51:29.419Z</time></trkpt><trkpt lat="43.604449" lon="11.4204411"><ele>284.0</ele><time>2026-04-28T16:51:30.419Z</time></trkpt><trkpt lat="43.6045308" lon="11.4206264"><ele>284.0</ele><time>2026-04-28T16:51:31.419Z</time></trkpt><trkpt lat="43.6046198" lon="11.4208185"><ele>279.0</ele><time>2026-04-28T16:51:32.419Z</time></trkpt><trkpt lat="43.6046988" lon="11.4210128"><ele>274.0</ele><time>2026-04-28T16:51:33.42Z</time></trkpt><trkpt lat="43.6047675" lon="11.4212253"><ele>269.0</ele><time>2026-04-28T16:51:34.419Z</time></trkpt><trkpt lat="43.6048238" lon="11.4214391"><ele>269.0</ele><time>2026-04-28T16:51:35.419Z</time></trkpt><trkpt lat="43.6048559" lon="11.4216672"><ele>269.0</ele><time>2026-04-28T16:51:36.419Z</time></trkpt><trkpt lat="43.6048751" lon="11.4219052"><ele>269.0</ele><time>2026-04-28T16:51:37.419Z</time></trkpt><trkpt lat="43.6049007" lon="11.4221364"><ele>268.33333333333337</ele><time>2026-04-28T16:51:38.419Z</time></trkpt><trkpt lat="43.6049442" lon="11.4223696"><ele>267.6666666666667</ele><time>2026-04-28T16:51:39.42Z</time></trkpt><trkpt lat="43.6050033" lon="11.4225987"><ele>267.0</ele><time>2026-04-28T16:51:40.419Z</time></trkpt><trkpt lat="43.6050758" lon="11.4228213"><ele>265.3333333333333</ele><time>2026-04-28T16:51:41.419Z</time></trkpt><trkpt lat="43.6051659" lon="11.4230471"><ele>263.66666666666663</ele><time>2026-04-28T16:51:42.419Z</time></trkpt><trkpt lat="43.605263" lon="11.4232656"><ele>262.0</ele><time>2026-04-28T16:51:43.419Z</time></trkpt><trkpt lat="43.6053728" lon="11.423473"><ele>261.66666666666663</ele><time>2026-04-28T16:51:44.419Z</time></trkpt><trkpt lat="43.6055009" lon="11.423663"><ele>261.3333333333333</ele><time>2026-04-28T16:51:45.419Z</time></trkpt><trkpt lat="43.6056298" lon="11.4238534"><ele>261.0</ele><time>2026-04-28T16:51:46.419Z</time></trkpt><trkpt lat="43.6057385" lon="11.4240539"><ele>261.0</ele><time>2026-04-28T16:51:47.42Z</time></trkpt><trkpt lat="43.6058338" lon="11.4242625"><ele>261.0</ele><time>2026-04-28T16:51:48.419Z</time></trkpt><trkpt lat="43.6059149" lon="11.4244766"><ele>261.0</ele><time>2026-04-28T16:51:49.419Z</time></trkpt><trkpt lat="43.6059943" lon="11.4246902"><ele>263.0</ele><time>2026-04-28T16:51:50.419Z</time></trkpt><trkpt lat="43.6060852" lon="11.4248935"><ele>265.0</ele><time>2026-04-28T16:51:51.419Z</time></trkpt><trkpt lat="43.6061738" lon="11.4251032"><ele>267.0</ele><time>2026-04-28T16:51:52.419Z</time></trkpt><trkpt lat="43.6062739" lon="11.4253008"><ele>267.0</ele><time>2026-04-28T16:51:53.419Z</time></trkpt><trkpt lat="43.6063796" lon="11.4254999"><ele>267.0</ele><time>2026-04-28T16:51:54.419Z</time></trkpt><trkpt lat="43.6064797" lon="11.4256943"><ele>267.0</ele><time>2026-04-28T16:51:55.419Z</time></trkpt><trkpt lat="43.6065761" lon="11.4258953"><ele>267.0</ele><time>2026-04-28T16:51:56.419Z</time></trkpt><trkpt lat="43.6066621" lon="11.4260984"><ele>267.0</ele><time>2026-04-28T16:51:57.419Z</time></trkpt><trkpt lat="43.6067232" lon="11.4263232"><ele>267.0</ele><time>2026-04-28T16:51:58.419Z</time></trkpt><trkpt lat="43.6067603" lon="11.4265697"><ele>267.0</ele><time>2026-04-28T16:51:59.419Z</time></trkpt><trkpt lat="43.6067837" lon="11.4268164"><ele>267.0</ele><time>2026-04-28T16:52:00.419Z</time></trkpt><trkpt lat="43.6067983" lon="11.4270616"><ele>267.0</ele><time>2026-04-28T16:52:01.42Z</time></trkpt><trkpt lat="43.6068116" lon="11.4273044"><ele>267.3333333333333</ele><time>2026-04-28T16:52:02.419Z</time></trkpt><trkpt lat="43.60683" lon="11.427551"><ele>267.66666666666663</ele><time>2026-04-28T16:52:03.419Z</time></trkpt><trkpt lat="43.6068432" lon="11.4277922"><ele>268.0</ele><time>2026-04-28T16:52:04.419Z</time></trkpt><trkpt lat="43.6068619" lon="11.4280339"><ele>268.3333333333333</ele><time>2026-04-28T16:52:05.419Z</time></trkpt><trkpt lat="43.6068799" lon="11.4282797"><ele>268.6666666666667</ele><time>2026-04-28T16:52:06.419Z</time></trkpt><trkpt lat="43.6068947" lon="11.4285252"><ele>269.0</ele><time>2026-04-28T16:52:07.419Z</time></trkpt><trkpt lat="43.6069049" lon="11.4287801"><ele>268.6666666666667</ele><time>2026-04-28T16:52:08.419Z</time></trkpt><trkpt lat="43.6069207" lon="11.4290361"><ele>268.3333333333333</ele><time>2026-04-28T16:52:09.419Z</time></trkpt><trkpt lat="43.6069396" lon="11.4293029"><ele>268.0</ele><time>2026-04-28T16:52:10.419Z</time></trkpt><trkpt lat="43.6069595" lon="11.4295692"><ele>268.66666666666663</ele><time>2026-04-28T16:52:11.419Z</time></trkpt><trkpt lat="43.6069739" lon="11.4298319"><ele>269.3333333333333</ele><time>2026-04-28T16:52:12.419Z</time></trkpt><trkpt lat="43.6069631" lon="11.430079"><ele>270.0</ele><time>2026-04-28T16:52:13.419Z</time></trkpt><trkpt lat="43.6068987" lon="11.4303195"><ele>269.6666666666667</ele><time>2026-04-28T16:52:14.419Z</time></trkpt><trkpt lat="43.6068071" lon="11.4305211"><ele>269.33333333333337</ele><time>2026-04-28T16:52:15.419Z</time></trkpt><trkpt lat="43.6066799" lon="11.4307061"><ele>269.0</ele><time>2026-04-28T16:52:16.419Z</time></trkpt><trkpt lat="43.6065459" lon="11.4308785"><ele>269.0</ele><time>2026-04-28T16:52:17.419Z</time></trkpt><trkpt lat="43.606415" lon="11.4310533"><ele>269.0</ele><time>2026-04-28T16:52:18.419Z</time></trkpt><trkpt lat="43.6062874" lon="11.4312266"><ele>269.0</ele><time>2026-04-28T16:52:19.42Z</time></trkpt><trkpt lat="43.6061671" lon="11.4314126"><ele>269.33333333333337</ele><time>2026-04-28T16:52:20.419Z</time></trkpt><trkpt lat="43.606039" lon="11.4315883"><ele>269.6666666666667</ele><time>2026-04-28T16:52:21.419Z</time></trkpt><trkpt lat="43.605917" lon="11.4317541"><ele>270.0</ele><time>2026-04-28T16:52:22.419Z</time></trkpt><trkpt lat="43.6058003" lon="11.431914"><ele>270.0</ele><time>2026-04-28T16:52:23.419Z</time></trkpt><trkpt lat="43.6057005" lon="11.4320764"><ele>270.0</ele><time>2026-04-28T16:52:24.419Z</time></trkpt><trkpt lat="43.6056411" lon="11.4322714"><ele>270.0</ele><time>2026-04-28T16:52:25.42Z</time></trkpt><trkpt lat="43.605645" lon="11.432476"><ele>269.6666666666667</ele><time>2026-04-28T16:52:26.419Z</time></trkpt><trkpt lat="43.6056964" lon="11.4326723"><ele>269.33333333333337</ele><time>2026-04-28T16:52:27.419Z</time></trkpt><trkpt lat="43.6057858" lon="11.4328467"><ele>269.0</ele><time>2026-04-28T16:52:28.419Z</time></trkpt><trkpt lat="43.605888" lon="11.4330275"><ele>269.0</ele><time>2026-04-28T16:52:29.419Z</time></trkpt><trkpt lat="43.6059823" lon="11.4332168"><ele>269.0</ele><time>2026-04-28T16:52:30.419Z</time></trkpt><trkpt lat="43.6060738" lon="11.4334195"><ele>269.0</ele><time>2026-04-28T16:52:31.419Z</time></trkpt><trkpt lat="43.6061737" lon="11.4336198"><ele>269.0</ele><time>2026-04-28T16:52:32.419Z</time></trkpt><trkpt lat="43.6062736" lon="11.4338273"><ele>269.0</ele><time>2026-04-28T16:52:33.419Z</time></trkpt><trkpt lat="43.6063705" lon="11.4340413"><ele>269.0</ele><time>2026-04-28T16:52:34.419Z</time></trkpt><trkpt lat="43.6064655" lon="11.434257"><ele>269.0</ele><time>2026-04-28T16:52:35.419Z</time></trkpt><trkpt lat="43.6065675" lon="11.4344703"><ele>269.0</ele><time>2026-04-28T16:52:36.419Z</time></trkpt><trkpt lat="43.6066686" lon="11.4346765"><ele>269.0</ele><time>2026-04-28T16:52:37.419Z</time></trkpt><trkpt lat="43.6067647" lon="11.4348915"><ele>269.0</ele><time>2026-04-28T16:52:38.419Z</time></trkpt><trkpt lat="43.6068626" lon="11.4351082"><ele>269.0</ele><time>2026-04-28T16:52:39.42Z</time></trkpt><trkpt lat="43.6069644" lon="11.4353139"><ele>269.0</ele><time>2026-04-28T16:52:40.419Z</time></trkpt><trkpt lat="43.6070621" lon="11.4355132"><ele>267.6666666666667</ele><time>2026-04-28T16:52:41.419Z</time></trkpt><trkpt lat="43.6071494" lon="11.4357085"><ele>266.3333333333333</ele><time>2026-04-28T16:52:42.419Z</time></trkpt><trkpt lat="43.607232" lon="11.4359052"><ele>265.0</ele><time>2026-04-28T16:52:43.419Z</time></trkpt><trkpt lat="43.6073159" lon="11.4360949"><ele>265.0</ele><time>2026-04-28T16:52:44.419Z</time></trkpt><trkpt lat="43.6074002" lon="11.4362823"><ele>265.0</ele><time>2026-04-28T16:52:45.419Z</time></trkpt><trkpt lat="43.6074861" lon="11.4364543"><ele>265.0</ele><time>2026-04-28T16:52:46.419Z</time></trkpt><trkpt lat="43.6075799" lon="11.4366196"><ele>265.0</ele><time>2026-04-28T16:52:47.419Z</time></trkpt><trkpt lat="43.6076865" lon="11.4367584"><ele>265.0</ele><time>2026-04-28T16:52:48.419Z</time></trkpt><trkpt lat="43.607808" lon="11.4368825"><ele>265.0</ele><time>2026-04-28T16:52:49.419Z</time></trkpt><trkpt lat="43.6079424" lon="11.4369873"><ele>263.0</ele><time>2026-04-28T16:52:50.419Z</time></trkpt><trkpt lat="43.6080848" lon="11.4370753"><ele>261.0</ele><time>2026-04-28T16:52:51.419Z</time></trkpt><trkpt lat="43.6082406" lon="11.4371536"><ele>259.0</ele><time>2026-04-28T16:52:52.419Z</time></trkpt><trkpt lat="43.6083984" lon="11.4372408"><ele>259.0</ele><time>2026-04-28T16:52:53.419Z</time></trkpt><trkpt lat="43.6085489" lon="11.4373494"><ele>259.0</ele><time>2026-04-28T16:52:54.419Z</time></trkpt><trkpt lat="43.6086979" lon="11.4374798"><ele>259.0</ele><time>2026-04-28T16:52:55.419Z</time></trkpt><trkpt lat="43.6088306" lon="11.4376276"><ele>258.0</ele><time>2026-04-28T16:52:56.419Z</time></trkpt><trkpt lat="43.6089476" lon="11.437802"><ele>257.0</ele><time>2026-04-28T16:52:57.419Z</time></trkpt><trkpt lat="43.6090535" lon="11.4379803"><ele>256.0</ele><time>2026-04-28T16:52:58.419Z</time></trkpt><trkpt lat="43.6091528" lon="11.4381643"><ele>255.66666666666666</ele><time>2026-04-28T16:52:59.419Z</time></trkpt><trkpt lat="43.609268" lon="11.4383339"><ele>255.33333333333331</ele><time>2026-04-28T16:53:00.419Z</time></trkpt><trkpt lat="43.6093792" lon="11.4385127"><ele>255.0</ele><time>2026-04-28T16:53:01.419Z</time></trkpt><trkpt lat="43.6094939" lon="11.4386876"><ele>253.66666666666669</ele><time>2026-04-28T16:53:02.419Z</time></trkpt><trkpt lat="43.6096122" lon="11.4388614"><ele>252.33333333333334</ele><time>2026-04-28T16:53:03.42Z</time></trkpt><trkpt lat="43.6097447" lon="11.4390143"><ele>251.0</ele><time>2026-04-28T16:53:04.419Z</time></trkpt><trkpt lat="43.6098827" lon="11.4391373"><ele>251.0</ele><time>2026-04-28T16:53:05.419Z</time></trkpt><trkpt lat="43.6100287" lon="11.4392418"><ele>251.0</ele><time>2026-04-28T16:53:06.419Z</time></trkpt><trkpt lat="43.6101748" lon="11.4393293"><ele>251.0</ele><time>2026-04-28T16:53:07.419Z</time></trkpt><trkpt lat="43.6103167" lon="11.4394057"><ele>251.25</ele><time>2026-04-28T16:53:08.419Z</time></trkpt><trkpt lat="43.6104568" lon="11.4394873"><ele>251.5</ele><time>2026-04-28T16:53:09.419Z</time></trkpt><trkpt lat="43.6105884" lon="11.4395717"><ele>251.75</ele><time>2026-04-28T16:53:10.419Z</time></trkpt><trkpt lat="43.6107067" lon="11.439683"><ele>252.0</ele><time>2026-04-28T16:53:11.419Z</time></trkpt><trkpt lat="43.6108063" lon="11.4398329"><ele>252.0</ele><time>2026-04-28T16:53:12.419Z</time></trkpt><trkpt lat="43.6108918" lon="11.4399999"><ele>252.0</ele><time>2026-04-28T16:53:13.419Z</time></trkpt><trkpt lat="43.6109528" lon="11.4401875"><ele>252.0</ele><time>2026-04-28T16:53:14.419Z</time></trkpt><trkpt lat="43.6109936" lon="11.4403891"><ele>252.0</ele><time>2026-04-28T16:53:15.419Z</time></trkpt><trkpt lat="43.6110266" lon="11.4406068"><ele>251.66666666666669</ele><time>2026-04-28T16:53:16.42Z</time></trkpt><trkpt lat="43.6110448" lon="11.4408169"><ele>251.33333333333334</ele><time>2026-04-28T16:53:17.42Z</time></trkpt><trkpt lat="43.6110625" lon="11.4410406"><ele>251.0</ele><time>2026-04-28T16:53:18.419Z</time></trkpt><trkpt lat="43.61109" lon="11.4412563"><ele>250.66666666666669</ele><time>2026-04-28T16:53:19.419Z</time></trkpt><trkpt lat="43.6111242" lon="11.4414862"><ele>250.33333333333331</ele><time>2026-04-28T16:53:20.419Z</time></trkpt><trkpt lat="43.6111576" lon="11.4417115"><ele>250.0</ele><time>2026-04-28T16:53:21.419Z</time></trkpt><trkpt lat="43.6111931" lon="11.4419284"><ele>248.66666666666666</ele><time>2026-04-28T16:53:22.419Z</time></trkpt><trkpt lat="43.6112502" lon="11.442132"><ele>247.33333333333331</ele><time>2026-04-28T16:53:23.419Z</time></trkpt><trkpt lat="43.6113183" lon="11.4423246"><ele>246.0</ele><time>2026-04-28T16:53:24.419Z</time></trkpt><trkpt lat="43.6113904" lon="11.4425085"><ele>246.0</ele><time>2026-04-28T16:53:25.42Z</time></trkpt><trkpt lat="43.61148" lon="11.4426832"><ele>246.0</ele><time>2026-04-28T16:53:26.42Z</time></trkpt><trkpt lat="43.6115605" lon="11.4428624"><ele>246.0</ele><time>2026-04-28T16:53:27.419Z</time></trkpt><trkpt lat="43.6116242" lon="11.4430472"><ele>244.75</ele><time>2026-04-28T16:53:28.419Z</time></trkpt><trkpt lat="43.6116634" lon="11.4432437"><ele>243.5</ele><time>2026-04-28T16:53:29.42Z</time></trkpt><trkpt lat="43.6116804" lon="11.4434422"><ele>242.25</ele><time>2026-04-28T16:53:30.419Z</time></trkpt><trkpt lat="43.6116948" lon="11.4436456"><ele>241.0</ele><time>2026-04-28T16:53:31.419Z</time></trkpt><trkpt lat="43.6117089" lon="11.4438428"><ele>239.75</ele><time>2026-04-28T16:53:32.419Z</time></trkpt><trkpt lat="43.6117305" lon="11.4440447"><ele>238.5</ele><time>2026-04-28T16:53:33.419Z</time></trkpt><trkpt lat="43.6117604" lon="11.444233"><ele>237.25</ele><time>2026-04-28T16:53:34.419Z</time></trkpt><trkpt lat="43.6118221" lon="11.4444077"><ele>236.0</ele><time>2026-04-28T16:53:35.419Z</time></trkpt><trkpt lat="43.6119238" lon="11.4445483"><ele>234.75</ele><time>2026-04-28T16:53:36.42Z</time></trkpt><trkpt lat="43.6120438" lon="11.4446638"><ele>233.5</ele><time>2026-04-28T16:53:37.419Z</time></trkpt><trkpt lat="43.6121586" lon="11.4447759"><ele>232.25</ele><time>2026-04-28T16:53:38.419Z</time></trkpt><trkpt lat="43.6122682" lon="11.4448903"><ele>231.0</ele><time>2026-04-28T16:53:39.419Z</time></trkpt><trkpt lat="43.6123652" lon="11.4450139"><ele>231.0</ele><time>2026-04-28T16:53:40.419Z</time></trkpt><trkpt lat="43.6124584" lon="11.4451375"><ele>231.0</ele><time>2026-04-28T16:53:41.419Z</time></trkpt><trkpt lat="43.6125675" lon="11.4452483"><ele>231.0</ele><time>2026-04-28T16:53:42.419Z</time></trkpt><trkpt lat="43.6126807" lon="11.4453276"><ele>231.0</ele><time>2026-04-28T16:53:43.419Z</time></trkpt><trkpt lat="43.6128004" lon="11.4453861"><ele>230.25</ele><time>2026-04-28T16:53:44.419Z</time></trkpt><trkpt lat="43.6129247" lon="11.4454372"><ele>229.5</ele><time>2026-04-28T16:53:45.42Z</time></trkpt><trkpt lat="43.6130555" lon="11.4454962"><ele>228.75</ele><time>2026-04-28T16:53:46.419Z</time></trkpt><trkpt lat="43.6131726" lon="11.4455803"><ele>228.0</ele><time>2026-04-28T16:53:47.419Z</time></trkpt><trkpt lat="43.6132742" lon="11.4456785"><ele>228.0</ele><time>2026-04-28T16:53:48.419Z</time></trkpt><trkpt lat="43.6133745" lon="11.4457832"><ele>228.0</ele><time>2026-04-28T16:53:49.419Z</time></trkpt><trkpt lat="43.6134831" lon="11.4458859"><ele>228.0</ele><time>2026-04-28T16:53:50.42Z</time></trkpt><trkpt lat="43.6136001" lon="11.4459713"><ele>228.0</ele><time>2026-04-28T16:53:51.419Z</time></trkpt><trkpt lat="43.6137255" lon="11.4460337"><ele>228.75</ele><time>2026-04-28T16:53:52.419Z</time></trkpt><trkpt lat="43.6138474" lon="11.4460868"><ele>229.5</ele><time>2026-04-28T16:53:53.419Z</time></trkpt><trkpt lat="43.6139621" lon="11.4461492"><ele>230.25</ele><time>2026-04-28T16:53:54.419Z</time></trkpt><trkpt lat="43.6140825" lon="11.4462334"><ele>231.0</ele><time>2026-04-28T16:53:55.419Z</time></trkpt><trkpt lat="43.6142054" lon="11.4463119"><ele>226.75</ele><time>2026-04-28T16:53:56.419Z</time></trkpt><trkpt lat="43.6143314" lon="11.4463653"><ele>222.5</ele><time>2026-04-28T16:53:57.419Z</time></trkpt><trkpt lat="43.6144514" lon="11.4463706"><ele>218.25</ele><time>2026-04-28T16:53:58.419Z</time></trkpt><trkpt lat="43.6145783" lon="11.446339"><ele>214.0</ele><time>2026-04-28T16:53:59.42Z</time></trkpt><trkpt lat="43.6147056" lon="11.4463035"><ele>214.0</ele><time>2026-04-28T16:54:00.419Z</time></trkpt><trkpt lat="43.6148229" lon="11.4462823"><ele>214.0</ele><time>2026-04-28T16:54:01.419Z</time></trkpt><trkpt lat="43.6149437" lon="11.4462786"><ele>214.0</ele><time>2026-04-28T16:54:02.419Z</time></trkpt><trkpt lat="43.6150539" lon="11.4463471"><ele>214.0</ele><time>2026-04-28T16:54:03.419Z</time></trkpt><trkpt lat="43.6151395" lon="11.4464606"><ele>214.0</ele><time>2026-04-28T16:54:04.419Z</time></trkpt><trkpt lat="43.6151954" lon="11.4466141"><ele>214.0</ele><time>2026-04-28T16:54:05.42Z</time></trkpt><trkpt lat="43.6152538" lon="11.4467613"><ele>214.0</ele><time>2026-04-28T16:54:06.419Z</time></trkpt><trkpt lat="43.6153109" lon="11.446902"><ele>214.0</ele><time>2026-04-28T16:54:07.419Z</time></trkpt><trkpt lat="43.61538" lon="11.4470294"><ele>213.0</ele><time>2026-04-28T16:54:08.419Z</time></trkpt><trkpt lat="43.6154783" lon="11.4471312"><ele>212.0</ele><time>2026-04-28T16:54:09.419Z</time></trkpt><trkpt lat="43.6155747" lon="11.4472282"><ele>211.0</ele><time>2026-04-28T16:54:10.419Z</time></trkpt><trkpt lat="43.6156652" lon="11.4473295"><ele>210.0</ele><time>2026-04-28T16:54:11.419Z</time></trkpt><trkpt lat="43.6157449" lon="11.4474545"><ele>210.0</ele><time>2026-04-28T16:54:12.419Z</time></trkpt><trkpt lat="43.615812" lon="11.4475918"><ele>210.0</ele><time>2026-04-28T16:54:13.419Z</time></trkpt><trkpt lat="43.6158867" lon="11.4477345"><ele>210.0</ele><time>2026-04-28T16:54:14.419Z</time></trkpt><trkpt lat="43.6159652" lon="11.4478712"><ele>210.0</ele><time>2026-04-28T16:54:15.419Z</time></trkpt><trkpt lat="43.6160525" lon="11.4479897"><ele>212.0</ele><time>2026-04-28T16:54:16.419Z</time></trkpt><trkpt lat="43.6161412" lon="11.4481007"><ele>214.0</ele><time>2026-04-28T16:54:17.419Z</time></trkpt><trkpt lat="43.6162403" lon="11.448208"><ele>216.0</ele><time>2026-04-28T16:54:18.419Z</time></trkpt><trkpt lat="43.6163336" lon="11.4483133"><ele>218.0</ele><time>2026-04-28T16:54:19.419Z</time></trkpt><trkpt lat="43.6164333" lon="11.4484179"><ele>218.0</ele><time>2026-04-28T16:54:20.419Z</time></trkpt><trkpt lat="43.6165247" lon="11.4485343"><ele>218.0</ele><time>2026-04-28T16:54:21.419Z</time></trkpt><trkpt lat="43.6166059" lon="11.4486699"><ele>218.0</ele><time>2026-04-28T16:54:22.419Z</time></trkpt><trkpt lat="43.6166748" lon="11.4488208"><ele>218.0</ele><time>2026-04-28T16:54:23.419Z</time></trkpt><trkpt lat="43.6167115" lon="11.4489932"><ele>215.0</ele><time>2026-04-28T16:54:24.419Z</time></trkpt><trkpt lat="43.6166998" lon="11.4491674"><ele>212.0</ele><time>2026-04-28T16:54:25.42Z</time></trkpt><trkpt lat="43.6166477" lon="11.4493302"><ele>209.0</ele><time>2026-04-28T16:54:26.419Z</time></trkpt><trkpt lat="43.6165525" lon="11.4494569"><ele>206.0</ele><time>2026-04-28T16:54:27.419Z</time></trkpt><trkpt lat="43.6164618" lon="11.4495806"><ele>203.75</ele><time>2026-04-28T16:54:28.419Z</time></trkpt><trkpt lat="43.6163875" lon="11.4497252"><ele>201.5</ele><time>2026-04-28T16:54:29.419Z</time></trkpt><trkpt lat="43.6163585" lon="11.4498789"><ele>199.25</ele><time>2026-04-28T16:54:30.419Z</time></trkpt><trkpt lat="43.6163813" lon="11.4500374"><ele>197.0</ele><time>2026-04-28T16:54:31.419Z</time></trkpt><trkpt lat="43.6164577" lon="11.4501821"><ele>197.0</ele><time>2026-04-28T16:54:32.419Z</time></trkpt><trkpt lat="43.6165586" lon="11.4502808"><ele>197.0</ele><time>2026-04-28T16:54:33.419Z</time></trkpt><trkpt lat="43.6166694" lon="11.4503448"><ele>197.0</ele><time>2026-04-28T16:54:34.419Z</time></trkpt><trkpt lat="43.6167828" lon="11.4503777"><ele>197.0</ele><time>2026-04-28T16:54:35.419Z</time></trkpt><trkpt lat="43.6168964" lon="11.4504012"><ele>198.25</ele><time>2026-04-28T16:54:36.419Z</time></trkpt><trkpt lat="43.6170072" lon="11.4504724"><ele>199.5</ele><time>2026-04-28T16:54:37.419Z</time></trkpt><trkpt lat="43.6170869" lon="11.4505879"><ele>200.75</ele><time>2026-04-28T16:54:38.419Z</time></trkpt><trkpt lat="43.6171347" lon="11.4507338"><ele>202.0</ele><time>2026-04-28T16:54:39.419Z</time></trkpt><trkpt lat="43.6171398" lon="11.4509125"><ele>202.0</ele><time>2026-04-28T16:54:40.419Z</time></trkpt><trkpt lat="43.6171306" lon="11.4510758"><ele>202.0</ele><time>2026-04-28T16:54:41.419Z</time></trkpt><trkpt lat="43.6171273" lon="11.451243"><ele>202.0</ele><time>2026-04-28T16:54:42.419Z</time></trkpt><trkpt lat="43.6171244" lon="11.4514084"><ele>202.0</ele><time>2026-04-28T16:54:43.419Z</time></trkpt><trkpt lat="43.6171464" lon="11.4515596"><ele>199.5</ele><time>2026-04-28T16:54:44.419Z</time></trkpt><trkpt lat="43.6172078" lon="11.451693"><ele>197.0</ele><time>2026-04-28T16:54:45.419Z</time></trkpt><trkpt lat="43.6172961" lon="11.4518021"><ele>194.5</ele><time>2026-04-28T16:54:46.419Z</time></trkpt><trkpt lat="43.6173904" lon="11.4518982"><ele>192.0</ele><time>2026-04-28T16:54:47.419Z</time></trkpt><trkpt lat="43.6174658" lon="11.4520125"><ele>192.0</ele><time>2026-04-28T16:54:48.419Z</time></trkpt><trkpt lat="43.6174788" lon="11.4521735"><ele>192.0</ele><time>2026-04-28T16:54:49.419Z</time></trkpt><trkpt lat="43.6174195" lon="11.4522998"><ele>192.0</ele><time>2026-04-28T16:54:50.419Z</time></trkpt><trkpt lat="43.6173357" lon="11.4524015"><ele>192.0</ele><time>2026-04-28T16:54:51.419Z</time></trkpt><trkpt lat="43.6172247" lon="11.4524954"><ele>192.0</ele><time>2026-04-28T16:54:52.419Z</time></trkpt><trkpt lat="43.617127" lon="11.4525762"><ele>192.0</ele><time>2026-04-28T16:54:53.419Z</time></trkpt><trkpt lat="43.6170276" lon="11.4526711"><ele>192.0</ele><time>2026-04-28T16:54:54.419Z</time></trkpt><trkpt lat="43.616936" lon="11.452768"><ele>192.0</ele><time>2026-04-28T16:54:55.419Z</time></trkpt><trkpt lat="43.6168446" lon="11.4528616"><ele>190.2</ele><time>2026-04-28T16:54:56.419Z</time></trkpt><trkpt lat="43.6167551" lon="11.4529569"><ele>188.39999999999998</ele><time>2026-04-28T16:54:57.419Z</time></trkpt><trkpt lat="43.6166663" lon="11.4530529"><ele>186.60000000000002</ele><time>2026-04-28T16:54:58.419Z</time></trkpt><trkpt lat="43.6165817" lon="11.4531476"><ele>184.8</ele><time>2026-04-28T16:54:59.419Z</time></trkpt><trkpt lat="43.6165329" lon="11.4532672"><ele>183.0</ele><time>2026-04-28T16:55:00.419Z</time></trkpt><trkpt lat="43.6165051" lon="11.4534449"><ele>183.0</ele><time>2026-04-28T16:55:01.419Z</time></trkpt><trkpt lat="43.6164942" lon="11.4536071"><ele>183.0</ele><time>2026-04-28T16:55:02.419Z</time></trkpt><trkpt lat="43.6165442" lon="11.4537608"><ele>183.0</ele><time>2026-04-28T16:55:03.419Z</time></trkpt><trkpt lat="43.6165957" lon="11.4539279"><ele>183.0</ele><time>2026-04-28T16:55:04.419Z</time></trkpt><trkpt lat="43.6166206" lon="11.4540926"><ele>180.5</ele><time>2026-04-28T16:55:05.419Z</time></trkpt><trkpt lat="43.6166066" lon="11.4542592"><ele>178.0</ele><time>2026-04-28T16:55:06.419Z</time></trkpt><trkpt lat="43.6165789" lon="11.454419"><ele>175.5</ele><time>2026-04-28T16:55:07.419Z</time></trkpt><trkpt lat="43.6165388" lon="11.4545686"><ele>173.0</ele><time>2026-04-28T16:55:08.419Z</time></trkpt><trkpt lat="43.6165021" lon="11.4547173"><ele>170.75</ele><time>2026-04-28T16:55:09.419Z</time></trkpt><trkpt lat="43.6164873" lon="11.4548711"><ele>168.5</ele><time>2026-04-28T16:55:10.419Z</time></trkpt><trkpt lat="43.616511" lon="11.455025"><ele>166.25</ele><time>2026-04-28T16:55:11.419Z</time></trkpt><trkpt lat="43.6165683" lon="11.4551617"><ele>164.0</ele><time>2026-04-28T16:55:12.42Z</time></trkpt><trkpt lat="43.6166565" lon="11.4552637"><ele>164.0</ele><time>2026-04-28T16:55:13.419Z</time></trkpt><trkpt lat="43.6167648" lon="11.4553112"><ele>164.0</ele><time>2026-04-28T16:55:14.419Z</time></trkpt><trkpt lat="43.6168835" lon="11.4553085"><ele>164.0</ele><time>2026-04-28T16:55:15.419Z</time></trkpt><trkpt lat="43.6169873" lon="11.4552607"><ele>164.0</ele><time>2026-04-28T16:55:16.419Z</time></trkpt><trkpt lat="43.6170808" lon="11.4551812"><ele>163.79999999999998</ele><time>2026-04-28T16:55:17.42Z</time></trkpt><trkpt lat="43.6171632" lon="11.455084"><ele>163.6</ele><time>2026-04-28T16:55:18.419Z</time></trkpt><trkpt lat="43.6172501" lon="11.4549854"><ele>163.4</ele><time>2026-04-28T16:55:19.419Z</time></trkpt><trkpt lat="43.6173368" lon="11.4548908"><ele>163.2</ele><time>2026-04-28T16:55:20.419Z</time></trkpt><trkpt lat="43.6174233" lon="11.4547971"><ele>163.0</ele><time>2026-04-28T16:55:21.419Z</time></trkpt><trkpt lat="43.6175185" lon="11.4547343"><ele>163.0</ele><time>2026-04-28T16:55:22.42Z</time></trkpt><trkpt lat="43.6176314" lon="11.4547551"><ele>163.0</ele><time>2026-04-28T16:55:23.419Z</time></trkpt><trkpt lat="43.6177302" lon="11.4548388"><ele>163.0</ele><time>2026-04-28T16:55:24.42Z</time></trkpt><trkpt lat="43.6177754" lon="11.4549747"><ele>163.0</ele><time>2026-04-28T16:55:25.419Z</time></trkpt><trkpt lat="43.6177915" lon="11.4551275"><ele>163.0</ele><time>2026-04-28T16:55:26.419Z</time></trkpt><trkpt lat="43.6177921" lon="11.4552823"><ele>163.0</ele><time>2026-04-28T16:55:27.419Z</time></trkpt><trkpt lat="43.6177992" lon="11.4554281"><ele>163.0</ele><time>2026-04-28T16:55:28.419Z</time></trkpt><trkpt lat="43.6178248" lon="11.4555644"><ele>163.0</ele><time>2026-04-28T16:55:29.419Z</time></trkpt><trkpt lat="43.6178783" lon="11.4556887"><ele>163.0</ele><time>2026-04-28T16:55:30.42Z</time></trkpt><trkpt lat="43.6179469" lon="11.4558021"><ele>160.75</ele><time>2026-04-28T16:55:31.419Z</time></trkpt><trkpt lat="43.6180392" lon="11.4558963"><ele>158.5</ele><time>2026-04-28T16:55:32.419Z</time></trkpt><trkpt lat="43.6181428" lon="11.4559499"><ele>156.25</ele><time>2026-04-28T16:55:33.419Z</time></trkpt><trkpt lat="43.6182537" lon="11.4559839"><ele>154.0</ele><time>2026-04-28T16:55:34.419Z</time></trkpt><trkpt lat="43.6183661" lon="11.4560178"><ele>154.0</ele><time>2026-04-28T16:55:35.419Z</time></trkpt><trkpt lat="43.6184787" lon="11.4560652"><ele>154.0</ele><time>2026-04-28T16:55:36.419Z</time></trkpt><trkpt lat="43.6185868" lon="11.4561346"><ele>154.0</ele><time>2026-04-28T16:55:37.419Z</time></trkpt><trkpt lat="43.6186903" lon="11.4562086"><ele>154.0</ele><time>2026-04-28T16:55:38.419Z</time></trkpt><trkpt lat="43.6187929" lon="11.4562884"><ele>152.5</ele><time>2026-04-28T16:55:39.419Z</time></trkpt><trkpt lat="43.6188967" lon="11.456372"><ele>151.0</ele><time>2026-04-28T16:55:40.419Z</time></trkpt><trkpt lat="43.6190009" lon="11.4564516"><ele>149.5</ele><time>2026-04-28T16:55:41.419Z</time></trkpt><trkpt lat="43.6191078" lon="11.456532"><ele>148.0</ele><time>2026-04-28T16:55:42.419Z</time></trkpt><trkpt lat="43.6192156" lon="11.4566077"><ele>148.0</ele><time>2026-04-28T16:55:43.419Z</time></trkpt><trkpt lat="43.6193214" lon="11.4566867"><ele>148.0</ele><time>2026-04-28T16:55:44.419Z</time></trkpt><trkpt lat="43.6194275" lon="11.4567654"><ele>148.0</ele><time>2026-04-28T16:55:45.419Z</time></trkpt><trkpt lat="43.6195405" lon="11.4568396"><ele>148.0</ele><time>2026-04-28T16:55:46.42Z</time></trkpt><trkpt lat="43.6196485" lon="11.4569217"><ele>147.75</ele><time>2026-04-28T16:55:47.419Z</time></trkpt><trkpt lat="43.6197578" lon="11.457009"><ele>147.5</ele><time>2026-04-28T16:55:48.419Z</time></trkpt><trkpt lat="43.6198638" lon="11.4571038"><ele>147.25</ele><time>2026-04-28T16:55:49.419Z</time></trkpt><trkpt lat="43.6199677" lon="11.4572068"><ele>147.0</ele><time>2026-04-28T16:55:50.419Z</time></trkpt><trkpt lat="43.6200714" lon="11.4573192"><ele>145.0</ele><time>2026-04-28T16:55:51.419Z</time></trkpt><trkpt lat="43.6201716" lon="11.4574325"><ele>143.0</ele><time>2026-04-28T16:55:52.419Z</time></trkpt><trkpt lat="43.6202703" lon="11.4575487"><ele>141.0</ele><time>2026-04-28T16:55:53.419Z</time></trkpt><trkpt lat="43.6203739" lon="11.4576582"><ele>139.0</ele><time>2026-04-28T16:55:54.42Z</time></trkpt><trkpt lat="43.6204793" lon="11.4577682"><ele>138.75</ele><time>2026-04-28T16:55:55.419Z</time></trkpt><trkpt lat="43.6205832" lon="11.4578821"><ele>138.5</ele><time>2026-04-28T16:55:56.419Z</time></trkpt><trkpt lat="43.6207012" lon="11.4579717"><ele>138.25</ele><time>2026-04-28T16:55:57.42Z</time></trkpt><trkpt lat="43.6208244" lon="11.4580409"><ele>138.0</ele><time>2026-04-28T16:55:58.419Z</time></trkpt><trkpt lat="43.6209558" lon="11.4580978"><ele>136.5</ele><time>2026-04-28T16:55:59.419Z</time></trkpt><trkpt lat="43.6210888" lon="11.4581613"><ele>135.0</ele><time>2026-04-28T16:56:00.42Z</time></trkpt><trkpt lat="43.6212179" lon="11.4582408"><ele>133.5</ele><time>2026-04-28T16:56:01.419Z</time></trkpt><trkpt lat="43.6213411" lon="11.4583363"><ele>132.0</ele><time>2026-04-28T16:56:02.419Z</time></trkpt><trkpt lat="43.6214616" lon="11.4584358"><ele>131.79999999999998</ele><time>2026-04-28T16:56:03.419Z</time></trkpt><trkpt lat="43.6215783" lon="11.4585213"><ele>131.6</ele><time>2026-04-28T16:56:04.419Z</time></trkpt><trkpt lat="43.6216839" lon="11.458581"><ele>131.39999999999998</ele><time>2026-04-28T16:56:05.419Z</time></trkpt><trkpt lat="43.6217762" lon="11.4586153"><ele>131.2</ele><time>2026-04-28T16:56:06.419Z</time></trkpt><trkpt lat="43.6218726" lon="11.4586521"><ele>131.0</ele><time>2026-04-28T16:56:07.419Z</time></trkpt><trkpt lat="43.6219531" lon="11.458716"><ele>130.6</ele><time>2026-04-28T16:56:08.419Z</time></trkpt><trkpt lat="43.6220326" lon="11.4587773"><ele>130.2</ele><time>2026-04-28T16:56:09.42Z</time></trkpt><trkpt lat="43.6221135" lon="11.4588196"><ele>129.8</ele><time>2026-04-28T16:56:10.419Z</time></trkpt><trkpt lat="43.6221961" lon="11.4587858"><ele>129.4</ele><time>2026-04-28T16:56:11.419Z</time></trkpt><trkpt lat="43.6222777" lon="11.4587047"><ele>129.0</ele><time>2026-04-28T16:56:12.42Z</time></trkpt><trkpt lat="43.6223526" lon="11.4585777"><ele>129.0</ele><time>2026-04-28T16:56:13.419Z</time></trkpt><trkpt lat="43.6224427" lon="11.4584549"><ele>129.0</ele><time>2026-04-28T16:56:14.419Z</time></trkpt><trkpt lat="43.6225539" lon="11.4583549"><ele>129.0</ele><time>2026-04-28T16:56:15.42Z</time></trkpt><trkpt lat="43.6226874" lon="11.458275"><ele>129.0</ele><time>2026-04-28T16:56:16.419Z</time></trkpt><trkpt lat="43.6228243" lon="11.4582119"><ele>130.0</ele><time>2026-04-28T16:56:17.419Z</time></trkpt><trkpt lat="43.6229627" lon="11.4581609"><ele>131.0</ele><time>2026-04-28T16:56:18.419Z</time></trkpt><trkpt lat="43.6231049" lon="11.4581441"><ele>132.0</ele><time>2026-04-28T16:56:19.419Z</time></trkpt><trkpt lat="43.6232489" lon="11.4581567"><ele>133.0</ele><time>2026-04-28T16:56:20.419Z</time></trkpt><trkpt lat="43.6233954" lon="11.4581991"><ele>133.0</ele><time>2026-04-28T16:56:21.419Z</time></trkpt><trkpt lat="43.6235434" lon="11.4582593"><ele>133.0</ele><time>2026-04-28T16:56:22.419Z</time></trkpt><trkpt lat="43.6236874" lon="11.4583392"><ele>133.0</ele><time>2026-04-28T16:56:23.419Z</time></trkpt><trkpt lat="43.6238279" lon="11.4584269"><ele>135.0</ele><time>2026-04-28T16:56:24.419Z</time></trkpt><trkpt lat="43.6239662" lon="11.4585226"><ele>137.0</ele><time>2026-04-28T16:56:25.419Z</time></trkpt><trkpt lat="43.624109" lon="11.45862"><ele>139.0</ele><time>2026-04-28T16:56:26.419Z</time></trkpt><trkpt lat="43.6242575" lon="11.458706"><ele>139.0</ele><time>2026-04-28T16:56:27.419Z</time></trkpt><trkpt lat="43.6244133" lon="11.4587762"><ele>139.0</ele><time>2026-04-28T16:56:28.419Z</time></trkpt><trkpt lat="43.6245726" lon="11.4588203"><ele>139.0</ele><time>2026-04-28T16:56:29.419Z</time></trkpt><trkpt lat="43.6247302" lon="11.4588333"><ele>139.0</ele><time>2026-04-28T16:56:30.419Z</time></trkpt><trkpt lat="43.6248923" lon="11.4588164"><ele>139.0</ele><time>2026-04-28T16:56:31.419Z</time></trkpt><trkpt lat="43.625051" lon="11.4587607"><ele>139.0</ele><time>2026-04-28T16:56:32.419Z</time></trkpt><trkpt lat="43.6252088" lon="11.458685"><ele>138.33333333333334</ele><time>2026-04-28T16:56:33.419Z</time></trkpt><trkpt lat="43.6253706" lon="11.458593"><ele>137.66666666666666</ele><time>2026-04-28T16:56:34.419Z</time></trkpt><trkpt lat="43.6255316" lon="11.4584975"><ele>137.0</ele><time>2026-04-28T16:56:35.419Z</time></trkpt><trkpt lat="43.6256946" lon="11.4583977"><ele>137.0</ele><time>2026-04-28T16:56:36.419Z</time></trkpt><trkpt lat="43.6258663" lon="11.4582897"><ele>137.0</ele><time>2026-04-28T16:56:37.419Z</time></trkpt><trkpt lat="43.6260337" lon="11.4581831"><ele>137.0</ele><time>2026-04-28T16:56:38.419Z</time></trkpt><trkpt lat="43.626206" lon="11.4580779"><ele>136.0</ele><time>2026-04-28T16:56:39.419Z</time></trkpt><trkpt lat="43.6263745" lon="11.4579728"><ele>135.0</ele><time>2026-04-28T16:56:40.419Z</time></trkpt><trkpt lat="43.6265462" lon="11.4578621"><ele>134.0</ele><time>2026-04-28T16:56:41.419Z</time></trkpt><trkpt lat="43.6267202" lon="11.457753"><ele>134.66666666666666</ele><time>2026-04-28T16:56:42.419Z</time></trkpt><trkpt lat="43.6268918" lon="11.4576412"><ele>135.33333333333334</ele><time>2026-04-28T16:56:43.419Z</time></trkpt><trkpt lat="43.6270602" lon="11.4575242"><ele>136.0</ele><time>2026-04-28T16:56:44.42Z</time></trkpt><trkpt lat="43.6272266" lon="11.4574068"><ele>136.0</ele><time>2026-04-28T16:56:45.419Z</time></trkpt><trkpt lat="43.6273888" lon="11.4572897"><ele>136.0</ele><time>2026-04-28T16:56:46.419Z</time></trkpt><trkpt lat="43.6275442" lon="11.4571708"><ele>136.0</ele><time>2026-04-28T16:56:47.419Z</time></trkpt><trkpt lat="43.6276961" lon="11.457048"><ele>134.66666666666669</ele><time>2026-04-28T16:56:48.419Z</time></trkpt><trkpt lat="43.6278439" lon="11.4569284"><ele>133.33333333333334</ele><time>2026-04-28T16:56:49.419Z</time></trkpt><trkpt lat="43.6279835" lon="11.4568078"><ele>132.0</ele><time>2026-04-28T16:56:50.419Z</time></trkpt><trkpt lat="43.6281137" lon="11.4566894"><ele>132.0</ele><time>2026-04-28T16:56:51.419Z</time></trkpt><trkpt lat="43.6282265" lon="11.4565811"><ele>132.0</ele><time>2026-04-28T16:56:52.419Z</time></trkpt><trkpt lat="43.6283325" lon="11.456487"><ele>132.0</ele><time>2026-04-28T16:56:53.419Z</time></trkpt><trkpt lat="43.6284343" lon="11.4564226"><ele>132.0</ele><time>2026-04-28T16:56:54.419Z</time></trkpt><trkpt lat="43.6285262" lon="11.4563853"><ele>132.0</ele><time>2026-04-28T16:56:55.419Z</time></trkpt><trkpt lat="43.6286137" lon="11.4563589"><ele>132.0</ele><time>2026-04-28T16:56:56.419Z</time></trkpt><trkpt lat="43.6286947" lon="11.4563671"><ele>132.0</ele><time>2026-04-28T16:56:57.419Z</time></trkpt><trkpt lat="43.6287746" lon="11.4564206"><ele>132.0</ele><time>2026-04-28T16:56:58.419Z</time></trkpt><trkpt lat="43.6288316" lon="11.4565255"><ele>132.0</ele><time>2026-04-28T16:56:59.419Z</time></trkpt><trkpt lat="43.6288812" lon="11.4566655"><ele>130.75</ele><time>2026-04-28T16:57:00.419Z</time></trkpt><trkpt lat="43.628918" lon="11.4568398"><ele>129.5</ele><time>2026-04-28T16:57:01.419Z</time></trkpt><trkpt lat="43.6289525" lon="11.4570122"><ele>128.25</ele><time>2026-04-28T16:57:02.419Z</time></trkpt><trkpt lat="43.628965" lon="11.4571929"><ele>127.0</ele><time>2026-04-28T16:57:03.419Z</time></trkpt><trkpt lat="43.628968" lon="11.4573809"><ele>126.75</ele><time>2026-04-28T16:57:04.419Z</time></trkpt><trkpt lat="43.6289664" lon="11.4575726"><ele>126.5</ele><time>2026-04-28T16:57:05.419Z</time></trkpt><trkpt lat="43.6289773" lon="11.4577722"><ele>126.25</ele><time>2026-04-28T16:57:06.419Z</time></trkpt><trkpt lat="43.6290128" lon="11.4579643"><ele>126.0</ele><time>2026-04-28T16:57:07.419Z</time></trkpt><trkpt lat="43.6290771" lon="11.4581495"><ele>125.25</ele><time>2026-04-28T16:57:08.419Z</time></trkpt><trkpt lat="43.6291391" lon="11.4583273"><ele>124.5</ele><time>2026-04-28T16:57:09.419Z</time></trkpt><trkpt lat="43.6291932" lon="11.4584978"><ele>123.75</ele><time>2026-04-28T16:57:10.419Z</time></trkpt><trkpt lat="43.6292375" lon="11.4586619"><ele>123.0</ele><time>2026-04-28T16:57:11.419Z</time></trkpt><trkpt lat="43.6292619" lon="11.4588233"><ele>122.60000000000001</ele><time>2026-04-28T16:57:12.419Z</time></trkpt><trkpt lat="43.6292591" lon="11.4589872"><ele>122.20000000000002</ele><time>2026-04-28T16:57:13.419Z</time></trkpt><trkpt lat="43.6292388" lon="11.4591391"><ele>121.8</ele><time>2026-04-28T16:57:14.419Z</time></trkpt><trkpt lat="43.629211" lon="11.4592723"><ele>121.4</ele><time>2026-04-28T16:57:15.419Z</time></trkpt><trkpt lat="43.6291943" lon="11.4593831"><ele>121.0</ele><time>2026-04-28T16:57:16.419Z</time></trkpt><trkpt lat="43.6292124" lon="11.4594872"><ele>121.00000000000001</ele><time>2026-04-28T16:57:17.419Z</time></trkpt><trkpt lat="43.6292664" lon="11.4595727"><ele>121.0</ele><time>2026-04-28T16:57:18.419Z</time></trkpt><trkpt lat="43.6293373" lon="11.4596277"><ele>121.0</ele><time>2026-04-28T16:57:19.419Z</time></trkpt><trkpt lat="43.6294219" lon="11.4596296"><ele>121.0</ele><time>2026-04-28T16:57:20.419Z</time></trkpt><trkpt lat="43.6294828" lon="11.4595871"><ele>121.00000000000001</ele><time>2026-04-28T16:57:21.419Z</time></trkpt><trkpt lat="43.6295294" lon="11.4595118"><ele>121.0</ele><time>2026-04-28T16:57:22.419Z</time></trkpt><trkpt lat="43.6295701" lon="11.459433"><ele>121.16666666666667</ele><time>2026-04-28T16:57:23.419Z</time></trkpt><trkpt lat="43.6296617" lon="11.4593333"><ele>121.33333333333334</ele><time>2026-04-28T16:57:25.419Z</time></trkpt><trkpt lat="43.6297231" lon="11.4593017"><ele>121.5</ele><time>2026-04-28T16:57:26.419Z</time></trkpt><trkpt lat="43.6297896" lon="11.4592858"><ele>121.66666666666666</ele><time>2026-04-28T16:57:27.419Z</time></trkpt><trkpt lat="43.6298615" lon="11.459267"><ele>121.83333333333333</ele><time>2026-04-28T16:57:28.419Z</time></trkpt><trkpt lat="43.6299421" lon="11.4592627"><ele>122.0</ele><time>2026-04-28T16:57:29.419Z</time></trkpt><trkpt lat="43.6300314" lon="11.4592599"><ele>122.0</ele><time>2026-04-28T16:57:30.419Z</time></trkpt><trkpt lat="43.6301366" lon="11.4592491"><ele>121.99999999999999</ele><time>2026-04-28T16:57:31.419Z</time></trkpt><trkpt lat="43.6302437" lon="11.4592268"><ele>121.99999999999999</ele><time>2026-04-28T16:57:32.419Z</time></trkpt><trkpt lat="43.6303497" lon="11.4592096"><ele>122.0</ele><time>2026-04-28T16:57:33.419Z</time></trkpt><trkpt lat="43.6304557" lon="11.4591968"><ele>122.0</ele><time>2026-04-28T16:57:34.419Z</time></trkpt><trkpt lat="43.630569" lon="11.4591806"><ele>122.0</ele><time>2026-04-28T16:57:35.42Z</time></trkpt><trkpt lat="43.6306879" lon="11.4591694"><ele>122.0</ele><time>2026-04-28T16:57:36.419Z</time></trkpt><trkpt lat="43.6308079" lon="11.4591566"><ele>122.0</ele><time>2026-04-28T16:57:37.419Z</time></trkpt><trkpt lat="43.6309279" lon="11.4591402"><ele>122.0</ele><time>2026-04-28T16:57:38.419Z</time></trkpt><trkpt lat="43.6310488" lon="11.4591255"><ele>121.75</ele><time>2026-04-28T16:57:39.419Z</time></trkpt><trkpt lat="43.6311709" lon="11.4591103"><ele>121.5</ele><time>2026-04-28T16:57:40.419Z</time></trkpt><trkpt lat="43.6312882" lon="11.4590877"><ele>121.25</ele><time>2026-04-28T16:57:41.419Z</time></trkpt><trkpt lat="43.6314023" lon="11.4590333"><ele>121.0</ele><time>2026-04-28T16:57:42.419Z</time></trkpt><trkpt lat="43.6315117" lon="11.4589583"><ele>121.0</ele><time>2026-04-28T16:57:43.42Z</time></trkpt><trkpt lat="43.6316257" lon="11.4588775"><ele>121.0</ele><time>2026-04-28T16:57:44.419Z</time></trkpt><trkpt lat="43.6317284" lon="11.4587909"><ele>121.0</ele><time>2026-04-28T16:57:45.42Z</time></trkpt><trkpt lat="43.6318208" lon="11.4587071"><ele>121.0</ele><time>2026-04-28T16:57:46.419Z</time></trkpt><trkpt lat="43.6319152" lon="11.4586278"><ele>120.83333333333334</ele><time>2026-04-28T16:57:47.42Z</time></trkpt><trkpt lat="43.6320006" lon="11.4585711"><ele>120.66666666666667</ele><time>2026-04-28T16:57:48.419Z</time></trkpt><trkpt lat="43.6320823" lon="11.4585429"><ele>120.5</ele><time>2026-04-28T16:57:49.419Z</time></trkpt><trkpt lat="43.6321506" lon="11.4585227"><ele>120.33333333333334</ele><time>2026-04-28T16:57:50.419Z</time></trkpt><trkpt lat="43.6322455" lon="11.4584885"><ele>120.16666666666667</ele><time>2026-04-28T16:57:52.419Z</time></trkpt><trkpt lat="43.6323261" lon="11.4584766"><ele>120.0</ele><time>2026-04-28T17:01:24.419Z</time></trkpt><trkpt lat="43.632363" lon="11.4583434"><ele>120.0</ele><time>2026-04-28T17:01:26.419Z</time></trkpt><trkpt lat="43.6323826" lon="11.4582105"><ele>120.0</ele><time>2026-04-28T17:01:28.419Z</time></trkpt><trkpt lat="43.6324361" lon="11.4581367"><ele>120.0</ele><time>2026-04-28T17:01:29.419Z</time></trkpt><trkpt lat="43.6325083" lon="11.4580651"><ele>120.0</ele><time>2026-04-28T17:01:30.42Z</time></trkpt><trkpt lat="43.6325831" lon="11.4579975"><ele>120.0</ele><time>2026-04-28T17:01:31.42Z</time></trkpt><trkpt lat="43.6326689" lon="11.4579314"><ele>120.0</ele><time>2026-04-28T17:01:32.419Z</time></trkpt><trkpt lat="43.632748" lon="11.4578592"><ele>120.0</ele><time>2026-04-28T17:01:33.419Z</time></trkpt><trkpt lat="43.6328378" lon="11.4577823"><ele>120.0</ele><time>2026-04-28T17:01:34.419Z</time></trkpt><trkpt lat="43.63293" lon="11.4577019"><ele>120.0</ele><time>2026-04-28T17:01:35.419Z</time></trkpt><trkpt lat="43.6330277" lon="11.4576141"><ele>120.0</ele><time>2026-04-28T17:01:36.419Z</time></trkpt><trkpt lat="43.6331362" lon="11.4575306"><ele>120.0</ele><time>2026-04-28T17:01:37.419Z</time></trkpt><trkpt lat="43.6332419" lon="11.4574389"><ele>120.0</ele><time>2026-04-28T17:01:38.419Z</time></trkpt><trkpt lat="43.6333504" lon="11.457342"><ele>120.0</ele><time>2026-04-28T17:01:39.419Z</time></trkpt><trkpt lat="43.6334583" lon="11.4572479"><ele>120.0</ele><time>2026-04-28T17:01:40.419Z</time></trkpt><trkpt lat="43.6335752" lon="11.4571524"><ele>120.25</ele><time>2026-04-28T17:01:41.419Z</time></trkpt><trkpt lat="43.6336889" lon="11.4570514"><ele>120.5</ele><time>2026-04-28T17:01:42.419Z</time></trkpt><trkpt lat="43.6338046" lon="11.4569501"><ele>120.75</ele><time>2026-04-28T17:01:43.419Z</time></trkpt><trkpt lat="43.633926" lon="11.4568494"><ele>121.0</ele><time>2026-04-28T17:01:44.42Z</time></trkpt><trkpt lat="43.6340415" lon="11.4567448"><ele>121.0</ele><time>2026-04-28T17:01:45.419Z</time></trkpt><trkpt lat="43.6341506" lon="11.4566457"><ele>121.0</ele><time>2026-04-28T17:01:46.419Z</time></trkpt><trkpt lat="43.6342612" lon="11.4565439"><ele>121.0</ele><time>2026-04-28T17:01:47.419Z</time></trkpt><trkpt lat="43.6343741" lon="11.4564445"><ele>121.0</ele><time>2026-04-28T17:01:48.419Z</time></trkpt><trkpt lat="43.6344912" lon="11.4563433"><ele>121.25</ele><time>2026-04-28T17:01:49.419Z</time></trkpt><trkpt lat="43.6346122" lon="11.4562429"><ele>121.5</ele><time>2026-04-28T17:01:50.419Z</time></trkpt><trkpt lat="43.6347308" lon="11.4561433"><ele>121.75</ele><time>2026-04-28T17:01:51.419Z</time></trkpt><trkpt lat="43.6348487" lon="11.4560512"><ele>122.0</ele><time>2026-04-28T17:01:52.419Z</time></trkpt><trkpt lat="43.6349564" lon="11.4559575"><ele>122.0</ele><time>2026-04-28T17:01:53.419Z</time></trkpt><trkpt lat="43.635054" lon="11.4558705"><ele>121.99999999999999</ele><time>2026-04-28T17:01:54.419Z</time></trkpt><trkpt lat="43.6351468" lon="11.4557861"><ele>121.99999999999999</ele><time>2026-04-28T17:01:55.419Z</time></trkpt><trkpt lat="43.6352341" lon="11.4557141"><ele>122.0</ele><time>2026-04-28T17:01:56.419Z</time></trkpt><trkpt lat="43.635308" lon="11.4556559"><ele>122.0</ele><time>2026-04-28T17:01:57.419Z</time></trkpt><trkpt lat="43.6353703" lon="11.4556056"><ele>121.66666666666666</ele><time>2026-04-28T17:01:58.419Z</time></trkpt><trkpt lat="43.6354358" lon="11.4555795"><ele>121.33333333333333</ele><time>2026-04-28T17:01:59.419Z</time></trkpt><trkpt lat="43.6355071" lon="11.455547"><ele>121.0</ele><time>2026-04-28T17:02:00.419Z</time></trkpt><trkpt lat="43.6355799" lon="11.4554885"><ele>120.66666666666666</ele><time>2026-04-28T17:02:01.419Z</time></trkpt><trkpt lat="43.635642" lon="11.4553964"><ele>120.33333333333333</ele><time>2026-04-28T17:02:02.419Z</time></trkpt><trkpt lat="43.6357119" lon="11.455299"><ele>120.0</ele><time>2026-04-28T17:02:03.419Z</time></trkpt><trkpt lat="43.63579" lon="11.4552065"><ele>120.0</ele><time>2026-04-28T17:02:04.419Z</time></trkpt><trkpt lat="43.6358793" lon="11.4551265"><ele>120.0</ele><time>2026-04-28T17:02:05.419Z</time></trkpt><trkpt lat="43.6359722" lon="11.4550507"><ele>120.0</ele><time>2026-04-28T17:02:06.419Z</time></trkpt><trkpt lat="43.6360611" lon="11.4549692"><ele>120.0</ele><time>2026-04-28T17:02:07.419Z</time></trkpt><trkpt lat="43.6361514" lon="11.4548883"><ele>120.0</ele><time>2026-04-28T17:02:08.419Z</time></trkpt><trkpt lat="43.6362447" lon="11.4548066"><ele>120.0</ele><time>2026-04-28T17:02:09.419Z</time></trkpt><trkpt lat="43.6363439" lon="11.454725"><ele>120.0</ele><time>2026-04-28T17:02:10.419Z</time></trkpt><trkpt lat="43.6364443" lon="11.4546479"><ele>120.0</ele><time>2026-04-28T17:02:11.419Z</time></trkpt><trkpt lat="43.6365513" lon="11.4545523"><ele>120.0</ele><time>2026-04-28T17:02:12.419Z</time></trkpt><trkpt lat="43.6366581" lon="11.4544529"><ele>119.75</ele><time>2026-04-28T17:02:13.419Z</time></trkpt><trkpt lat="43.636764" lon="11.4543587"><ele>119.5</ele><time>2026-04-28T17:02:14.419Z</time></trkpt><trkpt lat="43.6368697" lon="11.4542652"><ele>119.25</ele><time>2026-04-28T17:02:15.419Z</time></trkpt><trkpt lat="43.6369751" lon="11.4541635"><ele>119.0</ele><time>2026-04-28T17:02:16.419Z</time></trkpt><trkpt lat="43.6370894" lon="11.4540573"><ele>118.66666666666666</ele><time>2026-04-28T17:02:17.419Z</time></trkpt><trkpt lat="43.6372078" lon="11.4539461"><ele>118.33333333333334</ele><time>2026-04-28T17:02:18.419Z</time></trkpt><trkpt lat="43.6373327" lon="11.4538134"><ele>118.0</ele><time>2026-04-28T17:02:19.419Z</time></trkpt><trkpt lat="43.6374709" lon="11.4536818"><ele>118.0</ele><time>2026-04-28T17:02:20.419Z</time></trkpt><trkpt lat="43.6376256" lon="11.4535564"><ele>118.0</ele><time>2026-04-28T17:02:21.419Z</time></trkpt><trkpt lat="43.6377785" lon="11.4534275"><ele>118.0</ele><time>2026-04-28T17:02:22.419Z</time></trkpt><trkpt lat="43.6379372" lon="11.4533011"><ele>119.0</ele><time>2026-04-28T17:02:23.42Z</time></trkpt><trkpt lat="43.6380986" lon="11.4531684"><ele>120.0</ele><time>2026-04-28T17:02:24.419Z</time></trkpt><trkpt lat="43.6382577" lon="11.4530289"><ele>121.0</ele><time>2026-04-28T17:02:25.419Z</time></trkpt><trkpt lat="43.6384219" lon="11.4528808"><ele>121.0</ele><time>2026-04-28T17:02:26.419Z</time></trkpt><trkpt lat="43.6385831" lon="11.4527413"><ele>121.0</ele><time>2026-04-28T17:02:27.419Z</time></trkpt><trkpt lat="43.6387476" lon="11.4525971"><ele>121.0</ele><time>2026-04-28T17:02:28.419Z</time></trkpt><trkpt lat="43.6389161" lon="11.4524514"><ele>121.0</ele><time>2026-04-28T17:02:29.42Z</time></trkpt><trkpt lat="43.6390844" lon="11.452308"><ele>121.0</ele><time>2026-04-28T17:02:30.419Z</time></trkpt><trkpt lat="43.6392458" lon="11.452163"><ele>121.0</ele><time>2026-04-28T17:02:31.419Z</time></trkpt><trkpt lat="43.6394022" lon="11.45202"><ele>122.33333333333334</ele><time>2026-04-28T17:02:32.419Z</time></trkpt><trkpt lat="43.6395561" lon="11.4518849"><ele>123.66666666666666</ele><time>2026-04-28T17:02:33.419Z</time></trkpt><trkpt lat="43.6397003" lon="11.4517637"><ele>125.0</ele><time>2026-04-28T17:02:34.419Z</time></trkpt><trkpt lat="43.6398497" lon="11.4516919"><ele>125.0</ele><time>2026-04-28T17:02:35.419Z</time></trkpt><trkpt lat="43.6399973" lon="11.4516526"><ele>125.0</ele><time>2026-04-28T17:02:36.419Z</time></trkpt><trkpt lat="43.640145" lon="11.4516474"><ele>125.0</ele><time>2026-04-28T17:02:37.419Z</time></trkpt><trkpt lat="43.6402967" lon="11.4516569"><ele>124.0</ele><time>2026-04-28T17:02:38.419Z</time></trkpt><trkpt lat="43.6404569" lon="11.4516837"><ele>123.0</ele><time>2026-04-28T17:02:39.419Z</time></trkpt><trkpt lat="43.6406204" lon="11.4517318"><ele>122.0</ele><time>2026-04-28T17:02:40.419Z</time></trkpt><trkpt lat="43.6407788" lon="11.4517822"><ele>122.0</ele><time>2026-04-28T17:02:41.419Z</time></trkpt><trkpt lat="43.6409429" lon="11.4518386"><ele>122.0</ele><time>2026-04-28T17:02:42.419Z</time></trkpt><trkpt lat="43.6410867" lon="11.4519098"><ele>122.0</ele><time>2026-04-28T17:02:43.419Z</time></trkpt><trkpt lat="43.6412211" lon="11.4519941"><ele>121.75</ele><time>2026-04-28T17:02:44.419Z</time></trkpt><trkpt lat="43.6413404" lon="11.4520913"><ele>121.5</ele><time>2026-04-28T17:02:45.419Z</time></trkpt><trkpt lat="43.641432" lon="11.4521935"><ele>121.25</ele><time>2026-04-28T17:02:46.419Z</time></trkpt><trkpt lat="43.6414909" lon="11.4523142"><ele>121.0</ele><time>2026-04-28T17:02:47.419Z</time></trkpt><trkpt lat="43.6415255" lon="11.4524463"><ele>121.0</ele><time>2026-04-28T17:02:48.419Z</time></trkpt><trkpt lat="43.6415394" lon="11.4525725"><ele>121.0</ele><time>2026-04-28T17:02:49.419Z</time></trkpt><trkpt lat="43.6415714" lon="11.4526867"><ele>121.0</ele><time>2026-04-28T17:02:50.419Z</time></trkpt><trkpt lat="43.6416321" lon="11.4527733"><ele>121.0</ele><time>2026-04-28T17:02:51.419Z</time></trkpt><trkpt lat="43.6417187" lon="11.4528096"><ele>121.0</ele><time>2026-04-28T17:02:52.419Z</time></trkpt><trkpt lat="43.6418099" lon="11.4527382"><ele>121.0</ele><time>2026-04-28T17:02:53.419Z</time></trkpt><trkpt lat="43.6418845" lon="11.4526355"><ele>121.0</ele><time>2026-04-28T17:02:54.419Z</time></trkpt><trkpt lat="43.6419059" lon="11.4524862"><ele>121.0</ele><time>2026-04-28T17:02:55.419Z</time></trkpt><trkpt lat="43.6419183" lon="11.4523283"><ele>121.0</ele><time>2026-04-28T17:02:56.419Z</time></trkpt><trkpt lat="43.6419685" lon="11.4522014"><ele>121.0</ele><time>2026-04-28T17:02:57.419Z</time></trkpt><trkpt lat="43.6420564" lon="11.4520778"><ele>121.75</ele><time>2026-04-28T17:02:58.419Z</time></trkpt><trkpt lat="43.6421427" lon="11.4519428"><ele>122.5</ele><time>2026-04-28T17:02:59.42Z</time></trkpt><trkpt lat="43.642214" lon="11.4517992"><ele>123.25</ele><time>2026-04-28T17:03:00.419Z</time></trkpt><trkpt lat="43.6422655" lon="11.4516213"><ele>124.0</ele><time>2026-04-28T17:03:01.419Z</time></trkpt><trkpt lat="43.642323" lon="11.4514833"><ele>124.0</ele><time>2026-04-28T17:03:02.419Z</time></trkpt><trkpt lat="43.6424143" lon="11.451403"><ele>124.0</ele><time>2026-04-28T17:03:03.419Z</time></trkpt><trkpt lat="43.6425188" lon="11.4513911"><ele>124.0</ele><time>2026-04-28T17:03:04.419Z</time></trkpt><trkpt lat="43.6426179" lon="11.4513883"><ele>124.0</ele><time>2026-04-28T17:03:05.419Z</time></trkpt><trkpt lat="43.6426762" lon="11.4513062"><ele>124.0</ele><time>2026-04-28T17:03:06.419Z</time></trkpt><trkpt lat="43.6427036" lon="11.4511879"><ele>124.2</ele><time>2026-04-28T17:03:07.419Z</time></trkpt><trkpt lat="43.642689" lon="11.4510534"><ele>124.4</ele><time>2026-04-28T17:03:08.419Z</time></trkpt><trkpt lat="43.6426807" lon="11.4509053"><ele>124.6</ele><time>2026-04-28T17:03:09.419Z</time></trkpt><trkpt lat="43.6426669" lon="11.450763"><ele>124.8</ele><time>2026-04-28T17:03:10.419Z</time></trkpt><trkpt lat="43.6426626" lon="11.4506349"><ele>125.0</ele><time>2026-04-28T17:03:11.419Z</time></trkpt><trkpt lat="43.6426628" lon="11.4505123"><ele>125.16666666666666</ele><time>2026-04-28T17:03:12.419Z</time></trkpt><trkpt lat="43.6427065" lon="11.4504158"><ele>125.33333333333333</ele><time>2026-04-28T17:03:13.419Z</time></trkpt><trkpt lat="43.6427792" lon="11.4503453"><ele>125.5</ele><time>2026-04-28T17:03:14.419Z</time></trkpt><trkpt lat="43.6428706" lon="11.4503423"><ele>125.66666666666666</ele><time>2026-04-28T17:03:15.419Z</time></trkpt><trkpt lat="43.6429565" lon="11.4503427"><ele>125.83333333333333</ele><time>2026-04-28T17:03:16.419Z</time></trkpt><trkpt lat="43.6430367" lon="11.4503412"><ele>126.0</ele><time>2026-04-28T17:03:17.419Z</time></trkpt><trkpt lat="43.6431094" lon="11.4503426"><ele>126.0</ele><time>2026-04-28T17:03:18.419Z</time></trkpt><trkpt lat="43.6431741" lon="11.4503342"><ele>126.0</ele><time>2026-04-28T17:03:19.419Z</time></trkpt><trkpt lat="43.6432775" lon="11.4503233"><ele>126.0</ele><time>2026-04-28T17:03:21.419Z</time></trkpt><trkpt lat="43.6433458" lon="11.450253"><ele>126.0</ele><time>2026-04-28T17:03:23.42Z</time></trkpt><trkpt lat="43.6433617" lon="11.4501044"><ele>126.0</ele><time>2026-04-28T17:03:25.419Z</time></trkpt><trkpt lat="43.6434164" lon="11.4500576"><ele>126.0</ele><time>2026-04-28T17:03:26.419Z</time></trkpt><trkpt lat="43.6435076" lon="11.450052"><ele>126.0</ele><time>2026-04-28T17:03:27.419Z</time></trkpt><trkpt lat="43.643592" lon="11.450063"><ele>126.0</ele><time>2026-04-28T17:03:28.419Z</time></trkpt><trkpt lat="43.6436593" lon="11.4500708"><ele>126.0</ele><time>2026-04-28T17:03:29.419Z</time></trkpt><trkpt lat="43.6437429" lon="11.4499515"><ele>126.0</ele><time>2026-04-28T17:03:31.419Z</time></trkpt><trkpt lat="43.6437538" lon="11.4498575"><ele>126.0</ele><time>2026-04-28T17:03:32.419Z</time></trkpt><trkpt lat="43.6438435" lon="11.4497706"><ele>127.0</ele><time>2026-04-28T17:03:34.419Z</time></trkpt><trkpt lat="43.6439138" lon="11.4497586"><ele>127.0</ele><time>2026-04-28T17:03:35.419Z</time></trkpt><trkpt lat="43.6439904" lon="11.4497461"><ele>127.0</ele><time>2026-04-28T17:03:36.419Z</time></trkpt><trkpt lat="43.6440589" lon="11.4497347"><ele>127.0</ele><time>2026-04-28T17:03:37.419Z</time></trkpt><trkpt lat="43.644157" lon="11.4497288"><ele>127.0</ele><time>2026-04-28T17:03:39.419Z</time></trkpt><trkpt lat="43.6442274" lon="11.449721"><ele>127.0</ele><time>2026-04-28T17:03:42.419Z</time></trkpt></trkseg></trk></gpx>